<?xml version="1.0" encoding="UTF-8" standalone="no" ?>
<gpx xmlns="http://www.topografix.com/GPX/1/1" xmlns:xsi="http://www.w3.org/2001/XMLSchema-instance" xsi:schemaLocation="http://www.topografix.com/GPX/1/1 http://www.topografix.com/GPX/1/1/gpx.xsd" version="1.1" creator="VisuGPX - https://www.visugpx.com">
  <metadata>
    <name>Trail Affargis 24 fev 2013</name>
    <desc><![CDATA[Trail Affargis 24 fev 2013]]></desc>
  </metadata>
  <trk>
    <name><![CDATA[2013-02-24T08:32:13Z]]></name>
    <trkseg>
      <trkpt lat="48.69331" lon="1.91266">
        <ele>-41.2</ele>
        <time>2013-02-24T08:33:09Z</time>
      </trkpt>
      <trkpt lat="48.69334" lon="1.91275">
        <ele>-41.8</ele>
        <time>2013-02-24T08:33:13Z</time>
      </trkpt>
      <trkpt lat="48.69338" lon="1.91289">
        <ele>-42.2</ele>
        <time>2013-02-24T08:33:17Z</time>
      </trkpt>
      <trkpt lat="48.69339" lon="1.91295">
        <ele>-42.2</ele>
        <time>2013-02-24T08:33:20Z</time>
      </trkpt>
      <trkpt lat="48.69342" lon="1.91307">
        <ele>-42.4</ele>
        <time>2013-02-24T08:33:24Z</time>
      </trkpt>
      <trkpt lat="48.69344" lon="1.91321">
        <ele>-42.8</ele>
        <time>2013-02-24T08:33:28Z</time>
      </trkpt>
      <trkpt lat="48.69347" lon="1.91331">
        <ele>-43.4</ele>
        <time>2013-02-24T08:33:31Z</time>
      </trkpt>
      <trkpt lat="48.69353" lon="1.91345">
        <ele>-43.8</ele>
        <time>2013-02-24T08:33:35Z</time>
      </trkpt>
      <trkpt lat="48.69357" lon="1.91355">
        <ele>-44.2</ele>
        <time>2013-02-24T08:33:39Z</time>
      </trkpt>
      <trkpt lat="48.69358" lon="1.91357">
        <ele>-44.2</ele>
        <time>2013-02-24T08:33:40Z</time>
      </trkpt>
      <trkpt lat="48.6936" lon="1.91367">
        <ele>-44.4</ele>
        <time>2013-02-24T08:33:43Z</time>
      </trkpt>
      <trkpt lat="48.69367" lon="1.9138">
        <ele>-44.6</ele>
        <time>2013-02-24T08:33:48Z</time>
      </trkpt>
      <trkpt lat="48.69369" lon="1.91383">
        <ele>-44.6</ele>
        <time>2013-02-24T08:33:49Z</time>
      </trkpt>
      <trkpt lat="48.69372" lon="1.9139">
        <ele>-44.6</ele>
        <time>2013-02-24T08:33:51Z</time>
      </trkpt>
      <trkpt lat="48.69377" lon="1.91404">
        <ele>-44.6</ele>
        <time>2013-02-24T08:33:56Z</time>
      </trkpt>
      <trkpt lat="48.69379" lon="1.91406">
        <ele>-44.8</ele>
        <time>2013-02-24T08:33:57Z</time>
      </trkpt>
      <trkpt lat="48.69384" lon="1.91417">
        <ele>-44.8</ele>
        <time>2013-02-24T08:34:01Z</time>
      </trkpt>
      <trkpt lat="48.69387" lon="1.91425">
        <ele>-44.8</ele>
        <time>2013-02-24T08:34:04Z</time>
      </trkpt>
      <trkpt lat="48.6939" lon="1.91435">
        <ele>-44.8</ele>
        <time>2013-02-24T08:34:08Z</time>
      </trkpt>
      <trkpt lat="48.69392" lon="1.91446">
        <ele>-44.8</ele>
        <time>2013-02-24T08:34:12Z</time>
      </trkpt>
      <trkpt lat="48.69398" lon="1.91459">
        <ele>-44.8</ele>
        <time>2013-02-24T08:34:16Z</time>
      </trkpt>
      <trkpt lat="48.69402" lon="1.91463">
        <ele>-44.8</ele>
        <time>2013-02-24T08:34:18Z</time>
      </trkpt>
      <trkpt lat="48.69404" lon="1.91465">
        <ele>-44.8</ele>
        <time>2013-02-24T08:34:19Z</time>
      </trkpt>
      <trkpt lat="48.69406" lon="1.91467">
        <ele>-44.8</ele>
        <time>2013-02-24T08:34:20Z</time>
      </trkpt>
      <trkpt lat="48.69412" lon="1.91482">
        <ele>-44.8</ele>
        <time>2013-02-24T08:34:25Z</time>
      </trkpt>
      <trkpt lat="48.69421" lon="1.91495">
        <ele>-44.8</ele>
        <time>2013-02-24T08:34:30Z</time>
      </trkpt>
      <trkpt lat="48.69429" lon="1.91509">
        <ele>-44.8</ele>
        <time>2013-02-24T08:34:35Z</time>
      </trkpt>
      <trkpt lat="48.69433" lon="1.91513">
        <ele>-44.8</ele>
        <time>2013-02-24T08:34:38Z</time>
      </trkpt>
      <trkpt lat="48.69441" lon="1.91524">
        <ele>-45.4</ele>
        <time>2013-02-24T08:34:42Z</time>
      </trkpt>
      <trkpt lat="48.69447" lon="1.91529">
        <ele>-45.8</ele>
        <time>2013-02-24T08:34:45Z</time>
      </trkpt>
      <trkpt lat="48.69457" lon="1.91543">
        <ele>-46.2</ele>
        <time>2013-02-24T08:34:51Z</time>
      </trkpt>
      <trkpt lat="48.69462" lon="1.91554">
        <ele>-46.6</ele>
        <time>2013-02-24T08:34:56Z</time>
      </trkpt>
      <trkpt lat="48.69465" lon="1.91556">
        <ele>-46.6</ele>
        <time>2013-02-24T08:34:57Z</time>
      </trkpt>
      <trkpt lat="48.69467" lon="1.9156">
        <ele>-46.6</ele>
        <time>2013-02-24T08:34:58Z</time>
      </trkpt>
      <trkpt lat="48.69468" lon="1.91563">
        <ele>-46.6</ele>
        <time>2013-02-24T08:34:59Z</time>
      </trkpt>
      <trkpt lat="48.69469" lon="1.91566">
        <ele>-46.6</ele>
        <time>2013-02-24T08:35:00Z</time>
      </trkpt>
      <trkpt lat="48.69472" lon="1.91578">
        <ele>-46.6</ele>
        <time>2013-02-24T08:35:04Z</time>
      </trkpt>
      <trkpt lat="48.69473" lon="1.91583">
        <ele>-46.8</ele>
        <time>2013-02-24T08:35:06Z</time>
      </trkpt>
      <trkpt lat="48.69477" lon="1.9159">
        <ele>-46.8</ele>
        <time>2013-02-24T08:35:09Z</time>
      </trkpt>
      <trkpt lat="48.69478" lon="1.91593">
        <ele>-46.8</ele>
        <time>2013-02-24T08:35:10Z</time>
      </trkpt>
      <trkpt lat="48.69483" lon="1.91605">
        <ele>-46.8</ele>
        <time>2013-02-24T08:35:15Z</time>
      </trkpt>
      <trkpt lat="48.69484" lon="1.91611">
        <ele>-46.8</ele>
        <time>2013-02-24T08:35:17Z</time>
      </trkpt>
      <trkpt lat="48.6949" lon="1.91629">
        <ele>-46.8</ele>
        <time>2013-02-24T08:35:24Z</time>
      </trkpt>
      <trkpt lat="48.69495" lon="1.91644">
        <ele>-46.8</ele>
        <time>2013-02-24T08:35:30Z</time>
      </trkpt>
      <trkpt lat="48.695" lon="1.91652">
        <ele>-46.8</ele>
        <time>2013-02-24T08:35:33Z</time>
      </trkpt>
      <trkpt lat="48.69504" lon="1.91664">
        <ele>-46.8</ele>
        <time>2013-02-24T08:35:37Z</time>
      </trkpt>
      <trkpt lat="48.69507" lon="1.91672">
        <ele>-46.8</ele>
        <time>2013-02-24T08:35:40Z</time>
      </trkpt>
      <trkpt lat="48.69507" lon="1.91675">
        <ele>-46.8</ele>
        <time>2013-02-24T08:35:41Z</time>
      </trkpt>
      <trkpt lat="48.69511" lon="1.91685">
        <ele>-46.8</ele>
        <time>2013-02-24T08:35:45Z</time>
      </trkpt>
      <trkpt lat="48.69513" lon="1.91696">
        <ele>-46.8</ele>
        <time>2013-02-24T08:35:49Z</time>
      </trkpt>
      <trkpt lat="48.69517" lon="1.91709">
        <ele>-46.8</ele>
        <time>2013-02-24T08:35:54Z</time>
      </trkpt>
      <trkpt lat="48.69521" lon="1.91717">
        <ele>-46.8</ele>
        <time>2013-02-24T08:35:57Z</time>
      </trkpt>
      <trkpt lat="48.69521" lon="1.9172">
        <ele>-46.8</ele>
        <time>2013-02-24T08:35:58Z</time>
      </trkpt>
      <trkpt lat="48.69523" lon="1.91728">
        <ele>-46.8</ele>
        <time>2013-02-24T08:36:01Z</time>
      </trkpt>
      <trkpt lat="48.69528" lon="1.91742">
        <ele>-46.8</ele>
        <time>2013-02-24T08:36:06Z</time>
      </trkpt>
      <trkpt lat="48.69529" lon="1.91745">
        <ele>-46.8</ele>
        <time>2013-02-24T08:36:07Z</time>
      </trkpt>
      <trkpt lat="48.6953" lon="1.91748">
        <ele>-46.8</ele>
        <time>2013-02-24T08:36:08Z</time>
      </trkpt>
      <trkpt lat="48.69534" lon="1.91758">
        <ele>-46.8</ele>
        <time>2013-02-24T08:36:12Z</time>
      </trkpt>
      <trkpt lat="48.69539" lon="1.91768">
        <ele>-46.8</ele>
        <time>2013-02-24T08:36:16Z</time>
      </trkpt>
      <trkpt lat="48.6954" lon="1.91771">
        <ele>-46.8</ele>
        <time>2013-02-24T08:36:19Z</time>
      </trkpt>
      <trkpt lat="48.69546" lon="1.91779">
        <ele>-46.8</ele>
        <time>2013-02-24T08:36:24Z</time>
      </trkpt>
      <trkpt lat="48.69547" lon="1.91782">
        <ele>-46.8</ele>
        <time>2013-02-24T08:36:25Z</time>
      </trkpt>
      <trkpt lat="48.69548" lon="1.91784">
        <ele>-46.8</ele>
        <time>2013-02-24T08:36:27Z</time>
      </trkpt>
      <trkpt lat="48.69549" lon="1.91785">
        <ele>-46.8</ele>
        <time>2013-02-24T08:36:28Z</time>
      </trkpt>
      <trkpt lat="48.69549" lon="1.91787">
        <ele>-46.8</ele>
        <time>2013-02-24T08:36:29Z</time>
      </trkpt>
      <trkpt lat="48.69554" lon="1.91794">
        <ele>-46.8</ele>
        <time>2013-02-24T08:36:33Z</time>
      </trkpt>
      <trkpt lat="48.69557" lon="1.91801">
        <ele>-46.8</ele>
        <time>2013-02-24T08:36:37Z</time>
      </trkpt>
      <trkpt lat="48.69557" lon="1.91803">
        <ele>-46.8</ele>
        <time>2013-02-24T08:36:38Z</time>
      </trkpt>
      <trkpt lat="48.69559" lon="1.91805">
        <ele>-46.8</ele>
        <time>2013-02-24T08:36:39Z</time>
      </trkpt>
      <trkpt lat="48.69564" lon="1.91818">
        <ele>-46.8</ele>
        <time>2013-02-24T08:36:43Z</time>
      </trkpt>
      <trkpt lat="48.69564" lon="1.91821">
        <ele>-46.8</ele>
        <time>2013-02-24T08:36:44Z</time>
      </trkpt>
      <trkpt lat="48.69568" lon="1.91826">
        <ele>-46.8</ele>
        <time>2013-02-24T08:36:47Z</time>
      </trkpt>
      <trkpt lat="48.69573" lon="1.91835">
        <ele>-46.8</ele>
        <time>2013-02-24T08:36:52Z</time>
      </trkpt>
      <trkpt lat="48.69576" lon="1.91841">
        <ele>-46.8</ele>
        <time>2013-02-24T08:36:55Z</time>
      </trkpt>
      <trkpt lat="48.69577" lon="1.91843">
        <ele>-46.8</ele>
        <time>2013-02-24T08:36:56Z</time>
      </trkpt>
      <trkpt lat="48.69579" lon="1.91845">
        <ele>-46.8</ele>
        <time>2013-02-24T08:36:58Z</time>
      </trkpt>
      <trkpt lat="48.69585" lon="1.91854">
        <ele>-46.8</ele>
        <time>2013-02-24T08:37:03Z</time>
      </trkpt>
      <trkpt lat="48.69587" lon="1.91859">
        <ele>-46.8</ele>
        <time>2013-02-24T08:37:05Z</time>
      </trkpt>
      <trkpt lat="48.69593" lon="1.91868">
        <ele>-46.8</ele>
        <time>2013-02-24T08:37:09Z</time>
      </trkpt>
      <trkpt lat="48.69597" lon="1.9188">
        <ele>-46.8</ele>
        <time>2013-02-24T08:37:15Z</time>
      </trkpt>
      <trkpt lat="48.69598" lon="1.91883">
        <ele>-46.8</ele>
        <time>2013-02-24T08:37:16Z</time>
      </trkpt>
      <trkpt lat="48.69601" lon="1.91888">
        <ele>-46.8</ele>
        <time>2013-02-24T08:37:18Z</time>
      </trkpt>
      <trkpt lat="48.69603" lon="1.9189">
        <ele>-46.8</ele>
        <time>2013-02-24T08:37:19Z</time>
      </trkpt>
      <trkpt lat="48.6961" lon="1.91898">
        <ele>-46.2</ele>
        <time>2013-02-24T08:37:23Z</time>
      </trkpt>
      <trkpt lat="48.69615" lon="1.91907">
        <ele>-45.8</ele>
        <time>2013-02-24T08:37:26Z</time>
      </trkpt>
      <trkpt lat="48.69617" lon="1.91909">
        <ele>-45.6</ele>
        <time>2013-02-24T08:37:27Z</time>
      </trkpt>
      <trkpt lat="48.6962" lon="1.91913">
        <ele>-45.4</ele>
        <time>2013-02-24T08:37:29Z</time>
      </trkpt>
      <trkpt lat="48.69625" lon="1.91922">
        <ele>-45.2</ele>
        <time>2013-02-24T08:37:34Z</time>
      </trkpt>
      <trkpt lat="48.69628" lon="1.91926">
        <ele>-45.2</ele>
        <time>2013-02-24T08:37:36Z</time>
      </trkpt>
      <trkpt lat="48.69633" lon="1.91935">
        <ele>-45</ele>
        <time>2013-02-24T08:37:40Z</time>
      </trkpt>
      <trkpt lat="48.69635" lon="1.91937">
        <ele>-45</ele>
        <time>2013-02-24T08:37:42Z</time>
      </trkpt>
      <trkpt lat="48.6964" lon="1.91941">
        <ele>-44.8</ele>
        <time>2013-02-24T08:37:47Z</time>
      </trkpt>
      <trkpt lat="48.69643" lon="1.91942">
        <ele>-44.8</ele>
        <time>2013-02-24T08:37:49Z</time>
      </trkpt>
      <trkpt lat="48.69644" lon="1.91943">
        <ele>-44.8</ele>
        <time>2013-02-24T08:37:50Z</time>
      </trkpt>
      <trkpt lat="48.69646" lon="1.91944">
        <ele>-44.8</ele>
        <time>2013-02-24T08:37:51Z</time>
      </trkpt>
      <trkpt lat="48.69648" lon="1.91945">
        <ele>-44.8</ele>
        <time>2013-02-24T08:37:52Z</time>
      </trkpt>
      <trkpt lat="48.69652" lon="1.9195">
        <ele>-44.8</ele>
        <time>2013-02-24T08:37:55Z</time>
      </trkpt>
      <trkpt lat="48.69658" lon="1.91951">
        <ele>-44.8</ele>
        <time>2013-02-24T08:37:58Z</time>
      </trkpt>
      <trkpt lat="48.6966" lon="1.91951">
        <ele>-44.8</ele>
        <time>2013-02-24T08:37:59Z</time>
      </trkpt>
      <trkpt lat="48.69661" lon="1.91951">
        <ele>-44.8</ele>
        <time>2013-02-24T08:38:00Z</time>
      </trkpt>
      <trkpt lat="48.69663" lon="1.91954">
        <ele>-44.8</ele>
        <time>2013-02-24T08:38:01Z</time>
      </trkpt>
      <trkpt lat="48.69671" lon="1.9196">
        <ele>-44.8</ele>
        <time>2013-02-24T08:38:05Z</time>
      </trkpt>
      <trkpt lat="48.69674" lon="1.91961">
        <ele>-44.8</ele>
        <time>2013-02-24T08:38:06Z</time>
      </trkpt>
      <trkpt lat="48.69678" lon="1.91964">
        <ele>-44.8</ele>
        <time>2013-02-24T08:38:08Z</time>
      </trkpt>
      <trkpt lat="48.69679" lon="1.91964">
        <ele>-44.8</ele>
        <time>2013-02-24T08:38:09Z</time>
      </trkpt>
      <trkpt lat="48.69688" lon="1.91972">
        <ele>-44.8</ele>
        <time>2013-02-24T08:38:14Z</time>
      </trkpt>
      <trkpt lat="48.6969" lon="1.91974">
        <ele>-44.8</ele>
        <time>2013-02-24T08:38:15Z</time>
      </trkpt>
      <trkpt lat="48.69693" lon="1.91976">
        <ele>-44.8</ele>
        <time>2013-02-24T08:38:18Z</time>
      </trkpt>
      <trkpt lat="48.69697" lon="1.91979">
        <ele>-44.8</ele>
        <time>2013-02-24T08:38:20Z</time>
      </trkpt>
      <trkpt lat="48.69705" lon="1.91983">
        <ele>-44.8</ele>
        <time>2013-02-24T08:38:23Z</time>
      </trkpt>
      <trkpt lat="48.69708" lon="1.91984">
        <ele>-44.8</ele>
        <time>2013-02-24T08:38:24Z</time>
      </trkpt>
      <trkpt lat="48.69712" lon="1.91986">
        <ele>-44.8</ele>
        <time>2013-02-24T08:38:26Z</time>
      </trkpt>
      <trkpt lat="48.69724" lon="1.91995">
        <ele>-44.8</ele>
        <time>2013-02-24T08:38:32Z</time>
      </trkpt>
      <trkpt lat="48.69734" lon="1.92004">
        <ele>-44.8</ele>
        <time>2013-02-24T08:38:36Z</time>
      </trkpt>
      <trkpt lat="48.69743" lon="1.9201">
        <ele>-44.8</ele>
        <time>2013-02-24T08:38:40Z</time>
      </trkpt>
      <trkpt lat="48.69749" lon="1.92012">
        <ele>-44.8</ele>
        <time>2013-02-24T08:38:42Z</time>
      </trkpt>
      <trkpt lat="48.69752" lon="1.92012">
        <ele>-44.8</ele>
        <time>2013-02-24T08:38:43Z</time>
      </trkpt>
      <trkpt lat="48.69763" lon="1.92018">
        <ele>-44.8</ele>
        <time>2013-02-24T08:38:47Z</time>
      </trkpt>
      <trkpt lat="48.69769" lon="1.92025">
        <ele>-44.8</ele>
        <time>2013-02-24T08:38:50Z</time>
      </trkpt>
      <trkpt lat="48.6977" lon="1.92027">
        <ele>-44.8</ele>
        <time>2013-02-24T08:38:51Z</time>
      </trkpt>
      <trkpt lat="48.69774" lon="1.9203">
        <ele>-44.8</ele>
        <time>2013-02-24T08:38:53Z</time>
      </trkpt>
      <trkpt lat="48.69776" lon="1.92032">
        <ele>-44.8</ele>
        <time>2013-02-24T08:38:54Z</time>
      </trkpt>
      <trkpt lat="48.69783" lon="1.92036">
        <ele>-44.8</ele>
        <time>2013-02-24T08:38:57Z</time>
      </trkpt>
      <trkpt lat="48.69784" lon="1.92037">
        <ele>-44.8</ele>
        <time>2013-02-24T08:38:58Z</time>
      </trkpt>
      <trkpt lat="48.69786" lon="1.92039">
        <ele>-44.8</ele>
        <time>2013-02-24T08:38:59Z</time>
      </trkpt>
      <trkpt lat="48.69796" lon="1.92042">
        <ele>-44.8</ele>
        <time>2013-02-24T08:39:04Z</time>
      </trkpt>
      <trkpt lat="48.69797" lon="1.92042">
        <ele>-44.8</ele>
        <time>2013-02-24T08:39:05Z</time>
      </trkpt>
      <trkpt lat="48.69799" lon="1.92042">
        <ele>-44.8</ele>
        <time>2013-02-24T08:39:06Z</time>
      </trkpt>
      <trkpt lat="48.69808" lon="1.9205">
        <ele>-44.8</ele>
        <time>2013-02-24T08:39:11Z</time>
      </trkpt>
      <trkpt lat="48.6981" lon="1.92051">
        <ele>-44.8</ele>
        <time>2013-02-24T08:39:12Z</time>
      </trkpt>
      <trkpt lat="48.69812" lon="1.92053">
        <ele>-44.8</ele>
        <time>2013-02-24T08:39:13Z</time>
      </trkpt>
      <trkpt lat="48.69814" lon="1.92054">
        <ele>-44.8</ele>
        <time>2013-02-24T08:39:14Z</time>
      </trkpt>
      <trkpt lat="48.6982" lon="1.92058">
        <ele>-44.8</ele>
        <time>2013-02-24T08:39:17Z</time>
      </trkpt>
      <trkpt lat="48.69824" lon="1.92058">
        <ele>-44.8</ele>
        <time>2013-02-24T08:39:19Z</time>
      </trkpt>
      <trkpt lat="48.69828" lon="1.92059">
        <ele>-44.8</ele>
        <time>2013-02-24T08:39:21Z</time>
      </trkpt>
      <trkpt lat="48.69832" lon="1.92062">
        <ele>-44.8</ele>
        <time>2013-02-24T08:39:23Z</time>
      </trkpt>
      <trkpt lat="48.6984" lon="1.92069">
        <ele>-44.8</ele>
        <time>2013-02-24T08:39:26Z</time>
      </trkpt>
      <trkpt lat="48.69842" lon="1.92071">
        <ele>-44.8</ele>
        <time>2013-02-24T08:39:27Z</time>
      </trkpt>
      <trkpt lat="48.69844" lon="1.92072">
        <ele>-44.8</ele>
        <time>2013-02-24T08:39:28Z</time>
      </trkpt>
      <trkpt lat="48.69846" lon="1.92073">
        <ele>-44.8</ele>
        <time>2013-02-24T08:39:29Z</time>
      </trkpt>
      <trkpt lat="48.69854" lon="1.92081">
        <ele>-44.8</ele>
        <time>2013-02-24T08:39:32Z</time>
      </trkpt>
      <trkpt lat="48.69857" lon="1.92083">
        <ele>-44.8</ele>
        <time>2013-02-24T08:39:33Z</time>
      </trkpt>
      <trkpt lat="48.69865" lon="1.9209">
        <ele>-44.6</ele>
        <time>2013-02-24T08:39:36Z</time>
      </trkpt>
      <trkpt lat="48.69876" lon="1.92098">
        <ele>-44</ele>
        <time>2013-02-24T08:39:40Z</time>
      </trkpt>
      <trkpt lat="48.69879" lon="1.92101">
        <ele>-43.8</ele>
        <time>2013-02-24T08:39:41Z</time>
      </trkpt>
      <trkpt lat="48.69881" lon="1.92103">
        <ele>-43.6</ele>
        <time>2013-02-24T08:39:42Z</time>
      </trkpt>
      <trkpt lat="48.69895" lon="1.92113">
        <ele>-43.2</ele>
        <time>2013-02-24T08:39:47Z</time>
      </trkpt>
      <trkpt lat="48.69909" lon="1.92119">
        <ele>-42.4</ele>
        <time>2013-02-24T08:39:52Z</time>
      </trkpt>
      <trkpt lat="48.69912" lon="1.92122">
        <ele>-42.2</ele>
        <time>2013-02-24T08:39:53Z</time>
      </trkpt>
      <trkpt lat="48.69915" lon="1.92125">
        <ele>-42</ele>
        <time>2013-02-24T08:39:54Z</time>
      </trkpt>
      <trkpt lat="48.69922" lon="1.92133">
        <ele>-41.6</ele>
        <time>2013-02-24T08:39:58Z</time>
      </trkpt>
      <trkpt lat="48.69923" lon="1.92134">
        <ele>-41.4</ele>
        <time>2013-02-24T08:39:59Z</time>
      </trkpt>
      <trkpt lat="48.69924" lon="1.92135">
        <ele>-41.4</ele>
        <time>2013-02-24T08:40:00Z</time>
      </trkpt>
      <trkpt lat="48.69927" lon="1.92136">
        <ele>-41</ele>
        <time>2013-02-24T08:40:02Z</time>
      </trkpt>
      <trkpt lat="48.69935" lon="1.92143">
        <ele>-39.8</ele>
        <time>2013-02-24T08:40:07Z</time>
      </trkpt>
      <trkpt lat="48.69938" lon="1.92145">
        <ele>-39.6</ele>
        <time>2013-02-24T08:40:09Z</time>
      </trkpt>
      <trkpt lat="48.6994" lon="1.92146">
        <ele>-39.4</ele>
        <time>2013-02-24T08:40:10Z</time>
      </trkpt>
      <trkpt lat="48.69942" lon="1.92147">
        <ele>-39.4</ele>
        <time>2013-02-24T08:40:11Z</time>
      </trkpt>
      <trkpt lat="48.6995" lon="1.92154">
        <ele>-38.6</ele>
        <time>2013-02-24T08:40:15Z</time>
      </trkpt>
      <trkpt lat="48.69953" lon="1.92155">
        <ele>-38.2</ele>
        <time>2013-02-24T08:40:17Z</time>
      </trkpt>
      <trkpt lat="48.69955" lon="1.92156">
        <ele>-38</ele>
        <time>2013-02-24T08:40:18Z</time>
      </trkpt>
      <trkpt lat="48.69961" lon="1.9216">
        <ele>-37.4</ele>
        <time>2013-02-24T08:40:22Z</time>
      </trkpt>
      <trkpt lat="48.69971" lon="1.92166">
        <ele>-36.8</ele>
        <time>2013-02-24T08:40:27Z</time>
      </trkpt>
      <trkpt lat="48.69974" lon="1.92167">
        <ele>-36.4</ele>
        <time>2013-02-24T08:40:28Z</time>
      </trkpt>
      <trkpt lat="48.69976" lon="1.92169">
        <ele>-36.2</ele>
        <time>2013-02-24T08:40:29Z</time>
      </trkpt>
      <trkpt lat="48.69979" lon="1.9217">
        <ele>-36</ele>
        <time>2013-02-24T08:40:30Z</time>
      </trkpt>
      <trkpt lat="48.69983" lon="1.92173">
        <ele>-35.6</ele>
        <time>2013-02-24T08:40:32Z</time>
      </trkpt>
      <trkpt lat="48.69987" lon="1.92177">
        <ele>-35.4</ele>
        <time>2013-02-24T08:40:34Z</time>
      </trkpt>
      <trkpt lat="48.69988" lon="1.92179">
        <ele>-35.2</ele>
        <time>2013-02-24T08:40:35Z</time>
      </trkpt>
      <trkpt lat="48.69989" lon="1.92181">
        <ele>-35.2</ele>
        <time>2013-02-24T08:40:36Z</time>
      </trkpt>
      <trkpt lat="48.69993" lon="1.92184">
        <ele>-34.6</ele>
        <time>2013-02-24T08:40:39Z</time>
      </trkpt>
      <trkpt lat="48.69995" lon="1.92186">
        <ele>-34.4</ele>
        <time>2013-02-24T08:40:40Z</time>
      </trkpt>
      <trkpt lat="48.69997" lon="1.92187">
        <ele>-34.2</ele>
        <time>2013-02-24T08:40:41Z</time>
      </trkpt>
      <trkpt lat="48.69999" lon="1.92188">
        <ele>-34</ele>
        <time>2013-02-24T08:40:42Z</time>
      </trkpt>
      <trkpt lat="48.70007" lon="1.92194">
        <ele>-33.4</ele>
        <time>2013-02-24T08:40:46Z</time>
      </trkpt>
      <trkpt lat="48.7001" lon="1.92195">
        <ele>-33.2</ele>
        <time>2013-02-24T08:40:48Z</time>
      </trkpt>
      <trkpt lat="48.70017" lon="1.92198">
        <ele>-32.2</ele>
        <time>2013-02-24T08:40:52Z</time>
      </trkpt>
      <trkpt lat="48.70018" lon="1.92199">
        <ele>-32</ele>
        <time>2013-02-24T08:40:53Z</time>
      </trkpt>
      <trkpt lat="48.70024" lon="1.92201">
        <ele>-31.4</ele>
        <time>2013-02-24T08:40:56Z</time>
      </trkpt>
      <trkpt lat="48.70026" lon="1.92202">
        <ele>-31.4</ele>
        <time>2013-02-24T08:40:57Z</time>
      </trkpt>
      <trkpt lat="48.70033" lon="1.92203">
        <ele>-31</ele>
        <time>2013-02-24T08:41:00Z</time>
      </trkpt>
      <trkpt lat="48.70038" lon="1.92206">
        <ele>-30.8</ele>
        <time>2013-02-24T08:41:02Z</time>
      </trkpt>
      <trkpt lat="48.70046" lon="1.92213">
        <ele>-29.8</ele>
        <time>2013-02-24T08:41:06Z</time>
      </trkpt>
      <trkpt lat="48.70055" lon="1.92223">
        <ele>-29</ele>
        <time>2013-02-24T08:41:11Z</time>
      </trkpt>
      <trkpt lat="48.70065" lon="1.92228">
        <ele>-28.4</ele>
        <time>2013-02-24T08:41:14Z</time>
      </trkpt>
      <trkpt lat="48.70075" lon="1.92232">
        <ele>-27.6</ele>
        <time>2013-02-24T08:41:18Z</time>
      </trkpt>
      <trkpt lat="48.70085" lon="1.92237">
        <ele>-27.2</ele>
        <time>2013-02-24T08:41:21Z</time>
      </trkpt>
      <trkpt lat="48.7009" lon="1.9224">
        <ele>-26.8</ele>
        <time>2013-02-24T08:41:23Z</time>
      </trkpt>
      <trkpt lat="48.70099" lon="1.92249">
        <ele>-25.6</ele>
        <time>2013-02-24T08:41:28Z</time>
      </trkpt>
      <trkpt lat="48.70102" lon="1.92251">
        <ele>-25.4</ele>
        <time>2013-02-24T08:41:29Z</time>
      </trkpt>
      <trkpt lat="48.70114" lon="1.92258">
        <ele>-24.2</ele>
        <time>2013-02-24T08:41:34Z</time>
      </trkpt>
      <trkpt lat="48.70117" lon="1.92258">
        <ele>-23.8</ele>
        <time>2013-02-24T08:41:35Z</time>
      </trkpt>
      <trkpt lat="48.70126" lon="1.92262">
        <ele>-23</ele>
        <time>2013-02-24T08:41:39Z</time>
      </trkpt>
      <trkpt lat="48.70129" lon="1.92264">
        <ele>-22.8</ele>
        <time>2013-02-24T08:41:40Z</time>
      </trkpt>
      <trkpt lat="48.70131" lon="1.92266">
        <ele>-22.4</ele>
        <time>2013-02-24T08:41:41Z</time>
      </trkpt>
      <trkpt lat="48.7014" lon="1.92271">
        <ele>-21.4</ele>
        <time>2013-02-24T08:41:45Z</time>
      </trkpt>
      <trkpt lat="48.70142" lon="1.92272">
        <ele>-21.2</ele>
        <time>2013-02-24T08:41:46Z</time>
      </trkpt>
      <trkpt lat="48.70146" lon="1.92275">
        <ele>-20.6</ele>
        <time>2013-02-24T08:41:48Z</time>
      </trkpt>
      <trkpt lat="48.70152" lon="1.92278">
        <ele>-19.6</ele>
        <time>2013-02-24T08:41:51Z</time>
      </trkpt>
      <trkpt lat="48.70154" lon="1.92281">
        <ele>-19.4</ele>
        <time>2013-02-24T08:41:52Z</time>
      </trkpt>
      <trkpt lat="48.70156" lon="1.92284">
        <ele>-19.2</ele>
        <time>2013-02-24T08:41:53Z</time>
      </trkpt>
      <trkpt lat="48.70161" lon="1.92289">
        <ele>-18.2</ele>
        <time>2013-02-24T08:41:56Z</time>
      </trkpt>
      <trkpt lat="48.70165" lon="1.92293">
        <ele>-17.6</ele>
        <time>2013-02-24T08:41:58Z</time>
      </trkpt>
      <trkpt lat="48.70174" lon="1.92298">
        <ele>-17</ele>
        <time>2013-02-24T08:42:01Z</time>
      </trkpt>
      <trkpt lat="48.70176" lon="1.92299">
        <ele>-16.6</ele>
        <time>2013-02-24T08:42:02Z</time>
      </trkpt>
      <trkpt lat="48.70185" lon="1.92307">
        <ele>-15.2</ele>
        <time>2013-02-24T08:42:07Z</time>
      </trkpt>
      <trkpt lat="48.70192" lon="1.92311">
        <ele>-14.2</ele>
        <time>2013-02-24T08:42:11Z</time>
      </trkpt>
      <trkpt lat="48.70199" lon="1.92315">
        <ele>-13.2</ele>
        <time>2013-02-24T08:42:15Z</time>
      </trkpt>
      <trkpt lat="48.702" lon="1.92316">
        <ele>-13</ele>
        <time>2013-02-24T08:42:16Z</time>
      </trkpt>
      <trkpt lat="48.70201" lon="1.92318">
        <ele>-12.6</ele>
        <time>2013-02-24T08:42:17Z</time>
      </trkpt>
      <trkpt lat="48.70211" lon="1.92331">
        <ele>-11.2</ele>
        <time>2013-02-24T08:42:22Z</time>
      </trkpt>
      <trkpt lat="48.70212" lon="1.92331">
        <ele>-10.8</ele>
        <time>2013-02-24T08:42:23Z</time>
      </trkpt>
      <trkpt lat="48.70213" lon="1.92333">
        <ele>-10.6</ele>
        <time>2013-02-24T08:42:24Z</time>
      </trkpt>
      <trkpt lat="48.70214" lon="1.92334">
        <ele>-10.2</ele>
        <time>2013-02-24T08:42:25Z</time>
      </trkpt>
      <trkpt lat="48.70235" lon="1.92325">
        <ele>-7.6</ele>
        <time>2013-02-24T08:42:35Z</time>
      </trkpt>
      <trkpt lat="48.70236" lon="1.92323">
        <ele>-7.4</ele>
        <time>2013-02-24T08:42:36Z</time>
      </trkpt>
      <trkpt lat="48.70238" lon="1.92322">
        <ele>-7</ele>
        <time>2013-02-24T08:42:37Z</time>
      </trkpt>
      <trkpt lat="48.70239" lon="1.9232">
        <ele>-6.8</ele>
        <time>2013-02-24T08:42:38Z</time>
      </trkpt>
      <trkpt lat="48.70239" lon="1.92305">
        <ele>-5.8</ele>
        <time>2013-02-24T08:42:42Z</time>
      </trkpt>
      <trkpt lat="48.7024" lon="1.92301">
        <ele>-5.6</ele>
        <time>2013-02-24T08:42:43Z</time>
      </trkpt>
      <trkpt lat="48.7024" lon="1.92299">
        <ele>-5.2</ele>
        <time>2013-02-24T08:42:44Z</time>
      </trkpt>
      <trkpt lat="48.7024" lon="1.92279">
        <ele>-3.2</ele>
        <time>2013-02-24T08:42:51Z</time>
      </trkpt>
      <trkpt lat="48.7024" lon="1.92276">
        <ele>-3</ele>
        <time>2013-02-24T08:42:52Z</time>
      </trkpt>
      <trkpt lat="48.70239" lon="1.92261">
        <ele>-1.2</ele>
        <time>2013-02-24T08:42:57Z</time>
      </trkpt>
      <trkpt lat="48.70237" lon="1.92255">
        <ele>-0.8</ele>
        <time>2013-02-24T08:42:59Z</time>
      </trkpt>
      <trkpt lat="48.70235" lon="1.92251">
        <ele>176</ele>
        <time>2013-02-24T08:43:01Z</time>
      </trkpt>
      <trkpt lat="48.70234" lon="1.92235">
        <ele>1.4</ele>
        <time>2013-02-24T08:43:05Z</time>
      </trkpt>
      <trkpt lat="48.70235" lon="1.92224">
        <ele>2.8</ele>
        <time>2013-02-24T08:43:08Z</time>
      </trkpt>
      <trkpt lat="48.70235" lon="1.92217">
        <ele>3.4</ele>
        <time>2013-02-24T08:43:10Z</time>
      </trkpt>
      <trkpt lat="48.70235" lon="1.92214">
        <ele>4</ele>
        <time>2013-02-24T08:43:11Z</time>
      </trkpt>
      <trkpt lat="48.70234" lon="1.92205">
        <ele>5.2</ele>
        <time>2013-02-24T08:43:14Z</time>
      </trkpt>
      <trkpt lat="48.70234" lon="1.92202">
        <ele>5.6</ele>
        <time>2013-02-24T08:43:15Z</time>
      </trkpt>
      <trkpt lat="48.70231" lon="1.9219">
        <ele>7</ele>
        <time>2013-02-24T08:43:18Z</time>
      </trkpt>
      <trkpt lat="48.70233" lon="1.92174">
        <ele>9.2</ele>
        <time>2013-02-24T08:43:23Z</time>
      </trkpt>
      <trkpt lat="48.70234" lon="1.92164">
        <ele>10.6</ele>
        <time>2013-02-24T08:43:26Z</time>
      </trkpt>
      <trkpt lat="48.70231" lon="1.92151">
        <ele>12.6</ele>
        <time>2013-02-24T08:43:30Z</time>
      </trkpt>
      <trkpt lat="48.7023" lon="1.92141">
        <ele>14.2</ele>
        <time>2013-02-24T08:43:33Z</time>
      </trkpt>
      <trkpt lat="48.70229" lon="1.92138">
        <ele>14.6</ele>
        <time>2013-02-24T08:43:34Z</time>
      </trkpt>
      <trkpt lat="48.70229" lon="1.92135">
        <ele>15.2</ele>
        <time>2013-02-24T08:43:35Z</time>
      </trkpt>
      <trkpt lat="48.70229" lon="1.9213">
        <ele>16.4</ele>
        <time>2013-02-24T08:43:37Z</time>
      </trkpt>
      <trkpt lat="48.70226" lon="1.9212">
        <ele>18.2</ele>
        <time>2013-02-24T08:43:40Z</time>
      </trkpt>
      <trkpt lat="48.70222" lon="1.92105">
        <ele>20.6</ele>
        <time>2013-02-24T08:43:44Z</time>
      </trkpt>
      <trkpt lat="48.70216" lon="1.92098">
        <ele>22.4</ele>
        <time>2013-02-24T08:43:47Z</time>
      </trkpt>
      <trkpt lat="48.70213" lon="1.92084">
        <ele>24.8</ele>
        <time>2013-02-24T08:43:51Z</time>
      </trkpt>
      <trkpt lat="48.70216" lon="1.92071">
        <ele>27.4</ele>
        <time>2013-02-24T08:43:55Z</time>
      </trkpt>
      <trkpt lat="48.70218" lon="1.92067">
        <ele>28.4</ele>
        <time>2013-02-24T08:43:57Z</time>
      </trkpt>
      <trkpt lat="48.70218" lon="1.92054">
        <ele>30.4</ele>
        <time>2013-02-24T08:44:00Z</time>
      </trkpt>
      <trkpt lat="48.70218" lon="1.92049">
        <ele>30.8</ele>
        <time>2013-02-24T08:44:01Z</time>
      </trkpt>
      <trkpt lat="48.70217" lon="1.92046">
        <ele>31.6</ele>
        <time>2013-02-24T08:44:02Z</time>
      </trkpt>
      <trkpt lat="48.70217" lon="1.92042">
        <ele>32.2</ele>
        <time>2013-02-24T08:44:03Z</time>
      </trkpt>
      <trkpt lat="48.70218" lon="1.92021">
        <ele>35.2</ele>
        <time>2013-02-24T08:44:08Z</time>
      </trkpt>
      <trkpt lat="48.70218" lon="1.92017">
        <ele>35.6</ele>
        <time>2013-02-24T08:44:09Z</time>
      </trkpt>
      <trkpt lat="48.70219" lon="1.92002">
        <ele>38</ele>
        <time>2013-02-24T08:44:13Z</time>
      </trkpt>
      <trkpt lat="48.70219" lon="1.91987">
        <ele>40.4</ele>
        <time>2013-02-24T08:44:17Z</time>
      </trkpt>
      <trkpt lat="48.70218" lon="1.91976">
        <ele>42.2</ele>
        <time>2013-02-24T08:44:20Z</time>
      </trkpt>
      <trkpt lat="48.70216" lon="1.91972">
        <ele>43.4</ele>
        <time>2013-02-24T08:44:22Z</time>
      </trkpt>
      <trkpt lat="48.70214" lon="1.91971">
        <ele>44</ele>
        <time>2013-02-24T08:44:23Z</time>
      </trkpt>
      <trkpt lat="48.70212" lon="1.91963">
        <ele>46.4</ele>
        <time>2013-02-24T08:44:27Z</time>
      </trkpt>
      <trkpt lat="48.70212" lon="1.91959">
        <ele>47</ele>
        <time>2013-02-24T08:44:28Z</time>
      </trkpt>
      <trkpt lat="48.70213" lon="1.91952">
        <ele>48</ele>
        <time>2013-02-24T08:44:30Z</time>
      </trkpt>
      <trkpt lat="48.70214" lon="1.91949">
        <ele>48.6</ele>
        <time>2013-02-24T08:44:31Z</time>
      </trkpt>
      <trkpt lat="48.70217" lon="1.91934">
        <ele>51.2</ele>
        <time>2013-02-24T08:44:36Z</time>
      </trkpt>
      <trkpt lat="48.70217" lon="1.91932">
        <ele>51.8</ele>
        <time>2013-02-24T08:44:37Z</time>
      </trkpt>
      <trkpt lat="48.70217" lon="1.91929">
        <ele>52.2</ele>
        <time>2013-02-24T08:44:38Z</time>
      </trkpt>
      <trkpt lat="48.70217" lon="1.91925">
        <ele>52.6</ele>
        <time>2013-02-24T08:44:39Z</time>
      </trkpt>
      <trkpt lat="48.70219" lon="1.9192">
        <ele>54.2</ele>
        <time>2013-02-24T08:44:42Z</time>
      </trkpt>
      <trkpt lat="48.70218" lon="1.91917">
        <ele>54.6</ele>
        <time>2013-02-24T08:44:43Z</time>
      </trkpt>
      <trkpt lat="48.70216" lon="1.91909">
        <ele>56.8</ele>
        <time>2013-02-24T08:44:47Z</time>
      </trkpt>
      <trkpt lat="48.70216" lon="1.91907">
        <ele>57.2</ele>
        <time>2013-02-24T08:44:48Z</time>
      </trkpt>
      <trkpt lat="48.70216" lon="1.91901">
        <ele>58.2</ele>
        <time>2013-02-24T08:44:50Z</time>
      </trkpt>
      <trkpt lat="48.70215" lon="1.91897">
        <ele>58.8</ele>
        <time>2013-02-24T08:44:51Z</time>
      </trkpt>
      <trkpt lat="48.70214" lon="1.91896">
        <ele>59.2</ele>
        <time>2013-02-24T08:44:52Z</time>
      </trkpt>
      <trkpt lat="48.7021" lon="1.91872">
        <ele>62.6</ele>
        <time>2013-02-24T08:45:00Z</time>
      </trkpt>
      <trkpt lat="48.7021" lon="1.91865">
        <ele>63.8</ele>
        <time>2013-02-24T08:45:03Z</time>
      </trkpt>
      <trkpt lat="48.70211" lon="1.91854">
        <ele>65.6</ele>
        <time>2013-02-24T08:45:07Z</time>
      </trkpt>
      <trkpt lat="48.70208" lon="1.91833">
        <ele>68.4</ele>
        <time>2013-02-24T08:45:13Z</time>
      </trkpt>
      <trkpt lat="48.70206" lon="1.91827">
        <ele>69.6</ele>
        <time>2013-02-24T08:45:16Z</time>
      </trkpt>
      <trkpt lat="48.70205" lon="1.91822">
        <ele>70.4</ele>
        <time>2013-02-24T08:45:18Z</time>
      </trkpt>
      <trkpt lat="48.70202" lon="1.91808">
        <ele>72.2</ele>
        <time>2013-02-24T08:45:22Z</time>
      </trkpt>
      <trkpt lat="48.70202" lon="1.91803">
        <ele>73</ele>
        <time>2013-02-24T08:45:24Z</time>
      </trkpt>
      <trkpt lat="48.702" lon="1.918">
        <ele>73.4</ele>
        <time>2013-02-24T08:45:25Z</time>
      </trkpt>
      <trkpt lat="48.70196" lon="1.91795">
        <ele>74.4</ele>
        <time>2013-02-24T08:45:27Z</time>
      </trkpt>
      <trkpt lat="48.70194" lon="1.91793">
        <ele>74.8</ele>
        <time>2013-02-24T08:45:28Z</time>
      </trkpt>
      <trkpt lat="48.70188" lon="1.91782">
        <ele>76.2</ele>
        <time>2013-02-24T08:45:32Z</time>
      </trkpt>
      <trkpt lat="48.70184" lon="1.91779">
        <ele>77</ele>
        <time>2013-02-24T08:45:34Z</time>
      </trkpt>
      <trkpt lat="48.70182" lon="1.91778">
        <ele>77.4</ele>
        <time>2013-02-24T08:45:35Z</time>
      </trkpt>
      <trkpt lat="48.70172" lon="1.91773">
        <ele>78.6</ele>
        <time>2013-02-24T08:45:39Z</time>
      </trkpt>
      <trkpt lat="48.70162" lon="1.91765">
        <ele>80.2</ele>
        <time>2013-02-24T08:45:44Z</time>
      </trkpt>
      <trkpt lat="48.70149" lon="1.91756">
        <ele>82</ele>
        <time>2013-02-24T08:45:50Z</time>
      </trkpt>
      <trkpt lat="48.70147" lon="1.91755">
        <ele>82.4</ele>
        <time>2013-02-24T08:45:51Z</time>
      </trkpt>
      <trkpt lat="48.70136" lon="1.9175">
        <ele>83.8</ele>
        <time>2013-02-24T08:45:56Z</time>
      </trkpt>
      <trkpt lat="48.70126" lon="1.91742">
        <ele>85.2</ele>
        <time>2013-02-24T08:46:01Z</time>
      </trkpt>
      <trkpt lat="48.70115" lon="1.91736">
        <ele>86.6</ele>
        <time>2013-02-24T08:46:06Z</time>
      </trkpt>
      <trkpt lat="48.70112" lon="1.91734">
        <ele>86.8</ele>
        <time>2013-02-24T08:46:07Z</time>
      </trkpt>
      <trkpt lat="48.70109" lon="1.91733">
        <ele>87</ele>
        <time>2013-02-24T08:46:08Z</time>
      </trkpt>
      <trkpt lat="48.70092" lon="1.91721">
        <ele>89</ele>
        <time>2013-02-24T08:46:15Z</time>
      </trkpt>
      <trkpt lat="48.70082" lon="1.91714">
        <ele>90.2</ele>
        <time>2013-02-24T08:46:19Z</time>
      </trkpt>
      <trkpt lat="48.70077" lon="1.91709">
        <ele>90.8</ele>
        <time>2013-02-24T08:46:21Z</time>
      </trkpt>
      <trkpt lat="48.70065" lon="1.91701">
        <ele>92.4</ele>
        <time>2013-02-24T08:46:26Z</time>
      </trkpt>
      <trkpt lat="48.70053" lon="1.91692">
        <ele>93.6</ele>
        <time>2013-02-24T08:46:31Z</time>
      </trkpt>
      <trkpt lat="48.70051" lon="1.9169">
        <ele>94</ele>
        <time>2013-02-24T08:46:32Z</time>
      </trkpt>
      <trkpt lat="48.70043" lon="1.91688">
        <ele>95</ele>
        <time>2013-02-24T08:46:35Z</time>
      </trkpt>
      <trkpt lat="48.7003" lon="1.91682">
        <ele>96.2</ele>
        <time>2013-02-24T08:46:40Z</time>
      </trkpt>
      <trkpt lat="48.70024" lon="1.91675">
        <ele>97.2</ele>
        <time>2013-02-24T08:46:43Z</time>
      </trkpt>
      <trkpt lat="48.70023" lon="1.91661">
        <ele>98.2</ele>
        <time>2013-02-24T08:46:47Z</time>
      </trkpt>
      <trkpt lat="48.70027" lon="1.91645">
        <ele>99.4</ele>
        <time>2013-02-24T08:46:52Z</time>
      </trkpt>
      <trkpt lat="48.70029" lon="1.91642">
        <ele>99.6</ele>
        <time>2013-02-24T08:46:53Z</time>
      </trkpt>
      <trkpt lat="48.70031" lon="1.91627">
        <ele>100.4</ele>
        <time>2013-02-24T08:46:57Z</time>
      </trkpt>
      <trkpt lat="48.70032" lon="1.91624">
        <ele>100.6</ele>
        <time>2013-02-24T08:46:58Z</time>
      </trkpt>
      <trkpt lat="48.70033" lon="1.91622">
        <ele>101</ele>
        <time>2013-02-24T08:46:59Z</time>
      </trkpt>
      <trkpt lat="48.70036" lon="1.91612">
        <ele>102.2</ele>
        <time>2013-02-24T08:47:04Z</time>
      </trkpt>
      <trkpt lat="48.70034" lon="1.91609">
        <ele>102.4</ele>
        <time>2013-02-24T08:47:05Z</time>
      </trkpt>
      <trkpt lat="48.70025" lon="1.91593">
        <ele>103.4</ele>
        <time>2013-02-24T08:47:10Z</time>
      </trkpt>
      <trkpt lat="48.70023" lon="1.91592">
        <ele>103.8</ele>
        <time>2013-02-24T08:47:11Z</time>
      </trkpt>
      <trkpt lat="48.70017" lon="1.91588">
        <ele>104.4</ele>
        <time>2013-02-24T08:47:14Z</time>
      </trkpt>
      <trkpt lat="48.70017" lon="1.91588">
        <ele>104.4</ele>
        <time>2013-02-24T08:47:14Z</time>
      </trkpt>
      <trkpt lat="48.70015" lon="1.91585">
        <ele>104.6</ele>
        <time>2013-02-24T08:47:15Z</time>
      </trkpt>
      <trkpt lat="48.7001" lon="1.91572">
        <ele>105.6</ele>
        <time>2013-02-24T08:47:19Z</time>
      </trkpt>
      <trkpt lat="48.70006" lon="1.91568">
        <ele>106</ele>
        <time>2013-02-24T08:47:21Z</time>
      </trkpt>
      <trkpt lat="48.69994" lon="1.91557">
        <ele>107.4</ele>
        <time>2013-02-24T08:47:27Z</time>
      </trkpt>
      <trkpt lat="48.69987" lon="1.91551">
        <ele>108.6</ele>
        <time>2013-02-24T08:47:32Z</time>
      </trkpt>
      <trkpt lat="48.69978" lon="1.91556">
        <ele>109.4</ele>
        <time>2013-02-24T08:47:37Z</time>
      </trkpt>
      <trkpt lat="48.69975" lon="1.91562">
        <ele>110.2</ele>
        <time>2013-02-24T08:47:40Z</time>
      </trkpt>
      <trkpt lat="48.69974" lon="1.91563">
        <ele>110.6</ele>
        <time>2013-02-24T08:47:42Z</time>
      </trkpt>
      <trkpt lat="48.69973" lon="1.91564">
        <ele>110.6</ele>
        <time>2013-02-24T08:47:43Z</time>
      </trkpt>
      <trkpt lat="48.69967" lon="1.91581">
        <ele>111.6</ele>
        <time>2013-02-24T08:47:55Z</time>
      </trkpt>
      <trkpt lat="48.69966" lon="1.91582">
        <ele>111.8</ele>
        <time>2013-02-24T08:47:56Z</time>
      </trkpt>
      <trkpt lat="48.69964" lon="1.91585">
        <ele>111.8</ele>
        <time>2013-02-24T08:47:59Z</time>
      </trkpt>
      <trkpt lat="48.69962" lon="1.91589">
        <ele>112</ele>
        <time>2013-02-24T08:48:04Z</time>
      </trkpt>
      <trkpt lat="48.69961" lon="1.91591">
        <ele>112</ele>
        <time>2013-02-24T08:48:06Z</time>
      </trkpt>
      <trkpt lat="48.69959" lon="1.91594">
        <ele>112</ele>
        <time>2013-02-24T08:48:10Z</time>
      </trkpt>
      <trkpt lat="48.69956" lon="1.91597">
        <ele>112.2</ele>
        <time>2013-02-24T08:48:15Z</time>
      </trkpt>
      <trkpt lat="48.69955" lon="1.91601">
        <ele>112.2</ele>
        <time>2013-02-24T08:48:19Z</time>
      </trkpt>
      <trkpt lat="48.69955" lon="1.91602">
        <ele>112.2</ele>
        <time>2013-02-24T08:48:20Z</time>
      </trkpt>
      <trkpt lat="48.69954" lon="1.91605">
        <ele>111.6</ele>
        <time>2013-02-24T08:48:25Z</time>
      </trkpt>
      <trkpt lat="48.69953" lon="1.91606">
        <ele>111.4</ele>
        <time>2013-02-24T08:48:26Z</time>
      </trkpt>
      <trkpt lat="48.69949" lon="1.91611">
        <ele>111</ele>
        <time>2013-02-24T08:48:29Z</time>
      </trkpt>
      <trkpt lat="48.69938" lon="1.91626">
        <ele>110.6</ele>
        <time>2013-02-24T08:48:35Z</time>
      </trkpt>
      <trkpt lat="48.69936" lon="1.91629">
        <ele>110.6</ele>
        <time>2013-02-24T08:48:36Z</time>
      </trkpt>
      <trkpt lat="48.69934" lon="1.91642">
        <ele>110.4</ele>
        <time>2013-02-24T08:48:43Z</time>
      </trkpt>
      <trkpt lat="48.69931" lon="1.91647">
        <ele>110.2</ele>
        <time>2013-02-24T08:48:46Z</time>
      </trkpt>
      <trkpt lat="48.6993" lon="1.91661">
        <ele>110.2</ele>
        <time>2013-02-24T08:48:53Z</time>
      </trkpt>
      <trkpt lat="48.69929" lon="1.91664">
        <ele>110.2</ele>
        <time>2013-02-24T08:48:55Z</time>
      </trkpt>
      <trkpt lat="48.69928" lon="1.91672">
        <ele>110.2</ele>
        <time>2013-02-24T08:49:00Z</time>
      </trkpt>
      <trkpt lat="48.69925" lon="1.91681">
        <ele>110.2</ele>
        <time>2013-02-24T08:49:06Z</time>
      </trkpt>
      <trkpt lat="48.69925" lon="1.91683">
        <ele>110.2</ele>
        <time>2013-02-24T08:49:07Z</time>
      </trkpt>
      <trkpt lat="48.6992" lon="1.9169">
        <ele>110</ele>
        <time>2013-02-24T08:49:11Z</time>
      </trkpt>
      <trkpt lat="48.69912" lon="1.91693">
        <ele>110</ele>
        <time>2013-02-24T08:49:17Z</time>
      </trkpt>
      <trkpt lat="48.69906" lon="1.9169">
        <ele>110.6</ele>
        <time>2013-02-24T08:49:21Z</time>
      </trkpt>
      <trkpt lat="48.69904" lon="1.91689">
        <ele>110.8</ele>
        <time>2013-02-24T08:49:22Z</time>
      </trkpt>
      <trkpt lat="48.69902" lon="1.91688">
        <ele>111</ele>
        <time>2013-02-24T08:49:23Z</time>
      </trkpt>
      <trkpt lat="48.69901" lon="1.91686">
        <ele>111.2</ele>
        <time>2013-02-24T08:49:25Z</time>
      </trkpt>
      <trkpt lat="48.699" lon="1.91682">
        <ele>111.4</ele>
        <time>2013-02-24T08:49:27Z</time>
      </trkpt>
      <trkpt lat="48.699" lon="1.91678">
        <ele>111.4</ele>
        <time>2013-02-24T08:49:28Z</time>
      </trkpt>
      <trkpt lat="48.699" lon="1.91675">
        <ele>111.4</ele>
        <time>2013-02-24T08:49:29Z</time>
      </trkpt>
      <trkpt lat="48.699" lon="1.91672">
        <ele>111.6</ele>
        <time>2013-02-24T08:49:31Z</time>
      </trkpt>
      <trkpt lat="48.69901" lon="1.91665">
        <ele>111.8</ele>
        <time>2013-02-24T08:49:35Z</time>
      </trkpt>
      <trkpt lat="48.69901" lon="1.91661">
        <ele>111.8</ele>
        <time>2013-02-24T08:49:38Z</time>
      </trkpt>
      <trkpt lat="48.69901" lon="1.91659">
        <ele>112.2</ele>
        <time>2013-02-24T08:49:40Z</time>
      </trkpt>
      <trkpt lat="48.699" lon="1.91652">
        <ele>113</ele>
        <time>2013-02-24T08:49:45Z</time>
      </trkpt>
      <trkpt lat="48.69902" lon="1.91646">
        <ele>113.4</ele>
        <time>2013-02-24T08:49:48Z</time>
      </trkpt>
      <trkpt lat="48.69902" lon="1.91642">
        <ele>113.4</ele>
        <time>2013-02-24T08:49:51Z</time>
      </trkpt>
      <trkpt lat="48.69902" lon="1.91638">
        <ele>113.6</ele>
        <time>2013-02-24T08:49:53Z</time>
      </trkpt>
      <trkpt lat="48.69902" lon="1.91636">
        <ele>113.8</ele>
        <time>2013-02-24T08:49:54Z</time>
      </trkpt>
      <trkpt lat="48.69903" lon="1.91629">
        <ele>113.8</ele>
        <time>2013-02-24T08:49:56Z</time>
      </trkpt>
      <trkpt lat="48.69902" lon="1.91623">
        <ele>114.2</ele>
        <time>2013-02-24T08:49:59Z</time>
      </trkpt>
      <trkpt lat="48.69897" lon="1.91614">
        <ele>115</ele>
        <time>2013-02-24T08:50:04Z</time>
      </trkpt>
      <trkpt lat="48.69896" lon="1.91612">
        <ele>115.2</ele>
        <time>2013-02-24T08:50:05Z</time>
      </trkpt>
      <trkpt lat="48.69896" lon="1.91609">
        <ele>115.4</ele>
        <time>2013-02-24T08:50:07Z</time>
      </trkpt>
      <trkpt lat="48.69896" lon="1.91607">
        <ele>115.4</ele>
        <time>2013-02-24T08:50:09Z</time>
      </trkpt>
      <trkpt lat="48.69896" lon="1.91606">
        <ele>115.6</ele>
        <time>2013-02-24T08:50:10Z</time>
      </trkpt>
      <trkpt lat="48.69896" lon="1.91598">
        <ele>115.8</ele>
        <time>2013-02-24T08:50:14Z</time>
      </trkpt>
      <trkpt lat="48.69895" lon="1.91596">
        <ele>115.8</ele>
        <time>2013-02-24T08:50:15Z</time>
      </trkpt>
      <trkpt lat="48.69892" lon="1.91584">
        <ele>116</ele>
        <time>2013-02-24T08:50:19Z</time>
      </trkpt>
      <trkpt lat="48.69891" lon="1.91581">
        <ele>116</ele>
        <time>2013-02-24T08:50:20Z</time>
      </trkpt>
      <trkpt lat="48.69885" lon="1.91568">
        <ele>116</ele>
        <time>2013-02-24T08:50:25Z</time>
      </trkpt>
      <trkpt lat="48.69879" lon="1.91556">
        <ele>116</ele>
        <time>2013-02-24T08:50:30Z</time>
      </trkpt>
      <trkpt lat="48.69876" lon="1.91551">
        <ele>115.8</ele>
        <time>2013-02-24T08:50:32Z</time>
      </trkpt>
      <trkpt lat="48.69875" lon="1.91548">
        <ele>115.6</ele>
        <time>2013-02-24T08:50:33Z</time>
      </trkpt>
      <trkpt lat="48.69869" lon="1.91534">
        <ele>115</ele>
        <time>2013-02-24T08:50:38Z</time>
      </trkpt>
      <trkpt lat="48.69868" lon="1.91531">
        <ele>115</ele>
        <time>2013-02-24T08:50:39Z</time>
      </trkpt>
      <trkpt lat="48.69859" lon="1.91518">
        <ele>114.6</ele>
        <time>2013-02-24T08:50:44Z</time>
      </trkpt>
      <trkpt lat="48.69848" lon="1.91502">
        <ele>114.4</ele>
        <time>2013-02-24T08:50:50Z</time>
      </trkpt>
      <trkpt lat="48.69841" lon="1.91491">
        <ele>113.8</ele>
        <time>2013-02-24T08:50:54Z</time>
      </trkpt>
      <trkpt lat="48.69836" lon="1.91474">
        <ele>113</ele>
        <time>2013-02-24T08:50:59Z</time>
      </trkpt>
      <trkpt lat="48.69836" lon="1.91459">
        <ele>112.8</ele>
        <time>2013-02-24T08:51:03Z</time>
      </trkpt>
      <trkpt lat="48.69843" lon="1.91448">
        <ele>112</ele>
        <time>2013-02-24T08:51:07Z</time>
      </trkpt>
      <trkpt lat="48.69855" lon="1.91444">
        <ele>111.2</ele>
        <time>2013-02-24T08:51:11Z</time>
      </trkpt>
      <trkpt lat="48.69864" lon="1.91433">
        <ele>110.8</ele>
        <time>2013-02-24T08:51:15Z</time>
      </trkpt>
      <trkpt lat="48.6987" lon="1.91418">
        <ele>110.6</ele>
        <time>2013-02-24T08:51:20Z</time>
      </trkpt>
      <trkpt lat="48.69872" lon="1.9141">
        <ele>110.4</ele>
        <time>2013-02-24T08:51:23Z</time>
      </trkpt>
      <trkpt lat="48.69873" lon="1.91392">
        <ele>109.4</ele>
        <time>2013-02-24T08:51:28Z</time>
      </trkpt>
      <trkpt lat="48.69873" lon="1.91389">
        <ele>109.2</ele>
        <time>2013-02-24T08:51:29Z</time>
      </trkpt>
      <trkpt lat="48.69873" lon="1.91384">
        <ele>109</ele>
        <time>2013-02-24T08:51:31Z</time>
      </trkpt>
      <trkpt lat="48.69875" lon="1.91376">
        <ele>108.6</ele>
        <time>2013-02-24T08:51:35Z</time>
      </trkpt>
      <trkpt lat="48.69876" lon="1.91374">
        <ele>108.6</ele>
        <time>2013-02-24T08:51:37Z</time>
      </trkpt>
      <trkpt lat="48.69878" lon="1.91374">
        <ele>108.4</ele>
        <time>2013-02-24T08:51:39Z</time>
      </trkpt>
      <trkpt lat="48.69883" lon="1.91369">
        <ele>107.6</ele>
        <time>2013-02-24T08:51:45Z</time>
      </trkpt>
      <trkpt lat="48.69885" lon="1.91365">
        <ele>107</ele>
        <time>2013-02-24T08:51:49Z</time>
      </trkpt>
      <trkpt lat="48.69887" lon="1.91365">
        <ele>106.8</ele>
        <time>2013-02-24T08:51:51Z</time>
      </trkpt>
      <trkpt lat="48.69891" lon="1.91363">
        <ele>106.4</ele>
        <time>2013-02-24T08:51:59Z</time>
      </trkpt>
      <trkpt lat="48.69894" lon="1.91365">
        <ele>105.8</ele>
        <time>2013-02-24T08:52:04Z</time>
      </trkpt>
      <trkpt lat="48.69897" lon="1.91362">
        <ele>105.2</ele>
        <time>2013-02-24T08:52:08Z</time>
      </trkpt>
      <trkpt lat="48.69898" lon="1.91361">
        <ele>104.8</ele>
        <time>2013-02-24T08:52:12Z</time>
      </trkpt>
      <trkpt lat="48.69898" lon="1.91358">
        <ele>104.4</ele>
        <time>2013-02-24T08:52:16Z</time>
      </trkpt>
      <trkpt lat="48.69898" lon="1.91357">
        <ele>104.4</ele>
        <time>2013-02-24T08:52:17Z</time>
      </trkpt>
      <trkpt lat="48.69902" lon="1.91356">
        <ele>104.2</ele>
        <time>2013-02-24T08:52:22Z</time>
      </trkpt>
      <trkpt lat="48.69905" lon="1.91357">
        <ele>104.2</ele>
        <time>2013-02-24T08:52:27Z</time>
      </trkpt>
      <trkpt lat="48.69908" lon="1.91358">
        <ele>104</ele>
        <time>2013-02-24T08:52:31Z</time>
      </trkpt>
      <trkpt lat="48.69909" lon="1.91363">
        <ele>104</ele>
        <time>2013-02-24T08:52:35Z</time>
      </trkpt>
      <trkpt lat="48.6991" lon="1.91369">
        <ele>104</ele>
        <time>2013-02-24T08:52:39Z</time>
      </trkpt>
      <trkpt lat="48.6991" lon="1.91372">
        <ele>104</ele>
        <time>2013-02-24T08:52:41Z</time>
      </trkpt>
      <trkpt lat="48.69915" lon="1.9138">
        <ele>104</ele>
        <time>2013-02-24T08:52:47Z</time>
      </trkpt>
      <trkpt lat="48.69915" lon="1.91381">
        <ele>104</ele>
        <time>2013-02-24T08:52:48Z</time>
      </trkpt>
      <trkpt lat="48.69915" lon="1.91387">
        <ele>104</ele>
        <time>2013-02-24T08:52:51Z</time>
      </trkpt>
      <trkpt lat="48.69918" lon="1.91393">
        <ele>104</ele>
        <time>2013-02-24T08:52:57Z</time>
      </trkpt>
      <trkpt lat="48.69918" lon="1.91394">
        <ele>104</ele>
        <time>2013-02-24T08:52:58Z</time>
      </trkpt>
      <trkpt lat="48.69921" lon="1.91399">
        <ele>104</ele>
        <time>2013-02-24T08:53:02Z</time>
      </trkpt>
      <trkpt lat="48.69924" lon="1.91416">
        <ele>104</ele>
        <time>2013-02-24T08:53:10Z</time>
      </trkpt>
      <trkpt lat="48.69926" lon="1.91424">
        <ele>104</ele>
        <time>2013-02-24T08:53:14Z</time>
      </trkpt>
      <trkpt lat="48.69927" lon="1.91425">
        <ele>104</ele>
        <time>2013-02-24T08:53:15Z</time>
      </trkpt>
      <trkpt lat="48.69931" lon="1.91427">
        <ele>104</ele>
        <time>2013-02-24T08:53:19Z</time>
      </trkpt>
      <trkpt lat="48.69932" lon="1.91427">
        <ele>104</ele>
        <time>2013-02-24T08:53:20Z</time>
      </trkpt>
      <trkpt lat="48.69933" lon="1.91428">
        <ele>104</ele>
        <time>2013-02-24T08:53:22Z</time>
      </trkpt>
      <trkpt lat="48.69934" lon="1.91436">
        <ele>104</ele>
        <time>2013-02-24T08:53:27Z</time>
      </trkpt>
      <trkpt lat="48.69935" lon="1.91437">
        <ele>104</ele>
        <time>2013-02-24T08:53:28Z</time>
      </trkpt>
      <trkpt lat="48.69941" lon="1.91443">
        <ele>104</ele>
        <time>2013-02-24T08:53:33Z</time>
      </trkpt>
      <trkpt lat="48.69942" lon="1.91444">
        <ele>104</ele>
        <time>2013-02-24T08:53:34Z</time>
      </trkpt>
      <trkpt lat="48.69947" lon="1.91448">
        <ele>104</ele>
        <time>2013-02-24T08:53:39Z</time>
      </trkpt>
      <trkpt lat="48.69952" lon="1.91454">
        <ele>104</ele>
        <time>2013-02-24T08:53:43Z</time>
      </trkpt>
      <trkpt lat="48.69957" lon="1.91455">
        <ele>104</ele>
        <time>2013-02-24T08:53:47Z</time>
      </trkpt>
      <trkpt lat="48.69965" lon="1.91457">
        <ele>104</ele>
        <time>2013-02-24T08:53:52Z</time>
      </trkpt>
      <trkpt lat="48.69967" lon="1.91458">
        <ele>104</ele>
        <time>2013-02-24T08:53:53Z</time>
      </trkpt>
      <trkpt lat="48.69969" lon="1.91459">
        <ele>104</ele>
        <time>2013-02-24T08:53:55Z</time>
      </trkpt>
      <trkpt lat="48.69971" lon="1.91459">
        <ele>104</ele>
        <time>2013-02-24T08:53:58Z</time>
      </trkpt>
      <trkpt lat="48.69973" lon="1.9146">
        <ele>104</ele>
        <time>2013-02-24T08:54:00Z</time>
      </trkpt>
      <trkpt lat="48.69975" lon="1.91462">
        <ele>104</ele>
        <time>2013-02-24T08:54:02Z</time>
      </trkpt>
      <trkpt lat="48.6998" lon="1.91464">
        <ele>104</ele>
        <time>2013-02-24T08:54:06Z</time>
      </trkpt>
      <trkpt lat="48.69983" lon="1.91467">
        <ele>104</ele>
        <time>2013-02-24T08:54:09Z</time>
      </trkpt>
      <trkpt lat="48.69988" lon="1.91471">
        <ele>104</ele>
        <time>2013-02-24T08:54:16Z</time>
      </trkpt>
      <trkpt lat="48.69989" lon="1.91472">
        <ele>104</ele>
        <time>2013-02-24T08:54:17Z</time>
      </trkpt>
      <trkpt lat="48.69993" lon="1.91476">
        <ele>104</ele>
        <time>2013-02-24T08:54:22Z</time>
      </trkpt>
      <trkpt lat="48.69996" lon="1.91477">
        <ele>104.6</ele>
        <time>2013-02-24T08:54:25Z</time>
      </trkpt>
      <trkpt lat="48.69997" lon="1.91474">
        <ele>104.8</ele>
        <time>2013-02-24T08:54:27Z</time>
      </trkpt>
      <trkpt lat="48.69998" lon="1.91461">
        <ele>105.2</ele>
        <time>2013-02-24T08:54:31Z</time>
      </trkpt>
      <trkpt lat="48.69999" lon="1.9145">
        <ele>105.6</ele>
        <time>2013-02-24T08:54:35Z</time>
      </trkpt>
      <trkpt lat="48.69999" lon="1.91446">
        <ele>105.6</ele>
        <time>2013-02-24T08:54:36Z</time>
      </trkpt>
      <trkpt lat="48.7" lon="1.91435">
        <ele>105.8</ele>
        <time>2013-02-24T08:54:40Z</time>
      </trkpt>
      <trkpt lat="48.70006" lon="1.91421">
        <ele>106.8</ele>
        <time>2013-02-24T08:54:45Z</time>
      </trkpt>
      <trkpt lat="48.70008" lon="1.91413">
        <ele>107</ele>
        <time>2013-02-24T08:54:48Z</time>
      </trkpt>
      <trkpt lat="48.70008" lon="1.9141">
        <ele>107.2</ele>
        <time>2013-02-24T08:54:49Z</time>
      </trkpt>
      <trkpt lat="48.70006" lon="1.914">
        <ele>107.4</ele>
        <time>2013-02-24T08:54:53Z</time>
      </trkpt>
      <trkpt lat="48.70008" lon="1.91379">
        <ele>107.8</ele>
        <time>2013-02-24T08:54:59Z</time>
      </trkpt>
      <trkpt lat="48.70011" lon="1.91375">
        <ele>107.8</ele>
        <time>2013-02-24T08:55:01Z</time>
      </trkpt>
      <trkpt lat="48.70016" lon="1.91365">
        <ele>108</ele>
        <time>2013-02-24T08:55:06Z</time>
      </trkpt>
      <trkpt lat="48.70018" lon="1.91356">
        <ele>108.2</ele>
        <time>2013-02-24T08:55:09Z</time>
      </trkpt>
      <trkpt lat="48.70019" lon="1.9135">
        <ele>108.6</ele>
        <time>2013-02-24T08:55:11Z</time>
      </trkpt>
      <trkpt lat="48.70024" lon="1.91341">
        <ele>109</ele>
        <time>2013-02-24T08:55:15Z</time>
      </trkpt>
      <trkpt lat="48.70026" lon="1.91339">
        <ele>109.2</ele>
        <time>2013-02-24T08:55:16Z</time>
      </trkpt>
      <trkpt lat="48.70028" lon="1.91338">
        <ele>109.2</ele>
        <time>2013-02-24T08:55:17Z</time>
      </trkpt>
      <trkpt lat="48.70038" lon="1.91329">
        <ele>109.6</ele>
        <time>2013-02-24T08:55:22Z</time>
      </trkpt>
      <trkpt lat="48.7004" lon="1.91327">
        <ele>109.6</ele>
        <time>2013-02-24T08:55:23Z</time>
      </trkpt>
      <trkpt lat="48.70042" lon="1.91325">
        <ele>109.8</ele>
        <time>2013-02-24T08:55:24Z</time>
      </trkpt>
      <trkpt lat="48.7005" lon="1.91321">
        <ele>110.4</ele>
        <time>2013-02-24T08:55:28Z</time>
      </trkpt>
      <trkpt lat="48.70059" lon="1.9132">
        <ele>111</ele>
        <time>2013-02-24T08:55:32Z</time>
      </trkpt>
      <trkpt lat="48.70066" lon="1.91317">
        <ele>112</ele>
        <time>2013-02-24T08:55:36Z</time>
      </trkpt>
      <trkpt lat="48.70078" lon="1.91301">
        <ele>113.4</ele>
        <time>2013-02-24T08:55:42Z</time>
      </trkpt>
      <trkpt lat="48.70081" lon="1.91294">
        <ele>114</ele>
        <time>2013-02-24T08:55:44Z</time>
      </trkpt>
      <trkpt lat="48.70082" lon="1.91278">
        <ele>115.4</ele>
        <time>2013-02-24T08:55:49Z</time>
      </trkpt>
      <trkpt lat="48.70083" lon="1.91269">
        <ele>116.2</ele>
        <time>2013-02-24T08:55:52Z</time>
      </trkpt>
      <trkpt lat="48.70083" lon="1.91245">
        <ele>118</ele>
        <time>2013-02-24T08:55:58Z</time>
      </trkpt>
      <trkpt lat="48.70083" lon="1.91235">
        <ele>118.8</ele>
        <time>2013-02-24T08:56:01Z</time>
      </trkpt>
      <trkpt lat="48.70088" lon="1.91225">
        <ele>119.8</ele>
        <time>2013-02-24T08:56:05Z</time>
      </trkpt>
      <trkpt lat="48.70092" lon="1.91221">
        <ele>120.4</ele>
        <time>2013-02-24T08:56:07Z</time>
      </trkpt>
      <trkpt lat="48.70099" lon="1.9122">
        <ele>122</ele>
        <time>2013-02-24T08:56:12Z</time>
      </trkpt>
      <trkpt lat="48.70099" lon="1.9122">
        <ele>122.2</ele>
        <time>2013-02-24T08:56:13Z</time>
      </trkpt>
      <trkpt lat="48.70107" lon="1.91209">
        <ele>124</ele>
        <time>2013-02-24T08:56:18Z</time>
      </trkpt>
      <trkpt lat="48.70117" lon="1.91195">
        <ele>126.4</ele>
        <time>2013-02-24T08:56:24Z</time>
      </trkpt>
      <trkpt lat="48.70115" lon="1.91187">
        <ele>128.2</ele>
        <time>2013-02-24T08:56:28Z</time>
      </trkpt>
      <trkpt lat="48.70116" lon="1.91175">
        <ele>130</ele>
        <time>2013-02-24T08:56:32Z</time>
      </trkpt>
      <trkpt lat="48.70117" lon="1.91172">
        <ele>130.4</ele>
        <time>2013-02-24T08:56:33Z</time>
      </trkpt>
      <trkpt lat="48.70118" lon="1.91165">
        <ele>131.6</ele>
        <time>2013-02-24T08:56:35Z</time>
      </trkpt>
      <trkpt lat="48.70119" lon="1.91151">
        <ele>133.8</ele>
        <time>2013-02-24T08:56:39Z</time>
      </trkpt>
      <trkpt lat="48.7012" lon="1.91139">
        <ele>136</ele>
        <time>2013-02-24T08:56:43Z</time>
      </trkpt>
      <trkpt lat="48.70121" lon="1.91127">
        <ele>138.4</ele>
        <time>2013-02-24T08:56:47Z</time>
      </trkpt>
      <trkpt lat="48.7012" lon="1.91117">
        <ele>140</ele>
        <time>2013-02-24T08:56:50Z</time>
      </trkpt>
      <trkpt lat="48.7012" lon="1.91117">
        <ele>140</ele>
        <time>2013-02-24T08:56:50Z</time>
      </trkpt>
      <trkpt lat="48.7012" lon="1.91107">
        <ele>142.8</ele>
        <time>2013-02-24T08:56:53Z</time>
      </trkpt>
      <trkpt lat="48.70121" lon="1.91092">
        <ele>147.4</ele>
        <time>2013-02-24T08:56:58Z</time>
      </trkpt>
      <trkpt lat="48.70121" lon="1.91086">
        <ele>149.4</ele>
        <time>2013-02-24T08:57:00Z</time>
      </trkpt>
      <trkpt lat="48.70126" lon="1.91071">
        <ele>155.8</ele>
        <time>2013-02-24T08:57:06Z</time>
      </trkpt>
      <trkpt lat="48.70129" lon="1.91061">
        <ele>160.6</ele>
        <time>2013-02-24T08:57:10Z</time>
      </trkpt>
      <trkpt lat="48.7013" lon="1.91053">
        <ele>163.2</ele>
        <time>2013-02-24T08:57:12Z</time>
      </trkpt>
      <trkpt lat="48.7013" lon="1.91041">
        <ele>168.4</ele>
        <time>2013-02-24T08:57:16Z</time>
      </trkpt>
      <trkpt lat="48.7013" lon="1.91032">
        <ele>172.2</ele>
        <time>2013-02-24T08:57:19Z</time>
      </trkpt>
      <trkpt lat="48.7013" lon="1.91029">
        <ele>173.6</ele>
        <time>2013-02-24T08:57:20Z</time>
      </trkpt>
      <trkpt lat="48.70131" lon="1.91019">
        <ele>177.4</ele>
        <time>2013-02-24T08:57:23Z</time>
      </trkpt>
      <trkpt lat="48.70131" lon="1.91009">
        <ele>181.2</ele>
        <time>2013-02-24T08:57:26Z</time>
      </trkpt>
      <trkpt lat="48.70132" lon="1.90997">
        <ele>185.8</ele>
        <time>2013-02-24T08:57:30Z</time>
      </trkpt>
      <trkpt lat="48.70133" lon="1.90992">
        <ele>188</ele>
        <time>2013-02-24T08:57:32Z</time>
      </trkpt>
      <trkpt lat="48.70137" lon="1.90973">
        <ele>194.4</ele>
        <time>2013-02-24T08:57:38Z</time>
      </trkpt>
      <trkpt lat="48.70141" lon="1.90952">
        <ele>199.2</ele>
        <time>2013-02-24T08:57:43Z</time>
      </trkpt>
      <trkpt lat="48.70142" lon="1.90936">
        <ele>202.8</ele>
        <time>2013-02-24T08:57:47Z</time>
      </trkpt>
      <trkpt lat="48.70144" lon="1.90929">
        <ele>204.6</ele>
        <time>2013-02-24T08:57:49Z</time>
      </trkpt>
      <trkpt lat="48.70147" lon="1.90909">
        <ele>208.6</ele>
        <time>2013-02-24T08:57:54Z</time>
      </trkpt>
      <trkpt lat="48.70148" lon="1.90906">
        <ele>209.2</ele>
        <time>2013-02-24T08:57:55Z</time>
      </trkpt>
      <trkpt lat="48.70155" lon="1.90883">
        <ele>213.6</ele>
        <time>2013-02-24T08:58:01Z</time>
      </trkpt>
      <trkpt lat="48.7016" lon="1.90872">
        <ele>216.2</ele>
        <time>2013-02-24T08:58:05Z</time>
      </trkpt>
      <trkpt lat="48.70167" lon="1.90854">
        <ele>219.2</ele>
        <time>2013-02-24T08:58:10Z</time>
      </trkpt>
      <trkpt lat="48.7017" lon="1.90834">
        <ele>221.8</ele>
        <time>2013-02-24T08:58:15Z</time>
      </trkpt>
      <trkpt lat="48.70171" lon="1.90821">
        <ele>223.6</ele>
        <time>2013-02-24T08:58:19Z</time>
      </trkpt>
      <trkpt lat="48.70176" lon="1.90803">
        <ele>225.6</ele>
        <time>2013-02-24T08:58:24Z</time>
      </trkpt>
      <trkpt lat="48.70178" lon="1.90801">
        <ele>226</ele>
        <time>2013-02-24T08:58:25Z</time>
      </trkpt>
      <trkpt lat="48.70182" lon="1.90794">
        <ele>227.2</ele>
        <time>2013-02-24T08:58:28Z</time>
      </trkpt>
      <trkpt lat="48.70184" lon="1.90773">
        <ele>229.4</ele>
        <time>2013-02-24T08:58:34Z</time>
      </trkpt>
      <trkpt lat="48.70187" lon="1.9076">
        <ele>230.4</ele>
        <time>2013-02-24T08:58:37Z</time>
      </trkpt>
      <trkpt lat="48.70193" lon="1.9074">
        <ele>231.6</ele>
        <time>2013-02-24T08:58:42Z</time>
      </trkpt>
      <trkpt lat="48.70194" lon="1.90737">
        <ele>231.8</ele>
        <time>2013-02-24T08:58:43Z</time>
      </trkpt>
      <trkpt lat="48.70197" lon="1.90724">
        <ele>233.2</ele>
        <time>2013-02-24T08:58:48Z</time>
      </trkpt>
      <trkpt lat="48.70198" lon="1.90721">
        <ele>233.4</ele>
        <time>2013-02-24T08:58:50Z</time>
      </trkpt>
      <trkpt lat="48.702" lon="1.9072">
        <ele>233.6</ele>
        <time>2013-02-24T08:58:51Z</time>
      </trkpt>
      <trkpt lat="48.70205" lon="1.90706">
        <ele>234.2</ele>
        <time>2013-02-24T08:58:56Z</time>
      </trkpt>
      <trkpt lat="48.70204" lon="1.90703">
        <ele>234.2</ele>
        <time>2013-02-24T08:58:57Z</time>
      </trkpt>
      <trkpt lat="48.70203" lon="1.90693">
        <ele>234.4</ele>
        <time>2013-02-24T08:58:59Z</time>
      </trkpt>
      <trkpt lat="48.70207" lon="1.90667">
        <ele>234.4</ele>
        <time>2013-02-24T08:59:05Z</time>
      </trkpt>
      <trkpt lat="48.70208" lon="1.90658">
        <ele>234</ele>
        <time>2013-02-24T08:59:07Z</time>
      </trkpt>
      <trkpt lat="48.70207" lon="1.90639">
        <ele>233.6</ele>
        <time>2013-02-24T08:59:13Z</time>
      </trkpt>
      <trkpt lat="48.70206" lon="1.90627">
        <ele>232.6</ele>
        <time>2013-02-24T08:59:18Z</time>
      </trkpt>
      <trkpt lat="48.70206" lon="1.90624">
        <ele>232.2</ele>
        <time>2013-02-24T08:59:20Z</time>
      </trkpt>
      <trkpt lat="48.70205" lon="1.90611">
        <ele>231.8</ele>
        <time>2013-02-24T08:59:24Z</time>
      </trkpt>
      <trkpt lat="48.70205" lon="1.90592">
        <ele>231.2</ele>
        <time>2013-02-24T08:59:30Z</time>
      </trkpt>
      <trkpt lat="48.70205" lon="1.90579">
        <ele>231</ele>
        <time>2013-02-24T08:59:34Z</time>
      </trkpt>
      <trkpt lat="48.70205" lon="1.90565">
        <ele>231.8</ele>
        <time>2013-02-24T08:59:38Z</time>
      </trkpt>
      <trkpt lat="48.70203" lon="1.90549">
        <ele>232.2</ele>
        <time>2013-02-24T08:59:43Z</time>
      </trkpt>
      <trkpt lat="48.70203" lon="1.90546">
        <ele>232.4</ele>
        <time>2013-02-24T08:59:44Z</time>
      </trkpt>
      <trkpt lat="48.70203" lon="1.90533">
        <ele>233.4</ele>
        <time>2013-02-24T08:59:48Z</time>
      </trkpt>
      <trkpt lat="48.70203" lon="1.90522">
        <ele>233.6</ele>
        <time>2013-02-24T08:59:52Z</time>
      </trkpt>
      <trkpt lat="48.70203" lon="1.9051">
        <ele>234.6</ele>
        <time>2013-02-24T08:59:55Z</time>
      </trkpt>
      <trkpt lat="48.70206" lon="1.90497">
        <ele>235.4</ele>
        <time>2013-02-24T08:59:59Z</time>
      </trkpt>
      <trkpt lat="48.7021" lon="1.90476">
        <ele>236.6</ele>
        <time>2013-02-24T09:00:04Z</time>
      </trkpt>
      <trkpt lat="48.70213" lon="1.90459">
        <ele>237.6</ele>
        <time>2013-02-24T09:00:08Z</time>
      </trkpt>
      <trkpt lat="48.70223" lon="1.90431">
        <ele>238.4</ele>
        <time>2013-02-24T09:00:16Z</time>
      </trkpt>
      <trkpt lat="48.70225" lon="1.90426">
        <ele>238.6</ele>
        <time>2013-02-24T09:00:18Z</time>
      </trkpt>
      <trkpt lat="48.70227" lon="1.90422">
        <ele>238.6</ele>
        <time>2013-02-24T09:00:19Z</time>
      </trkpt>
      <trkpt lat="48.70229" lon="1.9041">
        <ele>238.8</ele>
        <time>2013-02-24T09:00:22Z</time>
      </trkpt>
      <trkpt lat="48.70232" lon="1.90394">
        <ele>238.8</ele>
        <time>2013-02-24T09:00:27Z</time>
      </trkpt>
      <trkpt lat="48.70237" lon="1.9038">
        <ele>239.6</ele>
        <time>2013-02-24T09:00:31Z</time>
      </trkpt>
      <trkpt lat="48.7024" lon="1.90368">
        <ele>240</ele>
        <time>2013-02-24T09:00:34Z</time>
      </trkpt>
      <trkpt lat="48.70241" lon="1.90364">
        <ele>240.2</ele>
        <time>2013-02-24T09:00:35Z</time>
      </trkpt>
      <trkpt lat="48.70245" lon="1.90349">
        <ele>240.6</ele>
        <time>2013-02-24T09:00:39Z</time>
      </trkpt>
      <trkpt lat="48.70248" lon="1.90336">
        <ele>240.6</ele>
        <time>2013-02-24T09:00:42Z</time>
      </trkpt>
      <trkpt lat="48.70249" lon="1.90333">
        <ele>240.8</ele>
        <time>2013-02-24T09:00:43Z</time>
      </trkpt>
      <trkpt lat="48.70252" lon="1.90329">
        <ele>241.2</ele>
        <time>2013-02-24T09:00:45Z</time>
      </trkpt>
      <trkpt lat="48.70255" lon="1.9031">
        <ele>242</ele>
        <time>2013-02-24T09:00:50Z</time>
      </trkpt>
      <trkpt lat="48.70255" lon="1.90307">
        <ele>242.2</ele>
        <time>2013-02-24T09:00:51Z</time>
      </trkpt>
      <trkpt lat="48.70256" lon="1.90285">
        <ele>243.2</ele>
        <time>2013-02-24T09:00:57Z</time>
      </trkpt>
      <trkpt lat="48.70258" lon="1.90269">
        <ele>244</ele>
        <time>2013-02-24T09:01:01Z</time>
      </trkpt>
      <trkpt lat="48.70261" lon="1.90255">
        <ele>244.4</ele>
        <time>2013-02-24T09:01:05Z</time>
      </trkpt>
      <trkpt lat="48.70262" lon="1.90251">
        <ele>244.6</ele>
        <time>2013-02-24T09:01:06Z</time>
      </trkpt>
      <trkpt lat="48.70264" lon="1.90239">
        <ele>244.8</ele>
        <time>2013-02-24T09:01:10Z</time>
      </trkpt>
      <trkpt lat="48.70265" lon="1.90228">
        <ele>245.4</ele>
        <time>2013-02-24T09:01:13Z</time>
      </trkpt>
      <trkpt lat="48.70267" lon="1.90217">
        <ele>246</ele>
        <time>2013-02-24T09:01:16Z</time>
      </trkpt>
      <trkpt lat="48.70269" lon="1.9021">
        <ele>246.2</ele>
        <time>2013-02-24T09:01:18Z</time>
      </trkpt>
      <trkpt lat="48.70271" lon="1.90192">
        <ele>246.8</ele>
        <time>2013-02-24T09:01:23Z</time>
      </trkpt>
      <trkpt lat="48.7027" lon="1.90189">
        <ele>246.8</ele>
        <time>2013-02-24T09:01:24Z</time>
      </trkpt>
      <trkpt lat="48.70273" lon="1.90175">
        <ele>247</ele>
        <time>2013-02-24T09:01:28Z</time>
      </trkpt>
      <trkpt lat="48.70271" lon="1.90154">
        <ele>247.2</ele>
        <time>2013-02-24T09:01:33Z</time>
      </trkpt>
      <trkpt lat="48.70273" lon="1.90138">
        <ele>247.2</ele>
        <time>2013-02-24T09:01:37Z</time>
      </trkpt>
      <trkpt lat="48.70274" lon="1.90123">
        <ele>247.4</ele>
        <time>2013-02-24T09:01:42Z</time>
      </trkpt>
      <trkpt lat="48.70275" lon="1.9012">
        <ele>247.4</ele>
        <time>2013-02-24T09:01:43Z</time>
      </trkpt>
      <trkpt lat="48.7028" lon="1.90111">
        <ele>247.4</ele>
        <time>2013-02-24T09:01:47Z</time>
      </trkpt>
      <trkpt lat="48.70282" lon="1.90103">
        <ele>247.4</ele>
        <time>2013-02-24T09:01:49Z</time>
      </trkpt>
      <trkpt lat="48.70286" lon="1.90087">
        <ele>247.4</ele>
        <time>2013-02-24T09:01:53Z</time>
      </trkpt>
      <trkpt lat="48.70289" lon="1.90069">
        <ele>247.4</ele>
        <time>2013-02-24T09:01:58Z</time>
      </trkpt>
      <trkpt lat="48.70289" lon="1.90068">
        <ele>247.4</ele>
        <time>2013-02-24T09:01:59Z</time>
      </trkpt>
      <trkpt lat="48.7029" lon="1.90055">
        <ele>247.4</ele>
        <time>2013-02-24T09:02:04Z</time>
      </trkpt>
      <trkpt lat="48.70291" lon="1.90041">
        <ele>247.4</ele>
        <time>2013-02-24T09:02:07Z</time>
      </trkpt>
      <trkpt lat="48.70292" lon="1.90038">
        <ele>247.4</ele>
        <time>2013-02-24T09:02:08Z</time>
      </trkpt>
      <trkpt lat="48.70293" lon="1.90026">
        <ele>247.4</ele>
        <time>2013-02-24T09:02:11Z</time>
      </trkpt>
      <trkpt lat="48.70295" lon="1.9001">
        <ele>247.4</ele>
        <time>2013-02-24T09:02:15Z</time>
      </trkpt>
      <trkpt lat="48.70298" lon="1.89999">
        <ele>247.4</ele>
        <time>2013-02-24T09:02:19Z</time>
      </trkpt>
      <trkpt lat="48.703" lon="1.89986">
        <ele>247.4</ele>
        <time>2013-02-24T09:02:23Z</time>
      </trkpt>
      <trkpt lat="48.70303" lon="1.8997">
        <ele>247.4</ele>
        <time>2013-02-24T09:02:27Z</time>
      </trkpt>
      <trkpt lat="48.70301" lon="1.8995">
        <ele>247.4</ele>
        <time>2013-02-24T09:02:32Z</time>
      </trkpt>
      <trkpt lat="48.70299" lon="1.89936">
        <ele>247.4</ele>
        <time>2013-02-24T09:02:36Z</time>
      </trkpt>
      <trkpt lat="48.703" lon="1.89921">
        <ele>247.4</ele>
        <time>2013-02-24T09:02:41Z</time>
      </trkpt>
      <trkpt lat="48.70302" lon="1.89912">
        <ele>247.4</ele>
        <time>2013-02-24T09:02:45Z</time>
      </trkpt>
      <trkpt lat="48.70309" lon="1.89897">
        <ele>247.4</ele>
        <time>2013-02-24T09:02:52Z</time>
      </trkpt>
      <trkpt lat="48.7031" lon="1.89891">
        <ele>247.4</ele>
        <time>2013-02-24T09:02:54Z</time>
      </trkpt>
      <trkpt lat="48.70316" lon="1.8987">
        <ele>247.4</ele>
        <time>2013-02-24T09:03:00Z</time>
      </trkpt>
      <trkpt lat="48.70317" lon="1.89865">
        <ele>247.6</ele>
        <time>2013-02-24T09:03:01Z</time>
      </trkpt>
      <trkpt lat="48.70321" lon="1.89845">
        <ele>248.4</ele>
        <time>2013-02-24T09:03:06Z</time>
      </trkpt>
      <trkpt lat="48.70322" lon="1.89835">
        <ele>248.8</ele>
        <time>2013-02-24T09:03:09Z</time>
      </trkpt>
      <trkpt lat="48.70322" lon="1.89835">
        <ele>248.8</ele>
        <time>2013-02-24T09:03:09Z</time>
      </trkpt>
      <trkpt lat="48.70323" lon="1.89832">
        <ele>248.8</ele>
        <time>2013-02-24T09:03:10Z</time>
      </trkpt>
      <trkpt lat="48.70329" lon="1.89812">
        <ele>249</ele>
        <time>2013-02-24T09:03:15Z</time>
      </trkpt>
      <trkpt lat="48.70336" lon="1.89787">
        <ele>249.2</ele>
        <time>2013-02-24T09:03:21Z</time>
      </trkpt>
      <trkpt lat="48.70345" lon="1.89767">
        <ele>249.4</ele>
        <time>2013-02-24T09:03:26Z</time>
      </trkpt>
      <trkpt lat="48.70349" lon="1.89757">
        <ele>249.4</ele>
        <time>2013-02-24T09:03:29Z</time>
      </trkpt>
      <trkpt lat="48.70355" lon="1.89743">
        <ele>249.4</ele>
        <time>2013-02-24T09:03:33Z</time>
      </trkpt>
      <trkpt lat="48.7036" lon="1.89732">
        <ele>249.4</ele>
        <time>2013-02-24T09:03:36Z</time>
      </trkpt>
      <trkpt lat="48.70366" lon="1.89722">
        <ele>249.4</ele>
        <time>2013-02-24T09:03:41Z</time>
      </trkpt>
      <trkpt lat="48.7037" lon="1.89711">
        <ele>249.6</ele>
        <time>2013-02-24T09:03:45Z</time>
      </trkpt>
      <trkpt lat="48.70376" lon="1.897">
        <ele>249.6</ele>
        <time>2013-02-24T09:03:48Z</time>
      </trkpt>
      <trkpt lat="48.70378" lon="1.89697">
        <ele>249.6</ele>
        <time>2013-02-24T09:03:49Z</time>
      </trkpt>
      <trkpt lat="48.70383" lon="1.89687">
        <ele>249.6</ele>
        <time>2013-02-24T09:03:52Z</time>
      </trkpt>
      <trkpt lat="48.70391" lon="1.89678">
        <ele>249.6</ele>
        <time>2013-02-24T09:03:57Z</time>
      </trkpt>
      <trkpt lat="48.70392" lon="1.89667">
        <ele>249.6</ele>
        <time>2013-02-24T09:04:01Z</time>
      </trkpt>
      <trkpt lat="48.70393" lon="1.89665">
        <ele>249.6</ele>
        <time>2013-02-24T09:04:02Z</time>
      </trkpt>
      <trkpt lat="48.70397" lon="1.89656">
        <ele>249.6</ele>
        <time>2013-02-24T09:04:05Z</time>
      </trkpt>
      <trkpt lat="48.704" lon="1.89641">
        <ele>249.6</ele>
        <time>2013-02-24T09:04:10Z</time>
      </trkpt>
      <trkpt lat="48.70401" lon="1.89633">
        <ele>249.6</ele>
        <time>2013-02-24T09:04:12Z</time>
      </trkpt>
      <trkpt lat="48.70403" lon="1.89612">
        <ele>249.6</ele>
        <time>2013-02-24T09:04:17Z</time>
      </trkpt>
      <trkpt lat="48.70404" lon="1.89594">
        <ele>249.6</ele>
        <time>2013-02-24T09:04:21Z</time>
      </trkpt>
      <trkpt lat="48.70404" lon="1.89571">
        <ele>249.2</ele>
        <time>2013-02-24T09:04:26Z</time>
      </trkpt>
      <trkpt lat="48.70402" lon="1.89554">
        <ele>248.4</ele>
        <time>2013-02-24T09:04:31Z</time>
      </trkpt>
      <trkpt lat="48.70397" lon="1.89538">
        <ele>248</ele>
        <time>2013-02-24T09:04:36Z</time>
      </trkpt>
      <trkpt lat="48.70391" lon="1.89522">
        <ele>247.8</ele>
        <time>2013-02-24T09:04:42Z</time>
      </trkpt>
      <trkpt lat="48.70387" lon="1.89509">
        <ele>247.8</ele>
        <time>2013-02-24T09:04:46Z</time>
      </trkpt>
      <trkpt lat="48.70382" lon="1.89493">
        <ele>247</ele>
        <time>2013-02-24T09:04:51Z</time>
      </trkpt>
      <trkpt lat="48.70378" lon="1.89473">
        <ele>246.4</ele>
        <time>2013-02-24T09:04:56Z</time>
      </trkpt>
      <trkpt lat="48.70379" lon="1.89462">
        <ele>246</ele>
        <time>2013-02-24T09:04:59Z</time>
      </trkpt>
      <trkpt lat="48.70381" lon="1.89442">
        <ele>245</ele>
        <time>2013-02-24T09:05:04Z</time>
      </trkpt>
      <trkpt lat="48.70385" lon="1.89425">
        <ele>244.4</ele>
        <time>2013-02-24T09:05:09Z</time>
      </trkpt>
      <trkpt lat="48.70384" lon="1.89407">
        <ele>244</ele>
        <time>2013-02-24T09:05:13Z</time>
      </trkpt>
      <trkpt lat="48.70379" lon="1.89397">
        <ele>243.2</ele>
        <time>2013-02-24T09:05:17Z</time>
      </trkpt>
      <trkpt lat="48.70375" lon="1.89391">
        <ele>242.8</ele>
        <time>2013-02-24T09:05:20Z</time>
      </trkpt>
      <trkpt lat="48.70371" lon="1.89385">
        <ele>242.2</ele>
        <time>2013-02-24T09:05:23Z</time>
      </trkpt>
      <trkpt lat="48.7037" lon="1.8938">
        <ele>241.6</ele>
        <time>2013-02-24T09:05:25Z</time>
      </trkpt>
      <trkpt lat="48.70359" lon="1.89371">
        <ele>240</ele>
        <time>2013-02-24T09:05:30Z</time>
      </trkpt>
      <trkpt lat="48.70357" lon="1.89371">
        <ele>239.8</ele>
        <time>2013-02-24T09:05:31Z</time>
      </trkpt>
      <trkpt lat="48.70349" lon="1.89373">
        <ele>238.4</ele>
        <time>2013-02-24T09:05:35Z</time>
      </trkpt>
      <trkpt lat="48.7034" lon="1.89374">
        <ele>237</ele>
        <time>2013-02-24T09:05:39Z</time>
      </trkpt>
      <trkpt lat="48.70336" lon="1.89376">
        <ele>236.2</ele>
        <time>2013-02-24T09:05:41Z</time>
      </trkpt>
      <trkpt lat="48.70324" lon="1.89383">
        <ele>233.8</ele>
        <time>2013-02-24T09:05:47Z</time>
      </trkpt>
      <trkpt lat="48.70315" lon="1.8938">
        <ele>232</ele>
        <time>2013-02-24T09:05:51Z</time>
      </trkpt>
      <trkpt lat="48.70305" lon="1.89378">
        <ele>230.2</ele>
        <time>2013-02-24T09:05:55Z</time>
      </trkpt>
      <trkpt lat="48.70292" lon="1.89375">
        <ele>227.4</ele>
        <time>2013-02-24T09:06:01Z</time>
      </trkpt>
      <trkpt lat="48.70278" lon="1.89372">
        <ele>224.6</ele>
        <time>2013-02-24T09:06:06Z</time>
      </trkpt>
      <trkpt lat="48.70269" lon="1.89372">
        <ele>222.4</ele>
        <time>2013-02-24T09:06:09Z</time>
      </trkpt>
      <trkpt lat="48.7027" lon="1.89391">
        <ele>219.4</ele>
        <time>2013-02-24T09:06:14Z</time>
      </trkpt>
      <trkpt lat="48.70275" lon="1.89416">
        <ele>215.6</ele>
        <time>2013-02-24T09:06:21Z</time>
      </trkpt>
      <trkpt lat="48.70279" lon="1.89434">
        <ele>212.2</ele>
        <time>2013-02-24T09:06:27Z</time>
      </trkpt>
      <trkpt lat="48.70286" lon="1.89444">
        <ele>209.6</ele>
        <time>2013-02-24T09:06:32Z</time>
      </trkpt>
      <trkpt lat="48.70291" lon="1.89454">
        <ele>208</ele>
        <time>2013-02-24T09:06:35Z</time>
      </trkpt>
      <trkpt lat="48.70297" lon="1.89465">
        <ele>205.4</ele>
        <time>2013-02-24T09:06:40Z</time>
      </trkpt>
      <trkpt lat="48.70302" lon="1.89471">
        <ele>204.2</ele>
        <time>2013-02-24T09:06:42Z</time>
      </trkpt>
      <trkpt lat="48.70307" lon="1.89476">
        <ele>203.2</ele>
        <time>2013-02-24T09:06:44Z</time>
      </trkpt>
      <trkpt lat="48.70317" lon="1.89494">
        <ele>200.8</ele>
        <time>2013-02-24T09:06:49Z</time>
      </trkpt>
      <trkpt lat="48.70321" lon="1.89511">
        <ele>198.8</ele>
        <time>2013-02-24T09:06:53Z</time>
      </trkpt>
      <trkpt lat="48.7032" lon="1.8952">
        <ele>197.8</ele>
        <time>2013-02-24T09:06:55Z</time>
      </trkpt>
      <trkpt lat="48.70315" lon="1.89535">
        <ele>195.4</ele>
        <time>2013-02-24T09:07:00Z</time>
      </trkpt>
      <trkpt lat="48.70307" lon="1.8955">
        <ele>192.6</ele>
        <time>2013-02-24T09:07:05Z</time>
      </trkpt>
      <trkpt lat="48.70301" lon="1.89561">
        <ele>191.2</ele>
        <time>2013-02-24T09:07:08Z</time>
      </trkpt>
      <trkpt lat="48.70286" lon="1.89573">
        <ele>187.6</ele>
        <time>2013-02-24T09:07:15Z</time>
      </trkpt>
      <trkpt lat="48.70276" lon="1.8958">
        <ele>185.8</ele>
        <time>2013-02-24T09:07:19Z</time>
      </trkpt>
      <trkpt lat="48.70266" lon="1.89588">
        <ele>183.6</ele>
        <time>2013-02-24T09:07:23Z</time>
      </trkpt>
      <trkpt lat="48.70256" lon="1.89603">
        <ele>181.4</ele>
        <time>2013-02-24T09:07:28Z</time>
      </trkpt>
      <trkpt lat="48.70251" lon="1.8961">
        <ele>180.4</ele>
        <time>2013-02-24T09:07:31Z</time>
      </trkpt>
      <trkpt lat="48.70242" lon="1.89624">
        <ele>178.4</ele>
        <time>2013-02-24T09:07:36Z</time>
      </trkpt>
      <trkpt lat="48.7024" lon="1.89628">
        <ele>178</ele>
        <time>2013-02-24T09:07:37Z</time>
      </trkpt>
      <trkpt lat="48.70234" lon="1.89637">
        <ele>177.2</ele>
        <time>2013-02-24T09:07:40Z</time>
      </trkpt>
      <trkpt lat="48.70233" lon="1.89641">
        <ele>177</ele>
        <time>2013-02-24T09:07:41Z</time>
      </trkpt>
      <trkpt lat="48.70223" lon="1.89654">
        <ele>176.4</ele>
        <time>2013-02-24T09:07:46Z</time>
      </trkpt>
      <trkpt lat="48.7021" lon="1.89674">
        <ele>175.8</ele>
        <time>2013-02-24T09:07:53Z</time>
      </trkpt>
      <trkpt lat="48.70205" lon="1.89682">
        <ele>175.6</ele>
        <time>2013-02-24T09:07:56Z</time>
      </trkpt>
      <trkpt lat="48.70198" lon="1.89693">
        <ele>175.4</ele>
        <time>2013-02-24T09:08:00Z</time>
      </trkpt>
      <trkpt lat="48.70187" lon="1.89712">
        <ele>174.8</ele>
        <time>2013-02-24T09:08:06Z</time>
      </trkpt>
      <trkpt lat="48.70179" lon="1.89722">
        <ele>174.2</ele>
        <time>2013-02-24T09:08:10Z</time>
      </trkpt>
      <trkpt lat="48.70168" lon="1.89738">
        <ele>173.8</ele>
        <time>2013-02-24T09:08:15Z</time>
      </trkpt>
      <trkpt lat="48.70164" lon="1.8975">
        <ele>173.6</ele>
        <time>2013-02-24T09:08:19Z</time>
      </trkpt>
      <trkpt lat="48.70162" lon="1.89766">
        <ele>173.4</ele>
        <time>2013-02-24T09:08:23Z</time>
      </trkpt>
      <trkpt lat="48.70161" lon="1.89768">
        <ele>173.4</ele>
        <time>2013-02-24T09:08:24Z</time>
      </trkpt>
      <trkpt lat="48.70159" lon="1.89785">
        <ele>173.4</ele>
        <time>2013-02-24T09:08:29Z</time>
      </trkpt>
      <trkpt lat="48.7016" lon="1.89787">
        <ele>173.4</ele>
        <time>2013-02-24T09:08:30Z</time>
      </trkpt>
      <trkpt lat="48.70159" lon="1.89796">
        <ele>173.2</ele>
        <time>2013-02-24T09:08:35Z</time>
      </trkpt>
      <trkpt lat="48.7016" lon="1.89805">
        <ele>172.8</ele>
        <time>2013-02-24T09:08:40Z</time>
      </trkpt>
      <trkpt lat="48.70161" lon="1.89824">
        <ele>171.8</ele>
        <time>2013-02-24T09:08:49Z</time>
      </trkpt>
      <trkpt lat="48.70164" lon="1.89839">
        <ele>171.4</ele>
        <time>2013-02-24T09:08:56Z</time>
      </trkpt>
      <trkpt lat="48.70168" lon="1.8985">
        <ele>171.4</ele>
        <time>2013-02-24T09:09:00Z</time>
      </trkpt>
      <trkpt lat="48.7017" lon="1.89857">
        <ele>171.2</ele>
        <time>2013-02-24T09:09:05Z</time>
      </trkpt>
      <trkpt lat="48.70172" lon="1.8986">
        <ele>171.2</ele>
        <time>2013-02-24T09:09:08Z</time>
      </trkpt>
      <trkpt lat="48.70177" lon="1.8987">
        <ele>172.6</ele>
        <time>2013-02-24T09:09:15Z</time>
      </trkpt>
      <trkpt lat="48.7018" lon="1.89882">
        <ele>174.8</ele>
        <time>2013-02-24T09:09:21Z</time>
      </trkpt>
      <trkpt lat="48.70181" lon="1.89892">
        <ele>177.6</ele>
        <time>2013-02-24T09:09:27Z</time>
      </trkpt>
      <trkpt lat="48.70182" lon="1.89899">
        <ele>179.6</ele>
        <time>2013-02-24T09:09:31Z</time>
      </trkpt>
      <trkpt lat="48.70185" lon="1.8991">
        <ele>182.4</ele>
        <time>2013-02-24T09:09:37Z</time>
      </trkpt>
      <trkpt lat="48.70188" lon="1.89923">
        <ele>185.4</ele>
        <time>2013-02-24T09:09:44Z</time>
      </trkpt>
      <trkpt lat="48.70187" lon="1.89924">
        <ele>185.8</ele>
        <time>2013-02-24T09:09:45Z</time>
      </trkpt>
      <trkpt lat="48.70187" lon="1.89924">
        <ele>185.8</ele>
        <time>2013-02-24T09:09:45Z</time>
      </trkpt>
      <trkpt lat="48.70189" lon="1.89933">
        <ele>188</ele>
        <time>2013-02-24T09:09:50Z</time>
      </trkpt>
      <trkpt lat="48.70189" lon="1.89937">
        <ele>188.4</ele>
        <time>2013-02-24T09:09:52Z</time>
      </trkpt>
      <trkpt lat="48.70192" lon="1.89946">
        <ele>190.4</ele>
        <time>2013-02-24T09:09:56Z</time>
      </trkpt>
      <trkpt lat="48.70194" lon="1.89954">
        <ele>192.2</ele>
        <time>2013-02-24T09:10:00Z</time>
      </trkpt>
      <trkpt lat="48.70195" lon="1.89958">
        <ele>192.8</ele>
        <time>2013-02-24T09:10:02Z</time>
      </trkpt>
      <trkpt lat="48.70198" lon="1.89968">
        <ele>195.2</ele>
        <time>2013-02-24T09:10:08Z</time>
      </trkpt>
      <trkpt lat="48.70199" lon="1.89971">
        <ele>196</ele>
        <time>2013-02-24T09:10:10Z</time>
      </trkpt>
      <trkpt lat="48.70201" lon="1.89979">
        <ele>197.8</ele>
        <time>2013-02-24T09:10:15Z</time>
      </trkpt>
      <trkpt lat="48.70204" lon="1.89987">
        <ele>199.6</ele>
        <time>2013-02-24T09:10:20Z</time>
      </trkpt>
      <trkpt lat="48.70206" lon="1.89997">
        <ele>201.8</ele>
        <time>2013-02-24T09:10:26Z</time>
      </trkpt>
      <trkpt lat="48.70208" lon="1.90003">
        <ele>203.4</ele>
        <time>2013-02-24T09:10:30Z</time>
      </trkpt>
      <trkpt lat="48.70209" lon="1.90006">
        <ele>204</ele>
        <time>2013-02-24T09:10:32Z</time>
      </trkpt>
      <trkpt lat="48.70213" lon="1.90012">
        <ele>206.6</ele>
        <time>2013-02-24T09:10:39Z</time>
      </trkpt>
      <trkpt lat="48.70214" lon="1.90013">
        <ele>207</ele>
        <time>2013-02-24T09:10:40Z</time>
      </trkpt>
      <trkpt lat="48.70216" lon="1.90017">
        <ele>208.6</ele>
        <time>2013-02-24T09:10:44Z</time>
      </trkpt>
      <trkpt lat="48.70218" lon="1.90024">
        <ele>211.4</ele>
        <time>2013-02-24T09:10:51Z</time>
      </trkpt>
      <trkpt lat="48.7022" lon="1.90028">
        <ele>213</ele>
        <time>2013-02-24T09:10:55Z</time>
      </trkpt>
      <trkpt lat="48.70225" lon="1.90042">
        <ele>215.4</ele>
        <time>2013-02-24T09:11:02Z</time>
      </trkpt>
      <trkpt lat="48.7023" lon="1.90053">
        <ele>217</ele>
        <time>2013-02-24T09:11:07Z</time>
      </trkpt>
      <trkpt lat="48.7023" lon="1.9006">
        <ele>218.2</ele>
        <time>2013-02-24T09:11:10Z</time>
      </trkpt>
      <trkpt lat="48.70228" lon="1.90075">
        <ele>220.4</ele>
        <time>2013-02-24T09:11:17Z</time>
      </trkpt>
      <trkpt lat="48.70228" lon="1.90078">
        <ele>220.8</ele>
        <time>2013-02-24T09:11:18Z</time>
      </trkpt>
      <trkpt lat="48.70221" lon="1.90089">
        <ele>223</ele>
        <time>2013-02-24T09:11:25Z</time>
      </trkpt>
      <trkpt lat="48.70212" lon="1.90096">
        <ele>225</ele>
        <time>2013-02-24T09:11:31Z</time>
      </trkpt>
      <trkpt lat="48.70205" lon="1.90113">
        <ele>226.2</ele>
        <time>2013-02-24T09:11:36Z</time>
      </trkpt>
      <trkpt lat="48.70204" lon="1.90117">
        <ele>226.6</ele>
        <time>2013-02-24T09:11:37Z</time>
      </trkpt>
      <trkpt lat="48.70197" lon="1.90125">
        <ele>227.6</ele>
        <time>2013-02-24T09:11:40Z</time>
      </trkpt>
      <trkpt lat="48.70192" lon="1.90141">
        <ele>228.6</ele>
        <time>2013-02-24T09:11:45Z</time>
      </trkpt>
      <trkpt lat="48.7019" lon="1.90143">
        <ele>228.8</ele>
        <time>2013-02-24T09:11:46Z</time>
      </trkpt>
      <trkpt lat="48.70184" lon="1.90156">
        <ele>229.2</ele>
        <time>2013-02-24T09:11:50Z</time>
      </trkpt>
      <trkpt lat="48.7018" lon="1.90167">
        <ele>229.6</ele>
        <time>2013-02-24T09:11:53Z</time>
      </trkpt>
      <trkpt lat="48.70177" lon="1.90177">
        <ele>229.8</ele>
        <time>2013-02-24T09:11:56Z</time>
      </trkpt>
      <trkpt lat="48.70176" lon="1.9018">
        <ele>229.8</ele>
        <time>2013-02-24T09:11:57Z</time>
      </trkpt>
      <trkpt lat="48.70174" lon="1.90182">
        <ele>229.8</ele>
        <time>2013-02-24T09:11:58Z</time>
      </trkpt>
      <trkpt lat="48.70169" lon="1.90188">
        <ele>230</ele>
        <time>2013-02-24T09:12:02Z</time>
      </trkpt>
      <trkpt lat="48.70165" lon="1.90197">
        <ele>230</ele>
        <time>2013-02-24T09:12:05Z</time>
      </trkpt>
      <trkpt lat="48.7016" lon="1.90203">
        <ele>230</ele>
        <time>2013-02-24T09:12:09Z</time>
      </trkpt>
      <trkpt lat="48.70156" lon="1.90209">
        <ele>230.2</ele>
        <time>2013-02-24T09:12:13Z</time>
      </trkpt>
      <trkpt lat="48.7015" lon="1.90208">
        <ele>230.2</ele>
        <time>2013-02-24T09:12:17Z</time>
      </trkpt>
      <trkpt lat="48.70146" lon="1.90209">
        <ele>230.2</ele>
        <time>2013-02-24T09:12:19Z</time>
      </trkpt>
      <trkpt lat="48.70132" lon="1.90218">
        <ele>229.8</ele>
        <time>2013-02-24T09:12:26Z</time>
      </trkpt>
      <trkpt lat="48.70124" lon="1.90222">
        <ele>229.2</ele>
        <time>2013-02-24T09:12:30Z</time>
      </trkpt>
      <trkpt lat="48.70123" lon="1.90222">
        <ele>228.8</ele>
        <time>2013-02-24T09:12:31Z</time>
      </trkpt>
      <trkpt lat="48.70114" lon="1.90226">
        <ele>227.4</ele>
        <time>2013-02-24T09:12:36Z</time>
      </trkpt>
      <trkpt lat="48.70111" lon="1.90227">
        <ele>227</ele>
        <time>2013-02-24T09:12:37Z</time>
      </trkpt>
      <trkpt lat="48.701" lon="1.90234">
        <ele>225.2</ele>
        <time>2013-02-24T09:12:42Z</time>
      </trkpt>
      <trkpt lat="48.70089" lon="1.90239">
        <ele>223.4</ele>
        <time>2013-02-24T09:12:46Z</time>
      </trkpt>
      <trkpt lat="48.70075" lon="1.90243">
        <ele>221</ele>
        <time>2013-02-24T09:12:51Z</time>
      </trkpt>
      <trkpt lat="48.70059" lon="1.90248">
        <ele>218.4</ele>
        <time>2013-02-24T09:12:56Z</time>
      </trkpt>
      <trkpt lat="48.70044" lon="1.90253">
        <ele>215.6</ele>
        <time>2013-02-24T09:13:01Z</time>
      </trkpt>
      <trkpt lat="48.7003" lon="1.9026">
        <ele>212.8</ele>
        <time>2013-02-24T09:13:06Z</time>
      </trkpt>
      <trkpt lat="48.70015" lon="1.90263">
        <ele>210</ele>
        <time>2013-02-24T09:13:11Z</time>
      </trkpt>
      <trkpt lat="48.70005" lon="1.90261">
        <ele>207.6</ele>
        <time>2013-02-24T09:13:15Z</time>
      </trkpt>
      <trkpt lat="48.70002" lon="1.90264">
        <ele>206.8</ele>
        <time>2013-02-24T09:13:16Z</time>
      </trkpt>
      <trkpt lat="48.69998" lon="1.9027">
        <ele>205.6</ele>
        <time>2013-02-24T09:13:18Z</time>
      </trkpt>
      <trkpt lat="48.69988" lon="1.90276">
        <ele>203.2</ele>
        <time>2013-02-24T09:13:22Z</time>
      </trkpt>
      <trkpt lat="48.69985" lon="1.90291">
        <ele>201</ele>
        <time>2013-02-24T09:13:26Z</time>
      </trkpt>
      <trkpt lat="48.69984" lon="1.90308">
        <ele>199</ele>
        <time>2013-02-24T09:13:30Z</time>
      </trkpt>
      <trkpt lat="48.69984" lon="1.90318">
        <ele>198</ele>
        <time>2013-02-24T09:13:33Z</time>
      </trkpt>
      <trkpt lat="48.69984" lon="1.90331">
        <ele>196.8</ele>
        <time>2013-02-24T09:13:36Z</time>
      </trkpt>
      <trkpt lat="48.69986" lon="1.90339">
        <ele>195.8</ele>
        <time>2013-02-24T09:13:39Z</time>
      </trkpt>
      <trkpt lat="48.69987" lon="1.90345">
        <ele>195.4</ele>
        <time>2013-02-24T09:13:41Z</time>
      </trkpt>
      <trkpt lat="48.69988" lon="1.90355">
        <ele>195</ele>
        <time>2013-02-24T09:13:44Z</time>
      </trkpt>
      <trkpt lat="48.69988" lon="1.90358">
        <ele>194.8</ele>
        <time>2013-02-24T09:13:45Z</time>
      </trkpt>
      <trkpt lat="48.6999" lon="1.90373">
        <ele>193.6</ele>
        <time>2013-02-24T09:13:49Z</time>
      </trkpt>
      <trkpt lat="48.69993" lon="1.90385">
        <ele>193</ele>
        <time>2013-02-24T09:13:52Z</time>
      </trkpt>
      <trkpt lat="48.69997" lon="1.904">
        <ele>192.4</ele>
        <time>2013-02-24T09:13:56Z</time>
      </trkpt>
      <trkpt lat="48.7" lon="1.90412">
        <ele>192.2</ele>
        <time>2013-02-24T09:14:00Z</time>
      </trkpt>
      <trkpt lat="48.70002" lon="1.90414">
        <ele>191.8</ele>
        <time>2013-02-24T09:14:01Z</time>
      </trkpt>
      <trkpt lat="48.70006" lon="1.90426">
        <ele>191</ele>
        <time>2013-02-24T09:14:05Z</time>
      </trkpt>
      <trkpt lat="48.70007" lon="1.9043">
        <ele>190.8</ele>
        <time>2013-02-24T09:14:06Z</time>
      </trkpt>
      <trkpt lat="48.70007" lon="1.90443">
        <ele>190.4</ele>
        <time>2013-02-24T09:14:10Z</time>
      </trkpt>
      <trkpt lat="48.70008" lon="1.90445">
        <ele>190.2</ele>
        <time>2013-02-24T09:14:11Z</time>
      </trkpt>
      <trkpt lat="48.70008" lon="1.90462">
        <ele>189.2</ele>
        <time>2013-02-24T09:14:15Z</time>
      </trkpt>
      <trkpt lat="48.7001" lon="1.90484">
        <ele>188.4</ele>
        <time>2013-02-24T09:14:20Z</time>
      </trkpt>
      <trkpt lat="48.70015" lon="1.90502">
        <ele>187.6</ele>
        <time>2013-02-24T09:14:24Z</time>
      </trkpt>
      <trkpt lat="48.70018" lon="1.9052">
        <ele>186.6</ele>
        <time>2013-02-24T09:14:28Z</time>
      </trkpt>
      <trkpt lat="48.70018" lon="1.90524">
        <ele>186.4</ele>
        <time>2013-02-24T09:14:29Z</time>
      </trkpt>
      <trkpt lat="48.70021" lon="1.90542">
        <ele>186</ele>
        <time>2013-02-24T09:14:33Z</time>
      </trkpt>
      <trkpt lat="48.70029" lon="1.90561">
        <ele>185.2</ele>
        <time>2013-02-24T09:14:39Z</time>
      </trkpt>
      <trkpt lat="48.70029" lon="1.90564">
        <ele>184.8</ele>
        <time>2013-02-24T09:14:40Z</time>
      </trkpt>
      <trkpt lat="48.70037" lon="1.90578">
        <ele>184</ele>
        <time>2013-02-24T09:14:45Z</time>
      </trkpt>
      <trkpt lat="48.70038" lon="1.90581">
        <ele>184</ele>
        <time>2013-02-24T09:14:46Z</time>
      </trkpt>
      <trkpt lat="48.70045" lon="1.90601">
        <ele>183.6</ele>
        <time>2013-02-24T09:14:50Z</time>
      </trkpt>
      <trkpt lat="48.70051" lon="1.90618">
        <ele>183.4</ele>
        <time>2013-02-24T09:14:54Z</time>
      </trkpt>
      <trkpt lat="48.70054" lon="1.90637">
        <ele>182.8</ele>
        <time>2013-02-24T09:14:58Z</time>
      </trkpt>
      <trkpt lat="48.70056" lon="1.90655">
        <ele>182.2</ele>
        <time>2013-02-24T09:15:02Z</time>
      </trkpt>
      <trkpt lat="48.70057" lon="1.9066">
        <ele>182</ele>
        <time>2013-02-24T09:15:03Z</time>
      </trkpt>
      <trkpt lat="48.70053" lon="1.9068">
        <ele>181.4</ele>
        <time>2013-02-24T09:15:09Z</time>
      </trkpt>
      <trkpt lat="48.70042" lon="1.90695">
        <ele>181.2</ele>
        <time>2013-02-24T09:15:14Z</time>
      </trkpt>
      <trkpt lat="48.70031" lon="1.90705">
        <ele>181.2</ele>
        <time>2013-02-24T09:15:18Z</time>
      </trkpt>
      <trkpt lat="48.70022" lon="1.90716">
        <ele>180.4</ele>
        <time>2013-02-24T09:15:22Z</time>
      </trkpt>
      <trkpt lat="48.70011" lon="1.90735">
        <ele>179.4</ele>
        <time>2013-02-24T09:15:28Z</time>
      </trkpt>
      <trkpt lat="48.70009" lon="1.90739">
        <ele>179.2</ele>
        <time>2013-02-24T09:15:29Z</time>
      </trkpt>
      <trkpt lat="48.69998" lon="1.90759">
        <ele>178</ele>
        <time>2013-02-24T09:15:35Z</time>
      </trkpt>
      <trkpt lat="48.69992" lon="1.90771">
        <ele>177.6</ele>
        <time>2013-02-24T09:15:38Z</time>
      </trkpt>
      <trkpt lat="48.69983" lon="1.90781">
        <ele>176.8</ele>
        <time>2013-02-24T09:15:43Z</time>
      </trkpt>
      <trkpt lat="48.69977" lon="1.90794">
        <ele>176</ele>
        <time>2013-02-24T09:15:47Z</time>
      </trkpt>
      <trkpt lat="48.69971" lon="1.90809">
        <ele>175.6</ele>
        <time>2013-02-24T09:15:51Z</time>
      </trkpt>
      <trkpt lat="48.69965" lon="1.90831">
        <ele>175.2</ele>
        <time>2013-02-24T09:15:57Z</time>
      </trkpt>
      <trkpt lat="48.69957" lon="1.90851">
        <ele>175</ele>
        <time>2013-02-24T09:16:02Z</time>
      </trkpt>
      <trkpt lat="48.69951" lon="1.90871">
        <ele>174.8</ele>
        <time>2013-02-24T09:16:07Z</time>
      </trkpt>
      <trkpt lat="48.69948" lon="1.90884">
        <ele>174.8</ele>
        <time>2013-02-24T09:16:11Z</time>
      </trkpt>
      <trkpt lat="48.69944" lon="1.90901">
        <ele>175.6</ele>
        <time>2013-02-24T09:16:17Z</time>
      </trkpt>
      <trkpt lat="48.69941" lon="1.90914">
        <ele>176</ele>
        <time>2013-02-24T09:16:21Z</time>
      </trkpt>
      <trkpt lat="48.69938" lon="1.9093">
        <ele>176.2</ele>
        <time>2013-02-24T09:16:26Z</time>
      </trkpt>
      <trkpt lat="48.69938" lon="1.90933">
        <ele>176.4</ele>
        <time>2013-02-24T09:16:27Z</time>
      </trkpt>
      <trkpt lat="48.69938" lon="1.90933">
        <ele>176.4</ele>
        <time>2013-02-24T09:16:27Z</time>
      </trkpt>
      <trkpt lat="48.69941" lon="1.90941">
        <ele>176.4</ele>
        <time>2013-02-24T09:16:31Z</time>
      </trkpt>
      <trkpt lat="48.69941" lon="1.90943">
        <ele>176.6</ele>
        <time>2013-02-24T09:16:32Z</time>
      </trkpt>
      <trkpt lat="48.69944" lon="1.90958">
        <ele>178.4</ele>
        <time>2013-02-24T09:16:40Z</time>
      </trkpt>
      <trkpt lat="48.69947" lon="1.90972">
        <ele>180.2</ele>
        <time>2013-02-24T09:16:48Z</time>
      </trkpt>
      <trkpt lat="48.6995" lon="1.90987">
        <ele>181.8</ele>
        <time>2013-02-24T09:16:55Z</time>
      </trkpt>
      <trkpt lat="48.6995" lon="1.9099">
        <ele>181.8</ele>
        <time>2013-02-24T09:16:56Z</time>
      </trkpt>
      <trkpt lat="48.69952" lon="1.91003">
        <ele>182.8</ele>
        <time>2013-02-24T09:17:02Z</time>
      </trkpt>
      <trkpt lat="48.69952" lon="1.91012">
        <ele>183.8</ele>
        <time>2013-02-24T09:17:07Z</time>
      </trkpt>
      <trkpt lat="48.69955" lon="1.91024">
        <ele>184.6</ele>
        <time>2013-02-24T09:17:15Z</time>
      </trkpt>
      <trkpt lat="48.69955" lon="1.91026">
        <ele>184.6</ele>
        <time>2013-02-24T09:17:16Z</time>
      </trkpt>
      <trkpt lat="48.69954" lon="1.91033">
        <ele>185.2</ele>
        <time>2013-02-24T09:17:20Z</time>
      </trkpt>
      <trkpt lat="48.69955" lon="1.91036">
        <ele>185.6</ele>
        <time>2013-02-24T09:17:22Z</time>
      </trkpt>
      <trkpt lat="48.69957" lon="1.91049">
        <ele>186.4</ele>
        <time>2013-02-24T09:17:28Z</time>
      </trkpt>
      <trkpt lat="48.6996" lon="1.91061">
        <ele>186.8</ele>
        <time>2013-02-24T09:17:35Z</time>
      </trkpt>
      <trkpt lat="48.6996" lon="1.91067">
        <ele>187.6</ele>
        <time>2013-02-24T09:17:39Z</time>
      </trkpt>
      <trkpt lat="48.69962" lon="1.91077">
        <ele>188.4</ele>
        <time>2013-02-24T09:17:45Z</time>
      </trkpt>
      <trkpt lat="48.69965" lon="1.91088">
        <ele>189.6</ele>
        <time>2013-02-24T09:17:50Z</time>
      </trkpt>
      <trkpt lat="48.69965" lon="1.91092">
        <ele>189.8</ele>
        <time>2013-02-24T09:17:52Z</time>
      </trkpt>
      <trkpt lat="48.69968" lon="1.91107">
        <ele>190.6</ele>
        <time>2013-02-24T09:17:59Z</time>
      </trkpt>
      <trkpt lat="48.69973" lon="1.91122">
        <ele>191</ele>
        <time>2013-02-24T09:18:06Z</time>
      </trkpt>
      <trkpt lat="48.69979" lon="1.91132">
        <ele>190.6</ele>
        <time>2013-02-24T09:18:12Z</time>
      </trkpt>
      <trkpt lat="48.69983" lon="1.91136">
        <ele>190.4</ele>
        <time>2013-02-24T09:18:15Z</time>
      </trkpt>
      <trkpt lat="48.69987" lon="1.91141">
        <ele>189.2</ele>
        <time>2013-02-24T09:18:19Z</time>
      </trkpt>
      <trkpt lat="48.69993" lon="1.91152">
        <ele>187.8</ele>
        <time>2013-02-24T09:18:27Z</time>
      </trkpt>
      <trkpt lat="48.69995" lon="1.91152">
        <ele>187.6</ele>
        <time>2013-02-24T09:18:28Z</time>
      </trkpt>
      <trkpt lat="48.69997" lon="1.91155">
        <ele>187</ele>
        <time>2013-02-24T09:18:30Z</time>
      </trkpt>
      <trkpt lat="48.70002" lon="1.91162">
        <ele>186.4</ele>
        <time>2013-02-24T09:18:34Z</time>
      </trkpt>
      <trkpt lat="48.70007" lon="1.91173">
        <ele>186</ele>
        <time>2013-02-24T09:18:40Z</time>
      </trkpt>
      <trkpt lat="48.70008" lon="1.91175">
        <ele>185.6</ele>
        <time>2013-02-24T09:18:41Z</time>
      </trkpt>
      <trkpt lat="48.70009" lon="1.91178">
        <ele>185.2</ele>
        <time>2013-02-24T09:18:43Z</time>
      </trkpt>
      <trkpt lat="48.70013" lon="1.91184">
        <ele>184</ele>
        <time>2013-02-24T09:18:50Z</time>
      </trkpt>
      <trkpt lat="48.70016" lon="1.91189">
        <ele>182.8</ele>
        <time>2013-02-24T09:18:57Z</time>
      </trkpt>
      <trkpt lat="48.70018" lon="1.91194">
        <ele>182</ele>
        <time>2013-02-24T09:19:04Z</time>
      </trkpt>
      <trkpt lat="48.70019" lon="1.91196">
        <ele>181.6</ele>
        <time>2013-02-24T09:19:07Z</time>
      </trkpt>
      <trkpt lat="48.70019" lon="1.91207">
        <ele>181.4</ele>
        <time>2013-02-24T09:19:12Z</time>
      </trkpt>
      <trkpt lat="48.70017" lon="1.91208">
        <ele>181.4</ele>
        <time>2013-02-24T09:19:13Z</time>
      </trkpt>
      <trkpt lat="48.70015" lon="1.91209">
        <ele>181.2</ele>
        <time>2013-02-24T09:19:15Z</time>
      </trkpt>
      <trkpt lat="48.70011" lon="1.91207">
        <ele>180.6</ele>
        <time>2013-02-24T09:19:17Z</time>
      </trkpt>
      <trkpt lat="48.70001" lon="1.91202">
        <ele>179.8</ele>
        <time>2013-02-24T09:19:23Z</time>
      </trkpt>
      <trkpt lat="48.69989" lon="1.91205">
        <ele>178.6</ele>
        <time>2013-02-24T09:19:29Z</time>
      </trkpt>
      <trkpt lat="48.69984" lon="1.91207">
        <ele>178</ele>
        <time>2013-02-24T09:19:32Z</time>
      </trkpt>
      <trkpt lat="48.69974" lon="1.91205">
        <ele>177.4</ele>
        <time>2013-02-24T09:19:38Z</time>
      </trkpt>
      <trkpt lat="48.69973" lon="1.91206">
        <ele>177.4</ele>
        <time>2013-02-24T09:19:39Z</time>
      </trkpt>
      <trkpt lat="48.69969" lon="1.91209">
        <ele>177</ele>
        <time>2013-02-24T09:19:41Z</time>
      </trkpt>
      <trkpt lat="48.69958" lon="1.91207">
        <ele>176</ele>
        <time>2013-02-24T09:19:46Z</time>
      </trkpt>
      <trkpt lat="48.69954" lon="1.9121">
        <ele>175.8</ele>
        <time>2013-02-24T09:19:48Z</time>
      </trkpt>
      <trkpt lat="48.69947" lon="1.91211">
        <ele>175.4</ele>
        <time>2013-02-24T09:19:53Z</time>
      </trkpt>
      <trkpt lat="48.69939" lon="1.91213">
        <ele>175.2</ele>
        <time>2013-02-24T09:19:57Z</time>
      </trkpt>
      <trkpt lat="48.69933" lon="1.91216">
        <ele>175</ele>
        <time>2013-02-24T09:20:00Z</time>
      </trkpt>
      <trkpt lat="48.69927" lon="1.91213">
        <ele>174.4</ele>
        <time>2013-02-24T09:20:03Z</time>
      </trkpt>
      <trkpt lat="48.69925" lon="1.91214">
        <ele>174.2</ele>
        <time>2013-02-24T09:20:04Z</time>
      </trkpt>
      <trkpt lat="48.6992" lon="1.91217">
        <ele>174</ele>
        <time>2013-02-24T09:20:06Z</time>
      </trkpt>
      <trkpt lat="48.69912" lon="1.91227">
        <ele>173.4</ele>
        <time>2013-02-24T09:20:10Z</time>
      </trkpt>
      <trkpt lat="48.69901" lon="1.91237">
        <ele>172.4</ele>
        <time>2013-02-24T09:20:15Z</time>
      </trkpt>
      <trkpt lat="48.69899" lon="1.91238">
        <ele>172.2</ele>
        <time>2013-02-24T09:20:16Z</time>
      </trkpt>
      <trkpt lat="48.69893" lon="1.91238">
        <ele>171.6</ele>
        <time>2013-02-24T09:20:19Z</time>
      </trkpt>
      <trkpt lat="48.69881" lon="1.91249">
        <ele>170.2</ele>
        <time>2013-02-24T09:20:24Z</time>
      </trkpt>
      <trkpt lat="48.69873" lon="1.91264">
        <ele>169.2</ele>
        <time>2013-02-24T09:20:28Z</time>
      </trkpt>
      <trkpt lat="48.6987" lon="1.91284">
        <ele>168.2</ele>
        <time>2013-02-24T09:20:32Z</time>
      </trkpt>
      <trkpt lat="48.6987" lon="1.91302">
        <ele>167.4</ele>
        <time>2013-02-24T09:20:37Z</time>
      </trkpt>
      <trkpt lat="48.69871" lon="1.91328">
        <ele>166.2</ele>
        <time>2013-02-24T09:20:43Z</time>
      </trkpt>
      <trkpt lat="48.69863" lon="1.91363">
        <ele>165</ele>
        <time>2013-02-24T09:20:52Z</time>
      </trkpt>
      <trkpt lat="48.69861" lon="1.91385">
        <ele>164.6</ele>
        <time>2013-02-24T09:20:57Z</time>
      </trkpt>
      <trkpt lat="48.69861" lon="1.91396">
        <ele>164.2</ele>
        <time>2013-02-24T09:21:00Z</time>
      </trkpt>
      <trkpt lat="48.69861" lon="1.91424">
        <ele>163.2</ele>
        <time>2013-02-24T09:21:06Z</time>
      </trkpt>
      <trkpt lat="48.6986" lon="1.91432">
        <ele>163</ele>
        <time>2013-02-24T09:21:08Z</time>
      </trkpt>
      <trkpt lat="48.69854" lon="1.91456">
        <ele>162.4</ele>
        <time>2013-02-24T09:21:14Z</time>
      </trkpt>
      <trkpt lat="48.69844" lon="1.9147">
        <ele>161.6</ele>
        <time>2013-02-24T09:21:19Z</time>
      </trkpt>
      <trkpt lat="48.69831" lon="1.91479">
        <ele>160.4</ele>
        <time>2013-02-24T09:21:25Z</time>
      </trkpt>
      <trkpt lat="48.69828" lon="1.91482">
        <ele>160.2</ele>
        <time>2013-02-24T09:21:26Z</time>
      </trkpt>
      <trkpt lat="48.69828" lon="1.91499">
        <ele>159.4</ele>
        <time>2013-02-24T09:21:31Z</time>
      </trkpt>
      <trkpt lat="48.69828" lon="1.91502">
        <ele>159</ele>
        <time>2013-02-24T09:21:32Z</time>
      </trkpt>
      <trkpt lat="48.69832" lon="1.91519">
        <ele>157.8</ele>
        <time>2013-02-24T09:21:37Z</time>
      </trkpt>
      <trkpt lat="48.69835" lon="1.91524">
        <ele>157.4</ele>
        <time>2013-02-24T09:21:39Z</time>
      </trkpt>
      <trkpt lat="48.69833" lon="1.91539">
        <ele>157</ele>
        <time>2013-02-24T09:21:43Z</time>
      </trkpt>
      <trkpt lat="48.69828" lon="1.91566">
        <ele>156.4</ele>
        <time>2013-02-24T09:21:51Z</time>
      </trkpt>
      <trkpt lat="48.69825" lon="1.91577">
        <ele>156.4</ele>
        <time>2013-02-24T09:21:55Z</time>
      </trkpt>
      <trkpt lat="48.69817" lon="1.91595">
        <ele>156.4</ele>
        <time>2013-02-24T09:22:04Z</time>
      </trkpt>
      <trkpt lat="48.69813" lon="1.91597">
        <ele>156.8</ele>
        <time>2013-02-24T09:22:07Z</time>
      </trkpt>
      <trkpt lat="48.69809" lon="1.91601">
        <ele>158.8</ele>
        <time>2013-02-24T09:22:13Z</time>
      </trkpt>
      <trkpt lat="48.69808" lon="1.91602">
        <ele>159.2</ele>
        <time>2013-02-24T09:22:14Z</time>
      </trkpt>
      <trkpt lat="48.69805" lon="1.91604">
        <ele>161.6</ele>
        <time>2013-02-24T09:22:20Z</time>
      </trkpt>
      <trkpt lat="48.69801" lon="1.91603">
        <ele>164.2</ele>
        <time>2013-02-24T09:22:26Z</time>
      </trkpt>
      <trkpt lat="48.69798" lon="1.91604">
        <ele>166.8</ele>
        <time>2013-02-24T09:22:32Z</time>
      </trkpt>
      <trkpt lat="48.69795" lon="1.91604">
        <ele>169.6</ele>
        <time>2013-02-24T09:22:38Z</time>
      </trkpt>
      <trkpt lat="48.69792" lon="1.91606">
        <ele>172.6</ele>
        <time>2013-02-24T09:22:46Z</time>
      </trkpt>
      <trkpt lat="48.69789" lon="1.91606">
        <ele>176.2</ele>
        <time>2013-02-24T09:22:53Z</time>
      </trkpt>
      <trkpt lat="48.69786" lon="1.91606">
        <ele>178.2</ele>
        <time>2013-02-24T09:22:58Z</time>
      </trkpt>
      <trkpt lat="48.69783" lon="1.91609">
        <ele>182.2</ele>
        <time>2013-02-24T09:23:10Z</time>
      </trkpt>
      <trkpt lat="48.69779" lon="1.9161">
        <ele>183.6</ele>
        <time>2013-02-24T09:23:16Z</time>
      </trkpt>
      <trkpt lat="48.69776" lon="1.91614">
        <ele>186.2</ele>
        <time>2013-02-24T09:23:26Z</time>
      </trkpt>
      <trkpt lat="48.69774" lon="1.91615">
        <ele>187.2</ele>
        <time>2013-02-24T09:23:31Z</time>
      </trkpt>
      <trkpt lat="48.6977" lon="1.91617">
        <ele>189.6</ele>
        <time>2013-02-24T09:23:44Z</time>
      </trkpt>
      <trkpt lat="48.69767" lon="1.91618">
        <ele>190.2</ele>
        <time>2013-02-24T09:23:49Z</time>
      </trkpt>
      <trkpt lat="48.69764" lon="1.91618">
        <ele>191.8</ele>
        <time>2013-02-24T09:23:58Z</time>
      </trkpt>
      <trkpt lat="48.69761" lon="1.9162">
        <ele>193.4</ele>
        <time>2013-02-24T09:24:07Z</time>
      </trkpt>
      <trkpt lat="48.69755" lon="1.91618">
        <ele>197.6</ele>
        <time>2013-02-24T09:24:29Z</time>
      </trkpt>
      <trkpt lat="48.69751" lon="1.9162">
        <ele>198.2</ele>
        <time>2013-02-24T09:24:34Z</time>
      </trkpt>
      <trkpt lat="48.69751" lon="1.91621">
        <ele>198.4</ele>
        <time>2013-02-24T09:24:35Z</time>
      </trkpt>
      <trkpt lat="48.69746" lon="1.91627">
        <ele>198.8</ele>
        <time>2013-02-24T09:24:42Z</time>
      </trkpt>
      <trkpt lat="48.6974" lon="1.91634">
        <ele>199</ele>
        <time>2013-02-24T09:24:48Z</time>
      </trkpt>
      <trkpt lat="48.69729" lon="1.91636">
        <ele>199.8</ele>
        <time>2013-02-24T09:24:56Z</time>
      </trkpt>
      <trkpt lat="48.69728" lon="1.91636">
        <ele>200</ele>
        <time>2013-02-24T09:24:57Z</time>
      </trkpt>
      <trkpt lat="48.69723" lon="1.91643">
        <ele>200.4</ele>
        <time>2013-02-24T09:25:02Z</time>
      </trkpt>
      <trkpt lat="48.69717" lon="1.91651">
        <ele>200.8</ele>
        <time>2013-02-24T09:25:08Z</time>
      </trkpt>
      <trkpt lat="48.69711" lon="1.91659">
        <ele>201.4</ele>
        <time>2013-02-24T09:25:14Z</time>
      </trkpt>
      <trkpt lat="48.69709" lon="1.91662">
        <ele>201.8</ele>
        <time>2013-02-24T09:25:16Z</time>
      </trkpt>
      <trkpt lat="48.69706" lon="1.91676">
        <ele>202.4</ele>
        <time>2013-02-24T09:25:22Z</time>
      </trkpt>
      <trkpt lat="48.69703" lon="1.91688">
        <ele>203.6</ele>
        <time>2013-02-24T09:25:27Z</time>
      </trkpt>
      <trkpt lat="48.69697" lon="1.91698">
        <ele>204.2</ele>
        <time>2013-02-24T09:25:31Z</time>
      </trkpt>
      <trkpt lat="48.69695" lon="1.91698">
        <ele>204.4</ele>
        <time>2013-02-24T09:25:32Z</time>
      </trkpt>
      <trkpt lat="48.69687" lon="1.91692">
        <ele>204.6</ele>
        <time>2013-02-24T09:25:36Z</time>
      </trkpt>
      <trkpt lat="48.69678" lon="1.91681">
        <ele>205</ele>
        <time>2013-02-24T09:25:41Z</time>
      </trkpt>
      <trkpt lat="48.69677" lon="1.91679">
        <ele>205</ele>
        <time>2013-02-24T09:25:42Z</time>
      </trkpt>
      <trkpt lat="48.69675" lon="1.91676">
        <ele>205</ele>
        <time>2013-02-24T09:25:43Z</time>
      </trkpt>
      <trkpt lat="48.69662" lon="1.91662">
        <ele>205.2</ele>
        <time>2013-02-24T09:25:49Z</time>
      </trkpt>
      <trkpt lat="48.69649" lon="1.91645">
        <ele>205.2</ele>
        <time>2013-02-24T09:25:56Z</time>
      </trkpt>
      <trkpt lat="48.69638" lon="1.91632">
        <ele>204.6</ele>
        <time>2013-02-24T09:26:02Z</time>
      </trkpt>
      <trkpt lat="48.69628" lon="1.91622">
        <ele>204</ele>
        <time>2013-02-24T09:26:07Z</time>
      </trkpt>
      <trkpt lat="48.69614" lon="1.91616">
        <ele>203.6</ele>
        <time>2013-02-24T09:26:13Z</time>
      </trkpt>
      <trkpt lat="48.69602" lon="1.91618">
        <ele>202.8</ele>
        <time>2013-02-24T09:26:18Z</time>
      </trkpt>
      <trkpt lat="48.6959" lon="1.91623">
        <ele>202.2</ele>
        <time>2013-02-24T09:26:23Z</time>
      </trkpt>
      <trkpt lat="48.69579" lon="1.91626">
        <ele>201.8</ele>
        <time>2013-02-24T09:26:27Z</time>
      </trkpt>
      <trkpt lat="48.69574" lon="1.91628">
        <ele>201.6</ele>
        <time>2013-02-24T09:26:29Z</time>
      </trkpt>
      <trkpt lat="48.69563" lon="1.9163">
        <ele>200.8</ele>
        <time>2013-02-24T09:26:33Z</time>
      </trkpt>
      <trkpt lat="48.69548" lon="1.91631">
        <ele>199.8</ele>
        <time>2013-02-24T09:26:39Z</time>
      </trkpt>
      <trkpt lat="48.69536" lon="1.91635">
        <ele>198.6</ele>
        <time>2013-02-24T09:26:44Z</time>
      </trkpt>
      <trkpt lat="48.69525" lon="1.91637">
        <ele>197.4</ele>
        <time>2013-02-24T09:26:49Z</time>
      </trkpt>
      <trkpt lat="48.69517" lon="1.91637">
        <ele>196</ele>
        <time>2013-02-24T09:26:53Z</time>
      </trkpt>
      <trkpt lat="48.69503" lon="1.9164">
        <ele>193.8</ele>
        <time>2013-02-24T09:26:59Z</time>
      </trkpt>
      <trkpt lat="48.69492" lon="1.91638">
        <ele>191.8</ele>
        <time>2013-02-24T09:27:04Z</time>
      </trkpt>
      <trkpt lat="48.6949" lon="1.91637">
        <ele>191.4</ele>
        <time>2013-02-24T09:27:05Z</time>
      </trkpt>
      <trkpt lat="48.69484" lon="1.91647">
        <ele>189.4</ele>
        <time>2013-02-24T09:27:10Z</time>
      </trkpt>
      <trkpt lat="48.69483" lon="1.9166">
        <ele>187.6</ele>
        <time>2013-02-24T09:27:15Z</time>
      </trkpt>
      <trkpt lat="48.69483" lon="1.91663">
        <ele>187.2</ele>
        <time>2013-02-24T09:27:16Z</time>
      </trkpt>
      <trkpt lat="48.69482" lon="1.91675">
        <ele>186</ele>
        <time>2013-02-24T09:27:20Z</time>
      </trkpt>
      <trkpt lat="48.69481" lon="1.91681">
        <ele>185.6</ele>
        <time>2013-02-24T09:27:22Z</time>
      </trkpt>
      <trkpt lat="48.69475" lon="1.91683">
        <ele>183.8</ele>
        <time>2013-02-24T09:27:27Z</time>
      </trkpt>
      <trkpt lat="48.69468" lon="1.9168">
        <ele>183</ele>
        <time>2013-02-24T09:27:31Z</time>
      </trkpt>
      <trkpt lat="48.69466" lon="1.91678">
        <ele>182.8</ele>
        <time>2013-02-24T09:27:32Z</time>
      </trkpt>
      <trkpt lat="48.6946" lon="1.91671">
        <ele>182</ele>
        <time>2013-02-24T09:27:35Z</time>
      </trkpt>
      <trkpt lat="48.69453" lon="1.91659">
        <ele>180.8</ele>
        <time>2013-02-24T09:27:40Z</time>
      </trkpt>
      <trkpt lat="48.69446" lon="1.91648">
        <ele>179.4</ele>
        <time>2013-02-24T09:27:45Z</time>
      </trkpt>
      <trkpt lat="48.69437" lon="1.91636">
        <ele>178.4</ele>
        <time>2013-02-24T09:27:51Z</time>
      </trkpt>
      <trkpt lat="48.6943" lon="1.91628">
        <ele>177.2</ele>
        <time>2013-02-24T09:27:55Z</time>
      </trkpt>
      <trkpt lat="48.69418" lon="1.91625">
        <ele>176.4</ele>
        <time>2013-02-24T09:28:00Z</time>
      </trkpt>
      <trkpt lat="48.69409" lon="1.9163">
        <ele>175.2</ele>
        <time>2013-02-24T09:28:05Z</time>
      </trkpt>
      <trkpt lat="48.69408" lon="1.91632">
        <ele>175</ele>
        <time>2013-02-24T09:28:06Z</time>
      </trkpt>
      <trkpt lat="48.69405" lon="1.91653">
        <ele>174</ele>
        <time>2013-02-24T09:28:13Z</time>
      </trkpt>
      <trkpt lat="48.69402" lon="1.91663">
        <ele>173.8</ele>
        <time>2013-02-24T09:28:16Z</time>
      </trkpt>
      <trkpt lat="48.69398" lon="1.91671">
        <ele>173.4</ele>
        <time>2013-02-24T09:28:20Z</time>
      </trkpt>
      <trkpt lat="48.69394" lon="1.91679">
        <ele>173.4</ele>
        <time>2013-02-24T09:28:24Z</time>
      </trkpt>
      <trkpt lat="48.69391" lon="1.91684">
        <ele>173.2</ele>
        <time>2013-02-24T09:28:27Z</time>
      </trkpt>
      <trkpt lat="48.69389" lon="1.91685">
        <ele>173.2</ele>
        <time>2013-02-24T09:28:29Z</time>
      </trkpt>
      <trkpt lat="48.69382" lon="1.91685">
        <ele>173.2</ele>
        <time>2013-02-24T09:28:34Z</time>
      </trkpt>
      <trkpt lat="48.69381" lon="1.91685">
        <ele>173.2</ele>
        <time>2013-02-24T09:28:35Z</time>
      </trkpt>
      <trkpt lat="48.69374" lon="1.91686">
        <ele>173.2</ele>
        <time>2013-02-24T09:28:43Z</time>
      </trkpt>
      <trkpt lat="48.69373" lon="1.91686">
        <ele>173.2</ele>
        <time>2013-02-24T09:28:44Z</time>
      </trkpt>
      <trkpt lat="48.69368" lon="1.91687">
        <ele>173.8</ele>
        <time>2013-02-24T09:28:52Z</time>
      </trkpt>
      <trkpt lat="48.69365" lon="1.91688">
        <ele>174.4</ele>
        <time>2013-02-24T09:28:58Z</time>
      </trkpt>
      <trkpt lat="48.69361" lon="1.9169">
        <ele>174.8</ele>
        <time>2013-02-24T09:29:04Z</time>
      </trkpt>
      <trkpt lat="48.69359" lon="1.9169">
        <ele>174.8</ele>
        <time>2013-02-24T09:29:10Z</time>
      </trkpt>
      <trkpt lat="48.69354" lon="1.91693">
        <ele>176</ele>
        <time>2013-02-24T09:29:18Z</time>
      </trkpt>
      <trkpt lat="48.6935" lon="1.91694">
        <ele>176.6</ele>
        <time>2013-02-24T09:29:24Z</time>
      </trkpt>
      <trkpt lat="48.69347" lon="1.91697">
        <ele>177</ele>
        <time>2013-02-24T09:29:30Z</time>
      </trkpt>
      <trkpt lat="48.69344" lon="1.91697">
        <ele>177.8</ele>
        <time>2013-02-24T09:29:35Z</time>
      </trkpt>
      <trkpt lat="48.6934" lon="1.91702">
        <ele>178.6</ele>
        <time>2013-02-24T09:29:42Z</time>
      </trkpt>
      <trkpt lat="48.69338" lon="1.91714">
        <ele>180</ele>
        <time>2013-02-24T09:29:49Z</time>
      </trkpt>
      <trkpt lat="48.69337" lon="1.91721">
        <ele>180.4</ele>
        <time>2013-02-24T09:29:53Z</time>
      </trkpt>
      <trkpt lat="48.69338" lon="1.91732">
        <ele>181.8</ele>
        <time>2013-02-24T09:29:59Z</time>
      </trkpt>
      <trkpt lat="48.6934" lon="1.91748">
        <ele>183.4</ele>
        <time>2013-02-24T09:30:07Z</time>
      </trkpt>
      <trkpt lat="48.6934" lon="1.91751">
        <ele>183.8</ele>
        <time>2013-02-24T09:30:09Z</time>
      </trkpt>
      <trkpt lat="48.69338" lon="1.9176">
        <ele>185.2</ele>
        <time>2013-02-24T09:30:16Z</time>
      </trkpt>
      <trkpt lat="48.69338" lon="1.91761">
        <ele>185.6</ele>
        <time>2013-02-24T09:30:17Z</time>
      </trkpt>
      <trkpt lat="48.69335" lon="1.9177">
        <ele>186.8</ele>
        <time>2013-02-24T09:30:24Z</time>
      </trkpt>
      <trkpt lat="48.69328" lon="1.91788">
        <ele>188.6</ele>
        <time>2013-02-24T09:30:33Z</time>
      </trkpt>
      <trkpt lat="48.6932" lon="1.91805">
        <ele>190.2</ele>
        <time>2013-02-24T09:30:41Z</time>
      </trkpt>
      <trkpt lat="48.69314" lon="1.91819">
        <ele>191.8</ele>
        <time>2013-02-24T09:30:47Z</time>
      </trkpt>
      <trkpt lat="48.69309" lon="1.91833">
        <ele>193.2</ele>
        <time>2013-02-24T09:30:53Z</time>
      </trkpt>
      <trkpt lat="48.69305" lon="1.91846">
        <ele>194.4</ele>
        <time>2013-02-24T09:30:58Z</time>
      </trkpt>
      <trkpt lat="48.693" lon="1.9187">
        <ele>196</ele>
        <time>2013-02-24T09:31:05Z</time>
      </trkpt>
      <trkpt lat="48.69296" lon="1.91888">
        <ele>197</ele>
        <time>2013-02-24T09:31:10Z</time>
      </trkpt>
      <trkpt lat="48.69295" lon="1.91892">
        <ele>197</ele>
        <time>2013-02-24T09:31:11Z</time>
      </trkpt>
      <trkpt lat="48.69292" lon="1.91909">
        <ele>197.8</ele>
        <time>2013-02-24T09:31:16Z</time>
      </trkpt>
      <trkpt lat="48.6929" lon="1.91921">
        <ele>198.6</ele>
        <time>2013-02-24T09:31:20Z</time>
      </trkpt>
      <trkpt lat="48.69287" lon="1.91935">
        <ele>199.2</ele>
        <time>2013-02-24T09:31:24Z</time>
      </trkpt>
      <trkpt lat="48.69284" lon="1.91949">
        <ele>199.6</ele>
        <time>2013-02-24T09:31:28Z</time>
      </trkpt>
      <trkpt lat="48.69284" lon="1.91953">
        <ele>199.6</ele>
        <time>2013-02-24T09:31:29Z</time>
      </trkpt>
      <trkpt lat="48.69282" lon="1.91969">
        <ele>200.2</ele>
        <time>2013-02-24T09:31:33Z</time>
      </trkpt>
      <trkpt lat="48.6928" lon="1.91989">
        <ele>201.2</ele>
        <time>2013-02-24T09:31:38Z</time>
      </trkpt>
      <trkpt lat="48.69277" lon="1.9201">
        <ele>201.6</ele>
        <time>2013-02-24T09:31:43Z</time>
      </trkpt>
      <trkpt lat="48.69272" lon="1.9203">
        <ele>202</ele>
        <time>2013-02-24T09:31:48Z</time>
      </trkpt>
      <trkpt lat="48.69267" lon="1.92041">
        <ele>202</ele>
        <time>2013-02-24T09:31:52Z</time>
      </trkpt>
      <trkpt lat="48.69259" lon="1.92053">
        <ele>202.2</ele>
        <time>2013-02-24T09:31:57Z</time>
      </trkpt>
      <trkpt lat="48.69248" lon="1.92072">
        <ele>202.2</ele>
        <time>2013-02-24T09:32:03Z</time>
      </trkpt>
      <trkpt lat="48.6924" lon="1.92081">
        <ele>202.2</ele>
        <time>2013-02-24T09:32:08Z</time>
      </trkpt>
      <trkpt lat="48.69234" lon="1.92088">
        <ele>202.2</ele>
        <time>2013-02-24T09:32:12Z</time>
      </trkpt>
      <trkpt lat="48.69232" lon="1.92089">
        <ele>202</ele>
        <time>2013-02-24T09:32:13Z</time>
      </trkpt>
      <trkpt lat="48.69231" lon="1.92089">
        <ele>201.8</ele>
        <time>2013-02-24T09:32:14Z</time>
      </trkpt>
      <trkpt lat="48.6922" lon="1.92085">
        <ele>201.2</ele>
        <time>2013-02-24T09:32:20Z</time>
      </trkpt>
      <trkpt lat="48.69213" lon="1.92082">
        <ele>200.4</ele>
        <time>2013-02-24T09:32:24Z</time>
      </trkpt>
      <trkpt lat="48.69202" lon="1.9208">
        <ele>199.6</ele>
        <time>2013-02-24T09:32:29Z</time>
      </trkpt>
      <trkpt lat="48.69189" lon="1.92075">
        <ele>198.8</ele>
        <time>2013-02-24T09:32:34Z</time>
      </trkpt>
      <trkpt lat="48.69187" lon="1.92074">
        <ele>198.6</ele>
        <time>2013-02-24T09:32:35Z</time>
      </trkpt>
      <trkpt lat="48.69174" lon="1.9207">
        <ele>197.6</ele>
        <time>2013-02-24T09:32:41Z</time>
      </trkpt>
      <trkpt lat="48.69162" lon="1.92073">
        <ele>196.8</ele>
        <time>2013-02-24T09:32:46Z</time>
      </trkpt>
      <trkpt lat="48.6915" lon="1.92085">
        <ele>195.6</ele>
        <time>2013-02-24T09:32:52Z</time>
      </trkpt>
      <trkpt lat="48.69141" lon="1.92102">
        <ele>195</ele>
        <time>2013-02-24T09:32:58Z</time>
      </trkpt>
      <trkpt lat="48.69134" lon="1.92117">
        <ele>194.6</ele>
        <time>2013-02-24T09:33:02Z</time>
      </trkpt>
      <trkpt lat="48.69137" lon="1.92136">
        <ele>194.4</ele>
        <time>2013-02-24T09:33:07Z</time>
      </trkpt>
      <trkpt lat="48.69143" lon="1.92146">
        <ele>194.4</ele>
        <time>2013-02-24T09:33:13Z</time>
      </trkpt>
      <trkpt lat="48.69149" lon="1.92157">
        <ele>194.8</ele>
        <time>2013-02-24T09:33:18Z</time>
      </trkpt>
      <trkpt lat="48.69153" lon="1.92163">
        <ele>195.2</ele>
        <time>2013-02-24T09:33:21Z</time>
      </trkpt>
      <trkpt lat="48.69158" lon="1.92168">
        <ele>195.6</ele>
        <time>2013-02-24T09:33:24Z</time>
      </trkpt>
      <trkpt lat="48.69163" lon="1.92178">
        <ele>195.8</ele>
        <time>2013-02-24T09:33:28Z</time>
      </trkpt>
      <trkpt lat="48.6917" lon="1.92189">
        <ele>197</ele>
        <time>2013-02-24T09:33:33Z</time>
      </trkpt>
      <trkpt lat="48.69178" lon="1.92196">
        <ele>197.4</ele>
        <time>2013-02-24T09:33:37Z</time>
      </trkpt>
      <trkpt lat="48.69191" lon="1.92212">
        <ele>198.8</ele>
        <time>2013-02-24T09:33:44Z</time>
      </trkpt>
      <trkpt lat="48.69199" lon="1.92221">
        <ele>199.4</ele>
        <time>2013-02-24T09:33:48Z</time>
      </trkpt>
      <trkpt lat="48.69213" lon="1.92237">
        <ele>201</ele>
        <time>2013-02-24T09:33:55Z</time>
      </trkpt>
      <trkpt lat="48.69222" lon="1.92248">
        <ele>201.8</ele>
        <time>2013-02-24T09:34:00Z</time>
      </trkpt>
      <trkpt lat="48.69236" lon="1.92261">
        <ele>203.2</ele>
        <time>2013-02-24T09:34:07Z</time>
      </trkpt>
      <trkpt lat="48.69238" lon="1.92264">
        <ele>203.4</ele>
        <time>2013-02-24T09:34:08Z</time>
      </trkpt>
      <trkpt lat="48.69242" lon="1.92269">
        <ele>203.8</ele>
        <time>2013-02-24T09:34:11Z</time>
      </trkpt>
      <trkpt lat="48.69253" lon="1.92281">
        <ele>204.6</ele>
        <time>2013-02-24T09:34:17Z</time>
      </trkpt>
      <trkpt lat="48.69264" lon="1.92295">
        <ele>205.6</ele>
        <time>2013-02-24T09:34:23Z</time>
      </trkpt>
      <trkpt lat="48.6927" lon="1.92301">
        <ele>206</ele>
        <time>2013-02-24T09:34:26Z</time>
      </trkpt>
      <trkpt lat="48.69274" lon="1.92306">
        <ele>206.6</ele>
        <time>2013-02-24T09:34:28Z</time>
      </trkpt>
      <trkpt lat="48.69276" lon="1.92309">
        <ele>206.8</ele>
        <time>2013-02-24T09:34:29Z</time>
      </trkpt>
      <trkpt lat="48.6929" lon="1.92325">
        <ele>207.8</ele>
        <time>2013-02-24T09:34:36Z</time>
      </trkpt>
      <trkpt lat="48.693" lon="1.92335">
        <ele>208.2</ele>
        <time>2013-02-24T09:34:41Z</time>
      </trkpt>
      <trkpt lat="48.6931" lon="1.9235">
        <ele>209.4</ele>
        <time>2013-02-24T09:34:47Z</time>
      </trkpt>
      <trkpt lat="48.69312" lon="1.92352">
        <ele>209.6</ele>
        <time>2013-02-24T09:34:48Z</time>
      </trkpt>
      <trkpt lat="48.69322" lon="1.92363">
        <ele>210.2</ele>
        <time>2013-02-24T09:34:53Z</time>
      </trkpt>
      <trkpt lat="48.69327" lon="1.92366">
        <ele>210.2</ele>
        <time>2013-02-24T09:34:55Z</time>
      </trkpt>
      <trkpt lat="48.69342" lon="1.92376">
        <ele>210.6</ele>
        <time>2013-02-24T09:35:01Z</time>
      </trkpt>
      <trkpt lat="48.6935" lon="1.92388">
        <ele>210.8</ele>
        <time>2013-02-24T09:35:06Z</time>
      </trkpt>
      <trkpt lat="48.69352" lon="1.9239">
        <ele>211.2</ele>
        <time>2013-02-24T09:35:08Z</time>
      </trkpt>
      <trkpt lat="48.69358" lon="1.92391">
        <ele>211.6</ele>
        <time>2013-02-24T09:35:11Z</time>
      </trkpt>
      <trkpt lat="48.69369" lon="1.924">
        <ele>212.2</ele>
        <time>2013-02-24T09:35:16Z</time>
      </trkpt>
      <trkpt lat="48.69371" lon="1.92402">
        <ele>212.4</ele>
        <time>2013-02-24T09:35:17Z</time>
      </trkpt>
      <trkpt lat="48.69383" lon="1.92413">
        <ele>212.6</ele>
        <time>2013-02-24T09:35:23Z</time>
      </trkpt>
      <trkpt lat="48.69388" lon="1.92419">
        <ele>213.4</ele>
        <time>2013-02-24T09:35:26Z</time>
      </trkpt>
      <trkpt lat="48.69392" lon="1.92425">
        <ele>213.6</ele>
        <time>2013-02-24T09:35:28Z</time>
      </trkpt>
      <trkpt lat="48.69399" lon="1.92434">
        <ele>214.2</ele>
        <time>2013-02-24T09:35:32Z</time>
      </trkpt>
      <trkpt lat="48.69406" lon="1.9245">
        <ele>214.6</ele>
        <time>2013-02-24T09:35:37Z</time>
      </trkpt>
      <trkpt lat="48.69415" lon="1.92457">
        <ele>214.6</ele>
        <time>2013-02-24T09:35:41Z</time>
      </trkpt>
      <trkpt lat="48.69417" lon="1.92459">
        <ele>214.8</ele>
        <time>2013-02-24T09:35:42Z</time>
      </trkpt>
      <trkpt lat="48.6942" lon="1.9246">
        <ele>214.8</ele>
        <time>2013-02-24T09:35:43Z</time>
      </trkpt>
      <trkpt lat="48.69436" lon="1.92477">
        <ele>216.2</ele>
        <time>2013-02-24T09:35:52Z</time>
      </trkpt>
      <trkpt lat="48.69437" lon="1.92494">
        <ele>216.6</ele>
        <time>2013-02-24T09:35:57Z</time>
      </trkpt>
      <trkpt lat="48.69438" lon="1.92512">
        <ele>216.8</ele>
        <time>2013-02-24T09:36:03Z</time>
      </trkpt>
      <trkpt lat="48.69439" lon="1.92514">
        <ele>216.8</ele>
        <time>2013-02-24T09:36:04Z</time>
      </trkpt>
      <trkpt lat="48.69439" lon="1.92518">
        <ele>216.8</ele>
        <time>2013-02-24T09:36:05Z</time>
      </trkpt>
      <trkpt lat="48.69438" lon="1.92523">
        <ele>216.8</ele>
        <time>2013-02-24T09:36:06Z</time>
      </trkpt>
      <trkpt lat="48.69435" lon="1.92535">
        <ele>217</ele>
        <time>2013-02-24T09:36:11Z</time>
      </trkpt>
      <trkpt lat="48.69431" lon="1.92542">
        <ele>217</ele>
        <time>2013-02-24T09:36:14Z</time>
      </trkpt>
      <trkpt lat="48.69429" lon="1.9256">
        <ele>217</ele>
        <time>2013-02-24T09:36:20Z</time>
      </trkpt>
      <trkpt lat="48.69428" lon="1.92564">
        <ele>217</ele>
        <time>2013-02-24T09:36:21Z</time>
      </trkpt>
      <trkpt lat="48.69429" lon="1.92585">
        <ele>217</ele>
        <time>2013-02-24T09:36:26Z</time>
      </trkpt>
      <trkpt lat="48.69433" lon="1.92596">
        <ele>217</ele>
        <time>2013-02-24T09:36:30Z</time>
      </trkpt>
      <trkpt lat="48.69434" lon="1.92599">
        <ele>217</ele>
        <time>2013-02-24T09:36:31Z</time>
      </trkpt>
      <trkpt lat="48.69438" lon="1.92617">
        <ele>217</ele>
        <time>2013-02-24T09:36:37Z</time>
      </trkpt>
      <trkpt lat="48.69441" lon="1.92635">
        <ele>217</ele>
        <time>2013-02-24T09:36:43Z</time>
      </trkpt>
      <trkpt lat="48.69441" lon="1.92637">
        <ele>217</ele>
        <time>2013-02-24T09:36:44Z</time>
      </trkpt>
      <trkpt lat="48.69442" lon="1.92647">
        <ele>217</ele>
        <time>2013-02-24T09:36:47Z</time>
      </trkpt>
      <trkpt lat="48.69444" lon="1.92664">
        <ele>217</ele>
        <time>2013-02-24T09:36:52Z</time>
      </trkpt>
      <trkpt lat="48.69444" lon="1.92673">
        <ele>217.2</ele>
        <time>2013-02-24T09:36:55Z</time>
      </trkpt>
      <trkpt lat="48.69443" lon="1.9268">
        <ele>217.6</ele>
        <time>2013-02-24T09:36:57Z</time>
      </trkpt>
      <trkpt lat="48.69444" lon="1.927">
        <ele>218.4</ele>
        <time>2013-02-24T09:37:03Z</time>
      </trkpt>
      <trkpt lat="48.69444" lon="1.92721">
        <ele>218.6</ele>
        <time>2013-02-24T09:37:08Z</time>
      </trkpt>
      <trkpt lat="48.69446" lon="1.9274">
        <ele>218.8</ele>
        <time>2013-02-24T09:37:14Z</time>
      </trkpt>
      <trkpt lat="48.69444" lon="1.9275">
        <ele>219</ele>
        <time>2013-02-24T09:37:17Z</time>
      </trkpt>
      <trkpt lat="48.69442" lon="1.92755">
        <ele>219</ele>
        <time>2013-02-24T09:37:19Z</time>
      </trkpt>
      <trkpt lat="48.69432" lon="1.92775">
        <ele>219</ele>
        <time>2013-02-24T09:37:25Z</time>
      </trkpt>
      <trkpt lat="48.69426" lon="1.92789">
        <ele>219</ele>
        <time>2013-02-24T09:37:29Z</time>
      </trkpt>
      <trkpt lat="48.69421" lon="1.92797">
        <ele>219</ele>
        <time>2013-02-24T09:37:34Z</time>
      </trkpt>
      <trkpt lat="48.69416" lon="1.92809">
        <ele>218.6</ele>
        <time>2013-02-24T09:37:38Z</time>
      </trkpt>
      <trkpt lat="48.69414" lon="1.92811">
        <ele>218.4</ele>
        <time>2013-02-24T09:37:39Z</time>
      </trkpt>
      <trkpt lat="48.69407" lon="1.92815">
        <ele>218</ele>
        <time>2013-02-24T09:37:43Z</time>
      </trkpt>
      <trkpt lat="48.69405" lon="1.92815">
        <ele>217.8</ele>
        <time>2013-02-24T09:37:44Z</time>
      </trkpt>
      <trkpt lat="48.69399" lon="1.92817">
        <ele>217</ele>
        <time>2013-02-24T09:37:48Z</time>
      </trkpt>
      <trkpt lat="48.69398" lon="1.92819">
        <ele>216.8</ele>
        <time>2013-02-24T09:37:49Z</time>
      </trkpt>
      <trkpt lat="48.69395" lon="1.92822">
        <ele>216.2</ele>
        <time>2013-02-24T09:37:52Z</time>
      </trkpt>
      <trkpt lat="48.6939" lon="1.9283">
        <ele>215.4</ele>
        <time>2013-02-24T09:37:56Z</time>
      </trkpt>
      <trkpt lat="48.69389" lon="1.92832">
        <ele>215.2</ele>
        <time>2013-02-24T09:37:57Z</time>
      </trkpt>
      <trkpt lat="48.6938" lon="1.92846">
        <ele>214</ele>
        <time>2013-02-24T09:38:03Z</time>
      </trkpt>
      <trkpt lat="48.69373" lon="1.92857">
        <ele>213</ele>
        <time>2013-02-24T09:38:08Z</time>
      </trkpt>
      <trkpt lat="48.69366" lon="1.92867">
        <ele>212.2</ele>
        <time>2013-02-24T09:38:12Z</time>
      </trkpt>
      <trkpt lat="48.69362" lon="1.92872">
        <ele>211.8</ele>
        <time>2013-02-24T09:38:14Z</time>
      </trkpt>
      <trkpt lat="48.69351" lon="1.92879">
        <ele>211</ele>
        <time>2013-02-24T09:38:19Z</time>
      </trkpt>
      <trkpt lat="48.69349" lon="1.92881">
        <ele>210.8</ele>
        <time>2013-02-24T09:38:20Z</time>
      </trkpt>
      <trkpt lat="48.69337" lon="1.92895">
        <ele>209.8</ele>
        <time>2013-02-24T09:38:26Z</time>
      </trkpt>
      <trkpt lat="48.6933" lon="1.92903">
        <ele>209.4</ele>
        <time>2013-02-24T09:38:30Z</time>
      </trkpt>
      <trkpt lat="48.69327" lon="1.92905">
        <ele>209</ele>
        <time>2013-02-24T09:38:31Z</time>
      </trkpt>
      <trkpt lat="48.69315" lon="1.92905">
        <ele>208</ele>
        <time>2013-02-24T09:38:36Z</time>
      </trkpt>
      <trkpt lat="48.69304" lon="1.92904">
        <ele>207.4</ele>
        <time>2013-02-24T09:38:41Z</time>
      </trkpt>
      <trkpt lat="48.69294" lon="1.92903">
        <ele>207</ele>
        <time>2013-02-24T09:38:45Z</time>
      </trkpt>
      <trkpt lat="48.69284" lon="1.92897">
        <ele>206.8</ele>
        <time>2013-02-24T09:38:49Z</time>
      </trkpt>
      <trkpt lat="48.69282" lon="1.92896">
        <ele>206.6</ele>
        <time>2013-02-24T09:38:50Z</time>
      </trkpt>
      <trkpt lat="48.6927" lon="1.92893">
        <ele>205.8</ele>
        <time>2013-02-24T09:38:55Z</time>
      </trkpt>
      <trkpt lat="48.69268" lon="1.92893">
        <ele>205.6</ele>
        <time>2013-02-24T09:38:56Z</time>
      </trkpt>
      <trkpt lat="48.6926" lon="1.929">
        <ele>205.2</ele>
        <time>2013-02-24T09:39:00Z</time>
      </trkpt>
      <trkpt lat="48.69258" lon="1.92902">
        <ele>205.2</ele>
        <time>2013-02-24T09:39:01Z</time>
      </trkpt>
      <trkpt lat="48.69252" lon="1.92916">
        <ele>205</ele>
        <time>2013-02-24T09:39:05Z</time>
      </trkpt>
      <trkpt lat="48.69245" lon="1.92933">
        <ele>204.8</ele>
        <time>2013-02-24T09:39:10Z</time>
      </trkpt>
      <trkpt lat="48.69242" lon="1.92942">
        <ele>204.6</ele>
        <time>2013-02-24T09:39:13Z</time>
      </trkpt>
      <trkpt lat="48.69236" lon="1.92954">
        <ele>204.6</ele>
        <time>2013-02-24T09:39:17Z</time>
      </trkpt>
      <trkpt lat="48.69235" lon="1.92957">
        <ele>204.4</ele>
        <time>2013-02-24T09:39:18Z</time>
      </trkpt>
      <trkpt lat="48.69231" lon="1.92967">
        <ele>203.8</ele>
        <time>2013-02-24T09:39:22Z</time>
      </trkpt>
      <trkpt lat="48.69226" lon="1.92973">
        <ele>203.4</ele>
        <time>2013-02-24T09:39:25Z</time>
      </trkpt>
      <trkpt lat="48.6922" lon="1.92986">
        <ele>203</ele>
        <time>2013-02-24T09:39:30Z</time>
      </trkpt>
      <trkpt lat="48.69216" lon="1.93001">
        <ele>202.8</ele>
        <time>2013-02-24T09:39:35Z</time>
      </trkpt>
      <trkpt lat="48.69216" lon="1.93003">
        <ele>202.8</ele>
        <time>2013-02-24T09:39:36Z</time>
      </trkpt>
      <trkpt lat="48.6921" lon="1.93014">
        <ele>202.6</ele>
        <time>2013-02-24T09:39:40Z</time>
      </trkpt>
      <trkpt lat="48.69204" lon="1.93021">
        <ele>202.6</ele>
        <time>2013-02-24T09:39:43Z</time>
      </trkpt>
      <trkpt lat="48.69199" lon="1.93031">
        <ele>202.6</ele>
        <time>2013-02-24T09:39:47Z</time>
      </trkpt>
      <trkpt lat="48.69188" lon="1.93041">
        <ele>202.6</ele>
        <time>2013-02-24T09:39:52Z</time>
      </trkpt>
      <trkpt lat="48.6916" lon="1.93049">
        <ele>202.6</ele>
        <time>2013-02-24T09:40:05Z</time>
      </trkpt>
      <trkpt lat="48.69156" lon="1.93048">
        <ele>202.6</ele>
        <time>2013-02-24T09:40:07Z</time>
      </trkpt>
      <trkpt lat="48.69145" lon="1.93056">
        <ele>201.6</ele>
        <time>2013-02-24T09:40:12Z</time>
      </trkpt>
      <trkpt lat="48.69142" lon="1.93057">
        <ele>201.4</ele>
        <time>2013-02-24T09:40:13Z</time>
      </trkpt>
      <trkpt lat="48.69137" lon="1.93061">
        <ele>201.2</ele>
        <time>2013-02-24T09:40:15Z</time>
      </trkpt>
      <trkpt lat="48.69122" lon="1.93067">
        <ele>200.8</ele>
        <time>2013-02-24T09:40:21Z</time>
      </trkpt>
      <trkpt lat="48.69119" lon="1.93067">
        <ele>200.8</ele>
        <time>2013-02-24T09:40:22Z</time>
      </trkpt>
      <trkpt lat="48.69113" lon="1.93065">
        <ele>200.6</ele>
        <time>2013-02-24T09:40:25Z</time>
      </trkpt>
      <trkpt lat="48.69103" lon="1.93062">
        <ele>200.2</ele>
        <time>2013-02-24T09:40:30Z</time>
      </trkpt>
      <trkpt lat="48.6909" lon="1.93061">
        <ele>199.2</ele>
        <time>2013-02-24T09:40:36Z</time>
      </trkpt>
      <trkpt lat="48.69079" lon="1.93058">
        <ele>198.8</ele>
        <time>2013-02-24T09:40:41Z</time>
      </trkpt>
      <trkpt lat="48.69075" lon="1.93055">
        <ele>198.8</ele>
        <time>2013-02-24T09:40:43Z</time>
      </trkpt>
      <trkpt lat="48.69062" lon="1.9305">
        <ele>197.6</ele>
        <time>2013-02-24T09:40:49Z</time>
      </trkpt>
      <trkpt lat="48.69056" lon="1.93045">
        <ele>197.2</ele>
        <time>2013-02-24T09:40:52Z</time>
      </trkpt>
      <trkpt lat="48.6905" lon="1.93044">
        <ele>196.8</ele>
        <time>2013-02-24T09:40:56Z</time>
      </trkpt>
      <trkpt lat="48.69048" lon="1.93043">
        <ele>196.8</ele>
        <time>2013-02-24T09:40:58Z</time>
      </trkpt>
      <trkpt lat="48.69048" lon="1.93043">
        <ele>196.6</ele>
        <time>2013-02-24T09:40:59Z</time>
      </trkpt>
      <trkpt lat="48.69037" lon="1.93036">
        <ele>196.4</ele>
        <time>2013-02-24T09:41:08Z</time>
      </trkpt>
      <trkpt lat="48.69037" lon="1.93036">
        <ele>196.4</ele>
        <time>2013-02-24T09:41:08Z</time>
      </trkpt>
      <trkpt lat="48.69025" lon="1.93032">
        <ele>196.4</ele>
        <time>2013-02-24T09:41:12Z</time>
      </trkpt>
      <trkpt lat="48.69014" lon="1.93034">
        <ele>196.2</ele>
        <time>2013-02-24T09:41:17Z</time>
      </trkpt>
      <trkpt lat="48.69008" lon="1.93035">
        <ele>196.2</ele>
        <time>2013-02-24T09:41:19Z</time>
      </trkpt>
      <trkpt lat="48.68995" lon="1.93024">
        <ele>196.2</ele>
        <time>2013-02-24T09:41:24Z</time>
      </trkpt>
      <trkpt lat="48.68989" lon="1.93018">
        <ele>196.2</ele>
        <time>2013-02-24T09:41:27Z</time>
      </trkpt>
      <trkpt lat="48.68979" lon="1.93012">
        <ele>196.2</ele>
        <time>2013-02-24T09:41:31Z</time>
      </trkpt>
      <trkpt lat="48.68969" lon="1.93005">
        <ele>196.2</ele>
        <time>2013-02-24T09:41:36Z</time>
      </trkpt>
      <trkpt lat="48.68967" lon="1.93004">
        <ele>196.2</ele>
        <time>2013-02-24T09:41:37Z</time>
      </trkpt>
      <trkpt lat="48.68954" lon="1.92998">
        <ele>196.2</ele>
        <time>2013-02-24T09:41:43Z</time>
      </trkpt>
      <trkpt lat="48.6895" lon="1.92995">
        <ele>196.2</ele>
        <time>2013-02-24T09:41:45Z</time>
      </trkpt>
      <trkpt lat="48.68943" lon="1.92988">
        <ele>196.2</ele>
        <time>2013-02-24T09:41:50Z</time>
      </trkpt>
      <trkpt lat="48.68939" lon="1.92981">
        <ele>197</ele>
        <time>2013-02-24T09:41:54Z</time>
      </trkpt>
      <trkpt lat="48.68937" lon="1.92979">
        <ele>197</ele>
        <time>2013-02-24T09:41:55Z</time>
      </trkpt>
      <trkpt lat="48.68932" lon="1.92973">
        <ele>197.4</ele>
        <time>2013-02-24T09:41:59Z</time>
      </trkpt>
      <trkpt lat="48.68924" lon="1.92963">
        <ele>198.4</ele>
        <time>2013-02-24T09:42:04Z</time>
      </trkpt>
      <trkpt lat="48.68916" lon="1.9296">
        <ele>199</ele>
        <time>2013-02-24T09:42:08Z</time>
      </trkpt>
      <trkpt lat="48.68907" lon="1.92958">
        <ele>199.4</ele>
        <time>2013-02-24T09:42:12Z</time>
      </trkpt>
      <trkpt lat="48.68899" lon="1.92961">
        <ele>199.8</ele>
        <time>2013-02-24T09:42:17Z</time>
      </trkpt>
      <trkpt lat="48.68897" lon="1.92969">
        <ele>200</ele>
        <time>2013-02-24T09:42:20Z</time>
      </trkpt>
      <trkpt lat="48.68896" lon="1.92971">
        <ele>200</ele>
        <time>2013-02-24T09:42:21Z</time>
      </trkpt>
      <trkpt lat="48.68892" lon="1.92979">
        <ele>200.2</ele>
        <time>2013-02-24T09:42:26Z</time>
      </trkpt>
      <trkpt lat="48.6889" lon="1.92984">
        <ele>200.2</ele>
        <time>2013-02-24T09:42:29Z</time>
      </trkpt>
      <trkpt lat="48.68886" lon="1.92992">
        <ele>200.2</ele>
        <time>2013-02-24T09:42:35Z</time>
      </trkpt>
      <trkpt lat="48.68884" lon="1.93002">
        <ele>200.4</ele>
        <time>2013-02-24T09:42:42Z</time>
      </trkpt>
      <trkpt lat="48.68884" lon="1.9301">
        <ele>200.4</ele>
        <time>2013-02-24T09:42:48Z</time>
      </trkpt>
      <trkpt lat="48.68882" lon="1.93016">
        <ele>200.4</ele>
        <time>2013-02-24T09:42:51Z</time>
      </trkpt>
      <trkpt lat="48.68882" lon="1.93022">
        <ele>200.4</ele>
        <time>2013-02-24T09:42:56Z</time>
      </trkpt>
      <trkpt lat="48.68881" lon="1.93029">
        <ele>200.4</ele>
        <time>2013-02-24T09:43:00Z</time>
      </trkpt>
      <trkpt lat="48.68882" lon="1.93039">
        <ele>200.6</ele>
        <time>2013-02-24T09:43:08Z</time>
      </trkpt>
      <trkpt lat="48.68883" lon="1.9304">
        <ele>200.8</ele>
        <time>2013-02-24T09:43:09Z</time>
      </trkpt>
      <trkpt lat="48.68884" lon="1.93053">
        <ele>201.8</ele>
        <time>2013-02-24T09:43:17Z</time>
      </trkpt>
      <trkpt lat="48.68884" lon="1.93063">
        <ele>202.2</ele>
        <time>2013-02-24T09:43:24Z</time>
      </trkpt>
      <trkpt lat="48.68884" lon="1.93066">
        <ele>202.2</ele>
        <time>2013-02-24T09:43:27Z</time>
      </trkpt>
      <trkpt lat="48.68883" lon="1.93072">
        <ele>202.2</ele>
        <time>2013-02-24T09:43:32Z</time>
      </trkpt>
      <trkpt lat="48.68879" lon="1.93086">
        <ele>202.4</ele>
        <time>2013-02-24T09:43:39Z</time>
      </trkpt>
      <trkpt lat="48.68874" lon="1.93095">
        <ele>202.4</ele>
        <time>2013-02-24T09:43:44Z</time>
      </trkpt>
      <trkpt lat="48.68867" lon="1.93104">
        <ele>202.4</ele>
        <time>2013-02-24T09:43:48Z</time>
      </trkpt>
      <trkpt lat="48.68855" lon="1.93114">
        <ele>202.4</ele>
        <time>2013-02-24T09:43:54Z</time>
      </trkpt>
      <trkpt lat="48.68853" lon="1.93115">
        <ele>202.4</ele>
        <time>2013-02-24T09:43:56Z</time>
      </trkpt>
      <trkpt lat="48.68837" lon="1.93134">
        <ele>202.4</ele>
        <time>2013-02-24T09:44:03Z</time>
      </trkpt>
      <trkpt lat="48.6883" lon="1.93144">
        <ele>202.4</ele>
        <time>2013-02-24T09:44:07Z</time>
      </trkpt>
      <trkpt lat="48.68819" lon="1.9316">
        <ele>202.4</ele>
        <time>2013-02-24T09:44:14Z</time>
      </trkpt>
      <trkpt lat="48.68811" lon="1.93176">
        <ele>202.4</ele>
        <time>2013-02-24T09:44:18Z</time>
      </trkpt>
      <trkpt lat="48.68805" lon="1.93187">
        <ele>202.4</ele>
        <time>2013-02-24T09:44:22Z</time>
      </trkpt>
      <trkpt lat="48.68798" lon="1.93206">
        <ele>202.4</ele>
        <time>2013-02-24T09:44:29Z</time>
      </trkpt>
      <trkpt lat="48.68792" lon="1.9322">
        <ele>202.8</ele>
        <time>2013-02-24T09:44:32Z</time>
      </trkpt>
      <trkpt lat="48.68791" lon="1.93234">
        <ele>203.4</ele>
        <time>2013-02-24T09:44:37Z</time>
      </trkpt>
      <trkpt lat="48.68791" lon="1.93255">
        <ele>203.8</ele>
        <time>2013-02-24T09:44:42Z</time>
      </trkpt>
      <trkpt lat="48.6879" lon="1.93263">
        <ele>204</ele>
        <time>2013-02-24T09:44:44Z</time>
      </trkpt>
      <trkpt lat="48.68789" lon="1.93278">
        <ele>204.2</ele>
        <time>2013-02-24T09:44:49Z</time>
      </trkpt>
      <trkpt lat="48.68791" lon="1.93293">
        <ele>204.2</ele>
        <time>2013-02-24T09:44:53Z</time>
      </trkpt>
      <trkpt lat="48.68791" lon="1.93312">
        <ele>204.4</ele>
        <time>2013-02-24T09:44:59Z</time>
      </trkpt>
      <trkpt lat="48.68788" lon="1.93332">
        <ele>204.4</ele>
        <time>2013-02-24T09:45:03Z</time>
      </trkpt>
      <trkpt lat="48.68789" lon="1.93352">
        <ele>204.4</ele>
        <time>2013-02-24T09:45:09Z</time>
      </trkpt>
      <trkpt lat="48.6879" lon="1.93364">
        <ele>204.4</ele>
        <time>2013-02-24T09:45:14Z</time>
      </trkpt>
      <trkpt lat="48.6879" lon="1.93365">
        <ele>204.4</ele>
        <time>2013-02-24T09:45:15Z</time>
      </trkpt>
      <trkpt lat="48.68788" lon="1.9337">
        <ele>204.4</ele>
        <time>2013-02-24T09:45:19Z</time>
      </trkpt>
      <trkpt lat="48.68783" lon="1.9338">
        <ele>203.6</ele>
        <time>2013-02-24T09:45:24Z</time>
      </trkpt>
      <trkpt lat="48.68781" lon="1.93381">
        <ele>203.2</ele>
        <time>2013-02-24T09:45:26Z</time>
      </trkpt>
      <trkpt lat="48.68777" lon="1.93381">
        <ele>202.4</ele>
        <time>2013-02-24T09:45:29Z</time>
      </trkpt>
      <trkpt lat="48.68774" lon="1.93384">
        <ele>201</ele>
        <time>2013-02-24T09:45:33Z</time>
      </trkpt>
      <trkpt lat="48.68771" lon="1.93391">
        <ele>199.2</ele>
        <time>2013-02-24T09:45:37Z</time>
      </trkpt>
      <trkpt lat="48.68758" lon="1.93397">
        <ele>197.2</ele>
        <time>2013-02-24T09:45:42Z</time>
      </trkpt>
      <trkpt lat="48.68756" lon="1.93399">
        <ele>196.8</ele>
        <time>2013-02-24T09:45:43Z</time>
      </trkpt>
      <trkpt lat="48.68749" lon="1.93401">
        <ele>195</ele>
        <time>2013-02-24T09:45:47Z</time>
      </trkpt>
      <trkpt lat="48.68741" lon="1.93407">
        <ele>192.8</ele>
        <time>2013-02-24T09:45:51Z</time>
      </trkpt>
      <trkpt lat="48.6874" lon="1.93409">
        <ele>192.4</ele>
        <time>2013-02-24T09:45:53Z</time>
      </trkpt>
      <trkpt lat="48.68739" lon="1.9341">
        <ele>192</ele>
        <time>2013-02-24T09:45:54Z</time>
      </trkpt>
      <trkpt lat="48.68732" lon="1.93416">
        <ele>190</ele>
        <time>2013-02-24T09:45:59Z</time>
      </trkpt>
      <trkpt lat="48.68725" lon="1.93423">
        <ele>189</ele>
        <time>2013-02-24T09:46:02Z</time>
      </trkpt>
      <trkpt lat="48.68719" lon="1.93431">
        <ele>188</ele>
        <time>2013-02-24T09:46:06Z</time>
      </trkpt>
      <trkpt lat="48.68714" lon="1.93443">
        <ele>187</ele>
        <time>2013-02-24T09:46:09Z</time>
      </trkpt>
      <trkpt lat="48.68712" lon="1.93443">
        <ele>186.6</ele>
        <time>2013-02-24T09:46:11Z</time>
      </trkpt>
      <trkpt lat="48.68699" lon="1.93441">
        <ele>185.6</ele>
        <time>2013-02-24T09:46:17Z</time>
      </trkpt>
      <trkpt lat="48.68699" lon="1.93441">
        <ele>185.6</ele>
        <time>2013-02-24T09:46:19Z</time>
      </trkpt>
      <trkpt lat="48.68693" lon="1.9344">
        <ele>185.2</ele>
        <time>2013-02-24T09:46:24Z</time>
      </trkpt>
      <trkpt lat="48.68687" lon="1.9344">
        <ele>185</ele>
        <time>2013-02-24T09:46:27Z</time>
      </trkpt>
      <trkpt lat="48.68687" lon="1.93441">
        <ele>185</ele>
        <time>2013-02-24T09:46:30Z</time>
      </trkpt>
      <trkpt lat="48.68683" lon="1.93449">
        <ele>184.8</ele>
        <time>2013-02-24T09:46:33Z</time>
      </trkpt>
      <trkpt lat="48.68682" lon="1.9345">
        <ele>184.8</ele>
        <time>2013-02-24T09:46:34Z</time>
      </trkpt>
      <trkpt lat="48.68671" lon="1.93458">
        <ele>184.8</ele>
        <time>2013-02-24T09:46:39Z</time>
      </trkpt>
      <trkpt lat="48.68669" lon="1.93461">
        <ele>184.8</ele>
        <time>2013-02-24T09:46:44Z</time>
      </trkpt>
      <trkpt lat="48.68667" lon="1.93467">
        <ele>184.8</ele>
        <time>2013-02-24T09:46:50Z</time>
      </trkpt>
      <trkpt lat="48.68662" lon="1.93473">
        <ele>185</ele>
        <time>2013-02-24T09:46:57Z</time>
      </trkpt>
      <trkpt lat="48.68661" lon="1.93474">
        <ele>185</ele>
        <time>2013-02-24T09:46:59Z</time>
      </trkpt>
      <trkpt lat="48.68659" lon="1.93477">
        <ele>185.6</ele>
        <time>2013-02-24T09:47:03Z</time>
      </trkpt>
      <trkpt lat="48.68654" lon="1.93481">
        <ele>186</ele>
        <time>2013-02-24T09:47:07Z</time>
      </trkpt>
      <trkpt lat="48.68645" lon="1.93486">
        <ele>187.6</ele>
        <time>2013-02-24T09:47:14Z</time>
      </trkpt>
      <trkpt lat="48.68644" lon="1.93488">
        <ele>189.2</ele>
        <time>2013-02-24T09:47:24Z</time>
      </trkpt>
      <trkpt lat="48.68645" lon="1.93486">
        <ele>190.4</ele>
        <time>2013-02-24T09:47:38Z</time>
      </trkpt>
      <trkpt lat="48.68648" lon="1.93486">
        <ele>190.6</ele>
        <time>2013-02-24T09:47:43Z</time>
      </trkpt>
      <trkpt lat="48.6865" lon="1.93485">
        <ele>190.8</ele>
        <time>2013-02-24T09:47:47Z</time>
      </trkpt>
      <trkpt lat="48.68652" lon="1.9348">
        <ele>191.8</ele>
        <time>2013-02-24T09:47:54Z</time>
      </trkpt>
      <trkpt lat="48.68653" lon="1.93471">
        <ele>192.4</ele>
        <time>2013-02-24T09:47:59Z</time>
      </trkpt>
      <trkpt lat="48.68655" lon="1.93463">
        <ele>192.6</ele>
        <time>2013-02-24T09:48:04Z</time>
      </trkpt>
      <trkpt lat="48.68655" lon="1.93462">
        <ele>192.6</ele>
        <time>2013-02-24T09:48:06Z</time>
      </trkpt>
      <trkpt lat="48.68656" lon="1.93461">
        <ele>192.8</ele>
        <time>2013-02-24T09:48:07Z</time>
      </trkpt>
      <trkpt lat="48.68658" lon="1.93457">
        <ele>192.8</ele>
        <time>2013-02-24T09:48:09Z</time>
      </trkpt>
      <trkpt lat="48.6866" lon="1.93453">
        <ele>192.8</ele>
        <time>2013-02-24T09:48:12Z</time>
      </trkpt>
      <trkpt lat="48.68662" lon="1.93441">
        <ele>193</ele>
        <time>2013-02-24T09:48:19Z</time>
      </trkpt>
      <trkpt lat="48.68665" lon="1.93437">
        <ele>193</ele>
        <time>2013-02-24T09:48:21Z</time>
      </trkpt>
      <trkpt lat="48.68671" lon="1.93433">
        <ele>193</ele>
        <time>2013-02-24T09:48:27Z</time>
      </trkpt>
      <trkpt lat="48.68673" lon="1.93426">
        <ele>193</ele>
        <time>2013-02-24T09:48:31Z</time>
      </trkpt>
      <trkpt lat="48.68675" lon="1.93419">
        <ele>193</ele>
        <time>2013-02-24T09:48:34Z</time>
      </trkpt>
      <trkpt lat="48.68676" lon="1.93414">
        <ele>193</ele>
        <time>2013-02-24T09:48:37Z</time>
      </trkpt>
      <trkpt lat="48.68677" lon="1.93412">
        <ele>193</ele>
        <time>2013-02-24T09:48:39Z</time>
      </trkpt>
      <trkpt lat="48.68678" lon="1.93407">
        <ele>193</ele>
        <time>2013-02-24T09:48:49Z</time>
      </trkpt>
      <trkpt lat="48.68681" lon="1.93405">
        <ele>193</ele>
        <time>2013-02-24T09:48:57Z</time>
      </trkpt>
      <trkpt lat="48.68687" lon="1.93403">
        <ele>194.4</ele>
        <time>2013-02-24T09:49:15Z</time>
      </trkpt>
      <trkpt lat="48.68689" lon="1.93403">
        <ele>194.4</ele>
        <time>2013-02-24T09:49:17Z</time>
      </trkpt>
      <trkpt lat="48.68692" lon="1.93405">
        <ele>195.2</ele>
        <time>2013-02-24T09:49:22Z</time>
      </trkpt>
      <trkpt lat="48.68693" lon="1.93406">
        <ele>195.4</ele>
        <time>2013-02-24T09:49:24Z</time>
      </trkpt>
      <trkpt lat="48.68698" lon="1.93407">
        <ele>196.2</ele>
        <time>2013-02-24T09:49:30Z</time>
      </trkpt>
      <trkpt lat="48.68699" lon="1.93407">
        <ele>196.4</ele>
        <time>2013-02-24T09:49:32Z</time>
      </trkpt>
      <trkpt lat="48.68702" lon="1.93409">
        <ele>196.8</ele>
        <time>2013-02-24T09:49:37Z</time>
      </trkpt>
      <trkpt lat="48.68704" lon="1.93409">
        <ele>197</ele>
        <time>2013-02-24T09:49:42Z</time>
      </trkpt>
      <trkpt lat="48.68709" lon="1.93412">
        <ele>197</ele>
        <time>2013-02-24T09:49:51Z</time>
      </trkpt>
      <trkpt lat="48.68711" lon="1.93414">
        <ele>196.2</ele>
        <time>2013-02-24T09:49:56Z</time>
      </trkpt>
      <trkpt lat="48.68712" lon="1.93419">
        <ele>195.8</ele>
        <time>2013-02-24T09:50:02Z</time>
      </trkpt>
      <trkpt lat="48.68716" lon="1.93422">
        <ele>195</ele>
        <time>2013-02-24T09:50:07Z</time>
      </trkpt>
      <trkpt lat="48.68718" lon="1.93429">
        <ele>194</ele>
        <time>2013-02-24T09:50:14Z</time>
      </trkpt>
      <trkpt lat="48.68721" lon="1.93435">
        <ele>192.6</ele>
        <time>2013-02-24T09:50:19Z</time>
      </trkpt>
      <trkpt lat="48.68724" lon="1.93441">
        <ele>190.8</ele>
        <time>2013-02-24T09:50:26Z</time>
      </trkpt>
      <trkpt lat="48.6873" lon="1.93446">
        <ele>188.8</ele>
        <time>2013-02-24T09:50:32Z</time>
      </trkpt>
      <trkpt lat="48.68731" lon="1.93446">
        <ele>188.6</ele>
        <time>2013-02-24T09:50:33Z</time>
      </trkpt>
      <trkpt lat="48.68736" lon="1.93451">
        <ele>186.8</ele>
        <time>2013-02-24T09:50:39Z</time>
      </trkpt>
      <trkpt lat="48.68735" lon="1.93459">
        <ele>185.8</ele>
        <time>2013-02-24T09:50:44Z</time>
      </trkpt>
      <trkpt lat="48.68732" lon="1.93461">
        <ele>184.6</ele>
        <time>2013-02-24T09:50:49Z</time>
      </trkpt>
      <trkpt lat="48.68731" lon="1.93463">
        <ele>184.2</ele>
        <time>2013-02-24T09:50:51Z</time>
      </trkpt>
      <trkpt lat="48.68729" lon="1.93466">
        <ele>183.2</ele>
        <time>2013-02-24T09:50:55Z</time>
      </trkpt>
      <trkpt lat="48.68725" lon="1.93471">
        <ele>182</ele>
        <time>2013-02-24T09:51:01Z</time>
      </trkpt>
      <trkpt lat="48.6872" lon="1.93483">
        <ele>180.6</ele>
        <time>2013-02-24T09:51:07Z</time>
      </trkpt>
      <trkpt lat="48.68713" lon="1.93489">
        <ele>179.8</ele>
        <time>2013-02-24T09:51:12Z</time>
      </trkpt>
      <trkpt lat="48.68707" lon="1.93494">
        <ele>179.2</ele>
        <time>2013-02-24T09:51:14Z</time>
      </trkpt>
      <trkpt lat="48.687" lon="1.93512">
        <ele>177.8</ele>
        <time>2013-02-24T09:51:21Z</time>
      </trkpt>
      <trkpt lat="48.68698" lon="1.93513">
        <ele>177.6</ele>
        <time>2013-02-24T09:51:23Z</time>
      </trkpt>
      <trkpt lat="48.68696" lon="1.93522">
        <ele>177</ele>
        <time>2013-02-24T09:51:27Z</time>
      </trkpt>
      <trkpt lat="48.68697" lon="1.93534">
        <ele>176</ele>
        <time>2013-02-24T09:51:31Z</time>
      </trkpt>
      <trkpt lat="48.68696" lon="1.93555">
        <ele>175</ele>
        <time>2013-02-24T09:51:38Z</time>
      </trkpt>
      <trkpt lat="48.68695" lon="1.93558">
        <ele>174.8</ele>
        <time>2013-02-24T09:51:39Z</time>
      </trkpt>
      <trkpt lat="48.68694" lon="1.93573">
        <ele>174.4</ele>
        <time>2013-02-24T09:51:44Z</time>
      </trkpt>
      <trkpt lat="48.68694" lon="1.9358">
        <ele>174.4</ele>
        <time>2013-02-24T09:51:47Z</time>
      </trkpt>
      <trkpt lat="48.68694" lon="1.93587">
        <ele>174.2</ele>
        <time>2013-02-24T09:51:50Z</time>
      </trkpt>
      <trkpt lat="48.68695" lon="1.93594">
        <ele>174.2</ele>
        <time>2013-02-24T09:51:51Z</time>
      </trkpt>
      <trkpt lat="48.68695" lon="1.93606">
        <ele>174.2</ele>
        <time>2013-02-24T09:51:56Z</time>
      </trkpt>
      <trkpt lat="48.68695" lon="1.93609">
        <ele>174.2</ele>
        <time>2013-02-24T09:51:57Z</time>
      </trkpt>
      <trkpt lat="48.68698" lon="1.93616">
        <ele>174.2</ele>
        <time>2013-02-24T09:52:00Z</time>
      </trkpt>
      <trkpt lat="48.68698" lon="1.93629">
        <ele>174</ele>
        <time>2013-02-24T09:52:05Z</time>
      </trkpt>
      <trkpt lat="48.68701" lon="1.93637">
        <ele>174</ele>
        <time>2013-02-24T09:52:09Z</time>
      </trkpt>
      <trkpt lat="48.68704" lon="1.93641">
        <ele>174</ele>
        <time>2013-02-24T09:52:10Z</time>
      </trkpt>
      <trkpt lat="48.68706" lon="1.93647">
        <ele>174</ele>
        <time>2013-02-24T09:52:12Z</time>
      </trkpt>
      <trkpt lat="48.68705" lon="1.93654">
        <ele>174</ele>
        <time>2013-02-24T09:52:15Z</time>
      </trkpt>
      <trkpt lat="48.68704" lon="1.93666">
        <ele>174</ele>
        <time>2013-02-24T09:52:18Z</time>
      </trkpt>
      <trkpt lat="48.68709" lon="1.93678">
        <ele>174</ele>
        <time>2013-02-24T09:52:22Z</time>
      </trkpt>
      <trkpt lat="48.68713" lon="1.93686">
        <ele>174</ele>
        <time>2013-02-24T09:52:25Z</time>
      </trkpt>
      <trkpt lat="48.68712" lon="1.93692">
        <ele>174</ele>
        <time>2013-02-24T09:52:27Z</time>
      </trkpt>
      <trkpt lat="48.68709" lon="1.93696">
        <ele>174</ele>
        <time>2013-02-24T09:52:31Z</time>
      </trkpt>
      <trkpt lat="48.68708" lon="1.93697">
        <ele>174</ele>
        <time>2013-02-24T09:52:32Z</time>
      </trkpt>
      <trkpt lat="48.68703" lon="1.93701">
        <ele>174</ele>
        <time>2013-02-24T09:52:38Z</time>
      </trkpt>
      <trkpt lat="48.68699" lon="1.93708">
        <ele>174</ele>
        <time>2013-02-24T09:52:46Z</time>
      </trkpt>
      <trkpt lat="48.68698" lon="1.93713">
        <ele>174</ele>
        <time>2013-02-24T09:52:53Z</time>
      </trkpt>
      <trkpt lat="48.68696" lon="1.9372">
        <ele>174</ele>
        <time>2013-02-24T09:53:01Z</time>
      </trkpt>
      <trkpt lat="48.68693" lon="1.93729">
        <ele>174</ele>
        <time>2013-02-24T09:53:10Z</time>
      </trkpt>
      <trkpt lat="48.68691" lon="1.93733">
        <ele>174</ele>
        <time>2013-02-24T09:53:13Z</time>
      </trkpt>
      <trkpt lat="48.68687" lon="1.93744">
        <ele>174</ele>
        <time>2013-02-24T09:53:20Z</time>
      </trkpt>
      <trkpt lat="48.68684" lon="1.93758">
        <ele>174</ele>
        <time>2013-02-24T09:53:27Z</time>
      </trkpt>
      <trkpt lat="48.68682" lon="1.93774">
        <ele>174</ele>
        <time>2013-02-24T09:53:35Z</time>
      </trkpt>
      <trkpt lat="48.68681" lon="1.93781">
        <ele>174</ele>
        <time>2013-02-24T09:53:38Z</time>
      </trkpt>
      <trkpt lat="48.68681" lon="1.93797">
        <ele>174</ele>
        <time>2013-02-24T09:53:44Z</time>
      </trkpt>
      <trkpt lat="48.68678" lon="1.93807">
        <ele>174</ele>
        <time>2013-02-24T09:53:48Z</time>
      </trkpt>
      <trkpt lat="48.68672" lon="1.9381">
        <ele>174</ele>
        <time>2013-02-24T09:53:51Z</time>
      </trkpt>
      <trkpt lat="48.6867" lon="1.93814">
        <ele>174</ele>
        <time>2013-02-24T09:53:54Z</time>
      </trkpt>
      <trkpt lat="48.68668" lon="1.93827">
        <ele>174</ele>
        <time>2013-02-24T09:54:00Z</time>
      </trkpt>
      <trkpt lat="48.68659" lon="1.93832">
        <ele>173</ele>
        <time>2013-02-24T09:54:07Z</time>
      </trkpt>
      <trkpt lat="48.68654" lon="1.93834">
        <ele>172.2</ele>
        <time>2013-02-24T09:54:10Z</time>
      </trkpt>
      <trkpt lat="48.68644" lon="1.93836">
        <ele>170.4</ele>
        <time>2013-02-24T09:54:15Z</time>
      </trkpt>
      <trkpt lat="48.68639" lon="1.93838">
        <ele>169</ele>
        <time>2013-02-24T09:54:19Z</time>
      </trkpt>
      <trkpt lat="48.68638" lon="1.9384">
        <ele>168.6</ele>
        <time>2013-02-24T09:54:20Z</time>
      </trkpt>
      <trkpt lat="48.68637" lon="1.93839">
        <ele>168.2</ele>
        <time>2013-02-24T09:54:21Z</time>
      </trkpt>
      <trkpt lat="48.68631" lon="1.9384">
        <ele>167.2</ele>
        <time>2013-02-24T09:54:25Z</time>
      </trkpt>
      <trkpt lat="48.68622" lon="1.93844">
        <ele>165</ele>
        <time>2013-02-24T09:54:32Z</time>
      </trkpt>
      <trkpt lat="48.68618" lon="1.93849">
        <ele>164.4</ele>
        <time>2013-02-24T09:54:36Z</time>
      </trkpt>
      <trkpt lat="48.68618" lon="1.93851">
        <ele>164.2</ele>
        <time>2013-02-24T09:54:38Z</time>
      </trkpt>
      <trkpt lat="48.68617" lon="1.93857">
        <ele>163.8</ele>
        <time>2013-02-24T09:54:42Z</time>
      </trkpt>
      <trkpt lat="48.68617" lon="1.93861">
        <ele>163.6</ele>
        <time>2013-02-24T09:54:46Z</time>
      </trkpt>
      <trkpt lat="48.68618" lon="1.93873">
        <ele>163.4</ele>
        <time>2013-02-24T09:54:55Z</time>
      </trkpt>
      <trkpt lat="48.68618" lon="1.93885">
        <ele>164.4</ele>
        <time>2013-02-24T09:55:03Z</time>
      </trkpt>
      <trkpt lat="48.68617" lon="1.93894">
        <ele>164.8</ele>
        <time>2013-02-24T09:55:08Z</time>
      </trkpt>
      <trkpt lat="48.68617" lon="1.93898">
        <ele>165.2</ele>
        <time>2013-02-24T09:55:10Z</time>
      </trkpt>
      <trkpt lat="48.68618" lon="1.93909">
        <ele>166</ele>
        <time>2013-02-24T09:55:15Z</time>
      </trkpt>
      <trkpt lat="48.6862" lon="1.93918">
        <ele>166.4</ele>
        <time>2013-02-24T09:55:19Z</time>
      </trkpt>
      <trkpt lat="48.68621" lon="1.93927">
        <ele>166.8</ele>
        <time>2013-02-24T09:55:25Z</time>
      </trkpt>
      <trkpt lat="48.68623" lon="1.93928">
        <ele>166.8</ele>
        <time>2013-02-24T09:55:26Z</time>
      </trkpt>
      <trkpt lat="48.68625" lon="1.9393">
        <ele>166.8</ele>
        <time>2013-02-24T09:55:28Z</time>
      </trkpt>
      <trkpt lat="48.68624" lon="1.93943">
        <ele>167</ele>
        <time>2013-02-24T09:55:34Z</time>
      </trkpt>
      <trkpt lat="48.68623" lon="1.93951">
        <ele>167</ele>
        <time>2013-02-24T09:55:38Z</time>
      </trkpt>
      <trkpt lat="48.6862" lon="1.93955">
        <ele>167.2</ele>
        <time>2013-02-24T09:55:41Z</time>
      </trkpt>
      <trkpt lat="48.68616" lon="1.93965">
        <ele>167.2</ele>
        <time>2013-02-24T09:55:45Z</time>
      </trkpt>
      <trkpt lat="48.68611" lon="1.93977">
        <ele>166.6</ele>
        <time>2013-02-24T09:55:49Z</time>
      </trkpt>
      <trkpt lat="48.68609" lon="1.93996">
        <ele>165.8</ele>
        <time>2013-02-24T09:55:55Z</time>
      </trkpt>
      <trkpt lat="48.68608" lon="1.94005">
        <ele>165</ele>
        <time>2013-02-24T09:55:58Z</time>
      </trkpt>
      <trkpt lat="48.68598" lon="1.94018">
        <ele>164.2</ele>
        <time>2013-02-24T09:56:02Z</time>
      </trkpt>
      <trkpt lat="48.68594" lon="1.94031">
        <ele>163.8</ele>
        <time>2013-02-24T09:56:06Z</time>
      </trkpt>
      <trkpt lat="48.68593" lon="1.94038">
        <ele>163.6</ele>
        <time>2013-02-24T09:56:08Z</time>
      </trkpt>
      <trkpt lat="48.68586" lon="1.94053">
        <ele>163.2</ele>
        <time>2013-02-24T09:56:14Z</time>
      </trkpt>
      <trkpt lat="48.68585" lon="1.94052">
        <ele>163.2</ele>
        <time>2013-02-24T09:56:15Z</time>
      </trkpt>
      <trkpt lat="48.68581" lon="1.94055">
        <ele>162.6</ele>
        <time>2013-02-24T09:56:19Z</time>
      </trkpt>
      <trkpt lat="48.68582" lon="1.94061">
        <ele>162</ele>
        <time>2013-02-24T09:56:23Z</time>
      </trkpt>
      <trkpt lat="48.68584" lon="1.94066">
        <ele>161.2</ele>
        <time>2013-02-24T09:56:26Z</time>
      </trkpt>
      <trkpt lat="48.68586" lon="1.94073">
        <ele>160.2</ele>
        <time>2013-02-24T09:56:31Z</time>
      </trkpt>
      <trkpt lat="48.68586" lon="1.94081">
        <ele>159.6</ele>
        <time>2013-02-24T09:56:37Z</time>
      </trkpt>
      <trkpt lat="48.68586" lon="1.9409">
        <ele>159</ele>
        <time>2013-02-24T09:56:45Z</time>
      </trkpt>
      <trkpt lat="48.68588" lon="1.94096">
        <ele>159</ele>
        <time>2013-02-24T09:56:51Z</time>
      </trkpt>
      <trkpt lat="48.68589" lon="1.941">
        <ele>158.8</ele>
        <time>2013-02-24T09:56:56Z</time>
      </trkpt>
      <trkpt lat="48.68589" lon="1.94108">
        <ele>159</ele>
        <time>2013-02-24T09:57:02Z</time>
      </trkpt>
      <trkpt lat="48.68587" lon="1.94122">
        <ele>160</ele>
        <time>2013-02-24T09:57:09Z</time>
      </trkpt>
      <trkpt lat="48.68585" lon="1.94125">
        <ele>160</ele>
        <time>2013-02-24T09:57:10Z</time>
      </trkpt>
      <trkpt lat="48.68582" lon="1.94133">
        <ele>160.2</ele>
        <time>2013-02-24T09:57:13Z</time>
      </trkpt>
      <trkpt lat="48.68579" lon="1.94137">
        <ele>160.4</ele>
        <time>2013-02-24T09:57:15Z</time>
      </trkpt>
      <trkpt lat="48.68574" lon="1.94154">
        <ele>161.2</ele>
        <time>2013-02-24T09:57:22Z</time>
      </trkpt>
      <trkpt lat="48.68573" lon="1.94173">
        <ele>162</ele>
        <time>2013-02-24T09:57:28Z</time>
      </trkpt>
      <trkpt lat="48.68575" lon="1.94182">
        <ele>162.8</ele>
        <time>2013-02-24T09:57:32Z</time>
      </trkpt>
      <trkpt lat="48.68573" lon="1.94186">
        <ele>163.4</ele>
        <time>2013-02-24T09:57:35Z</time>
      </trkpt>
      <trkpt lat="48.68568" lon="1.94193">
        <ele>164.2</ele>
        <time>2013-02-24T09:57:42Z</time>
      </trkpt>
      <trkpt lat="48.68562" lon="1.94194">
        <ele>164.6</ele>
        <time>2013-02-24T09:57:47Z</time>
      </trkpt>
      <trkpt lat="48.68553" lon="1.94195">
        <ele>164.6</ele>
        <time>2013-02-24T09:57:53Z</time>
      </trkpt>
      <trkpt lat="48.68551" lon="1.94195">
        <ele>164.4</ele>
        <time>2013-02-24T09:57:54Z</time>
      </trkpt>
      <trkpt lat="48.68541" lon="1.94196">
        <ele>163.4</ele>
        <time>2013-02-24T09:58:00Z</time>
      </trkpt>
      <trkpt lat="48.6854" lon="1.94198">
        <ele>163.2</ele>
        <time>2013-02-24T09:58:01Z</time>
      </trkpt>
      <trkpt lat="48.68534" lon="1.94198">
        <ele>162.4</ele>
        <time>2013-02-24T09:58:05Z</time>
      </trkpt>
      <trkpt lat="48.68525" lon="1.94196">
        <ele>161</ele>
        <time>2013-02-24T09:58:10Z</time>
      </trkpt>
      <trkpt lat="48.68524" lon="1.94196">
        <ele>160.8</ele>
        <time>2013-02-24T09:58:11Z</time>
      </trkpt>
      <trkpt lat="48.6851" lon="1.94198">
        <ele>159.8</ele>
        <time>2013-02-24T09:58:17Z</time>
      </trkpt>
      <trkpt lat="48.68504" lon="1.94199">
        <ele>158.8</ele>
        <time>2013-02-24T09:58:21Z</time>
      </trkpt>
      <trkpt lat="48.685" lon="1.94205">
        <ele>157.8</ele>
        <time>2013-02-24T09:58:26Z</time>
      </trkpt>
      <trkpt lat="48.68498" lon="1.94204">
        <ele>157.6</ele>
        <time>2013-02-24T09:58:29Z</time>
      </trkpt>
      <trkpt lat="48.68496" lon="1.94201">
        <ele>157.4</ele>
        <time>2013-02-24T09:58:31Z</time>
      </trkpt>
      <trkpt lat="48.68487" lon="1.94205">
        <ele>157</ele>
        <time>2013-02-24T09:58:37Z</time>
      </trkpt>
      <trkpt lat="48.68486" lon="1.94207">
        <ele>156.8</ele>
        <time>2013-02-24T09:58:38Z</time>
      </trkpt>
      <trkpt lat="48.68485" lon="1.94209">
        <ele>156.4</ele>
        <time>2013-02-24T09:58:39Z</time>
      </trkpt>
      <trkpt lat="48.68483" lon="1.94219">
        <ele>155.6</ele>
        <time>2013-02-24T09:58:44Z</time>
      </trkpt>
      <trkpt lat="48.6848" lon="1.94221">
        <ele>155.4</ele>
        <time>2013-02-24T09:58:45Z</time>
      </trkpt>
      <trkpt lat="48.68474" lon="1.94224">
        <ele>155.2</ele>
        <time>2013-02-24T09:58:48Z</time>
      </trkpt>
      <trkpt lat="48.68467" lon="1.94227">
        <ele>155</ele>
        <time>2013-02-24T09:58:52Z</time>
      </trkpt>
      <trkpt lat="48.6846" lon="1.94235">
        <ele>154.2</ele>
        <time>2013-02-24T09:58:56Z</time>
      </trkpt>
      <trkpt lat="48.68454" lon="1.94243">
        <ele>153.6</ele>
        <time>2013-02-24T09:58:59Z</time>
      </trkpt>
      <trkpt lat="48.68449" lon="1.94257">
        <ele>152.6</ele>
        <time>2013-02-24T09:59:05Z</time>
      </trkpt>
      <trkpt lat="48.68448" lon="1.94259">
        <ele>152.4</ele>
        <time>2013-02-24T09:59:06Z</time>
      </trkpt>
      <trkpt lat="48.68445" lon="1.94264">
        <ele>152</ele>
        <time>2013-02-24T09:59:08Z</time>
      </trkpt>
      <trkpt lat="48.68443" lon="1.94275">
        <ele>151.4</ele>
        <time>2013-02-24T09:59:13Z</time>
      </trkpt>
      <trkpt lat="48.68441" lon="1.94283">
        <ele>151</ele>
        <time>2013-02-24T09:59:17Z</time>
      </trkpt>
      <trkpt lat="48.6844" lon="1.94289">
        <ele>150.8</ele>
        <time>2013-02-24T09:59:20Z</time>
      </trkpt>
      <trkpt lat="48.68437" lon="1.943">
        <ele>150.8</ele>
        <time>2013-02-24T09:59:23Z</time>
      </trkpt>
      <trkpt lat="48.68435" lon="1.94309">
        <ele>150.6</ele>
        <time>2013-02-24T09:59:26Z</time>
      </trkpt>
      <trkpt lat="48.68433" lon="1.94315">
        <ele>150.6</ele>
        <time>2013-02-24T09:59:28Z</time>
      </trkpt>
      <trkpt lat="48.6843" lon="1.94333">
        <ele>150.4</ele>
        <time>2013-02-24T09:59:34Z</time>
      </trkpt>
      <trkpt lat="48.68426" lon="1.94344">
        <ele>151.2</ele>
        <time>2013-02-24T09:59:39Z</time>
      </trkpt>
      <trkpt lat="48.68423" lon="1.94354">
        <ele>151.8</ele>
        <time>2013-02-24T09:59:45Z</time>
      </trkpt>
      <trkpt lat="48.68422" lon="1.94355">
        <ele>151.8</ele>
        <time>2013-02-24T09:59:46Z</time>
      </trkpt>
      <trkpt lat="48.68413" lon="1.9436">
        <ele>152.2</ele>
        <time>2013-02-24T09:59:54Z</time>
      </trkpt>
      <trkpt lat="48.68411" lon="1.94361">
        <ele>152.2</ele>
        <time>2013-02-24T09:59:55Z</time>
      </trkpt>
      <trkpt lat="48.68401" lon="1.94363">
        <ele>152.6</ele>
        <time>2013-02-24T10:00:02Z</time>
      </trkpt>
      <trkpt lat="48.68398" lon="1.94362">
        <ele>153</ele>
        <time>2013-02-24T10:00:04Z</time>
      </trkpt>
      <trkpt lat="48.68388" lon="1.94368">
        <ele>153.6</ele>
        <time>2013-02-24T10:00:09Z</time>
      </trkpt>
      <trkpt lat="48.68382" lon="1.94383">
        <ele>154</ele>
        <time>2013-02-24T10:00:15Z</time>
      </trkpt>
      <trkpt lat="48.68382" lon="1.94385">
        <ele>154</ele>
        <time>2013-02-24T10:00:17Z</time>
      </trkpt>
      <trkpt lat="48.68381" lon="1.94389">
        <ele>154.2</ele>
        <time>2013-02-24T10:00:19Z</time>
      </trkpt>
      <trkpt lat="48.68381" lon="1.94392">
        <ele>154.2</ele>
        <time>2013-02-24T10:00:22Z</time>
      </trkpt>
      <trkpt lat="48.68375" lon="1.94401">
        <ele>154.4</ele>
        <time>2013-02-24T10:00:29Z</time>
      </trkpt>
      <trkpt lat="48.68374" lon="1.94404">
        <ele>154.4</ele>
        <time>2013-02-24T10:00:30Z</time>
      </trkpt>
      <trkpt lat="48.68373" lon="1.94409">
        <ele>154.4</ele>
        <time>2013-02-24T10:00:34Z</time>
      </trkpt>
      <trkpt lat="48.68368" lon="1.94417">
        <ele>155.6</ele>
        <time>2013-02-24T10:00:42Z</time>
      </trkpt>
      <trkpt lat="48.68365" lon="1.94421">
        <ele>155.8</ele>
        <time>2013-02-24T10:00:45Z</time>
      </trkpt>
      <trkpt lat="48.68363" lon="1.94425">
        <ele>156</ele>
        <time>2013-02-24T10:00:49Z</time>
      </trkpt>
      <trkpt lat="48.68357" lon="1.94438">
        <ele>156.4</ele>
        <time>2013-02-24T10:00:58Z</time>
      </trkpt>
      <trkpt lat="48.68356" lon="1.94444">
        <ele>156.4</ele>
        <time>2013-02-24T10:01:02Z</time>
      </trkpt>
      <trkpt lat="48.68352" lon="1.94458">
        <ele>157</ele>
        <time>2013-02-24T10:01:10Z</time>
      </trkpt>
      <trkpt lat="48.6835" lon="1.94465">
        <ele>157.6</ele>
        <time>2013-02-24T10:01:15Z</time>
      </trkpt>
      <trkpt lat="48.68347" lon="1.94475">
        <ele>158.2</ele>
        <time>2013-02-24T10:01:22Z</time>
      </trkpt>
      <trkpt lat="48.68346" lon="1.94476">
        <ele>158.4</ele>
        <time>2013-02-24T10:01:23Z</time>
      </trkpt>
      <trkpt lat="48.68345" lon="1.94478">
        <ele>159</ele>
        <time>2013-02-24T10:01:26Z</time>
      </trkpt>
      <trkpt lat="48.68343" lon="1.94484">
        <ele>159.8</ele>
        <time>2013-02-24T10:01:33Z</time>
      </trkpt>
      <trkpt lat="48.68342" lon="1.94487">
        <ele>161</ele>
        <time>2013-02-24T10:01:39Z</time>
      </trkpt>
      <trkpt lat="48.6834" lon="1.94489">
        <ele>162</ele>
        <time>2013-02-24T10:01:46Z</time>
      </trkpt>
      <trkpt lat="48.68333" lon="1.94493">
        <ele>162.6</ele>
        <time>2013-02-24T10:02:01Z</time>
      </trkpt>
      <trkpt lat="48.6833" lon="1.94494">
        <ele>162.6</ele>
        <time>2013-02-24T10:02:07Z</time>
      </trkpt>
      <trkpt lat="48.68326" lon="1.94496">
        <ele>164</ele>
        <time>2013-02-24T10:02:17Z</time>
      </trkpt>
      <trkpt lat="48.68322" lon="1.94499">
        <ele>164.4</ele>
        <time>2013-02-24T10:02:24Z</time>
      </trkpt>
      <trkpt lat="48.68319" lon="1.94503">
        <ele>164.6</ele>
        <time>2013-02-24T10:02:30Z</time>
      </trkpt>
      <trkpt lat="48.68315" lon="1.94505">
        <ele>165.6</ele>
        <time>2013-02-24T10:02:36Z</time>
      </trkpt>
      <trkpt lat="48.68311" lon="1.94512">
        <ele>166.2</ele>
        <time>2013-02-24T10:02:43Z</time>
      </trkpt>
      <trkpt lat="48.68311" lon="1.94519">
        <ele>166.4</ele>
        <time>2013-02-24T10:02:47Z</time>
      </trkpt>
      <trkpt lat="48.68305" lon="1.94532">
        <ele>166.6</ele>
        <time>2013-02-24T10:02:53Z</time>
      </trkpt>
      <trkpt lat="48.68303" lon="1.94542">
        <ele>166.6</ele>
        <time>2013-02-24T10:02:56Z</time>
      </trkpt>
      <trkpt lat="48.68303" lon="1.94542">
        <ele>166.6</ele>
        <time>2013-02-24T10:02:56Z</time>
      </trkpt>
      <trkpt lat="48.68302" lon="1.94544">
        <ele>166.6</ele>
        <time>2013-02-24T10:02:57Z</time>
      </trkpt>
      <trkpt lat="48.68304" lon="1.94557">
        <ele>166.8</ele>
        <time>2013-02-24T10:03:02Z</time>
      </trkpt>
      <trkpt lat="48.68305" lon="1.94572">
        <ele>166.8</ele>
        <time>2013-02-24T10:03:07Z</time>
      </trkpt>
      <trkpt lat="48.68306" lon="1.94573">
        <ele>167</ele>
        <time>2013-02-24T10:03:08Z</time>
      </trkpt>
      <trkpt lat="48.68309" lon="1.94577">
        <ele>167.6</ele>
        <time>2013-02-24T10:03:12Z</time>
      </trkpt>
      <trkpt lat="48.68315" lon="1.94582">
        <ele>168.2</ele>
        <time>2013-02-24T10:03:18Z</time>
      </trkpt>
      <trkpt lat="48.68318" lon="1.94589">
        <ele>168.4</ele>
        <time>2013-02-24T10:03:23Z</time>
      </trkpt>
      <trkpt lat="48.68323" lon="1.94591">
        <ele>168.6</ele>
        <time>2013-02-24T10:03:28Z</time>
      </trkpt>
      <trkpt lat="48.68327" lon="1.94592">
        <ele>168.6</ele>
        <time>2013-02-24T10:03:30Z</time>
      </trkpt>
      <trkpt lat="48.68328" lon="1.94592">
        <ele>168.6</ele>
        <time>2013-02-24T10:03:32Z</time>
      </trkpt>
      <trkpt lat="48.68332" lon="1.94593">
        <ele>168.8</ele>
        <time>2013-02-24T10:03:35Z</time>
      </trkpt>
      <trkpt lat="48.68335" lon="1.94598">
        <ele>168.8</ele>
        <time>2013-02-24T10:03:39Z</time>
      </trkpt>
      <trkpt lat="48.68336" lon="1.946">
        <ele>168.8</ele>
        <time>2013-02-24T10:03:41Z</time>
      </trkpt>
      <trkpt lat="48.68339" lon="1.94609">
        <ele>168.8</ele>
        <time>2013-02-24T10:03:47Z</time>
      </trkpt>
      <trkpt lat="48.6834" lon="1.9461">
        <ele>168.8</ele>
        <time>2013-02-24T10:03:48Z</time>
      </trkpt>
      <trkpt lat="48.68342" lon="1.94613">
        <ele>168.8</ele>
        <time>2013-02-24T10:03:51Z</time>
      </trkpt>
      <trkpt lat="48.68344" lon="1.94625">
        <ele>168.8</ele>
        <time>2013-02-24T10:03:58Z</time>
      </trkpt>
      <trkpt lat="48.68344" lon="1.94626">
        <ele>168.8</ele>
        <time>2013-02-24T10:03:59Z</time>
      </trkpt>
      <trkpt lat="48.68345" lon="1.94632">
        <ele>168.8</ele>
        <time>2013-02-24T10:04:07Z</time>
      </trkpt>
      <trkpt lat="48.68347" lon="1.94639">
        <ele>168.8</ele>
        <time>2013-02-24T10:04:14Z</time>
      </trkpt>
      <trkpt lat="48.68348" lon="1.9464">
        <ele>168.8</ele>
        <time>2013-02-24T10:04:15Z</time>
      </trkpt>
      <trkpt lat="48.68353" lon="1.94651">
        <ele>168.8</ele>
        <time>2013-02-24T10:04:21Z</time>
      </trkpt>
      <trkpt lat="48.68353" lon="1.94652">
        <ele>168.8</ele>
        <time>2013-02-24T10:04:22Z</time>
      </trkpt>
      <trkpt lat="48.68354" lon="1.94661">
        <ele>169.8</ele>
        <time>2013-02-24T10:04:28Z</time>
      </trkpt>
      <trkpt lat="48.68355" lon="1.94662">
        <ele>169.8</ele>
        <time>2013-02-24T10:04:29Z</time>
      </trkpt>
      <trkpt lat="48.68354" lon="1.94668">
        <ele>170.2</ele>
        <time>2013-02-24T10:04:32Z</time>
      </trkpt>
      <trkpt lat="48.68353" lon="1.94676">
        <ele>170.4</ele>
        <time>2013-02-24T10:04:36Z</time>
      </trkpt>
      <trkpt lat="48.68354" lon="1.94683">
        <ele>170.6</ele>
        <time>2013-02-24T10:04:40Z</time>
      </trkpt>
      <trkpt lat="48.68355" lon="1.94692">
        <ele>170.8</ele>
        <time>2013-02-24T10:04:47Z</time>
      </trkpt>
      <trkpt lat="48.68355" lon="1.94694">
        <ele>170.8</ele>
        <time>2013-02-24T10:04:49Z</time>
      </trkpt>
      <trkpt lat="48.68357" lon="1.94698">
        <ele>170.8</ele>
        <time>2013-02-24T10:04:57Z</time>
      </trkpt>
      <trkpt lat="48.68356" lon="1.94706">
        <ele>170.8</ele>
        <time>2013-02-24T10:05:03Z</time>
      </trkpt>
      <trkpt lat="48.68354" lon="1.94712">
        <ele>170.8</ele>
        <time>2013-02-24T10:05:07Z</time>
      </trkpt>
      <trkpt lat="48.68354" lon="1.94713">
        <ele>170.8</ele>
        <time>2013-02-24T10:05:08Z</time>
      </trkpt>
      <trkpt lat="48.68356" lon="1.9472">
        <ele>170.8</ele>
        <time>2013-02-24T10:05:12Z</time>
      </trkpt>
      <trkpt lat="48.68357" lon="1.94724">
        <ele>170.8</ele>
        <time>2013-02-24T10:05:13Z</time>
      </trkpt>
      <trkpt lat="48.68362" lon="1.94739">
        <ele>170.8</ele>
        <time>2013-02-24T10:05:18Z</time>
      </trkpt>
      <trkpt lat="48.68362" lon="1.94745">
        <ele>170.8</ele>
        <time>2013-02-24T10:05:20Z</time>
      </trkpt>
      <trkpt lat="48.68356" lon="1.94765">
        <ele>170.8</ele>
        <time>2013-02-24T10:05:27Z</time>
      </trkpt>
      <trkpt lat="48.68349" lon="1.94785">
        <ele>170.8</ele>
        <time>2013-02-24T10:05:33Z</time>
      </trkpt>
      <trkpt lat="48.68343" lon="1.948">
        <ele>171.4</ele>
        <time>2013-02-24T10:05:38Z</time>
      </trkpt>
      <trkpt lat="48.68341" lon="1.94807">
        <ele>171.8</ele>
        <time>2013-02-24T10:05:40Z</time>
      </trkpt>
      <trkpt lat="48.68346" lon="1.94826">
        <ele>172.2</ele>
        <time>2013-02-24T10:05:45Z</time>
      </trkpt>
      <trkpt lat="48.68349" lon="1.94838">
        <ele>172.4</ele>
        <time>2013-02-24T10:05:49Z</time>
      </trkpt>
      <trkpt lat="48.6835" lon="1.94844">
        <ele>172.6</ele>
        <time>2013-02-24T10:05:50Z</time>
      </trkpt>
      <trkpt lat="48.68351" lon="1.94851">
        <ele>173.4</ele>
        <time>2013-02-24T10:05:53Z</time>
      </trkpt>
      <trkpt lat="48.68356" lon="1.94858">
        <ele>173.8</ele>
        <time>2013-02-24T10:05:57Z</time>
      </trkpt>
      <trkpt lat="48.68366" lon="1.94868">
        <ele>174.6</ele>
        <time>2013-02-24T10:06:03Z</time>
      </trkpt>
      <trkpt lat="48.68372" lon="1.94871">
        <ele>175.2</ele>
        <time>2013-02-24T10:06:06Z</time>
      </trkpt>
      <trkpt lat="48.68382" lon="1.94873">
        <ele>176.2</ele>
        <time>2013-02-24T10:06:12Z</time>
      </trkpt>
      <trkpt lat="48.6839" lon="1.94872">
        <ele>176.6</ele>
        <time>2013-02-24T10:06:17Z</time>
      </trkpt>
      <trkpt lat="48.68396" lon="1.94869">
        <ele>176.8</ele>
        <time>2013-02-24T10:06:21Z</time>
      </trkpt>
      <trkpt lat="48.68404" lon="1.9486">
        <ele>177.8</ele>
        <time>2013-02-24T10:06:26Z</time>
      </trkpt>
      <trkpt lat="48.68406" lon="1.94859">
        <ele>178</ele>
        <time>2013-02-24T10:06:27Z</time>
      </trkpt>
      <trkpt lat="48.68417" lon="1.94856">
        <ele>178.6</ele>
        <time>2013-02-24T10:06:33Z</time>
      </trkpt>
      <trkpt lat="48.68425" lon="1.94853">
        <ele>178.8</ele>
        <time>2013-02-24T10:06:37Z</time>
      </trkpt>
      <trkpt lat="48.68434" lon="1.94855">
        <ele>179.2</ele>
        <time>2013-02-24T10:06:42Z</time>
      </trkpt>
      <trkpt lat="48.68444" lon="1.94862">
        <ele>180</ele>
        <time>2013-02-24T10:06:47Z</time>
      </trkpt>
      <trkpt lat="48.68449" lon="1.94865">
        <ele>180.4</ele>
        <time>2013-02-24T10:06:51Z</time>
      </trkpt>
      <trkpt lat="48.68448" lon="1.94871">
        <ele>180.8</ele>
        <time>2013-02-24T10:06:56Z</time>
      </trkpt>
      <trkpt lat="48.68447" lon="1.94879">
        <ele>181</ele>
        <time>2013-02-24T10:07:02Z</time>
      </trkpt>
      <trkpt lat="48.68449" lon="1.94885">
        <ele>181.2</ele>
        <time>2013-02-24T10:07:07Z</time>
      </trkpt>
      <trkpt lat="48.68449" lon="1.94888">
        <ele>181.2</ele>
        <time>2013-02-24T10:07:09Z</time>
      </trkpt>
      <trkpt lat="48.68449" lon="1.94891">
        <ele>181.2</ele>
        <time>2013-02-24T10:07:11Z</time>
      </trkpt>
      <trkpt lat="48.68448" lon="1.94904">
        <ele>181</ele>
        <time>2013-02-24T10:07:15Z</time>
      </trkpt>
      <trkpt lat="48.68452" lon="1.94921">
        <ele>180.4</ele>
        <time>2013-02-24T10:07:19Z</time>
      </trkpt>
      <trkpt lat="48.68461" lon="1.94935">
        <ele>179.8</ele>
        <time>2013-02-24T10:07:24Z</time>
      </trkpt>
      <trkpt lat="48.6846" lon="1.94941">
        <ele>179.4</ele>
        <time>2013-02-24T10:07:27Z</time>
      </trkpt>
      <trkpt lat="48.68458" lon="1.94946">
        <ele>179</ele>
        <time>2013-02-24T10:07:29Z</time>
      </trkpt>
      <trkpt lat="48.68453" lon="1.94956">
        <ele>177.8</ele>
        <time>2013-02-24T10:07:37Z</time>
      </trkpt>
      <trkpt lat="48.68449" lon="1.94963">
        <ele>177.4</ele>
        <time>2013-02-24T10:07:43Z</time>
      </trkpt>
      <trkpt lat="48.68447" lon="1.94968">
        <ele>176.8</ele>
        <time>2013-02-24T10:07:48Z</time>
      </trkpt>
      <trkpt lat="48.68445" lon="1.94974">
        <ele>176</ele>
        <time>2013-02-24T10:07:53Z</time>
      </trkpt>
      <trkpt lat="48.68442" lon="1.94979">
        <ele>175.6</ele>
        <time>2013-02-24T10:07:57Z</time>
      </trkpt>
      <trkpt lat="48.6844" lon="1.94984">
        <ele>175.4</ele>
        <time>2013-02-24T10:08:02Z</time>
      </trkpt>
      <trkpt lat="48.68439" lon="1.94986">
        <ele>175.2</ele>
        <time>2013-02-24T10:08:03Z</time>
      </trkpt>
      <trkpt lat="48.68436" lon="1.94992">
        <ele>175.2</ele>
        <time>2013-02-24T10:08:10Z</time>
      </trkpt>
      <trkpt lat="48.68433" lon="1.94997">
        <ele>175</ele>
        <time>2013-02-24T10:08:16Z</time>
      </trkpt>
      <trkpt lat="48.68432" lon="1.95001">
        <ele>175</ele>
        <time>2013-02-24T10:08:19Z</time>
      </trkpt>
      <trkpt lat="48.68424" lon="1.95014">
        <ele>175</ele>
        <time>2013-02-24T10:08:25Z</time>
      </trkpt>
      <trkpt lat="48.68426" lon="1.95025">
        <ele>175</ele>
        <time>2013-02-24T10:08:29Z</time>
      </trkpt>
      <trkpt lat="48.68426" lon="1.9503">
        <ele>175</ele>
        <time>2013-02-24T10:08:30Z</time>
      </trkpt>
      <trkpt lat="48.68424" lon="1.95045">
        <ele>175</ele>
        <time>2013-02-24T10:08:36Z</time>
      </trkpt>
      <trkpt lat="48.6842" lon="1.9506">
        <ele>175</ele>
        <time>2013-02-24T10:08:41Z</time>
      </trkpt>
      <trkpt lat="48.68419" lon="1.95063">
        <ele>175</ele>
        <time>2013-02-24T10:08:42Z</time>
      </trkpt>
      <trkpt lat="48.68414" lon="1.95082">
        <ele>175</ele>
        <time>2013-02-24T10:08:48Z</time>
      </trkpt>
      <trkpt lat="48.68413" lon="1.95084">
        <ele>175</ele>
        <time>2013-02-24T10:08:49Z</time>
      </trkpt>
      <trkpt lat="48.68412" lon="1.95095">
        <ele>175</ele>
        <time>2013-02-24T10:08:52Z</time>
      </trkpt>
      <trkpt lat="48.68414" lon="1.95119">
        <ele>175.6</ele>
        <time>2013-02-24T10:09:00Z</time>
      </trkpt>
      <trkpt lat="48.68415" lon="1.95132">
        <ele>176.2</ele>
        <time>2013-02-24T10:09:04Z</time>
      </trkpt>
      <trkpt lat="48.68421" lon="1.95145">
        <ele>176.4</ele>
        <time>2013-02-24T10:09:09Z</time>
      </trkpt>
      <trkpt lat="48.68425" lon="1.95159">
        <ele>176.8</ele>
        <time>2013-02-24T10:09:15Z</time>
      </trkpt>
      <trkpt lat="48.68425" lon="1.95161">
        <ele>176.8</ele>
        <time>2013-02-24T10:09:16Z</time>
      </trkpt>
      <trkpt lat="48.68428" lon="1.95167">
        <ele>176.8</ele>
        <time>2013-02-24T10:09:19Z</time>
      </trkpt>
      <trkpt lat="48.68432" lon="1.95183">
        <ele>176.6</ele>
        <time>2013-02-24T10:09:23Z</time>
      </trkpt>
      <trkpt lat="48.6844" lon="1.95202">
        <ele>175.8</ele>
        <time>2013-02-24T10:09:29Z</time>
      </trkpt>
      <trkpt lat="48.68446" lon="1.95223">
        <ele>175.2</ele>
        <time>2013-02-24T10:09:34Z</time>
      </trkpt>
      <trkpt lat="48.68447" lon="1.95233">
        <ele>174.6</ele>
        <time>2013-02-24T10:09:37Z</time>
      </trkpt>
      <trkpt lat="48.68448" lon="1.9525">
        <ele>174</ele>
        <time>2013-02-24T10:09:41Z</time>
      </trkpt>
      <trkpt lat="48.68447" lon="1.95269">
        <ele>173.2</ele>
        <time>2013-02-24T10:09:45Z</time>
      </trkpt>
      <trkpt lat="48.68429" lon="1.95294">
        <ele>171.8</ele>
        <time>2013-02-24T10:09:54Z</time>
      </trkpt>
      <trkpt lat="48.68421" lon="1.95308">
        <ele>171.4</ele>
        <time>2013-02-24T10:09:58Z</time>
      </trkpt>
      <trkpt lat="48.68417" lon="1.95314">
        <ele>171.2</ele>
        <time>2013-02-24T10:10:00Z</time>
      </trkpt>
      <trkpt lat="48.68409" lon="1.95343">
        <ele>171</ele>
        <time>2013-02-24T10:10:08Z</time>
      </trkpt>
      <trkpt lat="48.68401" lon="1.95372">
        <ele>170.8</ele>
        <time>2013-02-24T10:10:16Z</time>
      </trkpt>
      <trkpt lat="48.68395" lon="1.95395">
        <ele>171.4</ele>
        <time>2013-02-24T10:10:23Z</time>
      </trkpt>
      <trkpt lat="48.68389" lon="1.9542">
        <ele>172.2</ele>
        <time>2013-02-24T10:10:31Z</time>
      </trkpt>
      <trkpt lat="48.68386" lon="1.95439">
        <ele>172.4</ele>
        <time>2013-02-24T10:10:37Z</time>
      </trkpt>
      <trkpt lat="48.68384" lon="1.95447">
        <ele>172.6</ele>
        <time>2013-02-24T10:10:40Z</time>
      </trkpt>
      <trkpt lat="48.68384" lon="1.95454">
        <ele>172.6</ele>
        <time>2013-02-24T10:10:45Z</time>
      </trkpt>
      <trkpt lat="48.68384" lon="1.95458">
        <ele>172.6</ele>
        <time>2013-02-24T10:10:49Z</time>
      </trkpt>
      <trkpt lat="48.68383" lon="1.95462">
        <ele>173</ele>
        <time>2013-02-24T10:10:51Z</time>
      </trkpt>
      <trkpt lat="48.68381" lon="1.95468">
        <ele>173.8</ele>
        <time>2013-02-24T10:10:56Z</time>
      </trkpt>
      <trkpt lat="48.6838" lon="1.9547">
        <ele>174</ele>
        <time>2013-02-24T10:10:58Z</time>
      </trkpt>
      <trkpt lat="48.68379" lon="1.95476">
        <ele>174.2</ele>
        <time>2013-02-24T10:11:01Z</time>
      </trkpt>
      <trkpt lat="48.68374" lon="1.95481">
        <ele>174.6</ele>
        <time>2013-02-24T10:11:06Z</time>
      </trkpt>
      <trkpt lat="48.68373" lon="1.95484">
        <ele>174.6</ele>
        <time>2013-02-24T10:11:10Z</time>
      </trkpt>
      <trkpt lat="48.68372" lon="1.95485">
        <ele>174.6</ele>
        <time>2013-02-24T10:11:12Z</time>
      </trkpt>
      <trkpt lat="48.68369" lon="1.9549">
        <ele>175.8</ele>
        <time>2013-02-24T10:11:21Z</time>
      </trkpt>
      <trkpt lat="48.68367" lon="1.95493">
        <ele>176.4</ele>
        <time>2013-02-24T10:11:28Z</time>
      </trkpt>
      <trkpt lat="48.68365" lon="1.95499">
        <ele>176.8</ele>
        <time>2013-02-24T10:11:37Z</time>
      </trkpt>
      <trkpt lat="48.68365" lon="1.95505">
        <ele>176.8</ele>
        <time>2013-02-24T10:11:43Z</time>
      </trkpt>
      <trkpt lat="48.68366" lon="1.95509">
        <ele>176.8</ele>
        <time>2013-02-24T10:11:50Z</time>
      </trkpt>
      <trkpt lat="48.68365" lon="1.95508">
        <ele>177</ele>
        <time>2013-02-24T10:11:54Z</time>
      </trkpt>
      <trkpt lat="48.68365" lon="1.95514">
        <ele>177</ele>
        <time>2013-02-24T10:12:05Z</time>
      </trkpt>
      <trkpt lat="48.68365" lon="1.95525">
        <ele>177</ele>
        <time>2013-02-24T10:12:11Z</time>
      </trkpt>
      <trkpt lat="48.68365" lon="1.95541">
        <ele>177.8</ele>
        <time>2013-02-24T10:12:18Z</time>
      </trkpt>
      <trkpt lat="48.68363" lon="1.95549">
        <ele>178.2</ele>
        <time>2013-02-24T10:12:22Z</time>
      </trkpt>
      <trkpt lat="48.68361" lon="1.95557">
        <ele>178.4</ele>
        <time>2013-02-24T10:12:26Z</time>
      </trkpt>
      <trkpt lat="48.68361" lon="1.95559">
        <ele>178.6</ele>
        <time>2013-02-24T10:12:28Z</time>
      </trkpt>
      <trkpt lat="48.6836" lon="1.95569">
        <ele>178.8</ele>
        <time>2013-02-24T10:12:32Z</time>
      </trkpt>
      <trkpt lat="48.6836" lon="1.9557">
        <ele>178.8</ele>
        <time>2013-02-24T10:12:33Z</time>
      </trkpt>
      <trkpt lat="48.68359" lon="1.95573">
        <ele>178.8</ele>
        <time>2013-02-24T10:12:34Z</time>
      </trkpt>
      <trkpt lat="48.68356" lon="1.95582">
        <ele>178.8</ele>
        <time>2013-02-24T10:12:39Z</time>
      </trkpt>
      <trkpt lat="48.68354" lon="1.95589">
        <ele>178.8</ele>
        <time>2013-02-24T10:12:42Z</time>
      </trkpt>
      <trkpt lat="48.68352" lon="1.95594">
        <ele>178.8</ele>
        <time>2013-02-24T10:12:45Z</time>
      </trkpt>
      <trkpt lat="48.68352" lon="1.95598">
        <ele>179</ele>
        <time>2013-02-24T10:12:47Z</time>
      </trkpt>
      <trkpt lat="48.68352" lon="1.95598">
        <ele>179</ele>
        <time>2013-02-24T10:12:47Z</time>
      </trkpt>
      <trkpt lat="48.68351" lon="1.95603">
        <ele>179</ele>
        <time>2013-02-24T10:12:50Z</time>
      </trkpt>
      <trkpt lat="48.68346" lon="1.95618">
        <ele>179</ele>
        <time>2013-02-24T10:12:58Z</time>
      </trkpt>
      <trkpt lat="48.68342" lon="1.95631">
        <ele>179</ele>
        <time>2013-02-24T10:13:04Z</time>
      </trkpt>
      <trkpt lat="48.68337" lon="1.95648">
        <ele>179</ele>
        <time>2013-02-24T10:13:11Z</time>
      </trkpt>
      <trkpt lat="48.68332" lon="1.95663">
        <ele>179</ele>
        <time>2013-02-24T10:13:18Z</time>
      </trkpt>
      <trkpt lat="48.68328" lon="1.95675">
        <ele>179.2</ele>
        <time>2013-02-24T10:13:23Z</time>
      </trkpt>
      <trkpt lat="48.68322" lon="1.95691">
        <ele>180.2</ele>
        <time>2013-02-24T10:13:30Z</time>
      </trkpt>
      <trkpt lat="48.68319" lon="1.95698">
        <ele>180.4</ele>
        <time>2013-02-24T10:13:34Z</time>
      </trkpt>
      <trkpt lat="48.68314" lon="1.95708">
        <ele>180.6</ele>
        <time>2013-02-24T10:13:40Z</time>
      </trkpt>
      <trkpt lat="48.68312" lon="1.95715">
        <ele>180.8</ele>
        <time>2013-02-24T10:13:46Z</time>
      </trkpt>
      <trkpt lat="48.68311" lon="1.95716">
        <ele>180.8</ele>
        <time>2013-02-24T10:13:47Z</time>
      </trkpt>
      <trkpt lat="48.6831" lon="1.95721">
        <ele>180.8</ele>
        <time>2013-02-24T10:13:50Z</time>
      </trkpt>
      <trkpt lat="48.6831" lon="1.95722">
        <ele>181</ele>
        <time>2013-02-24T10:13:51Z</time>
      </trkpt>
      <trkpt lat="48.68305" lon="1.95733">
        <ele>181</ele>
        <time>2013-02-24T10:13:57Z</time>
      </trkpt>
      <trkpt lat="48.68298" lon="1.9575">
        <ele>181</ele>
        <time>2013-02-24T10:14:02Z</time>
      </trkpt>
      <trkpt lat="48.68295" lon="1.95756">
        <ele>181</ele>
        <time>2013-02-24T10:14:04Z</time>
      </trkpt>
      <trkpt lat="48.68289" lon="1.95769">
        <ele>181</ele>
        <time>2013-02-24T10:14:08Z</time>
      </trkpt>
      <trkpt lat="48.68281" lon="1.95792">
        <ele>180</ele>
        <time>2013-02-24T10:14:14Z</time>
      </trkpt>
      <trkpt lat="48.68277" lon="1.95805">
        <ele>179.6</ele>
        <time>2013-02-24T10:14:18Z</time>
      </trkpt>
      <trkpt lat="48.68275" lon="1.95822">
        <ele>179.4</ele>
        <time>2013-02-24T10:14:22Z</time>
      </trkpt>
      <trkpt lat="48.6827" lon="1.95824">
        <ele>179.2</ele>
        <time>2013-02-24T10:14:26Z</time>
      </trkpt>
      <trkpt lat="48.68269" lon="1.95824">
        <ele>179.2</ele>
        <time>2013-02-24T10:14:27Z</time>
      </trkpt>
      <trkpt lat="48.68268" lon="1.95823">
        <ele>179.2</ele>
        <time>2013-02-24T10:14:28Z</time>
      </trkpt>
      <trkpt lat="48.68258" lon="1.95818">
        <ele>178.2</ele>
        <time>2013-02-24T10:14:35Z</time>
      </trkpt>
      <trkpt lat="48.68245" lon="1.95818">
        <ele>177</ele>
        <time>2013-02-24T10:14:41Z</time>
      </trkpt>
      <trkpt lat="48.68243" lon="1.95818">
        <ele>176.8</ele>
        <time>2013-02-24T10:14:42Z</time>
      </trkpt>
      <trkpt lat="48.6822" lon="1.95815">
        <ele>175</ele>
        <time>2013-02-24T10:14:50Z</time>
      </trkpt>
      <trkpt lat="48.68206" lon="1.95822">
        <ele>173.8</ele>
        <time>2013-02-24T10:14:56Z</time>
      </trkpt>
      <trkpt lat="48.68205" lon="1.95823">
        <ele>173.6</ele>
        <time>2013-02-24T10:14:57Z</time>
      </trkpt>
      <trkpt lat="48.68197" lon="1.95836">
        <ele>172.8</ele>
        <time>2013-02-24T10:15:01Z</time>
      </trkpt>
      <trkpt lat="48.68196" lon="1.95838">
        <ele>172.6</ele>
        <time>2013-02-24T10:15:02Z</time>
      </trkpt>
      <trkpt lat="48.68195" lon="1.95842">
        <ele>172.2</ele>
        <time>2013-02-24T10:15:04Z</time>
      </trkpt>
      <trkpt lat="48.68196" lon="1.95857">
        <ele>171.6</ele>
        <time>2013-02-24T10:15:08Z</time>
      </trkpt>
      <trkpt lat="48.68195" lon="1.95863">
        <ele>171.4</ele>
        <time>2013-02-24T10:15:10Z</time>
      </trkpt>
      <trkpt lat="48.68195" lon="1.95872">
        <ele>171</ele>
        <time>2013-02-24T10:15:14Z</time>
      </trkpt>
      <trkpt lat="48.68194" lon="1.95882">
        <ele>171</ele>
        <time>2013-02-24T10:15:17Z</time>
      </trkpt>
      <trkpt lat="48.68191" lon="1.95892">
        <ele>170.8</ele>
        <time>2013-02-24T10:15:21Z</time>
      </trkpt>
      <trkpt lat="48.68192" lon="1.95905">
        <ele>170.6</ele>
        <time>2013-02-24T10:15:26Z</time>
      </trkpt>
      <trkpt lat="48.68192" lon="1.9592">
        <ele>170.6</ele>
        <time>2013-02-24T10:15:31Z</time>
      </trkpt>
      <trkpt lat="48.6819" lon="1.95925">
        <ele>170.6</ele>
        <time>2013-02-24T10:15:33Z</time>
      </trkpt>
      <trkpt lat="48.68189" lon="1.95936">
        <ele>170.6</ele>
        <time>2013-02-24T10:15:38Z</time>
      </trkpt>
      <trkpt lat="48.68189" lon="1.95941">
        <ele>170.6</ele>
        <time>2013-02-24T10:15:40Z</time>
      </trkpt>
      <trkpt lat="48.6819" lon="1.95954">
        <ele>170.6</ele>
        <time>2013-02-24T10:15:44Z</time>
      </trkpt>
      <trkpt lat="48.6819" lon="1.95956">
        <ele>170.6</ele>
        <time>2013-02-24T10:15:45Z</time>
      </trkpt>
      <trkpt lat="48.68189" lon="1.9596">
        <ele>170.6</ele>
        <time>2013-02-24T10:15:46Z</time>
      </trkpt>
      <trkpt lat="48.68187" lon="1.95975">
        <ele>170.6</ele>
        <time>2013-02-24T10:15:52Z</time>
      </trkpt>
      <trkpt lat="48.68186" lon="1.95979">
        <ele>170.6</ele>
        <time>2013-02-24T10:15:57Z</time>
      </trkpt>
      <trkpt lat="48.68185" lon="1.95989">
        <ele>170.6</ele>
        <time>2013-02-24T10:16:02Z</time>
      </trkpt>
      <trkpt lat="48.68184" lon="1.95992">
        <ele>170.6</ele>
        <time>2013-02-24T10:16:04Z</time>
      </trkpt>
      <trkpt lat="48.68183" lon="1.95999">
        <ele>170.6</ele>
        <time>2013-02-24T10:16:07Z</time>
      </trkpt>
      <trkpt lat="48.68179" lon="1.96015">
        <ele>169.6</ele>
        <time>2013-02-24T10:16:13Z</time>
      </trkpt>
      <trkpt lat="48.68179" lon="1.96019">
        <ele>169.4</ele>
        <time>2013-02-24T10:16:15Z</time>
      </trkpt>
      <trkpt lat="48.68176" lon="1.96031">
        <ele>169</ele>
        <time>2013-02-24T10:16:20Z</time>
      </trkpt>
      <trkpt lat="48.68176" lon="1.96032">
        <ele>169</ele>
        <time>2013-02-24T10:16:21Z</time>
      </trkpt>
      <trkpt lat="48.68173" lon="1.96035">
        <ele>168.8</ele>
        <time>2013-02-24T10:16:23Z</time>
      </trkpt>
      <trkpt lat="48.68168" lon="1.96049">
        <ele>168.8</ele>
        <time>2013-02-24T10:16:28Z</time>
      </trkpt>
      <trkpt lat="48.68168" lon="1.96052">
        <ele>168.6</ele>
        <time>2013-02-24T10:16:29Z</time>
      </trkpt>
      <trkpt lat="48.68165" lon="1.96063">
        <ele>168.6</ele>
        <time>2013-02-24T10:16:32Z</time>
      </trkpt>
      <trkpt lat="48.68162" lon="1.96071">
        <ele>168.6</ele>
        <time>2013-02-24T10:16:35Z</time>
      </trkpt>
      <trkpt lat="48.68153" lon="1.96081">
        <ele>168.6</ele>
        <time>2013-02-24T10:16:40Z</time>
      </trkpt>
      <trkpt lat="48.68148" lon="1.96083">
        <ele>168.6</ele>
        <time>2013-02-24T10:16:43Z</time>
      </trkpt>
      <trkpt lat="48.68149" lon="1.96092">
        <ele>168.6</ele>
        <time>2013-02-24T10:16:46Z</time>
      </trkpt>
      <trkpt lat="48.68145" lon="1.96104">
        <ele>168.6</ele>
        <time>2013-02-24T10:16:49Z</time>
      </trkpt>
      <trkpt lat="48.68141" lon="1.96106">
        <ele>168.6</ele>
        <time>2013-02-24T10:16:51Z</time>
      </trkpt>
      <trkpt lat="48.68135" lon="1.96126">
        <ele>168.6</ele>
        <time>2013-02-24T10:16:57Z</time>
      </trkpt>
      <trkpt lat="48.68133" lon="1.96145">
        <ele>168.4</ele>
        <time>2013-02-24T10:17:02Z</time>
      </trkpt>
      <trkpt lat="48.68133" lon="1.96147">
        <ele>168.4</ele>
        <time>2013-02-24T10:17:03Z</time>
      </trkpt>
      <trkpt lat="48.68134" lon="1.96167">
        <ele>168.4</ele>
        <time>2013-02-24T10:17:08Z</time>
      </trkpt>
      <trkpt lat="48.68134" lon="1.9617">
        <ele>168.4</ele>
        <time>2013-02-24T10:17:09Z</time>
      </trkpt>
      <trkpt lat="48.68136" lon="1.96175">
        <ele>168.4</ele>
        <time>2013-02-24T10:17:11Z</time>
      </trkpt>
      <trkpt lat="48.6814" lon="1.96181">
        <ele>168.4</ele>
        <time>2013-02-24T10:17:15Z</time>
      </trkpt>
      <trkpt lat="48.68141" lon="1.96182">
        <ele>168.4</ele>
        <time>2013-02-24T10:17:16Z</time>
      </trkpt>
      <trkpt lat="48.68144" lon="1.96182">
        <ele>168.2</ele>
        <time>2013-02-24T10:17:19Z</time>
      </trkpt>
      <trkpt lat="48.68145" lon="1.96183">
        <ele>168</ele>
        <time>2013-02-24T10:17:21Z</time>
      </trkpt>
      <trkpt lat="48.68148" lon="1.96185">
        <ele>167.4</ele>
        <time>2013-02-24T10:17:25Z</time>
      </trkpt>
      <trkpt lat="48.6815" lon="1.96189">
        <ele>166.8</ele>
        <time>2013-02-24T10:17:34Z</time>
      </trkpt>
      <trkpt lat="48.6815" lon="1.96191">
        <ele>166.6</ele>
        <time>2013-02-24T10:17:42Z</time>
      </trkpt>
      <trkpt lat="48.68151" lon="1.96196">
        <ele>166.4</ele>
        <time>2013-02-24T10:17:52Z</time>
      </trkpt>
      <trkpt lat="48.68156" lon="1.96202">
        <ele>167.8</ele>
        <time>2013-02-24T10:18:05Z</time>
      </trkpt>
      <trkpt lat="48.68162" lon="1.96206">
        <ele>168</ele>
        <time>2013-02-24T10:18:09Z</time>
      </trkpt>
      <trkpt lat="48.68182" lon="1.96218">
        <ele>168.2</ele>
        <time>2013-02-24T10:18:16Z</time>
      </trkpt>
      <trkpt lat="48.68195" lon="1.96225">
        <ele>168.8</ele>
        <time>2013-02-24T10:18:21Z</time>
      </trkpt>
      <trkpt lat="48.68207" lon="1.96222">
        <ele>169.6</ele>
        <time>2013-02-24T10:18:26Z</time>
      </trkpt>
      <trkpt lat="48.68217" lon="1.96215">
        <ele>170</ele>
        <time>2013-02-24T10:18:31Z</time>
      </trkpt>
      <trkpt lat="48.68223" lon="1.96213">
        <ele>170.4</ele>
        <time>2013-02-24T10:18:34Z</time>
      </trkpt>
      <trkpt lat="48.68234" lon="1.96207">
        <ele>171.4</ele>
        <time>2013-02-24T10:18:39Z</time>
      </trkpt>
      <trkpt lat="48.68247" lon="1.96201">
        <ele>172.2</ele>
        <time>2013-02-24T10:18:44Z</time>
      </trkpt>
      <trkpt lat="48.68261" lon="1.96193">
        <ele>173.4</ele>
        <time>2013-02-24T10:18:50Z</time>
      </trkpt>
      <trkpt lat="48.68272" lon="1.96184">
        <ele>174</ele>
        <time>2013-02-24T10:18:55Z</time>
      </trkpt>
      <trkpt lat="48.68274" lon="1.96183">
        <ele>174.4</ele>
        <time>2013-02-24T10:18:56Z</time>
      </trkpt>
      <trkpt lat="48.68292" lon="1.96169">
        <ele>175.2</ele>
        <time>2013-02-24T10:19:01Z</time>
      </trkpt>
      <trkpt lat="48.68295" lon="1.96167">
        <ele>175.4</ele>
        <time>2013-02-24T10:19:02Z</time>
      </trkpt>
      <trkpt lat="48.68303" lon="1.96162">
        <ele>175.8</ele>
        <time>2013-02-24T10:19:05Z</time>
      </trkpt>
      <trkpt lat="48.68316" lon="1.9617">
        <ele>176</ele>
        <time>2013-02-24T10:19:10Z</time>
      </trkpt>
      <trkpt lat="48.6833" lon="1.96181">
        <ele>176.2</ele>
        <time>2013-02-24T10:19:14Z</time>
      </trkpt>
      <trkpt lat="48.68343" lon="1.96199">
        <ele>176.4</ele>
        <time>2013-02-24T10:19:20Z</time>
      </trkpt>
      <trkpt lat="48.68344" lon="1.96201">
        <ele>176.4</ele>
        <time>2013-02-24T10:19:21Z</time>
      </trkpt>
      <trkpt lat="48.68358" lon="1.96216">
        <ele>176.6</ele>
        <time>2013-02-24T10:19:26Z</time>
      </trkpt>
      <trkpt lat="48.68363" lon="1.96222">
        <ele>176.6</ele>
        <time>2013-02-24T10:19:28Z</time>
      </trkpt>
      <trkpt lat="48.6837" lon="1.96229">
        <ele>176.6</ele>
        <time>2013-02-24T10:19:32Z</time>
      </trkpt>
      <trkpt lat="48.6838" lon="1.96235">
        <ele>176.2</ele>
        <time>2013-02-24T10:19:37Z</time>
      </trkpt>
      <trkpt lat="48.68391" lon="1.96245">
        <ele>175.4</ele>
        <time>2013-02-24T10:19:43Z</time>
      </trkpt>
      <trkpt lat="48.68392" lon="1.96246">
        <ele>175.4</ele>
        <time>2013-02-24T10:19:44Z</time>
      </trkpt>
      <trkpt lat="48.68398" lon="1.9625">
        <ele>174.4</ele>
        <time>2013-02-24T10:19:48Z</time>
      </trkpt>
      <trkpt lat="48.68409" lon="1.96262">
        <ele>172.8</ele>
        <time>2013-02-24T10:19:55Z</time>
      </trkpt>
      <trkpt lat="48.68412" lon="1.96267">
        <ele>172.2</ele>
        <time>2013-02-24T10:19:57Z</time>
      </trkpt>
      <trkpt lat="48.68419" lon="1.96279">
        <ele>171</ele>
        <time>2013-02-24T10:20:02Z</time>
      </trkpt>
      <trkpt lat="48.68421" lon="1.96282">
        <ele>170.6</ele>
        <time>2013-02-24T10:20:03Z</time>
      </trkpt>
      <trkpt lat="48.68425" lon="1.963">
        <ele>169.8</ele>
        <time>2013-02-24T10:20:07Z</time>
      </trkpt>
      <trkpt lat="48.68427" lon="1.96315">
        <ele>168.6</ele>
        <time>2013-02-24T10:20:11Z</time>
      </trkpt>
      <trkpt lat="48.6843" lon="1.96333">
        <ele>167.2</ele>
        <time>2013-02-24T10:20:17Z</time>
      </trkpt>
      <trkpt lat="48.68435" lon="1.96351">
        <ele>165.8</ele>
        <time>2013-02-24T10:20:22Z</time>
      </trkpt>
      <trkpt lat="48.68436" lon="1.96366">
        <ele>164.4</ele>
        <time>2013-02-24T10:20:26Z</time>
      </trkpt>
      <trkpt lat="48.68436" lon="1.96369">
        <ele>164.2</ele>
        <time>2013-02-24T10:20:27Z</time>
      </trkpt>
      <trkpt lat="48.68436" lon="1.96373">
        <ele>163.8</ele>
        <time>2013-02-24T10:20:28Z</time>
      </trkpt>
      <trkpt lat="48.68437" lon="1.96389">
        <ele>162.6</ele>
        <time>2013-02-24T10:20:32Z</time>
      </trkpt>
      <trkpt lat="48.68437" lon="1.96389">
        <ele>162.6</ele>
        <time>2013-02-24T10:20:32Z</time>
      </trkpt>
      <trkpt lat="48.68438" lon="1.96402">
        <ele>161.8</ele>
        <time>2013-02-24T10:20:35Z</time>
      </trkpt>
      <trkpt lat="48.68439" lon="1.9642">
        <ele>160.2</ele>
        <time>2013-02-24T10:20:40Z</time>
      </trkpt>
      <trkpt lat="48.68442" lon="1.96435">
        <ele>159.2</ele>
        <time>2013-02-24T10:20:44Z</time>
      </trkpt>
      <trkpt lat="48.68444" lon="1.96455">
        <ele>157.6</ele>
        <time>2013-02-24T10:20:49Z</time>
      </trkpt>
      <trkpt lat="48.68445" lon="1.96459">
        <ele>157.4</ele>
        <time>2013-02-24T10:20:50Z</time>
      </trkpt>
      <trkpt lat="48.68449" lon="1.96472">
        <ele>156.2</ele>
        <time>2013-02-24T10:20:54Z</time>
      </trkpt>
      <trkpt lat="48.6845" lon="1.96486">
        <ele>155</ele>
        <time>2013-02-24T10:20:58Z</time>
      </trkpt>
      <trkpt lat="48.68449" lon="1.96501">
        <ele>153.8</ele>
        <time>2013-02-24T10:21:02Z</time>
      </trkpt>
      <trkpt lat="48.68447" lon="1.96521">
        <ele>152.6</ele>
        <time>2013-02-24T10:21:07Z</time>
      </trkpt>
      <trkpt lat="48.68447" lon="1.96526">
        <ele>152.4</ele>
        <time>2013-02-24T10:21:08Z</time>
      </trkpt>
      <trkpt lat="48.68448" lon="1.96547">
        <ele>150.6</ele>
        <time>2013-02-24T10:21:14Z</time>
      </trkpt>
      <trkpt lat="48.68449" lon="1.9655">
        <ele>150.4</ele>
        <time>2013-02-24T10:21:15Z</time>
      </trkpt>
      <trkpt lat="48.68452" lon="1.96562">
        <ele>149.8</ele>
        <time>2013-02-24T10:21:19Z</time>
      </trkpt>
      <trkpt lat="48.68455" lon="1.9657">
        <ele>148.8</ele>
        <time>2013-02-24T10:21:22Z</time>
      </trkpt>
      <trkpt lat="48.68461" lon="1.96592">
        <ele>147.6</ele>
        <time>2013-02-24T10:21:28Z</time>
      </trkpt>
      <trkpt lat="48.68466" lon="1.96614">
        <ele>146.6</ele>
        <time>2013-02-24T10:21:33Z</time>
      </trkpt>
      <trkpt lat="48.68462" lon="1.96629">
        <ele>145.6</ele>
        <time>2013-02-24T10:21:38Z</time>
      </trkpt>
      <trkpt lat="48.68456" lon="1.96636">
        <ele>145.2</ele>
        <time>2013-02-24T10:21:41Z</time>
      </trkpt>
      <trkpt lat="48.68443" lon="1.96642">
        <ele>144</ele>
        <time>2013-02-24T10:21:46Z</time>
      </trkpt>
      <trkpt lat="48.6843" lon="1.96645">
        <ele>143.2</ele>
        <time>2013-02-24T10:21:51Z</time>
      </trkpt>
      <trkpt lat="48.68425" lon="1.96647">
        <ele>142.6</ele>
        <time>2013-02-24T10:21:53Z</time>
      </trkpt>
      <trkpt lat="48.68406" lon="1.96646">
        <ele>141.2</ele>
        <time>2013-02-24T10:22:01Z</time>
      </trkpt>
      <trkpt lat="48.68399" lon="1.96643">
        <ele>140.4</ele>
        <time>2013-02-24T10:22:04Z</time>
      </trkpt>
      <trkpt lat="48.6839" lon="1.96629">
        <ele>139.4</ele>
        <time>2013-02-24T10:22:09Z</time>
      </trkpt>
      <trkpt lat="48.68384" lon="1.96617">
        <ele>138.6</ele>
        <time>2013-02-24T10:22:14Z</time>
      </trkpt>
      <trkpt lat="48.68382" lon="1.96616">
        <ele>138.2</ele>
        <time>2013-02-24T10:22:15Z</time>
      </trkpt>
      <trkpt lat="48.68379" lon="1.96612">
        <ele>137.8</ele>
        <time>2013-02-24T10:22:17Z</time>
      </trkpt>
      <trkpt lat="48.68369" lon="1.96596">
        <ele>136.8</ele>
        <time>2013-02-24T10:22:23Z</time>
      </trkpt>
      <trkpt lat="48.68361" lon="1.96577">
        <ele>136.4</ele>
        <time>2013-02-24T10:22:29Z</time>
      </trkpt>
      <trkpt lat="48.6836" lon="1.96573">
        <ele>136.4</ele>
        <time>2013-02-24T10:22:30Z</time>
      </trkpt>
      <trkpt lat="48.68355" lon="1.96561">
        <ele>136</ele>
        <time>2013-02-24T10:22:34Z</time>
      </trkpt>
      <trkpt lat="48.68346" lon="1.96554">
        <ele>135.2</ele>
        <time>2013-02-24T10:22:38Z</time>
      </trkpt>
      <trkpt lat="48.68343" lon="1.96553">
        <ele>135</ele>
        <time>2013-02-24T10:22:39Z</time>
      </trkpt>
      <trkpt lat="48.68333" lon="1.96555">
        <ele>134.6</ele>
        <time>2013-02-24T10:22:44Z</time>
      </trkpt>
      <trkpt lat="48.68324" lon="1.96553">
        <ele>134.2</ele>
        <time>2013-02-24T10:22:48Z</time>
      </trkpt>
      <trkpt lat="48.68316" lon="1.96554">
        <ele>134</ele>
        <time>2013-02-24T10:22:53Z</time>
      </trkpt>
      <trkpt lat="48.6831" lon="1.96558">
        <ele>134</ele>
        <time>2013-02-24T10:22:56Z</time>
      </trkpt>
      <trkpt lat="48.68301" lon="1.9656">
        <ele>134</ele>
        <time>2013-02-24T10:23:01Z</time>
      </trkpt>
      <trkpt lat="48.68294" lon="1.96558">
        <ele>133.2</ele>
        <time>2013-02-24T10:23:04Z</time>
      </trkpt>
      <trkpt lat="48.68283" lon="1.96564">
        <ele>132.6</ele>
        <time>2013-02-24T10:23:08Z</time>
      </trkpt>
      <trkpt lat="48.68274" lon="1.96573">
        <ele>132</ele>
        <time>2013-02-24T10:23:12Z</time>
      </trkpt>
      <trkpt lat="48.68268" lon="1.96565">
        <ele>131.2</ele>
        <time>2013-02-24T10:23:16Z</time>
      </trkpt>
      <trkpt lat="48.68265" lon="1.96558">
        <ele>130.2</ele>
        <time>2013-02-24T10:23:20Z</time>
      </trkpt>
      <trkpt lat="48.68264" lon="1.96554">
        <ele>129.6</ele>
        <time>2013-02-24T10:23:22Z</time>
      </trkpt>
      <trkpt lat="48.68263" lon="1.96545">
        <ele>128.8</ele>
        <time>2013-02-24T10:23:27Z</time>
      </trkpt>
      <trkpt lat="48.68261" lon="1.96539">
        <ele>127.6</ele>
        <time>2013-02-24T10:23:31Z</time>
      </trkpt>
      <trkpt lat="48.6826" lon="1.96529">
        <ele>126.4</ele>
        <time>2013-02-24T10:23:38Z</time>
      </trkpt>
      <trkpt lat="48.68261" lon="1.96528">
        <ele>126.4</ele>
        <time>2013-02-24T10:23:39Z</time>
      </trkpt>
      <trkpt lat="48.6826" lon="1.96523">
        <ele>126</ele>
        <time>2013-02-24T10:23:43Z</time>
      </trkpt>
      <trkpt lat="48.68259" lon="1.96519">
        <ele>125.8</ele>
        <time>2013-02-24T10:23:46Z</time>
      </trkpt>
      <trkpt lat="48.68258" lon="1.96515">
        <ele>125.6</ele>
        <time>2013-02-24T10:23:49Z</time>
      </trkpt>
      <trkpt lat="48.68258" lon="1.96508">
        <ele>125.6</ele>
        <time>2013-02-24T10:23:54Z</time>
      </trkpt>
      <trkpt lat="48.68257" lon="1.96505">
        <ele>125.6</ele>
        <time>2013-02-24T10:23:56Z</time>
      </trkpt>
      <trkpt lat="48.68256" lon="1.96498">
        <ele>125.4</ele>
        <time>2013-02-24T10:24:01Z</time>
      </trkpt>
      <trkpt lat="48.68255" lon="1.96495">
        <ele>125.4</ele>
        <time>2013-02-24T10:24:03Z</time>
      </trkpt>
      <trkpt lat="48.68252" lon="1.96492">
        <ele>125.4</ele>
        <time>2013-02-24T10:24:07Z</time>
      </trkpt>
      <trkpt lat="48.68249" lon="1.96486">
        <ele>125.4</ele>
        <time>2013-02-24T10:24:12Z</time>
      </trkpt>
      <trkpt lat="48.68243" lon="1.96479">
        <ele>125.4</ele>
        <time>2013-02-24T10:24:20Z</time>
      </trkpt>
      <trkpt lat="48.68242" lon="1.96479">
        <ele>125.4</ele>
        <time>2013-02-24T10:24:21Z</time>
      </trkpt>
      <trkpt lat="48.68239" lon="1.96477">
        <ele>125.4</ele>
        <time>2013-02-24T10:24:24Z</time>
      </trkpt>
      <trkpt lat="48.68237" lon="1.96475">
        <ele>125.4</ele>
        <time>2013-02-24T10:24:26Z</time>
      </trkpt>
      <trkpt lat="48.68229" lon="1.96477">
        <ele>125.4</ele>
        <time>2013-02-24T10:24:31Z</time>
      </trkpt>
      <trkpt lat="48.68218" lon="1.96477">
        <ele>125.4</ele>
        <time>2013-02-24T10:24:36Z</time>
      </trkpt>
      <trkpt lat="48.68209" lon="1.96473">
        <ele>125.4</ele>
        <time>2013-02-24T10:24:41Z</time>
      </trkpt>
      <trkpt lat="48.68205" lon="1.9647">
        <ele>125.4</ele>
        <time>2013-02-24T10:24:43Z</time>
      </trkpt>
      <trkpt lat="48.68203" lon="1.96467">
        <ele>125.4</ele>
        <time>2013-02-24T10:24:45Z</time>
      </trkpt>
      <trkpt lat="48.68198" lon="1.9646">
        <ele>125.4</ele>
        <time>2013-02-24T10:24:48Z</time>
      </trkpt>
      <trkpt lat="48.68186" lon="1.96443">
        <ele>125.4</ele>
        <time>2013-02-24T10:24:54Z</time>
      </trkpt>
      <trkpt lat="48.68185" lon="1.9644">
        <ele>125.4</ele>
        <time>2013-02-24T10:24:55Z</time>
      </trkpt>
      <trkpt lat="48.68176" lon="1.96429">
        <ele>125.4</ele>
        <time>2013-02-24T10:25:01Z</time>
      </trkpt>
      <trkpt lat="48.68173" lon="1.96426">
        <ele>125.4</ele>
        <time>2013-02-24T10:25:04Z</time>
      </trkpt>
      <trkpt lat="48.6817" lon="1.96422">
        <ele>125.4</ele>
        <time>2013-02-24T10:25:08Z</time>
      </trkpt>
      <trkpt lat="48.68165" lon="1.9642">
        <ele>125.4</ele>
        <time>2013-02-24T10:25:12Z</time>
      </trkpt>
      <trkpt lat="48.68161" lon="1.96419">
        <ele>125.4</ele>
        <time>2013-02-24T10:25:15Z</time>
      </trkpt>
      <trkpt lat="48.68154" lon="1.96421">
        <ele>126</ele>
        <time>2013-02-24T10:25:21Z</time>
      </trkpt>
      <trkpt lat="48.68153" lon="1.96422">
        <ele>126.2</ele>
        <time>2013-02-24T10:25:22Z</time>
      </trkpt>
      <trkpt lat="48.68147" lon="1.96427">
        <ele>126.8</ele>
        <time>2013-02-24T10:25:30Z</time>
      </trkpt>
      <trkpt lat="48.68144" lon="1.96427">
        <ele>127.4</ele>
        <time>2013-02-24T10:25:35Z</time>
      </trkpt>
      <trkpt lat="48.6814" lon="1.96427">
        <ele>128.4</ele>
        <time>2013-02-24T10:25:41Z</time>
      </trkpt>
      <trkpt lat="48.68137" lon="1.96426">
        <ele>129</ele>
        <time>2013-02-24T10:25:47Z</time>
      </trkpt>
      <trkpt lat="48.68132" lon="1.96425">
        <ele>129.2</ele>
        <time>2013-02-24T10:25:54Z</time>
      </trkpt>
      <trkpt lat="48.68129" lon="1.96424">
        <ele>129.2</ele>
        <time>2013-02-24T10:25:58Z</time>
      </trkpt>
      <trkpt lat="48.68126" lon="1.96425">
        <ele>130</ele>
        <time>2013-02-24T10:26:04Z</time>
      </trkpt>
      <trkpt lat="48.6812" lon="1.96432">
        <ele>130.8</ele>
        <time>2013-02-24T10:26:11Z</time>
      </trkpt>
      <trkpt lat="48.6812" lon="1.96432">
        <ele>131</ele>
        <time>2013-02-24T10:26:12Z</time>
      </trkpt>
      <trkpt lat="48.68111" lon="1.96431">
        <ele>131.2</ele>
        <time>2013-02-24T10:26:18Z</time>
      </trkpt>
      <trkpt lat="48.68109" lon="1.9643">
        <ele>131.2</ele>
        <time>2013-02-24T10:26:19Z</time>
      </trkpt>
      <trkpt lat="48.68093" lon="1.96431">
        <ele>131.4</ele>
        <time>2013-02-24T10:26:27Z</time>
      </trkpt>
      <trkpt lat="48.68086" lon="1.9643">
        <ele>131.4</ele>
        <time>2013-02-24T10:26:31Z</time>
      </trkpt>
      <trkpt lat="48.68084" lon="1.9643">
        <ele>132</ele>
        <time>2013-02-24T10:26:34Z</time>
      </trkpt>
      <trkpt lat="48.68079" lon="1.96428">
        <ele>132.6</ele>
        <time>2013-02-24T10:26:38Z</time>
      </trkpt>
      <trkpt lat="48.68073" lon="1.96426">
        <ele>132.8</ele>
        <time>2013-02-24T10:26:41Z</time>
      </trkpt>
      <trkpt lat="48.68065" lon="1.96426">
        <ele>133.2</ele>
        <time>2013-02-24T10:26:45Z</time>
      </trkpt>
      <trkpt lat="48.68062" lon="1.96427">
        <ele>133.2</ele>
        <time>2013-02-24T10:26:47Z</time>
      </trkpt>
      <trkpt lat="48.68056" lon="1.96433">
        <ele>133.4</ele>
        <time>2013-02-24T10:26:53Z</time>
      </trkpt>
      <trkpt lat="48.68055" lon="1.96432">
        <ele>133.4</ele>
        <time>2013-02-24T10:26:54Z</time>
      </trkpt>
      <trkpt lat="48.68055" lon="1.96432">
        <ele>133.4</ele>
        <time>2013-02-24T10:26:55Z</time>
      </trkpt>
      <trkpt lat="48.68051" lon="1.96434">
        <ele>133.4</ele>
        <time>2013-02-24T10:27:00Z</time>
      </trkpt>
      <trkpt lat="48.68046" lon="1.96436">
        <ele>133.2</ele>
        <time>2013-02-24T10:27:03Z</time>
      </trkpt>
      <trkpt lat="48.6804" lon="1.96445">
        <ele>132.4</ele>
        <time>2013-02-24T10:27:09Z</time>
      </trkpt>
      <trkpt lat="48.68039" lon="1.96445">
        <ele>132.2</ele>
        <time>2013-02-24T10:27:10Z</time>
      </trkpt>
      <trkpt lat="48.68038" lon="1.96445">
        <ele>132</ele>
        <time>2013-02-24T10:27:12Z</time>
      </trkpt>
      <trkpt lat="48.68035" lon="1.96447">
        <ele>131</ele>
        <time>2013-02-24T10:27:16Z</time>
      </trkpt>
      <trkpt lat="48.68034" lon="1.96448">
        <ele>130.8</ele>
        <time>2013-02-24T10:27:18Z</time>
      </trkpt>
      <trkpt lat="48.68028" lon="1.9645">
        <ele>130.4</ele>
        <time>2013-02-24T10:27:21Z</time>
      </trkpt>
      <trkpt lat="48.68027" lon="1.9645">
        <ele>130.2</ele>
        <time>2013-02-24T10:27:22Z</time>
      </trkpt>
      <trkpt lat="48.68019" lon="1.96449">
        <ele>129.2</ele>
        <time>2013-02-24T10:27:27Z</time>
      </trkpt>
      <trkpt lat="48.68011" lon="1.96447">
        <ele>128.2</ele>
        <time>2013-02-24T10:27:32Z</time>
      </trkpt>
      <trkpt lat="48.6801" lon="1.96446">
        <ele>127.8</ele>
        <time>2013-02-24T10:27:33Z</time>
      </trkpt>
      <trkpt lat="48.68003" lon="1.96443">
        <ele>126.8</ele>
        <time>2013-02-24T10:27:37Z</time>
      </trkpt>
      <trkpt lat="48.68002" lon="1.96442">
        <ele>126.8</ele>
        <time>2013-02-24T10:27:38Z</time>
      </trkpt>
      <trkpt lat="48.68" lon="1.9644">
        <ele>126.2</ele>
        <time>2013-02-24T10:27:42Z</time>
      </trkpt>
      <trkpt lat="48.67993" lon="1.9644">
        <ele>124.6</ele>
        <time>2013-02-24T10:27:48Z</time>
      </trkpt>
      <trkpt lat="48.67991" lon="1.96441">
        <ele>124.6</ele>
        <time>2013-02-24T10:27:49Z</time>
      </trkpt>
      <trkpt lat="48.67986" lon="1.96441">
        <ele>124</ele>
        <time>2013-02-24T10:27:53Z</time>
      </trkpt>
      <trkpt lat="48.67978" lon="1.96444">
        <ele>123.4</ele>
        <time>2013-02-24T10:28:02Z</time>
      </trkpt>
      <trkpt lat="48.67976" lon="1.96444">
        <ele>123.2</ele>
        <time>2013-02-24T10:28:04Z</time>
      </trkpt>
      <trkpt lat="48.67975" lon="1.96444">
        <ele>123.2</ele>
        <time>2013-02-24T10:28:06Z</time>
      </trkpt>
      <trkpt lat="48.67972" lon="1.96441">
        <ele>123.2</ele>
        <time>2013-02-24T10:28:11Z</time>
      </trkpt>
      <trkpt lat="48.67969" lon="1.96438">
        <ele>123</ele>
        <time>2013-02-24T10:28:17Z</time>
      </trkpt>
      <trkpt lat="48.67967" lon="1.96436">
        <ele>123</ele>
        <time>2013-02-24T10:28:21Z</time>
      </trkpt>
      <trkpt lat="48.67963" lon="1.96434">
        <ele>123</ele>
        <time>2013-02-24T10:28:27Z</time>
      </trkpt>
      <trkpt lat="48.6796" lon="1.96432">
        <ele>123</ele>
        <time>2013-02-24T10:28:32Z</time>
      </trkpt>
      <trkpt lat="48.67958" lon="1.96428">
        <ele>123</ele>
        <time>2013-02-24T10:28:39Z</time>
      </trkpt>
      <trkpt lat="48.67958" lon="1.96425">
        <ele>123</ele>
        <time>2013-02-24T10:28:45Z</time>
      </trkpt>
      <trkpt lat="48.6796" lon="1.9642">
        <ele>123</ele>
        <time>2013-02-24T10:28:52Z</time>
      </trkpt>
      <trkpt lat="48.67961" lon="1.96415">
        <ele>123</ele>
        <time>2013-02-24T10:28:59Z</time>
      </trkpt>
      <trkpt lat="48.67964" lon="1.96405">
        <ele>124.2</ele>
        <time>2013-02-24T10:29:13Z</time>
      </trkpt>
      <trkpt lat="48.67968" lon="1.96401">
        <ele>124.6</ele>
        <time>2013-02-24T10:29:20Z</time>
      </trkpt>
      <trkpt lat="48.6797" lon="1.96401">
        <ele>125.6</ele>
        <time>2013-02-24T10:29:26Z</time>
      </trkpt>
      <trkpt lat="48.67971" lon="1.96402">
        <ele>127.2</ele>
        <time>2013-02-24T10:29:34Z</time>
      </trkpt>
      <trkpt lat="48.6797" lon="1.96397">
        <ele>129.2</ele>
        <time>2013-02-24T10:29:43Z</time>
      </trkpt>
      <trkpt lat="48.6797" lon="1.96391">
        <ele>130.4</ele>
        <time>2013-02-24T10:29:50Z</time>
      </trkpt>
      <trkpt lat="48.67971" lon="1.96383">
        <ele>132.2</ele>
        <time>2013-02-24T10:29:59Z</time>
      </trkpt>
      <trkpt lat="48.67971" lon="1.96378">
        <ele>133.4</ele>
        <time>2013-02-24T10:30:06Z</time>
      </trkpt>
      <trkpt lat="48.67968" lon="1.96375">
        <ele>134.2</ele>
        <time>2013-02-24T10:30:11Z</time>
      </trkpt>
      <trkpt lat="48.67965" lon="1.96369">
        <ele>136</ele>
        <time>2013-02-24T10:30:21Z</time>
      </trkpt>
      <trkpt lat="48.67963" lon="1.96366">
        <ele>136.6</ele>
        <time>2013-02-24T10:30:27Z</time>
      </trkpt>
      <trkpt lat="48.67962" lon="1.96361">
        <ele>138.2</ele>
        <time>2013-02-24T10:30:35Z</time>
      </trkpt>
      <trkpt lat="48.67963" lon="1.96357">
        <ele>139.4</ele>
        <time>2013-02-24T10:30:43Z</time>
      </trkpt>
      <trkpt lat="48.67963" lon="1.9635">
        <ele>141</ele>
        <time>2013-02-24T10:30:53Z</time>
      </trkpt>
      <trkpt lat="48.67961" lon="1.96347">
        <ele>142.4</ele>
        <time>2013-02-24T10:30:59Z</time>
      </trkpt>
      <trkpt lat="48.6796" lon="1.96342">
        <ele>144</ele>
        <time>2013-02-24T10:31:05Z</time>
      </trkpt>
      <trkpt lat="48.67958" lon="1.96338">
        <ele>145</ele>
        <time>2013-02-24T10:31:10Z</time>
      </trkpt>
      <trkpt lat="48.67959" lon="1.96333">
        <ele>146.4</ele>
        <time>2013-02-24T10:31:16Z</time>
      </trkpt>
      <trkpt lat="48.67961" lon="1.96329">
        <ele>147.8</ele>
        <time>2013-02-24T10:31:21Z</time>
      </trkpt>
      <trkpt lat="48.67962" lon="1.96318">
        <ele>150</ele>
        <time>2013-02-24T10:31:29Z</time>
      </trkpt>
      <trkpt lat="48.6796" lon="1.96313">
        <ele>151</ele>
        <time>2013-02-24T10:31:33Z</time>
      </trkpt>
      <trkpt lat="48.67955" lon="1.9631">
        <ele>152.4</ele>
        <time>2013-02-24T10:31:38Z</time>
      </trkpt>
      <trkpt lat="48.67948" lon="1.96311">
        <ele>154</ele>
        <time>2013-02-24T10:31:45Z</time>
      </trkpt>
      <trkpt lat="48.67946" lon="1.96311">
        <ele>154.2</ele>
        <time>2013-02-24T10:31:46Z</time>
      </trkpt>
      <trkpt lat="48.67934" lon="1.96316">
        <ele>155.4</ele>
        <time>2013-02-24T10:31:52Z</time>
      </trkpt>
      <trkpt lat="48.67931" lon="1.96317">
        <ele>155.4</ele>
        <time>2013-02-24T10:31:53Z</time>
      </trkpt>
      <trkpt lat="48.67921" lon="1.96319">
        <ele>155.8</ele>
        <time>2013-02-24T10:31:58Z</time>
      </trkpt>
      <trkpt lat="48.67921" lon="1.96319">
        <ele>155.8</ele>
        <time>2013-02-24T10:31:58Z</time>
      </trkpt>
      <trkpt lat="48.67917" lon="1.96321">
        <ele>156</ele>
        <time>2013-02-24T10:32:00Z</time>
      </trkpt>
      <trkpt lat="48.67902" lon="1.96324">
        <ele>156.6</ele>
        <time>2013-02-24T10:32:06Z</time>
      </trkpt>
      <trkpt lat="48.67889" lon="1.9632">
        <ele>157.4</ele>
        <time>2013-02-24T10:32:11Z</time>
      </trkpt>
      <trkpt lat="48.67887" lon="1.96319">
        <ele>157.6</ele>
        <time>2013-02-24T10:32:12Z</time>
      </trkpt>
      <trkpt lat="48.6788" lon="1.96316">
        <ele>157.8</ele>
        <time>2013-02-24T10:32:16Z</time>
      </trkpt>
      <trkpt lat="48.67869" lon="1.96314">
        <ele>158.2</ele>
        <time>2013-02-24T10:32:21Z</time>
      </trkpt>
      <trkpt lat="48.67867" lon="1.96313">
        <ele>158.2</ele>
        <time>2013-02-24T10:32:22Z</time>
      </trkpt>
      <trkpt lat="48.67862" lon="1.96309">
        <ele>158.2</ele>
        <time>2013-02-24T10:32:25Z</time>
      </trkpt>
      <trkpt lat="48.67851" lon="1.96302">
        <ele>159</ele>
        <time>2013-02-24T10:32:30Z</time>
      </trkpt>
      <trkpt lat="48.67839" lon="1.96294">
        <ele>159.8</ele>
        <time>2013-02-24T10:32:36Z</time>
      </trkpt>
      <trkpt lat="48.67831" lon="1.96283">
        <ele>160.2</ele>
        <time>2013-02-24T10:32:41Z</time>
      </trkpt>
      <trkpt lat="48.6782" lon="1.96274">
        <ele>160.8</ele>
        <time>2013-02-24T10:32:46Z</time>
      </trkpt>
      <trkpt lat="48.67818" lon="1.96272">
        <ele>161</ele>
        <time>2013-02-24T10:32:47Z</time>
      </trkpt>
      <trkpt lat="48.67809" lon="1.96254">
        <ele>161.8</ele>
        <time>2013-02-24T10:32:53Z</time>
      </trkpt>
      <trkpt lat="48.67806" lon="1.96243">
        <ele>162</ele>
        <time>2013-02-24T10:32:56Z</time>
      </trkpt>
      <trkpt lat="48.67794" lon="1.96228">
        <ele>162.4</ele>
        <time>2013-02-24T10:33:03Z</time>
      </trkpt>
      <trkpt lat="48.67783" lon="1.96224">
        <ele>162.4</ele>
        <time>2013-02-24T10:33:08Z</time>
      </trkpt>
      <trkpt lat="48.6778" lon="1.96223">
        <ele>162.4</ele>
        <time>2013-02-24T10:33:09Z</time>
      </trkpt>
      <trkpt lat="48.67774" lon="1.96223">
        <ele>162.6</ele>
        <time>2013-02-24T10:33:12Z</time>
      </trkpt>
      <trkpt lat="48.67762" lon="1.96218">
        <ele>162.6</ele>
        <time>2013-02-24T10:33:18Z</time>
      </trkpt>
      <trkpt lat="48.67758" lon="1.9621">
        <ele>162.6</ele>
        <time>2013-02-24T10:33:22Z</time>
      </trkpt>
      <trkpt lat="48.67753" lon="1.96205">
        <ele>162.6</ele>
        <time>2013-02-24T10:33:25Z</time>
      </trkpt>
      <trkpt lat="48.67741" lon="1.96197">
        <ele>162</ele>
        <time>2013-02-24T10:33:32Z</time>
      </trkpt>
      <trkpt lat="48.6774" lon="1.96196">
        <ele>161.8</ele>
        <time>2013-02-24T10:33:33Z</time>
      </trkpt>
      <trkpt lat="48.6773" lon="1.96196">
        <ele>160.8</ele>
        <time>2013-02-24T10:33:38Z</time>
      </trkpt>
      <trkpt lat="48.67729" lon="1.96197">
        <ele>160.6</ele>
        <time>2013-02-24T10:33:39Z</time>
      </trkpt>
      <trkpt lat="48.67724" lon="1.96204">
        <ele>159</ele>
        <time>2013-02-24T10:33:44Z</time>
      </trkpt>
      <trkpt lat="48.67722" lon="1.96208">
        <ele>158.2</ele>
        <time>2013-02-24T10:33:46Z</time>
      </trkpt>
      <trkpt lat="48.67722" lon="1.96212">
        <ele>157.2</ele>
        <time>2013-02-24T10:33:48Z</time>
      </trkpt>
      <trkpt lat="48.67721" lon="1.96213">
        <ele>156.8</ele>
        <time>2013-02-24T10:33:49Z</time>
      </trkpt>
      <trkpt lat="48.67715" lon="1.96223">
        <ele>154.2</ele>
        <time>2013-02-24T10:33:54Z</time>
      </trkpt>
      <trkpt lat="48.67708" lon="1.96233">
        <ele>151.6</ele>
        <time>2013-02-24T10:33:59Z</time>
      </trkpt>
      <trkpt lat="48.67707" lon="1.96234">
        <ele>151</ele>
        <time>2013-02-24T10:34:00Z</time>
      </trkpt>
      <trkpt lat="48.67703" lon="1.96238">
        <ele>149.8</ele>
        <time>2013-02-24T10:34:02Z</time>
      </trkpt>
      <trkpt lat="48.67695" lon="1.96241">
        <ele>146.6</ele>
        <time>2013-02-24T10:34:08Z</time>
      </trkpt>
      <trkpt lat="48.67688" lon="1.9625">
        <ele>144</ele>
        <time>2013-02-24T10:34:13Z</time>
      </trkpt>
      <trkpt lat="48.67687" lon="1.96252">
        <ele>143.6</ele>
        <time>2013-02-24T10:34:14Z</time>
      </trkpt>
      <trkpt lat="48.67683" lon="1.96258">
        <ele>142</ele>
        <time>2013-02-24T10:34:17Z</time>
      </trkpt>
      <trkpt lat="48.67673" lon="1.96259">
        <ele>140</ele>
        <time>2013-02-24T10:34:21Z</time>
      </trkpt>
      <trkpt lat="48.67666" lon="1.9625">
        <ele>138.2</ele>
        <time>2013-02-24T10:34:25Z</time>
      </trkpt>
      <trkpt lat="48.67662" lon="1.96243">
        <ele>137.2</ele>
        <time>2013-02-24T10:34:27Z</time>
      </trkpt>
      <trkpt lat="48.67653" lon="1.96219">
        <ele>134.2</ele>
        <time>2013-02-24T10:34:34Z</time>
      </trkpt>
      <trkpt lat="48.67653" lon="1.96216">
        <ele>134</ele>
        <time>2013-02-24T10:34:35Z</time>
      </trkpt>
      <trkpt lat="48.67659" lon="1.96209">
        <ele>133</ele>
        <time>2013-02-24T10:34:38Z</time>
      </trkpt>
      <trkpt lat="48.67664" lon="1.96202">
        <ele>131.8</ele>
        <time>2013-02-24T10:34:42Z</time>
      </trkpt>
      <trkpt lat="48.67666" lon="1.962">
        <ele>131.4</ele>
        <time>2013-02-24T10:34:43Z</time>
      </trkpt>
      <trkpt lat="48.67672" lon="1.96189">
        <ele>130.2</ele>
        <time>2013-02-24T10:34:48Z</time>
      </trkpt>
      <trkpt lat="48.67677" lon="1.96175">
        <ele>129.2</ele>
        <time>2013-02-24T10:34:53Z</time>
      </trkpt>
      <trkpt lat="48.67676" lon="1.9617">
        <ele>129</ele>
        <time>2013-02-24T10:34:54Z</time>
      </trkpt>
      <trkpt lat="48.67673" lon="1.96152">
        <ele>127.8</ele>
        <time>2013-02-24T10:34:59Z</time>
      </trkpt>
      <trkpt lat="48.67672" lon="1.96149">
        <ele>127.6</ele>
        <time>2013-02-24T10:35:00Z</time>
      </trkpt>
      <trkpt lat="48.6767" lon="1.96133">
        <ele>127.2</ele>
        <time>2013-02-24T10:35:04Z</time>
      </trkpt>
      <trkpt lat="48.67673" lon="1.96109">
        <ele>126.6</ele>
        <time>2013-02-24T10:35:10Z</time>
      </trkpt>
      <trkpt lat="48.67675" lon="1.96091">
        <ele>125.6</ele>
        <time>2013-02-24T10:35:15Z</time>
      </trkpt>
      <trkpt lat="48.67675" lon="1.96072">
        <ele>125</ele>
        <time>2013-02-24T10:35:20Z</time>
      </trkpt>
      <trkpt lat="48.67674" lon="1.96056">
        <ele>124.8</ele>
        <time>2013-02-24T10:35:24Z</time>
      </trkpt>
      <trkpt lat="48.67672" lon="1.9604">
        <ele>124.6</ele>
        <time>2013-02-24T10:35:28Z</time>
      </trkpt>
      <trkpt lat="48.67671" lon="1.96024">
        <ele>124.4</ele>
        <time>2013-02-24T10:35:32Z</time>
      </trkpt>
      <trkpt lat="48.67672" lon="1.96003">
        <ele>124.4</ele>
        <time>2013-02-24T10:35:37Z</time>
      </trkpt>
      <trkpt lat="48.67675" lon="1.95984">
        <ele>124.4</ele>
        <time>2013-02-24T10:35:42Z</time>
      </trkpt>
      <trkpt lat="48.67679" lon="1.9596">
        <ele>124.2</ele>
        <time>2013-02-24T10:35:48Z</time>
      </trkpt>
      <trkpt lat="48.67682" lon="1.9594">
        <ele>124.2</ele>
        <time>2013-02-24T10:35:53Z</time>
      </trkpt>
      <trkpt lat="48.67687" lon="1.95911">
        <ele>124.2</ele>
        <time>2013-02-24T10:36:00Z</time>
      </trkpt>
      <trkpt lat="48.67696" lon="1.95892">
        <ele>124.2</ele>
        <time>2013-02-24T10:36:06Z</time>
      </trkpt>
      <trkpt lat="48.67703" lon="1.95874">
        <ele>124.2</ele>
        <time>2013-02-24T10:36:12Z</time>
      </trkpt>
      <trkpt lat="48.67711" lon="1.95858">
        <ele>124.2</ele>
        <time>2013-02-24T10:36:17Z</time>
      </trkpt>
      <trkpt lat="48.67718" lon="1.95841">
        <ele>124.4</ele>
        <time>2013-02-24T10:36:22Z</time>
      </trkpt>
      <trkpt lat="48.6772" lon="1.9583">
        <ele>125</ele>
        <time>2013-02-24T10:36:25Z</time>
      </trkpt>
      <trkpt lat="48.67724" lon="1.95807">
        <ele>126.2</ele>
        <time>2013-02-24T10:36:31Z</time>
      </trkpt>
      <trkpt lat="48.67728" lon="1.95794">
        <ele>127</ele>
        <time>2013-02-24T10:36:35Z</time>
      </trkpt>
      <trkpt lat="48.6773" lon="1.95783">
        <ele>127.8</ele>
        <time>2013-02-24T10:36:38Z</time>
      </trkpt>
      <trkpt lat="48.67731" lon="1.95769">
        <ele>128.8</ele>
        <time>2013-02-24T10:36:42Z</time>
      </trkpt>
      <trkpt lat="48.67736" lon="1.95751">
        <ele>130</ele>
        <time>2013-02-24T10:36:48Z</time>
      </trkpt>
      <trkpt lat="48.67743" lon="1.95737">
        <ele>131.2</ele>
        <time>2013-02-24T10:36:53Z</time>
      </trkpt>
      <trkpt lat="48.67745" lon="1.95735">
        <ele>131.4</ele>
        <time>2013-02-24T10:36:54Z</time>
      </trkpt>
      <trkpt lat="48.67749" lon="1.95731">
        <ele>131.8</ele>
        <time>2013-02-24T10:36:56Z</time>
      </trkpt>
      <trkpt lat="48.67759" lon="1.95719">
        <ele>132.4</ele>
        <time>2013-02-24T10:37:01Z</time>
      </trkpt>
      <trkpt lat="48.67761" lon="1.95716">
        <ele>132.8</ele>
        <time>2013-02-24T10:37:02Z</time>
      </trkpt>
      <trkpt lat="48.67767" lon="1.95702">
        <ele>133.6</ele>
        <time>2013-02-24T10:37:07Z</time>
      </trkpt>
      <trkpt lat="48.67774" lon="1.95689">
        <ele>134.4</ele>
        <time>2013-02-24T10:37:12Z</time>
      </trkpt>
      <trkpt lat="48.6778" lon="1.95681">
        <ele>135.2</ele>
        <time>2013-02-24T10:37:15Z</time>
      </trkpt>
      <trkpt lat="48.6779" lon="1.95661">
        <ele>136.2</ele>
        <time>2013-02-24T10:37:22Z</time>
      </trkpt>
      <trkpt lat="48.67791" lon="1.95659">
        <ele>136.2</ele>
        <time>2013-02-24T10:37:23Z</time>
      </trkpt>
      <trkpt lat="48.67799" lon="1.95647">
        <ele>136.6</ele>
        <time>2013-02-24T10:37:28Z</time>
      </trkpt>
      <trkpt lat="48.67806" lon="1.9564">
        <ele>136.8</ele>
        <time>2013-02-24T10:37:32Z</time>
      </trkpt>
      <trkpt lat="48.67809" lon="1.95635">
        <ele>136.8</ele>
        <time>2013-02-24T10:37:34Z</time>
      </trkpt>
      <trkpt lat="48.67818" lon="1.95623">
        <ele>137</ele>
        <time>2013-02-24T10:37:40Z</time>
      </trkpt>
      <trkpt lat="48.67825" lon="1.95608">
        <ele>137</ele>
        <time>2013-02-24T10:37:45Z</time>
      </trkpt>
      <trkpt lat="48.67826" lon="1.95598">
        <ele>137</ele>
        <time>2013-02-24T10:37:48Z</time>
      </trkpt>
      <trkpt lat="48.67829" lon="1.9558">
        <ele>137</ele>
        <time>2013-02-24T10:37:53Z</time>
      </trkpt>
      <trkpt lat="48.67828" lon="1.95573">
        <ele>137</ele>
        <time>2013-02-24T10:37:55Z</time>
      </trkpt>
      <trkpt lat="48.67828" lon="1.95567">
        <ele>137</ele>
        <time>2013-02-24T10:37:57Z</time>
      </trkpt>
      <trkpt lat="48.67832" lon="1.95553">
        <ele>137</ele>
        <time>2013-02-24T10:38:02Z</time>
      </trkpt>
      <trkpt lat="48.67834" lon="1.95547">
        <ele>137</ele>
        <time>2013-02-24T10:38:04Z</time>
      </trkpt>
      <trkpt lat="48.67838" lon="1.95527">
        <ele>137</ele>
        <time>2013-02-24T10:38:10Z</time>
      </trkpt>
      <trkpt lat="48.67841" lon="1.95518">
        <ele>137</ele>
        <time>2013-02-24T10:38:13Z</time>
      </trkpt>
      <trkpt lat="48.6784" lon="1.95503">
        <ele>137</ele>
        <time>2013-02-24T10:38:17Z</time>
      </trkpt>
      <trkpt lat="48.67841" lon="1.95499">
        <ele>137.4</ele>
        <time>2013-02-24T10:38:18Z</time>
      </trkpt>
      <trkpt lat="48.67841" lon="1.95481">
        <ele>138</ele>
        <time>2013-02-24T10:38:23Z</time>
      </trkpt>
      <trkpt lat="48.67839" lon="1.95461">
        <ele>138.4</ele>
        <time>2013-02-24T10:38:28Z</time>
      </trkpt>
      <trkpt lat="48.67838" lon="1.95451">
        <ele>138.6</ele>
        <time>2013-02-24T10:38:31Z</time>
      </trkpt>
      <trkpt lat="48.67838" lon="1.95451">
        <ele>138.6</ele>
        <time>2013-02-24T10:38:31Z</time>
      </trkpt>
      <trkpt lat="48.67838" lon="1.95447">
        <ele>138.8</ele>
        <time>2013-02-24T10:38:32Z</time>
      </trkpt>
      <trkpt lat="48.67839" lon="1.95435">
        <ele>138.8</ele>
        <time>2013-02-24T10:38:36Z</time>
      </trkpt>
      <trkpt lat="48.67846" lon="1.95417">
        <ele>139</ele>
        <time>2013-02-24T10:38:42Z</time>
      </trkpt>
      <trkpt lat="48.67848" lon="1.9541">
        <ele>139</ele>
        <time>2013-02-24T10:38:44Z</time>
      </trkpt>
      <trkpt lat="48.67854" lon="1.95392">
        <ele>139.8</ele>
        <time>2013-02-24T10:38:49Z</time>
      </trkpt>
      <trkpt lat="48.67855" lon="1.95388">
        <ele>140</ele>
        <time>2013-02-24T10:38:50Z</time>
      </trkpt>
      <trkpt lat="48.67861" lon="1.95369">
        <ele>140.6</ele>
        <time>2013-02-24T10:38:56Z</time>
      </trkpt>
      <trkpt lat="48.67864" lon="1.95357">
        <ele>141.6</ele>
        <time>2013-02-24T10:39:00Z</time>
      </trkpt>
      <trkpt lat="48.67865" lon="1.95354">
        <ele>141.6</ele>
        <time>2013-02-24T10:39:01Z</time>
      </trkpt>
      <trkpt lat="48.6787" lon="1.95344">
        <ele>142.6</ele>
        <time>2013-02-24T10:39:05Z</time>
      </trkpt>
      <trkpt lat="48.67877" lon="1.95332">
        <ele>143.8</ele>
        <time>2013-02-24T10:39:10Z</time>
      </trkpt>
      <trkpt lat="48.67884" lon="1.95321">
        <ele>145</ele>
        <time>2013-02-24T10:39:14Z</time>
      </trkpt>
      <trkpt lat="48.6789" lon="1.95305">
        <ele>146</ele>
        <time>2013-02-24T10:39:19Z</time>
      </trkpt>
      <trkpt lat="48.67892" lon="1.95302">
        <ele>146.2</ele>
        <time>2013-02-24T10:39:20Z</time>
      </trkpt>
      <trkpt lat="48.67898" lon="1.95284">
        <ele>148</ele>
        <time>2013-02-24T10:39:26Z</time>
      </trkpt>
      <trkpt lat="48.67901" lon="1.9528">
        <ele>148.6</ele>
        <time>2013-02-24T10:39:28Z</time>
      </trkpt>
      <trkpt lat="48.67906" lon="1.95262">
        <ele>150</ele>
        <time>2013-02-24T10:39:33Z</time>
      </trkpt>
      <trkpt lat="48.67908" lon="1.95246">
        <ele>151</ele>
        <time>2013-02-24T10:39:37Z</time>
      </trkpt>
      <trkpt lat="48.67908" lon="1.95227">
        <ele>152.4</ele>
        <time>2013-02-24T10:39:42Z</time>
      </trkpt>
      <trkpt lat="48.67908" lon="1.95214">
        <ele>153.4</ele>
        <time>2013-02-24T10:39:46Z</time>
      </trkpt>
      <trkpt lat="48.67908" lon="1.95199">
        <ele>154.4</ele>
        <time>2013-02-24T10:39:50Z</time>
      </trkpt>
      <trkpt lat="48.67909" lon="1.95197">
        <ele>154.6</ele>
        <time>2013-02-24T10:39:51Z</time>
      </trkpt>
      <trkpt lat="48.67914" lon="1.95187">
        <ele>155.2</ele>
        <time>2013-02-24T10:39:56Z</time>
      </trkpt>
      <trkpt lat="48.67918" lon="1.95187">
        <ele>156.4</ele>
        <time>2013-02-24T10:40:01Z</time>
      </trkpt>
      <trkpt lat="48.6792" lon="1.95187">
        <ele>156.6</ele>
        <time>2013-02-24T10:40:02Z</time>
      </trkpt>
      <trkpt lat="48.67925" lon="1.95187">
        <ele>157.2</ele>
        <time>2013-02-24T10:40:06Z</time>
      </trkpt>
      <trkpt lat="48.67933" lon="1.95189">
        <ele>157.8</ele>
        <time>2013-02-24T10:40:12Z</time>
      </trkpt>
      <trkpt lat="48.67935" lon="1.9519">
        <ele>157.8</ele>
        <time>2013-02-24T10:40:13Z</time>
      </trkpt>
      <trkpt lat="48.67938" lon="1.95193">
        <ele>157.8</ele>
        <time>2013-02-24T10:40:15Z</time>
      </trkpt>
      <trkpt lat="48.67942" lon="1.95196">
        <ele>157.8</ele>
        <time>2013-02-24T10:40:19Z</time>
      </trkpt>
      <trkpt lat="48.67949" lon="1.952">
        <ele>157.2</ele>
        <time>2013-02-24T10:40:24Z</time>
      </trkpt>
      <trkpt lat="48.67951" lon="1.95201">
        <ele>157</ele>
        <time>2013-02-24T10:40:27Z</time>
      </trkpt>
      <trkpt lat="48.67954" lon="1.95202">
        <ele>156.6</ele>
        <time>2013-02-24T10:40:32Z</time>
      </trkpt>
      <trkpt lat="48.6796" lon="1.95205">
        <ele>155.6</ele>
        <time>2013-02-24T10:40:38Z</time>
      </trkpt>
      <trkpt lat="48.67963" lon="1.95205">
        <ele>155.2</ele>
        <time>2013-02-24T10:40:41Z</time>
      </trkpt>
      <trkpt lat="48.6797" lon="1.95208">
        <ele>154.8</ele>
        <time>2013-02-24T10:40:47Z</time>
      </trkpt>
      <trkpt lat="48.67971" lon="1.95209">
        <ele>154.6</ele>
        <time>2013-02-24T10:40:48Z</time>
      </trkpt>
      <trkpt lat="48.67981" lon="1.95211">
        <ele>154.4</ele>
        <time>2013-02-24T10:40:54Z</time>
      </trkpt>
      <trkpt lat="48.67988" lon="1.95214">
        <ele>154.4</ele>
        <time>2013-02-24T10:41:00Z</time>
      </trkpt>
      <trkpt lat="48.67992" lon="1.95218">
        <ele>154.2</ele>
        <time>2013-02-24T10:41:04Z</time>
      </trkpt>
      <trkpt lat="48.67992" lon="1.95219">
        <ele>154.2</ele>
        <time>2013-02-24T10:41:05Z</time>
      </trkpt>
      <trkpt lat="48.67996" lon="1.95222">
        <ele>154.2</ele>
        <time>2013-02-24T10:41:10Z</time>
      </trkpt>
      <trkpt lat="48.67996" lon="1.95225">
        <ele>154.2</ele>
        <time>2013-02-24T10:41:16Z</time>
      </trkpt>
      <trkpt lat="48.67999" lon="1.9523">
        <ele>154.2</ele>
        <time>2013-02-24T10:41:21Z</time>
      </trkpt>
      <trkpt lat="48.67999" lon="1.95232">
        <ele>154.2</ele>
        <time>2013-02-24T10:41:22Z</time>
      </trkpt>
      <trkpt lat="48.68002" lon="1.9524">
        <ele>154.2</ele>
        <time>2013-02-24T10:41:28Z</time>
      </trkpt>
      <trkpt lat="48.68003" lon="1.95243">
        <ele>154.2</ele>
        <time>2013-02-24T10:41:30Z</time>
      </trkpt>
      <trkpt lat="48.68003" lon="1.95246">
        <ele>154.2</ele>
        <time>2013-02-24T10:41:32Z</time>
      </trkpt>
      <trkpt lat="48.68004" lon="1.95257">
        <ele>154.2</ele>
        <time>2013-02-24T10:41:39Z</time>
      </trkpt>
      <trkpt lat="48.68005" lon="1.9526">
        <ele>154.2</ele>
        <time>2013-02-24T10:41:41Z</time>
      </trkpt>
      <trkpt lat="48.68007" lon="1.95266">
        <ele>154.2</ele>
        <time>2013-02-24T10:41:45Z</time>
      </trkpt>
      <trkpt lat="48.68009" lon="1.95272">
        <ele>154.6</ele>
        <time>2013-02-24T10:41:49Z</time>
      </trkpt>
      <trkpt lat="48.68012" lon="1.9528">
        <ele>155.6</ele>
        <time>2013-02-24T10:41:57Z</time>
      </trkpt>
      <trkpt lat="48.68013" lon="1.95281">
        <ele>155.6</ele>
        <time>2013-02-24T10:41:58Z</time>
      </trkpt>
      <trkpt lat="48.68014" lon="1.95283">
        <ele>155.8</ele>
        <time>2013-02-24T10:42:00Z</time>
      </trkpt>
      <trkpt lat="48.68016" lon="1.95286">
        <ele>155.8</ele>
        <time>2013-02-24T10:42:03Z</time>
      </trkpt>
      <trkpt lat="48.68017" lon="1.9529">
        <ele>156</ele>
        <time>2013-02-24T10:42:07Z</time>
      </trkpt>
      <trkpt lat="48.68018" lon="1.95292">
        <ele>156.6</ele>
        <time>2013-02-24T10:42:10Z</time>
      </trkpt>
      <trkpt lat="48.68022" lon="1.95296">
        <ele>157.4</ele>
        <time>2013-02-24T10:42:16Z</time>
      </trkpt>
      <trkpt lat="48.68025" lon="1.95301">
        <ele>159</ele>
        <time>2013-02-24T10:42:24Z</time>
      </trkpt>
      <trkpt lat="48.68027" lon="1.95307">
        <ele>160.2</ele>
        <time>2013-02-24T10:42:30Z</time>
      </trkpt>
      <trkpt lat="48.68028" lon="1.95314">
        <ele>161.4</ele>
        <time>2013-02-24T10:42:38Z</time>
      </trkpt>
      <trkpt lat="48.6803" lon="1.95317">
        <ele>162.2</ele>
        <time>2013-02-24T10:42:44Z</time>
      </trkpt>
      <trkpt lat="48.68033" lon="1.95318">
        <ele>163.4</ele>
        <time>2013-02-24T10:42:50Z</time>
      </trkpt>
      <trkpt lat="48.68034" lon="1.95321">
        <ele>163.8</ele>
        <time>2013-02-24T10:42:56Z</time>
      </trkpt>
      <trkpt lat="48.68037" lon="1.95324">
        <ele>164.2</ele>
        <time>2013-02-24T10:43:01Z</time>
      </trkpt>
      <trkpt lat="48.68039" lon="1.95326">
        <ele>165.4</ele>
        <time>2013-02-24T10:43:07Z</time>
      </trkpt>
      <trkpt lat="48.68044" lon="1.9533">
        <ele>166</ele>
        <time>2013-02-24T10:43:14Z</time>
      </trkpt>
      <trkpt lat="48.68046" lon="1.95333">
        <ele>166.2</ele>
        <time>2013-02-24T10:43:17Z</time>
      </trkpt>
      <trkpt lat="48.68053" lon="1.95338">
        <ele>167.4</ele>
        <time>2013-02-24T10:43:25Z</time>
      </trkpt>
      <trkpt lat="48.68054" lon="1.95339">
        <ele>167.6</ele>
        <time>2013-02-24T10:43:26Z</time>
      </trkpt>
      <trkpt lat="48.6806" lon="1.95335">
        <ele>168</ele>
        <time>2013-02-24T10:43:34Z</time>
      </trkpt>
      <trkpt lat="48.68062" lon="1.95328">
        <ele>168.2</ele>
        <time>2013-02-24T10:43:39Z</time>
      </trkpt>
      <trkpt lat="48.68063" lon="1.95326">
        <ele>168.4</ele>
        <time>2013-02-24T10:43:40Z</time>
      </trkpt>
      <trkpt lat="48.68064" lon="1.95323">
        <ele>168.4</ele>
        <time>2013-02-24T10:43:42Z</time>
      </trkpt>
      <trkpt lat="48.68065" lon="1.95318">
        <ele>168.4</ele>
        <time>2013-02-24T10:43:45Z</time>
      </trkpt>
      <trkpt lat="48.6807" lon="1.9531">
        <ele>168.8</ele>
        <time>2013-02-24T10:43:51Z</time>
      </trkpt>
      <trkpt lat="48.68072" lon="1.95304">
        <ele>169.6</ele>
        <time>2013-02-24T10:43:55Z</time>
      </trkpt>
      <trkpt lat="48.68076" lon="1.95293">
        <ele>170</ele>
        <time>2013-02-24T10:44:01Z</time>
      </trkpt>
      <trkpt lat="48.68079" lon="1.95285">
        <ele>171</ele>
        <time>2013-02-24T10:44:06Z</time>
      </trkpt>
      <trkpt lat="48.68082" lon="1.95278">
        <ele>171.6</ele>
        <time>2013-02-24T10:44:10Z</time>
      </trkpt>
      <trkpt lat="48.68085" lon="1.9527">
        <ele>172</ele>
        <time>2013-02-24T10:44:15Z</time>
      </trkpt>
      <trkpt lat="48.68086" lon="1.95269">
        <ele>172.4</ele>
        <time>2013-02-24T10:44:16Z</time>
      </trkpt>
      <trkpt lat="48.68091" lon="1.95256">
        <ele>173.8</ele>
        <time>2013-02-24T10:44:23Z</time>
      </trkpt>
      <trkpt lat="48.68097" lon="1.95241">
        <ele>174.8</ele>
        <time>2013-02-24T10:44:31Z</time>
      </trkpt>
      <trkpt lat="48.68099" lon="1.95237">
        <ele>175.2</ele>
        <time>2013-02-24T10:44:33Z</time>
      </trkpt>
      <trkpt lat="48.68105" lon="1.95222">
        <ele>176.2</ele>
        <time>2013-02-24T10:44:41Z</time>
      </trkpt>
      <trkpt lat="48.68109" lon="1.95211">
        <ele>176.6</ele>
        <time>2013-02-24T10:44:47Z</time>
      </trkpt>
      <trkpt lat="48.68115" lon="1.95197">
        <ele>176.8</ele>
        <time>2013-02-24T10:44:54Z</time>
      </trkpt>
      <trkpt lat="48.68119" lon="1.95186">
        <ele>177</ele>
        <time>2013-02-24T10:44:59Z</time>
      </trkpt>
      <trkpt lat="48.68121" lon="1.95171">
        <ele>177</ele>
        <time>2013-02-24T10:45:06Z</time>
      </trkpt>
      <trkpt lat="48.6812" lon="1.95159">
        <ele>177.6</ele>
        <time>2013-02-24T10:45:11Z</time>
      </trkpt>
      <trkpt lat="48.6812" lon="1.95155">
        <ele>177.8</ele>
        <time>2013-02-24T10:45:12Z</time>
      </trkpt>
      <trkpt lat="48.68118" lon="1.95138">
        <ele>178.4</ele>
        <time>2013-02-24T10:45:17Z</time>
      </trkpt>
      <trkpt lat="48.68119" lon="1.9512">
        <ele>178.8</ele>
        <time>2013-02-24T10:45:23Z</time>
      </trkpt>
      <trkpt lat="48.6812" lon="1.9511">
        <ele>179</ele>
        <time>2013-02-24T10:45:26Z</time>
      </trkpt>
      <trkpt lat="48.68124" lon="1.95091">
        <ele>180</ele>
        <time>2013-02-24T10:45:32Z</time>
      </trkpt>
      <trkpt lat="48.68127" lon="1.95083">
        <ele>180.4</ele>
        <time>2013-02-24T10:45:35Z</time>
      </trkpt>
      <trkpt lat="48.6813" lon="1.95068">
        <ele>180.8</ele>
        <time>2013-02-24T10:45:39Z</time>
      </trkpt>
      <trkpt lat="48.68135" lon="1.95058">
        <ele>181.2</ele>
        <time>2013-02-24T10:45:43Z</time>
      </trkpt>
      <trkpt lat="48.68142" lon="1.95042">
        <ele>182</ele>
        <time>2013-02-24T10:45:48Z</time>
      </trkpt>
      <trkpt lat="48.68149" lon="1.9503">
        <ele>182.8</ele>
        <time>2013-02-24T10:45:52Z</time>
      </trkpt>
      <trkpt lat="48.68155" lon="1.95013">
        <ele>183.8</ele>
        <time>2013-02-24T10:45:58Z</time>
      </trkpt>
      <trkpt lat="48.68162" lon="1.95002">
        <ele>184.4</ele>
        <time>2013-02-24T10:46:02Z</time>
      </trkpt>
      <trkpt lat="48.68167" lon="1.94992">
        <ele>185</ele>
        <time>2013-02-24T10:46:06Z</time>
      </trkpt>
      <trkpt lat="48.68172" lon="1.9498">
        <ele>186</ele>
        <time>2013-02-24T10:46:11Z</time>
      </trkpt>
      <trkpt lat="48.68177" lon="1.94972">
        <ele>186.4</ele>
        <time>2013-02-24T10:46:14Z</time>
      </trkpt>
      <trkpt lat="48.68178" lon="1.9497">
        <ele>186.4</ele>
        <time>2013-02-24T10:46:15Z</time>
      </trkpt>
      <trkpt lat="48.68187" lon="1.94955">
        <ele>187.4</ele>
        <time>2013-02-24T10:46:21Z</time>
      </trkpt>
      <trkpt lat="48.68188" lon="1.94954">
        <ele>187.6</ele>
        <time>2013-02-24T10:46:22Z</time>
      </trkpt>
      <trkpt lat="48.68197" lon="1.94944">
        <ele>188.4</ele>
        <time>2013-02-24T10:46:28Z</time>
      </trkpt>
      <trkpt lat="48.68205" lon="1.94934">
        <ele>189</ele>
        <time>2013-02-24T10:46:33Z</time>
      </trkpt>
      <trkpt lat="48.68217" lon="1.94925">
        <ele>190.2</ele>
        <time>2013-02-24T10:46:39Z</time>
      </trkpt>
      <trkpt lat="48.6822" lon="1.94924">
        <ele>190.4</ele>
        <time>2013-02-24T10:46:40Z</time>
      </trkpt>
      <trkpt lat="48.6823" lon="1.94915">
        <ele>190.8</ele>
        <time>2013-02-24T10:46:45Z</time>
      </trkpt>
      <trkpt lat="48.68243" lon="1.94907">
        <ele>191.2</ele>
        <time>2013-02-24T10:46:50Z</time>
      </trkpt>
      <trkpt lat="48.68253" lon="1.94903">
        <ele>191.4</ele>
        <time>2013-02-24T10:46:55Z</time>
      </trkpt>
      <trkpt lat="48.68265" lon="1.94893">
        <ele>191.4</ele>
        <time>2013-02-24T10:47:01Z</time>
      </trkpt>
      <trkpt lat="48.68267" lon="1.94891">
        <ele>191.6</ele>
        <time>2013-02-24T10:47:02Z</time>
      </trkpt>
      <trkpt lat="48.68272" lon="1.94882">
        <ele>192.2</ele>
        <time>2013-02-24T10:47:05Z</time>
      </trkpt>
      <trkpt lat="48.68273" lon="1.94878">
        <ele>192.2</ele>
        <time>2013-02-24T10:47:06Z</time>
      </trkpt>
      <trkpt lat="48.68275" lon="1.94875">
        <ele>192.4</ele>
        <time>2013-02-24T10:47:07Z</time>
      </trkpt>
      <trkpt lat="48.68272" lon="1.94861">
        <ele>193</ele>
        <time>2013-02-24T10:47:13Z</time>
      </trkpt>
      <trkpt lat="48.68268" lon="1.94856">
        <ele>193</ele>
        <time>2013-02-24T10:47:15Z</time>
      </trkpt>
      <trkpt lat="48.68264" lon="1.94849">
        <ele>193.2</ele>
        <time>2013-02-24T10:47:20Z</time>
      </trkpt>
      <trkpt lat="48.68263" lon="1.94848">
        <ele>193.2</ele>
        <time>2013-02-24T10:47:21Z</time>
      </trkpt>
      <trkpt lat="48.6826" lon="1.94848">
        <ele>193.4</ele>
        <time>2013-02-24T10:47:23Z</time>
      </trkpt>
      <trkpt lat="48.68253" lon="1.94839">
        <ele>193.4</ele>
        <time>2013-02-24T10:47:29Z</time>
      </trkpt>
      <trkpt lat="48.68246" lon="1.94831">
        <ele>193.4</ele>
        <time>2013-02-24T10:47:34Z</time>
      </trkpt>
      <trkpt lat="48.68239" lon="1.94826">
        <ele>193.6</ele>
        <time>2013-02-24T10:47:38Z</time>
      </trkpt>
      <trkpt lat="48.68238" lon="1.94825">
        <ele>193.6</ele>
        <time>2013-02-24T10:47:39Z</time>
      </trkpt>
      <trkpt lat="48.68236" lon="1.94824">
        <ele>193.6</ele>
        <time>2013-02-24T10:47:40Z</time>
      </trkpt>
      <trkpt lat="48.6823" lon="1.94821">
        <ele>192.8</ele>
        <time>2013-02-24T10:47:44Z</time>
      </trkpt>
      <trkpt lat="48.68227" lon="1.94819">
        <ele>192.6</ele>
        <time>2013-02-24T10:47:46Z</time>
      </trkpt>
      <trkpt lat="48.68226" lon="1.94819">
        <ele>192.2</ele>
        <time>2013-02-24T10:47:48Z</time>
      </trkpt>
      <trkpt lat="48.68214" lon="1.94804">
        <ele>191</ele>
        <time>2013-02-24T10:47:53Z</time>
      </trkpt>
      <trkpt lat="48.6821" lon="1.94796">
        <ele>190</ele>
        <time>2013-02-24T10:47:56Z</time>
      </trkpt>
      <trkpt lat="48.68212" lon="1.94785">
        <ele>189</ele>
        <time>2013-02-24T10:48:00Z</time>
      </trkpt>
      <trkpt lat="48.68219" lon="1.94775">
        <ele>187.4</ele>
        <time>2013-02-24T10:48:06Z</time>
      </trkpt>
      <trkpt lat="48.6822" lon="1.94772">
        <ele>187</ele>
        <time>2013-02-24T10:48:07Z</time>
      </trkpt>
      <trkpt lat="48.68221" lon="1.94765">
        <ele>186.6</ele>
        <time>2013-02-24T10:48:09Z</time>
      </trkpt>
      <trkpt lat="48.6823" lon="1.9475">
        <ele>185.2</ele>
        <time>2013-02-24T10:48:15Z</time>
      </trkpt>
      <trkpt lat="48.68238" lon="1.94743">
        <ele>184.4</ele>
        <time>2013-02-24T10:48:20Z</time>
      </trkpt>
      <trkpt lat="48.68239" lon="1.94741">
        <ele>184.2</ele>
        <time>2013-02-24T10:48:21Z</time>
      </trkpt>
      <trkpt lat="48.68239" lon="1.94741">
        <ele>184.2</ele>
        <time>2013-02-24T10:48:21Z</time>
      </trkpt>
      <trkpt lat="48.68239" lon="1.94738">
        <ele>184</ele>
        <time>2013-02-24T10:48:23Z</time>
      </trkpt>
      <trkpt lat="48.68242" lon="1.94728">
        <ele>183.6</ele>
        <time>2013-02-24T10:48:28Z</time>
      </trkpt>
      <trkpt lat="48.68242" lon="1.94719">
        <ele>183.4</ele>
        <time>2013-02-24T10:48:32Z</time>
      </trkpt>
      <trkpt lat="48.68236" lon="1.94709">
        <ele>183.2</ele>
        <time>2013-02-24T10:48:37Z</time>
      </trkpt>
      <trkpt lat="48.68234" lon="1.94705">
        <ele>183.2</ele>
        <time>2013-02-24T10:48:41Z</time>
      </trkpt>
      <trkpt lat="48.68232" lon="1.94704">
        <ele>183.2</ele>
        <time>2013-02-24T10:48:43Z</time>
      </trkpt>
      <trkpt lat="48.68229" lon="1.94704">
        <ele>183</ele>
        <time>2013-02-24T10:48:48Z</time>
      </trkpt>
      <trkpt lat="48.68226" lon="1.94701">
        <ele>183</ele>
        <time>2013-02-24T10:48:52Z</time>
      </trkpt>
      <trkpt lat="48.68225" lon="1.94696">
        <ele>183</ele>
        <time>2013-02-24T10:48:54Z</time>
      </trkpt>
      <trkpt lat="48.6822" lon="1.94684">
        <ele>183</ele>
        <time>2013-02-24T10:48:59Z</time>
      </trkpt>
      <trkpt lat="48.6822" lon="1.94681">
        <ele>183</ele>
        <time>2013-02-24T10:49:00Z</time>
      </trkpt>
      <trkpt lat="48.6822" lon="1.94677">
        <ele>183</ele>
        <time>2013-02-24T10:49:02Z</time>
      </trkpt>
      <trkpt lat="48.68222" lon="1.9467">
        <ele>183</ele>
        <time>2013-02-24T10:49:05Z</time>
      </trkpt>
      <trkpt lat="48.68225" lon="1.94665">
        <ele>183</ele>
        <time>2013-02-24T10:49:07Z</time>
      </trkpt>
      <trkpt lat="48.68232" lon="1.94659">
        <ele>183</ele>
        <time>2013-02-24T10:49:12Z</time>
      </trkpt>
      <trkpt lat="48.68233" lon="1.94646">
        <ele>183</ele>
        <time>2013-02-24T10:49:17Z</time>
      </trkpt>
      <trkpt lat="48.68232" lon="1.94643">
        <ele>183</ele>
        <time>2013-02-24T10:49:18Z</time>
      </trkpt>
      <trkpt lat="48.68235" lon="1.94627">
        <ele>183</ele>
        <time>2013-02-24T10:49:23Z</time>
      </trkpt>
      <trkpt lat="48.68245" lon="1.9461">
        <ele>183</ele>
        <time>2013-02-24T10:49:30Z</time>
      </trkpt>
      <trkpt lat="48.6825" lon="1.94597">
        <ele>183</ele>
        <time>2013-02-24T10:49:35Z</time>
      </trkpt>
      <trkpt lat="48.68259" lon="1.94582">
        <ele>183</ele>
        <time>2013-02-24T10:49:41Z</time>
      </trkpt>
      <trkpt lat="48.68267" lon="1.9457">
        <ele>183</ele>
        <time>2013-02-24T10:49:46Z</time>
      </trkpt>
      <trkpt lat="48.68268" lon="1.94562">
        <ele>183</ele>
        <time>2013-02-24T10:49:49Z</time>
      </trkpt>
      <trkpt lat="48.68264" lon="1.94551">
        <ele>183</ele>
        <time>2013-02-24T10:49:53Z</time>
      </trkpt>
      <trkpt lat="48.68265" lon="1.94538">
        <ele>183</ele>
        <time>2013-02-24T10:49:59Z</time>
      </trkpt>
      <trkpt lat="48.68265" lon="1.94537">
        <ele>183</ele>
        <time>2013-02-24T10:50:00Z</time>
      </trkpt>
      <trkpt lat="48.68265" lon="1.94524">
        <ele>183</ele>
        <time>2013-02-24T10:50:05Z</time>
      </trkpt>
      <trkpt lat="48.68264" lon="1.94522">
        <ele>183</ele>
        <time>2013-02-24T10:50:06Z</time>
      </trkpt>
      <trkpt lat="48.68263" lon="1.94519">
        <ele>182.6</ele>
        <time>2013-02-24T10:50:08Z</time>
      </trkpt>
      <trkpt lat="48.68258" lon="1.94508">
        <ele>182</ele>
        <time>2013-02-24T10:50:13Z</time>
      </trkpt>
      <trkpt lat="48.68255" lon="1.94495">
        <ele>181.2</ele>
        <time>2013-02-24T10:50:17Z</time>
      </trkpt>
      <trkpt lat="48.68255" lon="1.94481">
        <ele>180.4</ele>
        <time>2013-02-24T10:50:21Z</time>
      </trkpt>
      <trkpt lat="48.68259" lon="1.94472">
        <ele>179.8</ele>
        <time>2013-02-24T10:50:25Z</time>
      </trkpt>
      <trkpt lat="48.6826" lon="1.94459">
        <ele>178.8</ele>
        <time>2013-02-24T10:50:29Z</time>
      </trkpt>
      <trkpt lat="48.68261" lon="1.94456">
        <ele>178.6</ele>
        <time>2013-02-24T10:50:30Z</time>
      </trkpt>
      <trkpt lat="48.68266" lon="1.94446">
        <ele>178</ele>
        <time>2013-02-24T10:50:34Z</time>
      </trkpt>
      <trkpt lat="48.68268" lon="1.94433">
        <ele>177.4</ele>
        <time>2013-02-24T10:50:39Z</time>
      </trkpt>
      <trkpt lat="48.68264" lon="1.94427">
        <ele>177.2</ele>
        <time>2013-02-24T10:50:42Z</time>
      </trkpt>
      <trkpt lat="48.68262" lon="1.94424">
        <ele>177</ele>
        <time>2013-02-24T10:50:44Z</time>
      </trkpt>
      <trkpt lat="48.68262" lon="1.94417">
        <ele>176.4</ele>
        <time>2013-02-24T10:50:47Z</time>
      </trkpt>
      <trkpt lat="48.68261" lon="1.94402">
        <ele>175.6</ele>
        <time>2013-02-24T10:50:52Z</time>
      </trkpt>
      <trkpt lat="48.68263" lon="1.94396">
        <ele>175.4</ele>
        <time>2013-02-24T10:50:54Z</time>
      </trkpt>
      <trkpt lat="48.68267" lon="1.94384">
        <ele>175</ele>
        <time>2013-02-24T10:50:59Z</time>
      </trkpt>
      <trkpt lat="48.68268" lon="1.94379">
        <ele>174.8</ele>
        <time>2013-02-24T10:51:01Z</time>
      </trkpt>
      <trkpt lat="48.68267" lon="1.94373">
        <ele>174.4</ele>
        <time>2013-02-24T10:51:03Z</time>
      </trkpt>
      <trkpt lat="48.68268" lon="1.94368">
        <ele>174</ele>
        <time>2013-02-24T10:51:05Z</time>
      </trkpt>
      <trkpt lat="48.68266" lon="1.9435">
        <ele>173.4</ele>
        <time>2013-02-24T10:51:10Z</time>
      </trkpt>
      <trkpt lat="48.68261" lon="1.9434">
        <ele>172.8</ele>
        <time>2013-02-24T10:51:14Z</time>
      </trkpt>
      <trkpt lat="48.68261" lon="1.94331">
        <ele>172.2</ele>
        <time>2013-02-24T10:51:17Z</time>
      </trkpt>
      <trkpt lat="48.68259" lon="1.94319">
        <ele>171.6</ele>
        <time>2013-02-24T10:51:20Z</time>
      </trkpt>
      <trkpt lat="48.6826" lon="1.943">
        <ele>170.8</ele>
        <time>2013-02-24T10:51:25Z</time>
      </trkpt>
      <trkpt lat="48.68258" lon="1.94274">
        <ele>169.4</ele>
        <time>2013-02-24T10:51:32Z</time>
      </trkpt>
      <trkpt lat="48.68257" lon="1.94253">
        <ele>168</ele>
        <time>2013-02-24T10:51:38Z</time>
      </trkpt>
      <trkpt lat="48.68259" lon="1.94243">
        <ele>167.6</ele>
        <time>2013-02-24T10:51:41Z</time>
      </trkpt>
      <trkpt lat="48.68267" lon="1.94226">
        <ele>166.8</ele>
        <time>2013-02-24T10:51:47Z</time>
      </trkpt>
      <trkpt lat="48.68268" lon="1.94223">
        <ele>166.6</ele>
        <time>2013-02-24T10:51:48Z</time>
      </trkpt>
      <trkpt lat="48.68271" lon="1.94218">
        <ele>166.2</ele>
        <time>2013-02-24T10:51:50Z</time>
      </trkpt>
      <trkpt lat="48.6828" lon="1.94206">
        <ele>165.2</ele>
        <time>2013-02-24T10:51:55Z</time>
      </trkpt>
      <trkpt lat="48.68288" lon="1.94193">
        <ele>164.8</ele>
        <time>2013-02-24T10:52:00Z</time>
      </trkpt>
      <trkpt lat="48.68292" lon="1.94189">
        <ele>164.6</ele>
        <time>2013-02-24T10:52:02Z</time>
      </trkpt>
      <trkpt lat="48.683" lon="1.94181">
        <ele>164.4</ele>
        <time>2013-02-24T10:52:07Z</time>
      </trkpt>
      <trkpt lat="48.68309" lon="1.94172">
        <ele>164</ele>
        <time>2013-02-24T10:52:12Z</time>
      </trkpt>
      <trkpt lat="48.68311" lon="1.9417">
        <ele>163.8</ele>
        <time>2013-02-24T10:52:13Z</time>
      </trkpt>
      <trkpt lat="48.68322" lon="1.94164">
        <ele>163</ele>
        <time>2013-02-24T10:52:19Z</time>
      </trkpt>
      <trkpt lat="48.68328" lon="1.94162">
        <ele>162.6</ele>
        <time>2013-02-24T10:52:24Z</time>
      </trkpt>
      <trkpt lat="48.68335" lon="1.94161">
        <ele>161.4</ele>
        <time>2013-02-24T10:52:30Z</time>
      </trkpt>
      <trkpt lat="48.6834" lon="1.9416">
        <ele>160.8</ele>
        <time>2013-02-24T10:52:35Z</time>
      </trkpt>
      <trkpt lat="48.68342" lon="1.9416">
        <ele>160.8</ele>
        <time>2013-02-24T10:52:36Z</time>
      </trkpt>
      <trkpt lat="48.68348" lon="1.9416">
        <ele>160.6</ele>
        <time>2013-02-24T10:52:40Z</time>
      </trkpt>
      <trkpt lat="48.68351" lon="1.9416">
        <ele>160.4</ele>
        <time>2013-02-24T10:52:42Z</time>
      </trkpt>
      <trkpt lat="48.68359" lon="1.94155">
        <ele>159.4</ele>
        <time>2013-02-24T10:52:47Z</time>
      </trkpt>
      <trkpt lat="48.68366" lon="1.94151">
        <ele>159</ele>
        <time>2013-02-24T10:52:51Z</time>
      </trkpt>
      <trkpt lat="48.68368" lon="1.9415">
        <ele>158.8</ele>
        <time>2013-02-24T10:52:52Z</time>
      </trkpt>
      <trkpt lat="48.68378" lon="1.94144">
        <ele>158.4</ele>
        <time>2013-02-24T10:52:59Z</time>
      </trkpt>
      <trkpt lat="48.68379" lon="1.94143">
        <ele>158.2</ele>
        <time>2013-02-24T10:53:00Z</time>
      </trkpt>
      <trkpt lat="48.68384" lon="1.94142">
        <ele>157.6</ele>
        <time>2013-02-24T10:53:03Z</time>
      </trkpt>
      <trkpt lat="48.6839" lon="1.9414">
        <ele>156.6</ele>
        <time>2013-02-24T10:53:10Z</time>
      </trkpt>
      <trkpt lat="48.68397" lon="1.94136">
        <ele>155.8</ele>
        <time>2013-02-24T10:53:17Z</time>
      </trkpt>
      <trkpt lat="48.68399" lon="1.94135">
        <ele>155.4</ele>
        <time>2013-02-24T10:53:19Z</time>
      </trkpt>
      <trkpt lat="48.68404" lon="1.94133">
        <ele>154.6</ele>
        <time>2013-02-24T10:53:25Z</time>
      </trkpt>
      <trkpt lat="48.68407" lon="1.94132">
        <ele>154.4</ele>
        <time>2013-02-24T10:53:28Z</time>
      </trkpt>
      <trkpt lat="48.68409" lon="1.94133">
        <ele>154.2</ele>
        <time>2013-02-24T10:53:31Z</time>
      </trkpt>
      <trkpt lat="48.68413" lon="1.94135">
        <ele>154.2</ele>
        <time>2013-02-24T10:53:36Z</time>
      </trkpt>
      <trkpt lat="48.68418" lon="1.94133">
        <ele>154</ele>
        <time>2013-02-24T10:53:42Z</time>
      </trkpt>
      <trkpt lat="48.68419" lon="1.94132">
        <ele>154</ele>
        <time>2013-02-24T10:53:43Z</time>
      </trkpt>
      <trkpt lat="48.68426" lon="1.94134">
        <ele>154</ele>
        <time>2013-02-24T10:53:48Z</time>
      </trkpt>
      <trkpt lat="48.68427" lon="1.94134">
        <ele>154</ele>
        <time>2013-02-24T10:53:49Z</time>
      </trkpt>
      <trkpt lat="48.6843" lon="1.94134">
        <ele>154</ele>
        <time>2013-02-24T10:53:52Z</time>
      </trkpt>
      <trkpt lat="48.68434" lon="1.94134">
        <ele>153.8</ele>
        <time>2013-02-24T10:53:56Z</time>
      </trkpt>
      <trkpt lat="48.68441" lon="1.94134">
        <ele>153.8</ele>
        <time>2013-02-24T10:54:04Z</time>
      </trkpt>
      <trkpt lat="48.6845" lon="1.9413">
        <ele>153.8</ele>
        <time>2013-02-24T10:54:19Z</time>
      </trkpt>
      <trkpt lat="48.68455" lon="1.94125">
        <ele>153.8</ele>
        <time>2013-02-24T10:54:26Z</time>
      </trkpt>
      <trkpt lat="48.68457" lon="1.9412">
        <ele>153.8</ele>
        <time>2013-02-24T10:54:33Z</time>
      </trkpt>
      <trkpt lat="48.68458" lon="1.94115">
        <ele>153.8</ele>
        <time>2013-02-24T10:54:38Z</time>
      </trkpt>
      <trkpt lat="48.68456" lon="1.94108">
        <ele>154</ele>
        <time>2013-02-24T10:54:44Z</time>
      </trkpt>
      <trkpt lat="48.68458" lon="1.94102">
        <ele>155</ele>
        <time>2013-02-24T10:54:50Z</time>
      </trkpt>
      <trkpt lat="48.68457" lon="1.94095">
        <ele>156</ele>
        <time>2013-02-24T10:54:57Z</time>
      </trkpt>
      <trkpt lat="48.68458" lon="1.94086">
        <ele>157</ele>
        <time>2013-02-24T10:55:03Z</time>
      </trkpt>
      <trkpt lat="48.68458" lon="1.94072">
        <ele>158.2</ele>
        <time>2013-02-24T10:55:10Z</time>
      </trkpt>
      <trkpt lat="48.68461" lon="1.94058">
        <ele>159.8</ele>
        <time>2013-02-24T10:55:18Z</time>
      </trkpt>
      <trkpt lat="48.68465" lon="1.94045">
        <ele>161.6</ele>
        <time>2013-02-24T10:55:26Z</time>
      </trkpt>
      <trkpt lat="48.68466" lon="1.94032">
        <ele>163</ele>
        <time>2013-02-24T10:55:33Z</time>
      </trkpt>
      <trkpt lat="48.68466" lon="1.9403">
        <ele>163.2</ele>
        <time>2013-02-24T10:55:34Z</time>
      </trkpt>
      <trkpt lat="48.68467" lon="1.94021">
        <ele>163.6</ele>
        <time>2013-02-24T10:55:38Z</time>
      </trkpt>
      <trkpt lat="48.68468" lon="1.94016">
        <ele>163.8</ele>
        <time>2013-02-24T10:55:40Z</time>
      </trkpt>
      <trkpt lat="48.68464" lon="1.94007">
        <ele>164</ele>
        <time>2013-02-24T10:55:45Z</time>
      </trkpt>
      <trkpt lat="48.6846" lon="1.94004">
        <ele>164.2</ele>
        <time>2013-02-24T10:55:49Z</time>
      </trkpt>
      <trkpt lat="48.68454" lon="1.94007">
        <ele>164.2</ele>
        <time>2013-02-24T10:55:54Z</time>
      </trkpt>
      <trkpt lat="48.68452" lon="1.94">
        <ele>164.2</ele>
        <time>2013-02-24T10:55:58Z</time>
      </trkpt>
      <trkpt lat="48.68449" lon="1.93996">
        <ele>164.4</ele>
        <time>2013-02-24T10:56:02Z</time>
      </trkpt>
      <trkpt lat="48.68444" lon="1.93993">
        <ele>164.4</ele>
        <time>2013-02-24T10:56:06Z</time>
      </trkpt>
      <trkpt lat="48.68441" lon="1.93993">
        <ele>164.4</ele>
        <time>2013-02-24T10:56:08Z</time>
      </trkpt>
      <trkpt lat="48.68437" lon="1.93985">
        <ele>164.4</ele>
        <time>2013-02-24T10:56:13Z</time>
      </trkpt>
      <trkpt lat="48.68438" lon="1.9397">
        <ele>164.4</ele>
        <time>2013-02-24T10:56:20Z</time>
      </trkpt>
      <trkpt lat="48.68438" lon="1.93967">
        <ele>164.4</ele>
        <time>2013-02-24T10:56:21Z</time>
      </trkpt>
      <trkpt lat="48.6844" lon="1.93961">
        <ele>164.4</ele>
        <time>2013-02-24T10:56:24Z</time>
      </trkpt>
      <trkpt lat="48.6844" lon="1.93949">
        <ele>163.8</ele>
        <time>2013-02-24T10:56:29Z</time>
      </trkpt>
      <trkpt lat="48.68441" lon="1.93944">
        <ele>163.4</ele>
        <time>2013-02-24T10:56:32Z</time>
      </trkpt>
      <trkpt lat="48.68443" lon="1.93936">
        <ele>163</ele>
        <time>2013-02-24T10:56:36Z</time>
      </trkpt>
      <trkpt lat="48.68447" lon="1.93931">
        <ele>162.8</ele>
        <time>2013-02-24T10:56:41Z</time>
      </trkpt>
      <trkpt lat="48.68447" lon="1.9393">
        <ele>162.6</ele>
        <time>2013-02-24T10:56:42Z</time>
      </trkpt>
      <trkpt lat="48.68448" lon="1.93926">
        <ele>162.6</ele>
        <time>2013-02-24T10:56:45Z</time>
      </trkpt>
      <trkpt lat="48.68447" lon="1.93925">
        <ele>162.6</ele>
        <time>2013-02-24T10:56:47Z</time>
      </trkpt>
      <trkpt lat="48.68452" lon="1.93919">
        <ele>162.4</ele>
        <time>2013-02-24T10:56:52Z</time>
      </trkpt>
      <trkpt lat="48.68453" lon="1.93916">
        <ele>162.4</ele>
        <time>2013-02-24T10:56:53Z</time>
      </trkpt>
      <trkpt lat="48.68465" lon="1.93899">
        <ele>162.4</ele>
        <time>2013-02-24T10:57:02Z</time>
      </trkpt>
      <trkpt lat="48.68467" lon="1.93898">
        <ele>162.4</ele>
        <time>2013-02-24T10:57:03Z</time>
      </trkpt>
      <trkpt lat="48.68473" lon="1.93892">
        <ele>163.4</ele>
        <time>2013-02-24T10:57:09Z</time>
      </trkpt>
      <trkpt lat="48.68476" lon="1.93891">
        <ele>163.8</ele>
        <time>2013-02-24T10:57:13Z</time>
      </trkpt>
      <trkpt lat="48.68476" lon="1.9389">
        <ele>164.2</ele>
        <time>2013-02-24T10:57:14Z</time>
      </trkpt>
      <trkpt lat="48.68477" lon="1.9389">
        <ele>164.4</ele>
        <time>2013-02-24T10:57:15Z</time>
      </trkpt>
      <trkpt lat="48.68482" lon="1.93889">
        <ele>165.2</ele>
        <time>2013-02-24T10:57:19Z</time>
      </trkpt>
      <trkpt lat="48.68484" lon="1.93887">
        <ele>165.4</ele>
        <time>2013-02-24T10:57:21Z</time>
      </trkpt>
      <trkpt lat="48.68488" lon="1.93885">
        <ele>165.6</ele>
        <time>2013-02-24T10:57:24Z</time>
      </trkpt>
      <trkpt lat="48.68495" lon="1.93881">
        <ele>167</ele>
        <time>2013-02-24T10:57:30Z</time>
      </trkpt>
      <trkpt lat="48.68496" lon="1.93879">
        <ele>167.2</ele>
        <time>2013-02-24T10:57:31Z</time>
      </trkpt>
      <trkpt lat="48.68498" lon="1.93878">
        <ele>167.4</ele>
        <time>2013-02-24T10:57:32Z</time>
      </trkpt>
      <trkpt lat="48.68501" lon="1.93872">
        <ele>167.8</ele>
        <time>2013-02-24T10:57:36Z</time>
      </trkpt>
      <trkpt lat="48.68501" lon="1.93872">
        <ele>167.8</ele>
        <time>2013-02-24T10:57:37Z</time>
      </trkpt>
      <trkpt lat="48.68501" lon="1.9387">
        <ele>168</ele>
        <time>2013-02-24T10:57:38Z</time>
      </trkpt>
      <trkpt lat="48.68505" lon="1.93861">
        <ele>169</ele>
        <time>2013-02-24T10:57:43Z</time>
      </trkpt>
      <trkpt lat="48.68506" lon="1.93859">
        <ele>169.2</ele>
        <time>2013-02-24T10:57:44Z</time>
      </trkpt>
      <trkpt lat="48.6851" lon="1.93849">
        <ele>169.6</ele>
        <time>2013-02-24T10:57:48Z</time>
      </trkpt>
      <trkpt lat="48.68511" lon="1.93835">
        <ele>171</ele>
        <time>2013-02-24T10:57:54Z</time>
      </trkpt>
      <trkpt lat="48.68513" lon="1.93828">
        <ele>171.6</ele>
        <time>2013-02-24T10:57:57Z</time>
      </trkpt>
      <trkpt lat="48.68515" lon="1.93825">
        <ele>172</ele>
        <time>2013-02-24T10:57:59Z</time>
      </trkpt>
      <trkpt lat="48.68518" lon="1.93821">
        <ele>173</ele>
        <time>2013-02-24T10:58:02Z</time>
      </trkpt>
      <trkpt lat="48.68522" lon="1.93813">
        <ele>173.6</ele>
        <time>2013-02-24T10:58:06Z</time>
      </trkpt>
      <trkpt lat="48.68534" lon="1.93797">
        <ele>175.6</ele>
        <time>2013-02-24T10:58:13Z</time>
      </trkpt>
      <trkpt lat="48.68545" lon="1.93789">
        <ele>177.2</ele>
        <time>2013-02-24T10:58:18Z</time>
      </trkpt>
      <trkpt lat="48.68554" lon="1.93782">
        <ele>178</ele>
        <time>2013-02-24T10:58:23Z</time>
      </trkpt>
      <trkpt lat="48.68559" lon="1.93779">
        <ele>178.4</ele>
        <time>2013-02-24T10:58:25Z</time>
      </trkpt>
      <trkpt lat="48.68559" lon="1.93779">
        <ele>178.4</ele>
        <time>2013-02-24T10:58:25Z</time>
      </trkpt>
      <trkpt lat="48.68563" lon="1.93776">
        <ele>178.6</ele>
        <time>2013-02-24T10:58:27Z</time>
      </trkpt>
      <trkpt lat="48.68567" lon="1.93773">
        <ele>178.8</ele>
        <time>2013-02-24T10:58:29Z</time>
      </trkpt>
      <trkpt lat="48.68572" lon="1.9377">
        <ele>179</ele>
        <time>2013-02-24T10:58:33Z</time>
      </trkpt>
      <trkpt lat="48.68574" lon="1.93769">
        <ele>179.2</ele>
        <time>2013-02-24T10:58:35Z</time>
      </trkpt>
      <trkpt lat="48.6858" lon="1.93767">
        <ele>179.4</ele>
        <time>2013-02-24T10:58:41Z</time>
      </trkpt>
      <trkpt lat="48.68582" lon="1.93766">
        <ele>179.4</ele>
        <time>2013-02-24T10:58:46Z</time>
      </trkpt>
      <trkpt lat="48.68583" lon="1.93766">
        <ele>179.4</ele>
        <time>2013-02-24T10:58:47Z</time>
      </trkpt>
      <trkpt lat="48.68586" lon="1.93765">
        <ele>179.4</ele>
        <time>2013-02-24T10:58:50Z</time>
      </trkpt>
      <trkpt lat="48.68593" lon="1.93767">
        <ele>179.4</ele>
        <time>2013-02-24T10:58:54Z</time>
      </trkpt>
      <trkpt lat="48.68596" lon="1.93768">
        <ele>179.4</ele>
        <time>2013-02-24T10:58:58Z</time>
      </trkpt>
      <trkpt lat="48.68598" lon="1.93767">
        <ele>179.4</ele>
        <time>2013-02-24T10:59:01Z</time>
      </trkpt>
      <trkpt lat="48.68599" lon="1.93766">
        <ele>179.4</ele>
        <time>2013-02-24T10:59:03Z</time>
      </trkpt>
      <trkpt lat="48.68602" lon="1.93764">
        <ele>179.6</ele>
        <time>2013-02-24T10:59:09Z</time>
      </trkpt>
      <trkpt lat="48.68604" lon="1.93761">
        <ele>179.6</ele>
        <time>2013-02-24T10:59:17Z</time>
      </trkpt>
      <trkpt lat="48.68605" lon="1.93761">
        <ele>179.6</ele>
        <time>2013-02-24T10:59:18Z</time>
      </trkpt>
      <trkpt lat="48.68605" lon="1.9376">
        <ele>179.6</ele>
        <time>2013-02-24T10:59:22Z</time>
      </trkpt>
      <trkpt lat="48.68614" lon="1.93757">
        <ele>180.8</ele>
        <time>2013-02-24T10:59:34Z</time>
      </trkpt>
      <trkpt lat="48.68616" lon="1.93755">
        <ele>181</ele>
        <time>2013-02-24T10:59:36Z</time>
      </trkpt>
      <trkpt lat="48.68617" lon="1.93751">
        <ele>181.2</ele>
        <time>2013-02-24T10:59:41Z</time>
      </trkpt>
      <trkpt lat="48.68616" lon="1.93741">
        <ele>182</ele>
        <time>2013-02-24T10:59:48Z</time>
      </trkpt>
      <trkpt lat="48.68612" lon="1.93735">
        <ele>182.6</ele>
        <time>2013-02-24T10:59:53Z</time>
      </trkpt>
      <trkpt lat="48.68605" lon="1.93727">
        <ele>183.2</ele>
        <time>2013-02-24T10:59:59Z</time>
      </trkpt>
      <trkpt lat="48.68601" lon="1.93718">
        <ele>183.4</ele>
        <time>2013-02-24T11:00:04Z</time>
      </trkpt>
      <trkpt lat="48.68601" lon="1.93711">
        <ele>183.4</ele>
        <time>2013-02-24T11:00:07Z</time>
      </trkpt>
      <trkpt lat="48.686" lon="1.93706">
        <ele>183.4</ele>
        <time>2013-02-24T11:00:09Z</time>
      </trkpt>
      <trkpt lat="48.68597" lon="1.93702">
        <ele>183.6</ele>
        <time>2013-02-24T11:00:12Z</time>
      </trkpt>
      <trkpt lat="48.6859" lon="1.93696">
        <ele>183.6</ele>
        <time>2013-02-24T11:00:18Z</time>
      </trkpt>
      <trkpt lat="48.68589" lon="1.93694">
        <ele>183.6</ele>
        <time>2013-02-24T11:00:19Z</time>
      </trkpt>
      <trkpt lat="48.68583" lon="1.9369">
        <ele>183.6</ele>
        <time>2013-02-24T11:00:22Z</time>
      </trkpt>
      <trkpt lat="48.68575" lon="1.93682">
        <ele>183</ele>
        <time>2013-02-24T11:00:27Z</time>
      </trkpt>
      <trkpt lat="48.6857" lon="1.93675">
        <ele>182.4</ele>
        <time>2013-02-24T11:00:31Z</time>
      </trkpt>
      <trkpt lat="48.68565" lon="1.93667">
        <ele>182.2</ele>
        <time>2013-02-24T11:00:35Z</time>
      </trkpt>
      <trkpt lat="48.68562" lon="1.93664">
        <ele>181.6</ele>
        <time>2013-02-24T11:00:37Z</time>
      </trkpt>
      <trkpt lat="48.68558" lon="1.9366">
        <ele>181</ele>
        <time>2013-02-24T11:00:40Z</time>
      </trkpt>
      <trkpt lat="48.6855" lon="1.93655">
        <ele>180.2</ele>
        <time>2013-02-24T11:00:45Z</time>
      </trkpt>
      <trkpt lat="48.68548" lon="1.93653">
        <ele>179.6</ele>
        <time>2013-02-24T11:00:47Z</time>
      </trkpt>
      <trkpt lat="48.68545" lon="1.93649">
        <ele>179.2</ele>
        <time>2013-02-24T11:00:49Z</time>
      </trkpt>
      <trkpt lat="48.68544" lon="1.93641">
        <ele>178.2</ele>
        <time>2013-02-24T11:00:52Z</time>
      </trkpt>
      <trkpt lat="48.68546" lon="1.93633">
        <ele>177.4</ele>
        <time>2013-02-24T11:00:55Z</time>
      </trkpt>
      <trkpt lat="48.68552" lon="1.93616">
        <ele>175.6</ele>
        <time>2013-02-24T11:01:01Z</time>
      </trkpt>
      <trkpt lat="48.68552" lon="1.93613">
        <ele>175.4</ele>
        <time>2013-02-24T11:01:02Z</time>
      </trkpt>
      <trkpt lat="48.68558" lon="1.93604">
        <ele>174.6</ele>
        <time>2013-02-24T11:01:06Z</time>
      </trkpt>
      <trkpt lat="48.68563" lon="1.93596">
        <ele>173.6</ele>
        <time>2013-02-24T11:01:10Z</time>
      </trkpt>
      <trkpt lat="48.68564" lon="1.93594">
        <ele>173.2</ele>
        <time>2013-02-24T11:01:11Z</time>
      </trkpt>
      <trkpt lat="48.68567" lon="1.93578">
        <ele>172.4</ele>
        <time>2013-02-24T11:01:16Z</time>
      </trkpt>
      <trkpt lat="48.68567" lon="1.93574">
        <ele>172.4</ele>
        <time>2013-02-24T11:01:17Z</time>
      </trkpt>
      <trkpt lat="48.68571" lon="1.93566">
        <ele>172</ele>
        <time>2013-02-24T11:01:22Z</time>
      </trkpt>
      <trkpt lat="48.68571" lon="1.93565">
        <ele>171.8</ele>
        <time>2013-02-24T11:01:23Z</time>
      </trkpt>
      <trkpt lat="48.68572" lon="1.93564">
        <ele>171.8</ele>
        <time>2013-02-24T11:01:25Z</time>
      </trkpt>
      <trkpt lat="48.68574" lon="1.93563">
        <ele>171.6</ele>
        <time>2013-02-24T11:01:27Z</time>
      </trkpt>
      <trkpt lat="48.68574" lon="1.93563">
        <ele>171.4</ele>
        <time>2013-02-24T11:01:33Z</time>
      </trkpt>
      <trkpt lat="48.68574" lon="1.93562">
        <ele>171.4</ele>
        <time>2013-02-24T11:01:34Z</time>
      </trkpt>
      <trkpt lat="48.6858" lon="1.93559">
        <ele>171.4</ele>
        <time>2013-02-24T11:01:39Z</time>
      </trkpt>
      <trkpt lat="48.68583" lon="1.93559">
        <ele>171.4</ele>
        <time>2013-02-24T11:01:41Z</time>
      </trkpt>
      <trkpt lat="48.68585" lon="1.9356">
        <ele>172.2</ele>
        <time>2013-02-24T11:01:47Z</time>
      </trkpt>
      <trkpt lat="48.68587" lon="1.9356">
        <ele>172.2</ele>
        <time>2013-02-24T11:01:48Z</time>
      </trkpt>
      <trkpt lat="48.6859" lon="1.9356">
        <ele>172.4</ele>
        <time>2013-02-24T11:01:50Z</time>
      </trkpt>
      <trkpt lat="48.68592" lon="1.93559">
        <ele>172.6</ele>
        <time>2013-02-24T11:01:52Z</time>
      </trkpt>
      <trkpt lat="48.68595" lon="1.93558">
        <ele>172.8</ele>
        <time>2013-02-24T11:01:55Z</time>
      </trkpt>
      <trkpt lat="48.68599" lon="1.93557">
        <ele>173</ele>
        <time>2013-02-24T11:02:01Z</time>
      </trkpt>
      <trkpt lat="48.68607" lon="1.9356">
        <ele>173.2</ele>
        <time>2013-02-24T11:02:07Z</time>
      </trkpt>
      <trkpt lat="48.68614" lon="1.93561">
        <ele>173.2</ele>
        <time>2013-02-24T11:02:12Z</time>
      </trkpt>
      <trkpt lat="48.68612" lon="1.93552">
        <ele>173.2</ele>
        <time>2013-02-24T11:02:18Z</time>
      </trkpt>
      <trkpt lat="48.68611" lon="1.93551">
        <ele>173.2</ele>
        <time>2013-02-24T11:02:19Z</time>
      </trkpt>
      <trkpt lat="48.68608" lon="1.9354">
        <ele>172.8</ele>
        <time>2013-02-24T11:02:25Z</time>
      </trkpt>
      <trkpt lat="48.68607" lon="1.93535">
        <ele>172.6</ele>
        <time>2013-02-24T11:02:27Z</time>
      </trkpt>
      <trkpt lat="48.68607" lon="1.93524">
        <ele>171.8</ele>
        <time>2013-02-24T11:02:32Z</time>
      </trkpt>
      <trkpt lat="48.68608" lon="1.93517">
        <ele>170.6</ele>
        <time>2013-02-24T11:02:37Z</time>
      </trkpt>
      <trkpt lat="48.68607" lon="1.93508">
        <ele>170</ele>
        <time>2013-02-24T11:02:42Z</time>
      </trkpt>
      <trkpt lat="48.68609" lon="1.93505">
        <ele>169.8</ele>
        <time>2013-02-24T11:02:44Z</time>
      </trkpt>
      <trkpt lat="48.68613" lon="1.93502">
        <ele>169.4</ele>
        <time>2013-02-24T11:02:51Z</time>
      </trkpt>
      <trkpt lat="48.68614" lon="1.93501">
        <ele>169.4</ele>
        <time>2013-02-24T11:02:52Z</time>
      </trkpt>
      <trkpt lat="48.68615" lon="1.93499">
        <ele>169.2</ele>
        <time>2013-02-24T11:02:54Z</time>
      </trkpt>
      <trkpt lat="48.68614" lon="1.93487">
        <ele>169.2</ele>
        <time>2013-02-24T11:03:00Z</time>
      </trkpt>
      <trkpt lat="48.68617" lon="1.93478">
        <ele>169</ele>
        <time>2013-02-24T11:03:05Z</time>
      </trkpt>
      <trkpt lat="48.68618" lon="1.93473">
        <ele>169</ele>
        <time>2013-02-24T11:03:08Z</time>
      </trkpt>
      <trkpt lat="48.68618" lon="1.93466">
        <ele>169</ele>
        <time>2013-02-24T11:03:11Z</time>
      </trkpt>
      <trkpt lat="48.68621" lon="1.93456">
        <ele>169</ele>
        <time>2013-02-24T11:03:17Z</time>
      </trkpt>
      <trkpt lat="48.68622" lon="1.93452">
        <ele>169</ele>
        <time>2013-02-24T11:03:20Z</time>
      </trkpt>
      <trkpt lat="48.68624" lon="1.93449">
        <ele>169</ele>
        <time>2013-02-24T11:03:22Z</time>
      </trkpt>
      <trkpt lat="48.68626" lon="1.93447">
        <ele>169</ele>
        <time>2013-02-24T11:03:25Z</time>
      </trkpt>
      <trkpt lat="48.68631" lon="1.93436">
        <ele>169.6</ele>
        <time>2013-02-24T11:03:31Z</time>
      </trkpt>
      <trkpt lat="48.68632" lon="1.93435">
        <ele>169.8</ele>
        <time>2013-02-24T11:03:32Z</time>
      </trkpt>
      <trkpt lat="48.68637" lon="1.93433">
        <ele>170.4</ele>
        <time>2013-02-24T11:03:38Z</time>
      </trkpt>
      <trkpt lat="48.68639" lon="1.93431">
        <ele>170.6</ele>
        <time>2013-02-24T11:03:41Z</time>
      </trkpt>
      <trkpt lat="48.68644" lon="1.93428">
        <ele>171</ele>
        <time>2013-02-24T11:03:45Z</time>
      </trkpt>
      <trkpt lat="48.68649" lon="1.93421">
        <ele>172</ele>
        <time>2013-02-24T11:03:51Z</time>
      </trkpt>
      <trkpt lat="48.68652" lon="1.93412">
        <ele>172.6</ele>
        <time>2013-02-24T11:03:57Z</time>
      </trkpt>
      <trkpt lat="48.68653" lon="1.93406">
        <ele>172.6</ele>
        <time>2013-02-24T11:04:00Z</time>
      </trkpt>
      <trkpt lat="48.68654" lon="1.93404">
        <ele>172.8</ele>
        <time>2013-02-24T11:04:02Z</time>
      </trkpt>
      <trkpt lat="48.68659" lon="1.93397">
        <ele>173.4</ele>
        <time>2013-02-24T11:04:08Z</time>
      </trkpt>
      <trkpt lat="48.68662" lon="1.93391">
        <ele>173.8</ele>
        <time>2013-02-24T11:04:10Z</time>
      </trkpt>
      <trkpt lat="48.68663" lon="1.93388">
        <ele>174</ele>
        <time>2013-02-24T11:04:12Z</time>
      </trkpt>
      <trkpt lat="48.68663" lon="1.93383">
        <ele>174.2</ele>
        <time>2013-02-24T11:04:14Z</time>
      </trkpt>
      <trkpt lat="48.68667" lon="1.93372">
        <ele>174.6</ele>
        <time>2013-02-24T11:04:19Z</time>
      </trkpt>
      <trkpt lat="48.68667" lon="1.93369">
        <ele>174.6</ele>
        <time>2013-02-24T11:04:20Z</time>
      </trkpt>
      <trkpt lat="48.68668" lon="1.93366">
        <ele>174.8</ele>
        <time>2013-02-24T11:04:22Z</time>
      </trkpt>
      <trkpt lat="48.68669" lon="1.93357">
        <ele>174.8</ele>
        <time>2013-02-24T11:04:26Z</time>
      </trkpt>
      <trkpt lat="48.68671" lon="1.93348">
        <ele>175</ele>
        <time>2013-02-24T11:04:30Z</time>
      </trkpt>
      <trkpt lat="48.68672" lon="1.93342">
        <ele>175.4</ele>
        <time>2013-02-24T11:04:33Z</time>
      </trkpt>
      <trkpt lat="48.68677" lon="1.93338">
        <ele>176</ele>
        <time>2013-02-24T11:04:37Z</time>
      </trkpt>
      <trkpt lat="48.68683" lon="1.93336">
        <ele>176.6</ele>
        <time>2013-02-24T11:04:44Z</time>
      </trkpt>
      <trkpt lat="48.68694" lon="1.93334">
        <ele>177</ele>
        <time>2013-02-24T11:04:52Z</time>
      </trkpt>
      <trkpt lat="48.68698" lon="1.93332">
        <ele>177</ele>
        <time>2013-02-24T11:04:56Z</time>
      </trkpt>
      <trkpt lat="48.68703" lon="1.9333">
        <ele>177</ele>
        <time>2013-02-24T11:05:01Z</time>
      </trkpt>
      <trkpt lat="48.68705" lon="1.93328">
        <ele>177</ele>
        <time>2013-02-24T11:05:04Z</time>
      </trkpt>
      <trkpt lat="48.68709" lon="1.93324">
        <ele>177.2</ele>
        <time>2013-02-24T11:05:09Z</time>
      </trkpt>
      <trkpt lat="48.68711" lon="1.93321">
        <ele>177.2</ele>
        <time>2013-02-24T11:05:13Z</time>
      </trkpt>
      <trkpt lat="48.68714" lon="1.93317">
        <ele>177.2</ele>
        <time>2013-02-24T11:05:17Z</time>
      </trkpt>
      <trkpt lat="48.68716" lon="1.93312">
        <ele>176.8</ele>
        <time>2013-02-24T11:05:22Z</time>
      </trkpt>
      <trkpt lat="48.68716" lon="1.9331">
        <ele>176.4</ele>
        <time>2013-02-24T11:05:24Z</time>
      </trkpt>
      <trkpt lat="48.68716" lon="1.93306">
        <ele>175.8</ele>
        <time>2013-02-24T11:05:29Z</time>
      </trkpt>
      <trkpt lat="48.68713" lon="1.933">
        <ele>174.6</ele>
        <time>2013-02-24T11:05:35Z</time>
      </trkpt>
      <trkpt lat="48.6871" lon="1.93297">
        <ele>173.8</ele>
        <time>2013-02-24T11:05:39Z</time>
      </trkpt>
      <trkpt lat="48.68708" lon="1.93296">
        <ele>172.6</ele>
        <time>2013-02-24T11:05:44Z</time>
      </trkpt>
      <trkpt lat="48.68707" lon="1.9329">
        <ele>171.2</ele>
        <time>2013-02-24T11:05:50Z</time>
      </trkpt>
      <trkpt lat="48.68707" lon="1.93284">
        <ele>170.2</ele>
        <time>2013-02-24T11:05:55Z</time>
      </trkpt>
      <trkpt lat="48.68708" lon="1.93283">
        <ele>169.8</ele>
        <time>2013-02-24T11:05:58Z</time>
      </trkpt>
      <trkpt lat="48.6871" lon="1.93282">
        <ele>169.6</ele>
        <time>2013-02-24T11:06:00Z</time>
      </trkpt>
      <trkpt lat="48.68713" lon="1.93278">
        <ele>169</ele>
        <time>2013-02-24T11:06:08Z</time>
      </trkpt>
      <trkpt lat="48.68713" lon="1.93272">
        <ele>168.8</ele>
        <time>2013-02-24T11:06:13Z</time>
      </trkpt>
      <trkpt lat="48.68717" lon="1.93262">
        <ele>168.8</ele>
        <time>2013-02-24T11:06:20Z</time>
      </trkpt>
      <trkpt lat="48.68717" lon="1.93253">
        <ele>168.8</ele>
        <time>2013-02-24T11:06:27Z</time>
      </trkpt>
      <trkpt lat="48.68717" lon="1.93253">
        <ele>168.8</ele>
        <time>2013-02-24T11:06:28Z</time>
      </trkpt>
      <trkpt lat="48.68717" lon="1.93252">
        <ele>168.8</ele>
        <time>2013-02-24T11:06:29Z</time>
      </trkpt>
      <trkpt lat="48.68717" lon="1.93248">
        <ele>168.6</ele>
        <time>2013-02-24T11:06:34Z</time>
      </trkpt>
      <trkpt lat="48.68719" lon="1.93238">
        <ele>168.6</ele>
        <time>2013-02-24T11:06:39Z</time>
      </trkpt>
      <trkpt lat="48.68722" lon="1.93229">
        <ele>168.6</ele>
        <time>2013-02-24T11:06:43Z</time>
      </trkpt>
      <trkpt lat="48.68723" lon="1.93227">
        <ele>168.6</ele>
        <time>2013-02-24T11:06:44Z</time>
      </trkpt>
      <trkpt lat="48.68723" lon="1.93205">
        <ele>168.6</ele>
        <time>2013-02-24T11:06:52Z</time>
      </trkpt>
      <trkpt lat="48.68722" lon="1.93189">
        <ele>169.4</ele>
        <time>2013-02-24T11:06:57Z</time>
      </trkpt>
      <trkpt lat="48.6872" lon="1.93184">
        <ele>169.6</ele>
        <time>2013-02-24T11:06:59Z</time>
      </trkpt>
      <trkpt lat="48.68718" lon="1.9316">
        <ele>170.2</ele>
        <time>2013-02-24T11:07:07Z</time>
      </trkpt>
      <trkpt lat="48.68718" lon="1.93147">
        <ele>171.2</ele>
        <time>2013-02-24T11:07:11Z</time>
      </trkpt>
      <trkpt lat="48.68718" lon="1.93144">
        <ele>171.4</ele>
        <time>2013-02-24T11:07:12Z</time>
      </trkpt>
      <trkpt lat="48.6872" lon="1.93122">
        <ele>172.4</ele>
        <time>2013-02-24T11:07:19Z</time>
      </trkpt>
      <trkpt lat="48.68721" lon="1.9312">
        <ele>172.6</ele>
        <time>2013-02-24T11:07:20Z</time>
      </trkpt>
      <trkpt lat="48.68722" lon="1.93111">
        <ele>173.4</ele>
        <time>2013-02-24T11:07:24Z</time>
      </trkpt>
      <trkpt lat="48.68723" lon="1.93103">
        <ele>174</ele>
        <time>2013-02-24T11:07:28Z</time>
      </trkpt>
      <trkpt lat="48.68726" lon="1.93094">
        <ele>175</ele>
        <time>2013-02-24T11:07:33Z</time>
      </trkpt>
      <trkpt lat="48.6873" lon="1.93088">
        <ele>176</ele>
        <time>2013-02-24T11:07:39Z</time>
      </trkpt>
      <trkpt lat="48.68732" lon="1.93087">
        <ele>176.2</ele>
        <time>2013-02-24T11:07:41Z</time>
      </trkpt>
      <trkpt lat="48.68733" lon="1.93085">
        <ele>176.8</ele>
        <time>2013-02-24T11:07:43Z</time>
      </trkpt>
      <trkpt lat="48.68737" lon="1.9308">
        <ele>178.2</ele>
        <time>2013-02-24T11:07:49Z</time>
      </trkpt>
      <trkpt lat="48.68739" lon="1.93077">
        <ele>179</ele>
        <time>2013-02-24T11:07:52Z</time>
      </trkpt>
      <trkpt lat="48.68743" lon="1.93071">
        <ele>181.4</ele>
        <time>2013-02-24T11:08:00Z</time>
      </trkpt>
      <trkpt lat="48.68749" lon="1.93069">
        <ele>184.2</ele>
        <time>2013-02-24T11:08:10Z</time>
      </trkpt>
      <trkpt lat="48.68754" lon="1.93065">
        <ele>185.8</ele>
        <time>2013-02-24T11:08:16Z</time>
      </trkpt>
      <trkpt lat="48.68756" lon="1.93064">
        <ele>186.2</ele>
        <time>2013-02-24T11:08:19Z</time>
      </trkpt>
      <trkpt lat="48.68759" lon="1.93061">
        <ele>187.2</ele>
        <time>2013-02-24T11:08:23Z</time>
      </trkpt>
      <trkpt lat="48.68762" lon="1.93058">
        <ele>187.8</ele>
        <time>2013-02-24T11:08:26Z</time>
      </trkpt>
      <trkpt lat="48.68774" lon="1.93041">
        <ele>188.6</ele>
        <time>2013-02-24T11:08:32Z</time>
      </trkpt>
      <trkpt lat="48.68775" lon="1.93038">
        <ele>188.8</ele>
        <time>2013-02-24T11:08:33Z</time>
      </trkpt>
      <trkpt lat="48.68778" lon="1.93024">
        <ele>188.8</ele>
        <time>2013-02-24T11:08:39Z</time>
      </trkpt>
      <trkpt lat="48.6878" lon="1.93009">
        <ele>188.2</ele>
        <time>2013-02-24T11:08:44Z</time>
      </trkpt>
      <trkpt lat="48.68781" lon="1.93006">
        <ele>187.8</ele>
        <time>2013-02-24T11:08:45Z</time>
      </trkpt>
      <trkpt lat="48.6879" lon="1.92988">
        <ele>186</ele>
        <time>2013-02-24T11:08:51Z</time>
      </trkpt>
      <trkpt lat="48.68796" lon="1.92971">
        <ele>184.2</ele>
        <time>2013-02-24T11:08:56Z</time>
      </trkpt>
      <trkpt lat="48.68803" lon="1.92959">
        <ele>182</ele>
        <time>2013-02-24T11:09:01Z</time>
      </trkpt>
      <trkpt lat="48.688" lon="1.9295">
        <ele>180.4</ele>
        <time>2013-02-24T11:09:05Z</time>
      </trkpt>
      <trkpt lat="48.688" lon="1.92944">
        <ele>179.6</ele>
        <time>2013-02-24T11:09:07Z</time>
      </trkpt>
      <trkpt lat="48.68801" lon="1.92938">
        <ele>179</ele>
        <time>2013-02-24T11:09:09Z</time>
      </trkpt>
      <trkpt lat="48.68804" lon="1.92928">
        <ele>177.4</ele>
        <time>2013-02-24T11:09:13Z</time>
      </trkpt>
      <trkpt lat="48.68799" lon="1.92916">
        <ele>175.4</ele>
        <time>2013-02-24T11:09:19Z</time>
      </trkpt>
      <trkpt lat="48.68797" lon="1.92912">
        <ele>174.8</ele>
        <time>2013-02-24T11:09:21Z</time>
      </trkpt>
      <trkpt lat="48.68796" lon="1.92902">
        <ele>173.6</ele>
        <time>2013-02-24T11:09:25Z</time>
      </trkpt>
      <trkpt lat="48.68802" lon="1.92892">
        <ele>172.4</ele>
        <time>2013-02-24T11:09:29Z</time>
      </trkpt>
      <trkpt lat="48.68809" lon="1.9288">
        <ele>170.8</ele>
        <time>2013-02-24T11:09:33Z</time>
      </trkpt>
      <trkpt lat="48.68815" lon="1.9286">
        <ele>168.4</ele>
        <time>2013-02-24T11:09:39Z</time>
      </trkpt>
      <trkpt lat="48.6882" lon="1.92849">
        <ele>166.6</ele>
        <time>2013-02-24T11:09:44Z</time>
      </trkpt>
      <trkpt lat="48.68822" lon="1.92844">
        <ele>166</ele>
        <time>2013-02-24T11:09:46Z</time>
      </trkpt>
      <trkpt lat="48.68822" lon="1.92838">
        <ele>165.6</ele>
        <time>2013-02-24T11:09:48Z</time>
      </trkpt>
      <trkpt lat="48.68821" lon="1.92832">
        <ele>165</ele>
        <time>2013-02-24T11:09:51Z</time>
      </trkpt>
      <trkpt lat="48.68821" lon="1.9283">
        <ele>164.8</ele>
        <time>2013-02-24T11:09:52Z</time>
      </trkpt>
      <trkpt lat="48.68823" lon="1.92827">
        <ele>164.4</ele>
        <time>2013-02-24T11:09:55Z</time>
      </trkpt>
      <trkpt lat="48.68827" lon="1.92815">
        <ele>163.8</ele>
        <time>2013-02-24T11:10:02Z</time>
      </trkpt>
      <trkpt lat="48.68827" lon="1.92814">
        <ele>163.8</ele>
        <time>2013-02-24T11:10:03Z</time>
      </trkpt>
      <trkpt lat="48.68827" lon="1.92807">
        <ele>162.6</ele>
        <time>2013-02-24T11:10:10Z</time>
      </trkpt>
      <trkpt lat="48.68827" lon="1.928">
        <ele>162</ele>
        <time>2013-02-24T11:10:17Z</time>
      </trkpt>
      <trkpt lat="48.68826" lon="1.92799">
        <ele>162</ele>
        <time>2013-02-24T11:10:18Z</time>
      </trkpt>
      <trkpt lat="48.68822" lon="1.92792">
        <ele>161.6</ele>
        <time>2013-02-24T11:10:24Z</time>
      </trkpt>
      <trkpt lat="48.68825" lon="1.92784">
        <ele>161.6</ele>
        <time>2013-02-24T11:10:30Z</time>
      </trkpt>
      <trkpt lat="48.68826" lon="1.92782">
        <ele>161.6</ele>
        <time>2013-02-24T11:10:32Z</time>
      </trkpt>
      <trkpt lat="48.68829" lon="1.92777">
        <ele>161.4</ele>
        <time>2013-02-24T11:10:36Z</time>
      </trkpt>
      <trkpt lat="48.68834" lon="1.92774">
        <ele>160.8</ele>
        <time>2013-02-24T11:10:40Z</time>
      </trkpt>
      <trkpt lat="48.68839" lon="1.92766">
        <ele>160</ele>
        <time>2013-02-24T11:10:47Z</time>
      </trkpt>
      <trkpt lat="48.68845" lon="1.92759">
        <ele>159.6</ele>
        <time>2013-02-24T11:10:53Z</time>
      </trkpt>
      <trkpt lat="48.68847" lon="1.92757">
        <ele>159.6</ele>
        <time>2013-02-24T11:10:55Z</time>
      </trkpt>
      <trkpt lat="48.68848" lon="1.92756">
        <ele>159.6</ele>
        <time>2013-02-24T11:10:57Z</time>
      </trkpt>
      <trkpt lat="48.68851" lon="1.92747">
        <ele>159</ele>
        <time>2013-02-24T11:11:05Z</time>
      </trkpt>
      <trkpt lat="48.68851" lon="1.92746">
        <ele>158.8</ele>
        <time>2013-02-24T11:11:06Z</time>
      </trkpt>
      <trkpt lat="48.68852" lon="1.9274">
        <ele>158.2</ele>
        <time>2013-02-24T11:11:11Z</time>
      </trkpt>
      <trkpt lat="48.68852" lon="1.92738">
        <ele>158</ele>
        <time>2013-02-24T11:11:13Z</time>
      </trkpt>
      <trkpt lat="48.68853" lon="1.92733">
        <ele>157.8</ele>
        <time>2013-02-24T11:11:17Z</time>
      </trkpt>
      <trkpt lat="48.68854" lon="1.92729">
        <ele>157.6</ele>
        <time>2013-02-24T11:11:21Z</time>
      </trkpt>
      <trkpt lat="48.68856" lon="1.92726">
        <ele>157.4</ele>
        <time>2013-02-24T11:11:25Z</time>
      </trkpt>
      <trkpt lat="48.6886" lon="1.9272">
        <ele>157.2</ele>
        <time>2013-02-24T11:11:32Z</time>
      </trkpt>
      <trkpt lat="48.68862" lon="1.92716">
        <ele>156.8</ele>
        <time>2013-02-24T11:11:35Z</time>
      </trkpt>
      <trkpt lat="48.68867" lon="1.92712">
        <ele>156.2</ele>
        <time>2013-02-24T11:11:39Z</time>
      </trkpt>
      <trkpt lat="48.68872" lon="1.92706">
        <ele>155.8</ele>
        <time>2013-02-24T11:11:44Z</time>
      </trkpt>
      <trkpt lat="48.68875" lon="1.92699">
        <ele>155.6</ele>
        <time>2013-02-24T11:11:49Z</time>
      </trkpt>
      <trkpt lat="48.68878" lon="1.92689">
        <ele>154.6</ele>
        <time>2013-02-24T11:11:55Z</time>
      </trkpt>
      <trkpt lat="48.68877" lon="1.92686">
        <ele>154.4</ele>
        <time>2013-02-24T11:11:57Z</time>
      </trkpt>
      <trkpt lat="48.68874" lon="1.92673">
        <ele>153.6</ele>
        <time>2013-02-24T11:12:04Z</time>
      </trkpt>
      <trkpt lat="48.68873" lon="1.9267">
        <ele>153.6</ele>
        <time>2013-02-24T11:12:05Z</time>
      </trkpt>
      <trkpt lat="48.68872" lon="1.92662">
        <ele>153.4</ele>
        <time>2013-02-24T11:12:09Z</time>
      </trkpt>
      <trkpt lat="48.68874" lon="1.92656">
        <ele>153.2</ele>
        <time>2013-02-24T11:12:12Z</time>
      </trkpt>
      <trkpt lat="48.68877" lon="1.92642">
        <ele>153.2</ele>
        <time>2013-02-24T11:12:19Z</time>
      </trkpt>
      <trkpt lat="48.68878" lon="1.92641">
        <ele>153.2</ele>
        <time>2013-02-24T11:12:20Z</time>
      </trkpt>
      <trkpt lat="48.68882" lon="1.92633">
        <ele>153</ele>
        <time>2013-02-24T11:12:26Z</time>
      </trkpt>
      <trkpt lat="48.68887" lon="1.92633">
        <ele>153</ele>
        <time>2013-02-24T11:12:32Z</time>
      </trkpt>
      <trkpt lat="48.68892" lon="1.92636">
        <ele>153</ele>
        <time>2013-02-24T11:12:38Z</time>
      </trkpt>
      <trkpt lat="48.68896" lon="1.92638">
        <ele>153</ele>
        <time>2013-02-24T11:12:42Z</time>
      </trkpt>
      <trkpt lat="48.68903" lon="1.92638">
        <ele>153</ele>
        <time>2013-02-24T11:12:48Z</time>
      </trkpt>
      <trkpt lat="48.6891" lon="1.92637">
        <ele>153</ele>
        <time>2013-02-24T11:12:54Z</time>
      </trkpt>
      <trkpt lat="48.68913" lon="1.92638">
        <ele>153</ele>
        <time>2013-02-24T11:12:58Z</time>
      </trkpt>
      <trkpt lat="48.68919" lon="1.92639">
        <ele>153</ele>
        <time>2013-02-24T11:13:03Z</time>
      </trkpt>
      <trkpt lat="48.68926" lon="1.92639">
        <ele>153</ele>
        <time>2013-02-24T11:13:09Z</time>
      </trkpt>
      <trkpt lat="48.68928" lon="1.92639">
        <ele>153</ele>
        <time>2013-02-24T11:13:11Z</time>
      </trkpt>
      <trkpt lat="48.68931" lon="1.92637">
        <ele>153</ele>
        <time>2013-02-24T11:13:15Z</time>
      </trkpt>
      <trkpt lat="48.68935" lon="1.92635">
        <ele>153</ele>
        <time>2013-02-24T11:13:20Z</time>
      </trkpt>
      <trkpt lat="48.68936" lon="1.92635">
        <ele>153.2</ele>
        <time>2013-02-24T11:13:21Z</time>
      </trkpt>
      <trkpt lat="48.68937" lon="1.92633">
        <ele>153.6</ele>
        <time>2013-02-24T11:13:23Z</time>
      </trkpt>
      <trkpt lat="48.68941" lon="1.92625">
        <ele>154.8</ele>
        <time>2013-02-24T11:13:34Z</time>
      </trkpt>
      <trkpt lat="48.68942" lon="1.9262">
        <ele>155.8</ele>
        <time>2013-02-24T11:13:39Z</time>
      </trkpt>
      <trkpt lat="48.68942" lon="1.92614">
        <ele>156.4</ele>
        <time>2013-02-24T11:13:45Z</time>
      </trkpt>
      <trkpt lat="48.68946" lon="1.9261">
        <ele>158</ele>
        <time>2013-02-24T11:13:55Z</time>
      </trkpt>
      <trkpt lat="48.68948" lon="1.92608">
        <ele>158.6</ele>
        <time>2013-02-24T11:14:00Z</time>
      </trkpt>
      <trkpt lat="48.6895" lon="1.92604">
        <ele>158.8</ele>
        <time>2013-02-24T11:14:05Z</time>
      </trkpt>
      <trkpt lat="48.68953" lon="1.92596">
        <ele>160.2</ele>
        <time>2013-02-24T11:14:12Z</time>
      </trkpt>
      <trkpt lat="48.68955" lon="1.92586">
        <ele>160.8</ele>
        <time>2013-02-24T11:14:19Z</time>
      </trkpt>
      <trkpt lat="48.68955" lon="1.92576">
        <ele>161</ele>
        <time>2013-02-24T11:14:26Z</time>
      </trkpt>
      <trkpt lat="48.68954" lon="1.92568">
        <ele>161.8</ele>
        <time>2013-02-24T11:14:31Z</time>
      </trkpt>
      <trkpt lat="48.68953" lon="1.92565">
        <ele>162.2</ele>
        <time>2013-02-24T11:14:33Z</time>
      </trkpt>
      <trkpt lat="48.68947" lon="1.92556">
        <ele>162.8</ele>
        <time>2013-02-24T11:14:39Z</time>
      </trkpt>
      <trkpt lat="48.68943" lon="1.92546">
        <ele>163</ele>
        <time>2013-02-24T11:14:43Z</time>
      </trkpt>
      <trkpt lat="48.6894" lon="1.92513">
        <ele>163.4</ele>
        <time>2013-02-24T11:14:54Z</time>
      </trkpt>
      <trkpt lat="48.68946" lon="1.92504">
        <ele>163.4</ele>
        <time>2013-02-24T11:14:59Z</time>
      </trkpt>
      <trkpt lat="48.68949" lon="1.925">
        <ele>163.4</ele>
        <time>2013-02-24T11:15:02Z</time>
      </trkpt>
      <trkpt lat="48.68953" lon="1.92494">
        <ele>163.4</ele>
        <time>2013-02-24T11:15:09Z</time>
      </trkpt>
      <trkpt lat="48.68956" lon="1.92492">
        <ele>163.4</ele>
        <time>2013-02-24T11:15:11Z</time>
      </trkpt>
      <trkpt lat="48.68962" lon="1.92488">
        <ele>163.4</ele>
        <time>2013-02-24T11:15:16Z</time>
      </trkpt>
      <trkpt lat="48.68968" lon="1.92478">
        <ele>163.4</ele>
        <time>2013-02-24T11:15:22Z</time>
      </trkpt>
      <trkpt lat="48.68975" lon="1.92467">
        <ele>163.4</ele>
        <time>2013-02-24T11:15:28Z</time>
      </trkpt>
      <trkpt lat="48.68982" lon="1.92462">
        <ele>163.4</ele>
        <time>2013-02-24T11:15:32Z</time>
      </trkpt>
      <trkpt lat="48.68983" lon="1.9246">
        <ele>163.4</ele>
        <time>2013-02-24T11:15:33Z</time>
      </trkpt>
      <trkpt lat="48.68988" lon="1.92447">
        <ele>162.8</ele>
        <time>2013-02-24T11:15:38Z</time>
      </trkpt>
      <trkpt lat="48.68989" lon="1.92445">
        <ele>162.6</ele>
        <time>2013-02-24T11:15:39Z</time>
      </trkpt>
      <trkpt lat="48.6899" lon="1.92442">
        <ele>162.2</ele>
        <time>2013-02-24T11:15:42Z</time>
      </trkpt>
      <trkpt lat="48.68992" lon="1.92431">
        <ele>161.8</ele>
        <time>2013-02-24T11:15:48Z</time>
      </trkpt>
      <trkpt lat="48.68992" lon="1.92427">
        <ele>161.4</ele>
        <time>2013-02-24T11:15:50Z</time>
      </trkpt>
      <trkpt lat="48.68997" lon="1.92417">
        <ele>160.4</ele>
        <time>2013-02-24T11:15:56Z</time>
      </trkpt>
      <trkpt lat="48.69" lon="1.9241">
        <ele>158.8</ele>
        <time>2013-02-24T11:16:02Z</time>
      </trkpt>
      <trkpt lat="48.69005" lon="1.92399">
        <ele>157.4</ele>
        <time>2013-02-24T11:16:07Z</time>
      </trkpt>
      <trkpt lat="48.69006" lon="1.92391">
        <ele>156.6</ele>
        <time>2013-02-24T11:16:10Z</time>
      </trkpt>
      <trkpt lat="48.69008" lon="1.92367">
        <ele>155.8</ele>
        <time>2013-02-24T11:16:16Z</time>
      </trkpt>
      <trkpt lat="48.69012" lon="1.92354">
        <ele>155</ele>
        <time>2013-02-24T11:16:21Z</time>
      </trkpt>
      <trkpt lat="48.69013" lon="1.92354">
        <ele>154.8</ele>
        <time>2013-02-24T11:16:22Z</time>
      </trkpt>
      <trkpt lat="48.69018" lon="1.92345">
        <ele>153.8</ele>
        <time>2013-02-24T11:16:29Z</time>
      </trkpt>
      <trkpt lat="48.69019" lon="1.92337">
        <ele>153.4</ele>
        <time>2013-02-24T11:16:34Z</time>
      </trkpt>
      <trkpt lat="48.69017" lon="1.92328">
        <ele>153.2</ele>
        <time>2013-02-24T11:16:39Z</time>
      </trkpt>
      <trkpt lat="48.69018" lon="1.92325">
        <ele>153.2</ele>
        <time>2013-02-24T11:16:41Z</time>
      </trkpt>
      <trkpt lat="48.69019" lon="1.92322">
        <ele>153.2</ele>
        <time>2013-02-24T11:16:44Z</time>
      </trkpt>
      <trkpt lat="48.69019" lon="1.92316">
        <ele>153</ele>
        <time>2013-02-24T11:16:48Z</time>
      </trkpt>
      <trkpt lat="48.69021" lon="1.92293">
        <ele>153</ele>
        <time>2013-02-24T11:16:56Z</time>
      </trkpt>
      <trkpt lat="48.6902" lon="1.92285">
        <ele>153</ele>
        <time>2013-02-24T11:16:59Z</time>
      </trkpt>
      <trkpt lat="48.69022" lon="1.92268">
        <ele>153</ele>
        <time>2013-02-24T11:17:04Z</time>
      </trkpt>
      <trkpt lat="48.69023" lon="1.92265">
        <ele>153</ele>
        <time>2013-02-24T11:17:06Z</time>
      </trkpt>
      <trkpt lat="48.69026" lon="1.92261">
        <ele>153</ele>
        <time>2013-02-24T11:17:10Z</time>
      </trkpt>
      <trkpt lat="48.69027" lon="1.92259">
        <ele>153</ele>
        <time>2013-02-24T11:17:13Z</time>
      </trkpt>
      <trkpt lat="48.69032" lon="1.92257">
        <ele>153</ele>
        <time>2013-02-24T11:17:18Z</time>
      </trkpt>
      <trkpt lat="48.69034" lon="1.92256">
        <ele>153</ele>
        <time>2013-02-24T11:17:19Z</time>
      </trkpt>
      <trkpt lat="48.6904" lon="1.92253">
        <ele>153</ele>
        <time>2013-02-24T11:17:25Z</time>
      </trkpt>
      <trkpt lat="48.69042" lon="1.92248">
        <ele>153</ele>
        <time>2013-02-24T11:17:29Z</time>
      </trkpt>
      <trkpt lat="48.69045" lon="1.92245">
        <ele>153</ele>
        <time>2013-02-24T11:17:33Z</time>
      </trkpt>
      <trkpt lat="48.69052" lon="1.92239">
        <ele>153</ele>
        <time>2013-02-24T11:17:42Z</time>
      </trkpt>
      <trkpt lat="48.69054" lon="1.92238">
        <ele>153</ele>
        <time>2013-02-24T11:17:43Z</time>
      </trkpt>
      <trkpt lat="48.6906" lon="1.92233">
        <ele>153</ele>
        <time>2013-02-24T11:17:49Z</time>
      </trkpt>
      <trkpt lat="48.69061" lon="1.92232">
        <ele>153</ele>
        <time>2013-02-24T11:17:51Z</time>
      </trkpt>
      <trkpt lat="48.69063" lon="1.92229">
        <ele>153</ele>
        <time>2013-02-24T11:17:53Z</time>
      </trkpt>
      <trkpt lat="48.69069" lon="1.92224">
        <ele>153</ele>
        <time>2013-02-24T11:17:59Z</time>
      </trkpt>
      <trkpt lat="48.69071" lon="1.92217">
        <ele>153</ele>
        <time>2013-02-24T11:18:06Z</time>
      </trkpt>
      <trkpt lat="48.69072" lon="1.92211">
        <ele>153</ele>
        <time>2013-02-24T11:18:13Z</time>
      </trkpt>
      <trkpt lat="48.69073" lon="1.92205">
        <ele>153.2</ele>
        <time>2013-02-24T11:18:18Z</time>
      </trkpt>
      <trkpt lat="48.69074" lon="1.92198">
        <ele>153.8</ele>
        <time>2013-02-24T11:18:23Z</time>
      </trkpt>
      <trkpt lat="48.69074" lon="1.92197">
        <ele>154</ele>
        <time>2013-02-24T11:18:24Z</time>
      </trkpt>
      <trkpt lat="48.69076" lon="1.92187">
        <ele>154.6</ele>
        <time>2013-02-24T11:18:33Z</time>
      </trkpt>
      <trkpt lat="48.69077" lon="1.92186">
        <ele>154.6</ele>
        <time>2013-02-24T11:18:34Z</time>
      </trkpt>
      <trkpt lat="48.69078" lon="1.9218">
        <ele>154.8</ele>
        <time>2013-02-24T11:18:41Z</time>
      </trkpt>
      <trkpt lat="48.69079" lon="1.92176">
        <ele>154.8</ele>
        <time>2013-02-24T11:18:44Z</time>
      </trkpt>
      <trkpt lat="48.69081" lon="1.92169">
        <ele>154.8</ele>
        <time>2013-02-24T11:18:50Z</time>
      </trkpt>
      <trkpt lat="48.69081" lon="1.92168">
        <ele>155</ele>
        <time>2013-02-24T11:18:51Z</time>
      </trkpt>
      <trkpt lat="48.69082" lon="1.92166">
        <ele>155</ele>
        <time>2013-02-24T11:18:53Z</time>
      </trkpt>
      <trkpt lat="48.69086" lon="1.92159">
        <ele>155</ele>
        <time>2013-02-24T11:19:01Z</time>
      </trkpt>
      <trkpt lat="48.69087" lon="1.92155">
        <ele>155.4</ele>
        <time>2013-02-24T11:19:06Z</time>
      </trkpt>
      <trkpt lat="48.69089" lon="1.92149">
        <ele>156</ele>
        <time>2013-02-24T11:19:11Z</time>
      </trkpt>
      <trkpt lat="48.6909" lon="1.92139">
        <ele>156.4</ele>
        <time>2013-02-24T11:19:16Z</time>
      </trkpt>
      <trkpt lat="48.69088" lon="1.92134">
        <ele>156.6</ele>
        <time>2013-02-24T11:19:19Z</time>
      </trkpt>
      <trkpt lat="48.6909" lon="1.92123">
        <ele>156.8</ele>
        <time>2013-02-24T11:19:25Z</time>
      </trkpt>
      <trkpt lat="48.69091" lon="1.92119">
        <ele>156.8</ele>
        <time>2013-02-24T11:19:27Z</time>
      </trkpt>
      <trkpt lat="48.69091" lon="1.92112">
        <ele>156.8</ele>
        <time>2013-02-24T11:19:30Z</time>
      </trkpt>
      <trkpt lat="48.69087" lon="1.92099">
        <ele>157</ele>
        <time>2013-02-24T11:19:36Z</time>
      </trkpt>
      <trkpt lat="48.69087" lon="1.92094">
        <ele>157</ele>
        <time>2013-02-24T11:19:39Z</time>
      </trkpt>
      <trkpt lat="48.69084" lon="1.92081">
        <ele>157</ele>
        <time>2013-02-24T11:19:44Z</time>
      </trkpt>
      <trkpt lat="48.69083" lon="1.92069">
        <ele>157</ele>
        <time>2013-02-24T11:19:48Z</time>
      </trkpt>
      <trkpt lat="48.69087" lon="1.92059">
        <ele>157</ele>
        <time>2013-02-24T11:19:52Z</time>
      </trkpt>
      <trkpt lat="48.69089" lon="1.92054">
        <ele>157</ele>
        <time>2013-02-24T11:19:54Z</time>
      </trkpt>
      <trkpt lat="48.69092" lon="1.92051">
        <ele>157</ele>
        <time>2013-02-24T11:19:56Z</time>
      </trkpt>
      <trkpt lat="48.69093" lon="1.92049">
        <ele>157</ele>
        <time>2013-02-24T11:19:57Z</time>
      </trkpt>
      <trkpt lat="48.69099" lon="1.92039">
        <ele>157</ele>
        <time>2013-02-24T11:20:03Z</time>
      </trkpt>
      <trkpt lat="48.69103" lon="1.92025">
        <ele>157</ele>
        <time>2013-02-24T11:20:08Z</time>
      </trkpt>
      <trkpt lat="48.69104" lon="1.92022">
        <ele>157</ele>
        <time>2013-02-24T11:20:09Z</time>
      </trkpt>
      <trkpt lat="48.69105" lon="1.9202">
        <ele>157</ele>
        <time>2013-02-24T11:20:10Z</time>
      </trkpt>
      <trkpt lat="48.69107" lon="1.92011">
        <ele>157</ele>
        <time>2013-02-24T11:20:14Z</time>
      </trkpt>
      <trkpt lat="48.69101" lon="1.92001">
        <ele>157</ele>
        <time>2013-02-24T11:20:20Z</time>
      </trkpt>
      <trkpt lat="48.69092" lon="1.91995">
        <ele>157</ele>
        <time>2013-02-24T11:20:24Z</time>
      </trkpt>
      <trkpt lat="48.6909" lon="1.91989">
        <ele>157</ele>
        <time>2013-02-24T11:20:26Z</time>
      </trkpt>
      <trkpt lat="48.69091" lon="1.91984">
        <ele>156.8</ele>
        <time>2013-02-24T11:20:28Z</time>
      </trkpt>
      <trkpt lat="48.69092" lon="1.91979">
        <ele>156.2</ele>
        <time>2013-02-24T11:20:31Z</time>
      </trkpt>
      <trkpt lat="48.69099" lon="1.91969">
        <ele>155.6</ele>
        <time>2013-02-24T11:20:38Z</time>
      </trkpt>
      <trkpt lat="48.69102" lon="1.91961">
        <ele>155.4</ele>
        <time>2013-02-24T11:20:42Z</time>
      </trkpt>
      <trkpt lat="48.69108" lon="1.91953">
        <ele>155.2</ele>
        <time>2013-02-24T11:20:46Z</time>
      </trkpt>
      <trkpt lat="48.69109" lon="1.91952">
        <ele>155.2</ele>
        <time>2013-02-24T11:20:47Z</time>
      </trkpt>
      <trkpt lat="48.69117" lon="1.91942">
        <ele>155</ele>
        <time>2013-02-24T11:20:52Z</time>
      </trkpt>
      <trkpt lat="48.69121" lon="1.91939">
        <ele>154.8</ele>
        <time>2013-02-24T11:20:56Z</time>
      </trkpt>
      <trkpt lat="48.69127" lon="1.9194">
        <ele>153.8</ele>
        <time>2013-02-24T11:21:02Z</time>
      </trkpt>
      <trkpt lat="48.69128" lon="1.9194">
        <ele>153.8</ele>
        <time>2013-02-24T11:21:03Z</time>
      </trkpt>
      <trkpt lat="48.69131" lon="1.9194">
        <ele>153.4</ele>
        <time>2013-02-24T11:21:07Z</time>
      </trkpt>
      <trkpt lat="48.69137" lon="1.91941">
        <ele>153.2</ele>
        <time>2013-02-24T11:21:13Z</time>
      </trkpt>
      <trkpt lat="48.69147" lon="1.91938">
        <ele>153</ele>
        <time>2013-02-24T11:21:20Z</time>
      </trkpt>
      <trkpt lat="48.69157" lon="1.91939">
        <ele>153</ele>
        <time>2013-02-24T11:21:27Z</time>
      </trkpt>
      <trkpt lat="48.69158" lon="1.91939">
        <ele>153</ele>
        <time>2013-02-24T11:21:28Z</time>
      </trkpt>
      <trkpt lat="48.69162" lon="1.91941">
        <ele>153</ele>
        <time>2013-02-24T11:21:33Z</time>
      </trkpt>
      <trkpt lat="48.69169" lon="1.91939">
        <ele>152.8</ele>
        <time>2013-02-24T11:21:36Z</time>
      </trkpt>
      <trkpt lat="48.69171" lon="1.91931">
        <ele>152.8</ele>
        <time>2013-02-24T11:21:41Z</time>
      </trkpt>
      <trkpt lat="48.69171" lon="1.91924">
        <ele>152.8</ele>
        <time>2013-02-24T11:21:45Z</time>
      </trkpt>
      <trkpt lat="48.6917" lon="1.91912">
        <ele>152.8</ele>
        <time>2013-02-24T11:21:51Z</time>
      </trkpt>
      <trkpt lat="48.69171" lon="1.91906">
        <ele>152.8</ele>
        <time>2013-02-24T11:21:54Z</time>
      </trkpt>
      <trkpt lat="48.69172" lon="1.91902">
        <ele>152.8</ele>
        <time>2013-02-24T11:21:56Z</time>
      </trkpt>
      <trkpt lat="48.69174" lon="1.91889">
        <ele>152.8</ele>
        <time>2013-02-24T11:22:01Z</time>
      </trkpt>
      <trkpt lat="48.69175" lon="1.91882">
        <ele>152.8</ele>
        <time>2013-02-24T11:22:03Z</time>
      </trkpt>
      <trkpt lat="48.69176" lon="1.91876">
        <ele>152.8</ele>
        <time>2013-02-24T11:22:05Z</time>
      </trkpt>
      <trkpt lat="48.69182" lon="1.91866">
        <ele>152.8</ele>
        <time>2013-02-24T11:22:09Z</time>
      </trkpt>
      <trkpt lat="48.69184" lon="1.91857">
        <ele>152.8</ele>
        <time>2013-02-24T11:22:12Z</time>
      </trkpt>
      <trkpt lat="48.69186" lon="1.91852">
        <ele>152.8</ele>
        <time>2013-02-24T11:22:14Z</time>
      </trkpt>
      <trkpt lat="48.69193" lon="1.91838">
        <ele>152.8</ele>
        <time>2013-02-24T11:22:20Z</time>
      </trkpt>
      <trkpt lat="48.69199" lon="1.91829">
        <ele>152.8</ele>
        <time>2013-02-24T11:22:25Z</time>
      </trkpt>
      <trkpt lat="48.69201" lon="1.91826">
        <ele>152.8</ele>
        <time>2013-02-24T11:22:27Z</time>
      </trkpt>
      <trkpt lat="48.69206" lon="1.91821">
        <ele>152.8</ele>
        <time>2013-02-24T11:22:32Z</time>
      </trkpt>
      <trkpt lat="48.69213" lon="1.91814">
        <ele>152.8</ele>
        <time>2013-02-24T11:22:38Z</time>
      </trkpt>
      <trkpt lat="48.69214" lon="1.91813">
        <ele>152.8</ele>
        <time>2013-02-24T11:22:39Z</time>
      </trkpt>
      <trkpt lat="48.69223" lon="1.9181">
        <ele>152.8</ele>
        <time>2013-02-24T11:22:47Z</time>
      </trkpt>
      <trkpt lat="48.69229" lon="1.91804">
        <ele>153.2</ele>
        <time>2013-02-24T11:22:54Z</time>
      </trkpt>
      <trkpt lat="48.69234" lon="1.91798">
        <ele>154</ele>
        <time>2013-02-24T11:23:00Z</time>
      </trkpt>
      <trkpt lat="48.69237" lon="1.91793">
        <ele>154.4</ele>
        <time>2013-02-24T11:23:04Z</time>
      </trkpt>
      <trkpt lat="48.69243" lon="1.91781">
        <ele>154.6</ele>
        <time>2013-02-24T11:23:12Z</time>
      </trkpt>
      <trkpt lat="48.69243" lon="1.9178">
        <ele>154.6</ele>
        <time>2013-02-24T11:23:13Z</time>
      </trkpt>
      <trkpt lat="48.69244" lon="1.91766">
        <ele>154.8</ele>
        <time>2013-02-24T11:23:20Z</time>
      </trkpt>
      <trkpt lat="48.69246" lon="1.91747">
        <ele>154.8</ele>
        <time>2013-02-24T11:23:26Z</time>
      </trkpt>
      <trkpt lat="48.69248" lon="1.91737">
        <ele>154.8</ele>
        <time>2013-02-24T11:23:29Z</time>
      </trkpt>
      <trkpt lat="48.69249" lon="1.91725">
        <ele>154.8</ele>
        <time>2013-02-24T11:23:32Z</time>
      </trkpt>
      <trkpt lat="48.6925" lon="1.91707">
        <ele>154.8</ele>
        <time>2013-02-24T11:23:37Z</time>
      </trkpt>
      <trkpt lat="48.69251" lon="1.91703">
        <ele>154.8</ele>
        <time>2013-02-24T11:23:38Z</time>
      </trkpt>
      <trkpt lat="48.69261" lon="1.91692">
        <ele>154.8</ele>
        <time>2013-02-24T11:23:44Z</time>
      </trkpt>
      <trkpt lat="48.69263" lon="1.91692">
        <ele>154.8</ele>
        <time>2013-02-24T11:23:46Z</time>
      </trkpt>
      <trkpt lat="48.69268" lon="1.9169">
        <ele>154.8</ele>
        <time>2013-02-24T11:23:50Z</time>
      </trkpt>
      <trkpt lat="48.69273" lon="1.91688">
        <ele>154.8</ele>
        <time>2013-02-24T11:23:55Z</time>
      </trkpt>
      <trkpt lat="48.69276" lon="1.91687">
        <ele>154.8</ele>
        <time>2013-02-24T11:23:57Z</time>
      </trkpt>
      <trkpt lat="48.69285" lon="1.91682">
        <ele>154.8</ele>
        <time>2013-02-24T11:24:05Z</time>
      </trkpt>
      <trkpt lat="48.6929" lon="1.91676">
        <ele>154.8</ele>
        <time>2013-02-24T11:24:09Z</time>
      </trkpt>
      <trkpt lat="48.69293" lon="1.91672">
        <ele>154.8</ele>
        <time>2013-02-24T11:24:11Z</time>
      </trkpt>
      <trkpt lat="48.69294" lon="1.91665">
        <ele>154.8</ele>
        <time>2013-02-24T11:24:15Z</time>
      </trkpt>
      <trkpt lat="48.69298" lon="1.9166">
        <ele>154.8</ele>
        <time>2013-02-24T11:24:19Z</time>
      </trkpt>
      <trkpt lat="48.69302" lon="1.91656">
        <ele>154.8</ele>
        <time>2013-02-24T11:24:23Z</time>
      </trkpt>
      <trkpt lat="48.69307" lon="1.9165">
        <ele>154.8</ele>
        <time>2013-02-24T11:24:28Z</time>
      </trkpt>
      <trkpt lat="48.69312" lon="1.91645">
        <ele>154.8</ele>
        <time>2013-02-24T11:24:34Z</time>
      </trkpt>
      <trkpt lat="48.69317" lon="1.91644">
        <ele>154.8</ele>
        <time>2013-02-24T11:24:39Z</time>
      </trkpt>
      <trkpt lat="48.69318" lon="1.91644">
        <ele>154.8</ele>
        <time>2013-02-24T11:24:40Z</time>
      </trkpt>
      <trkpt lat="48.69323" lon="1.91643">
        <ele>154.8</ele>
        <time>2013-02-24T11:24:45Z</time>
      </trkpt>
      <trkpt lat="48.69326" lon="1.91639">
        <ele>154.8</ele>
        <time>2013-02-24T11:24:47Z</time>
      </trkpt>
      <trkpt lat="48.69327" lon="1.9163">
        <ele>154.8</ele>
        <time>2013-02-24T11:24:51Z</time>
      </trkpt>
      <trkpt lat="48.69328" lon="1.9162">
        <ele>154.8</ele>
        <time>2013-02-24T11:24:58Z</time>
      </trkpt>
      <trkpt lat="48.69328" lon="1.91617">
        <ele>154.8</ele>
        <time>2013-02-24T11:25:00Z</time>
      </trkpt>
      <trkpt lat="48.69329" lon="1.91615">
        <ele>154.8</ele>
        <time>2013-02-24T11:25:02Z</time>
      </trkpt>
      <trkpt lat="48.69331" lon="1.91602">
        <ele>154.8</ele>
        <time>2013-02-24T11:25:06Z</time>
      </trkpt>
      <trkpt lat="48.69333" lon="1.91591">
        <ele>154.8</ele>
        <time>2013-02-24T11:25:12Z</time>
      </trkpt>
      <trkpt lat="48.69335" lon="1.91588">
        <ele>154.8</ele>
        <time>2013-02-24T11:25:15Z</time>
      </trkpt>
      <trkpt lat="48.69336" lon="1.91581">
        <ele>154.8</ele>
        <time>2013-02-24T11:25:20Z</time>
      </trkpt>
      <trkpt lat="48.69337" lon="1.91577">
        <ele>154.8</ele>
        <time>2013-02-24T11:25:22Z</time>
      </trkpt>
      <trkpt lat="48.69343" lon="1.9157">
        <ele>154.8</ele>
        <time>2013-02-24T11:25:25Z</time>
      </trkpt>
      <trkpt lat="48.69348" lon="1.91563">
        <ele>154.6</ele>
        <time>2013-02-24T11:25:28Z</time>
      </trkpt>
      <trkpt lat="48.6935" lon="1.91548">
        <ele>153.8</ele>
        <time>2013-02-24T11:25:34Z</time>
      </trkpt>
      <trkpt lat="48.69351" lon="1.91539">
        <ele>152.8</ele>
        <time>2013-02-24T11:25:39Z</time>
      </trkpt>
      <trkpt lat="48.69352" lon="1.91535">
        <ele>152.4</ele>
        <time>2013-02-24T11:25:41Z</time>
      </trkpt>
      <trkpt lat="48.69352" lon="1.91523">
        <ele>150.8</ele>
        <time>2013-02-24T11:25:48Z</time>
      </trkpt>
      <trkpt lat="48.69352" lon="1.91521">
        <ele>150.6</ele>
        <time>2013-02-24T11:25:49Z</time>
      </trkpt>
      <trkpt lat="48.69358" lon="1.91514">
        <ele>149.8</ele>
        <time>2013-02-24T11:25:54Z</time>
      </trkpt>
      <trkpt lat="48.6936" lon="1.91512">
        <ele>149.4</ele>
        <time>2013-02-24T11:25:55Z</time>
      </trkpt>
      <trkpt lat="48.69362" lon="1.91507">
        <ele>148.8</ele>
        <time>2013-02-24T11:25:58Z</time>
      </trkpt>
      <trkpt lat="48.69359" lon="1.91495">
        <ele>148</ele>
        <time>2013-02-24T11:26:01Z</time>
      </trkpt>
      <trkpt lat="48.69358" lon="1.91492">
        <ele>147.8</ele>
        <time>2013-02-24T11:26:02Z</time>
      </trkpt>
      <trkpt lat="48.69352" lon="1.91476">
        <ele>147.2</ele>
        <time>2013-02-24T11:26:07Z</time>
      </trkpt>
      <trkpt lat="48.69346" lon="1.9146">
        <ele>146.8</ele>
        <time>2013-02-24T11:26:13Z</time>
      </trkpt>
      <trkpt lat="48.69345" lon="1.91457">
        <ele>146.8</ele>
        <time>2013-02-24T11:26:14Z</time>
      </trkpt>
      <trkpt lat="48.69341" lon="1.91442">
        <ele>145.8</ele>
        <time>2013-02-24T11:26:19Z</time>
      </trkpt>
      <trkpt lat="48.69333" lon="1.91425">
        <ele>145</ele>
        <time>2013-02-24T11:26:25Z</time>
      </trkpt>
      <trkpt lat="48.69332" lon="1.91421">
        <ele>145</ele>
        <time>2013-02-24T11:26:26Z</time>
      </trkpt>
      <trkpt lat="48.69325" lon="1.91406">
        <ele>144.8</ele>
        <time>2013-02-24T11:26:31Z</time>
      </trkpt>
      <trkpt lat="48.69319" lon="1.91399">
        <ele>144.6</ele>
        <time>2013-02-24T11:26:34Z</time>
      </trkpt>
      <trkpt lat="48.69316" lon="1.91394">
        <ele>144.6</ele>
        <time>2013-02-24T11:26:36Z</time>
      </trkpt>
      <trkpt lat="48.69314" lon="1.91384">
        <ele>144.4</ele>
        <time>2013-02-24T11:26:40Z</time>
      </trkpt>
      <trkpt lat="48.69313" lon="1.91381">
        <ele>144.4</ele>
        <time>2013-02-24T11:26:41Z</time>
      </trkpt>
      <trkpt lat="48.69308" lon="1.91371">
        <ele>144.4</ele>
        <time>2013-02-24T11:26:45Z</time>
      </trkpt>
      <trkpt lat="48.69299" lon="1.91353">
        <ele>144.4</ele>
        <time>2013-02-24T11:26:52Z</time>
      </trkpt>
      <trkpt lat="48.69296" lon="1.91348">
        <ele>144.4</ele>
        <time>2013-02-24T11:26:54Z</time>
      </trkpt>
      <trkpt lat="48.6929" lon="1.91334">
        <ele>144.4</ele>
        <time>2013-02-24T11:26:59Z</time>
      </trkpt>
      <trkpt lat="48.69287" lon="1.91324">
        <ele>144.4</ele>
        <time>2013-02-24T11:27:03Z</time>
      </trkpt>
      <trkpt lat="48.69286" lon="1.91321">
        <ele>144.4</ele>
        <time>2013-02-24T11:27:04Z</time>
      </trkpt>
      <trkpt lat="48.69285" lon="1.91319">
        <ele>144.4</ele>
        <time>2013-02-24T11:27:05Z</time>
      </trkpt>
      <trkpt lat="48.6928" lon="1.91304">
        <ele>144.4</ele>
        <time>2013-02-24T11:27:11Z</time>
      </trkpt>
      <trkpt lat="48.69277" lon="1.91296">
        <ele>144.4</ele>
        <time>2013-02-24T11:27:15Z</time>
      </trkpt>
      <trkpt lat="48.69273" lon="1.91283">
        <ele>144.4</ele>
        <time>2013-02-24T11:27:19Z</time>
      </trkpt>
      <trkpt lat="48.69269" lon="1.91275">
        <ele>144.4</ele>
        <time>2013-02-24T11:27:22Z</time>
      </trkpt>
      <trkpt lat="48.6926" lon="1.91255">
        <ele>145.2</ele>
        <time>2013-02-24T11:27:28Z</time>
      </trkpt>
      <trkpt lat="48.69251" lon="1.91242">
        <ele>145.6</ele>
        <time>2013-02-24T11:27:33Z</time>
      </trkpt>
      <trkpt lat="48.6925" lon="1.91239">
        <ele>145.8</ele>
        <time>2013-02-24T11:27:34Z</time>
      </trkpt>
      <trkpt lat="48.69248" lon="1.91231">
        <ele>145.8</ele>
        <time>2013-02-24T11:27:37Z</time>
      </trkpt>
      <trkpt lat="48.69248" lon="1.91226">
        <ele>146</ele>
        <time>2013-02-24T11:27:39Z</time>
      </trkpt>
      <trkpt lat="48.69243" lon="1.91214">
        <ele>146.2</ele>
        <time>2013-02-24T11:27:43Z</time>
      </trkpt>
      <trkpt lat="48.69233" lon="1.91197">
        <ele>146.2</ele>
        <time>2013-02-24T11:27:49Z</time>
      </trkpt>
      <trkpt lat="48.69229" lon="1.91191">
        <ele>146.2</ele>
        <time>2013-02-24T11:27:51Z</time>
      </trkpt>
      <trkpt lat="48.69221" lon="1.91175">
        <ele>146.4</ele>
        <time>2013-02-24T11:27:56Z</time>
      </trkpt>
      <trkpt lat="48.69213" lon="1.91158">
        <ele>146.4</ele>
        <time>2013-02-24T11:28:01Z</time>
      </trkpt>
      <trkpt lat="48.69211" lon="1.91155">
        <ele>146.4</ele>
        <time>2013-02-24T11:28:02Z</time>
      </trkpt>
      <trkpt lat="48.69205" lon="1.91142">
        <ele>146.4</ele>
        <time>2013-02-24T11:28:06Z</time>
      </trkpt>
      <trkpt lat="48.69197" lon="1.91121">
        <ele>146.4</ele>
        <time>2013-02-24T11:28:13Z</time>
      </trkpt>
      <trkpt lat="48.69196" lon="1.91105">
        <ele>146.4</ele>
        <time>2013-02-24T11:28:18Z</time>
      </trkpt>
      <trkpt lat="48.69192" lon="1.91093">
        <ele>146.4</ele>
        <time>2013-02-24T11:28:22Z</time>
      </trkpt>
      <trkpt lat="48.69191" lon="1.9109">
        <ele>146.4</ele>
        <time>2013-02-24T11:28:23Z</time>
      </trkpt>
      <trkpt lat="48.69189" lon="1.91075">
        <ele>146.4</ele>
        <time>2013-02-24T11:28:27Z</time>
      </trkpt>
      <trkpt lat="48.69194" lon="1.91064">
        <ele>146.4</ele>
        <time>2013-02-24T11:28:31Z</time>
      </trkpt>
      <trkpt lat="48.69195" lon="1.9106">
        <ele>146.4</ele>
        <time>2013-02-24T11:28:32Z</time>
      </trkpt>
      <trkpt lat="48.69204" lon="1.91041">
        <ele>146.4</ele>
        <time>2013-02-24T11:28:37Z</time>
      </trkpt>
      <trkpt lat="48.69211" lon="1.91029">
        <ele>146.4</ele>
        <time>2013-02-24T11:28:43Z</time>
      </trkpt>
    </trkseg>
  </trk>
</gpx>